small town logo
Town Complex
St. John Police Department - "Serving with Pride and Integrity"
Top

Traffic Stop Information for 2014

Download as CSV
Date Time Address Unit Latitude Longitude Disposition
12/31/2014 7:10 am 10400 WHITE OAK AV SJ24 41.430566 -87.489301
12/31/2014 6:44 am W 101ST AV & WHITE OAK AV SJ24 41.435563 -87.489287
12/31/2014 12:33 am W 107TH AV & MANOR DR SJ365 41.425201 -87.487132
12/31/2014 12:18 am 108TH LN & NORTHCOTE DR SJ365 41.421443 -87.484540
12/30/2014 11:43 pm 8575 WICKER AV; SPEEDWAY SJ365 41.461959 -87.470344
12/30/2014 11:08 pm W 97TH LN & NORTHCOTE AV SJ21 41.442530 -87.481272
12/30/2014 7:01 pm 9300 KEILMAN ST SJ21 41.449981 -87.472491
12/30/2014 6:50 pm 10400 BULL RUN DR SJ17 41.430155 -87.474348
12/30/2014 3:44 pm W 101ST AV & CLINE AV SJ19 41.436724 -87.431153
12/30/2014 3:01 pm BLUE 82 SJ9
12/30/2014 11:37 am 9500 WICKER AV; DQ SJ9 41.445991 -87.470111
12/29/2014 10:31 pm 9700 WICKER AV SJ14 41.443089 -87.470050
12/29/2014 10:12 pm 8600 WICKER AV SJ365 41.461624 -87.470339
12/29/2014 9:34 pm W 109TH AV & WICKER AV SJ365 41.421149 -87.470100
12/29/2014 1:08 am 8575 WICKER AV; SPEEDWAY SJ22 41.461959 -87.470344
12/28/2014 3:52 pm W 101ST AV & WHITE OAK AV SJ343 41.435563 -87.489287
12/28/2014 3:30 pm SCHOOL ST & WICKER AV SJ343 41.447742 -87.470138
12/28/2014 3:03 pm W 85TH AV & PATTERSON ST SJ343 41.464506 -87.481488
12/28/2014 3:35 am 10500 WICKER AV SJ22 41.428395 -87.470062
12/27/2014 11:48 pm 8400 WICKER AV SJ22 41.464281 -87.470364 CIT
12/27/2014 11:42 pm 7967 WICKER AV; STANS AUTO BODY SJ22 41.472678 -87.470399 VW
12/27/2014 10:38 pm 9623 WICKER AV; RASCALS SJ22 41.443768 -87.470065
12/27/2014 10:12 pm SUBWAY; 109 SJ22 VW
12/27/2014 9:55 am 11033 W 93RD AV SJ24 41.449958 -87.469145
12/27/2014 9:06 am 11033 W 93RD AV SJ24 41.449958 -87.469145
12/27/2014 8:55 am 11033 W 93RD AV SJ24 41.449958 -87.469145
12/27/2014 1:44 am 9285 WICKER AV; JJS PETRO SJ22 41.450826 -87.470183 VW
12/27/2014 12:54 am 8400 WICKER AV SJ22 41.464281 -87.470364 VW
12/26/2014 11:41 pm W 109TH AV & SCHNEIDER PL SJ22 41.421141 -87.468343 VW
12/26/2014 11:01 pm 10630 WICKER AV; SHRINE OF CHRISTS PASSI SJ22 41.426185 -87.470075 VW
12/26/2014 10:13 pm E SCHNEIDER CT & W 109TH AV SJ22 41.421136 -87.467561 WW
12/26/2014 5:04 pm W 93RD AV & BLAINE ST SJ22 41.449720 -87.426537
12/26/2014 11:17 am 9285 WICKER AV; JJS PETRO SJ7 41.450826 -87.470183
12/26/2014 9:49 am 8915 W 93RD AV; CLARK MIDDLE SCHOOL SJ24 41.449796 -87.443725
12/26/2014 9:08 am W 93RD AV & WICKER AV SJ18 41.449967 -87.470171
12/25/2014 1:34 pm 8500 WICKER AV SJ19 41.462715 -87.470350
12/25/2014 12:56 pm 9200 WICKER AV SJ19 41.453592 -87.470222
12/24/2014 7:32 pm W 109TH AV & PARRISH AV; RT231 SJ4 41.421037 -87.450588
12/24/2014 12:20 am 8500 WICKER AV SJ24 41.462715 -87.470350
12/23/2014 2:01 pm PD LOT SJ22
12/22/2014 8:12 pm 8575 WICKER AV; SPEEDWAY SJ24 41.461959 -87.470344
12/22/2014 2:27 am 9400 WICKER AV SJ9 41.447998 -87.470142
12/22/2014 2:08 am W 93RD AV & WICKER AV SJ9 41.449967 -87.470171
12/22/2014 12:24 am 9100 WICKER AV SJ17 41.454931 -87.470241
12/21/2014 11:55 pm 10255 WICKER AV; ALSIP HOME NURSERY SJ17 41.432984 -87.470025
12/21/2014 4:02 pm 9900 WICKER AV SJ343 41.439393 -87.470004
12/21/2014 3:44 pm 2338 US 41; CVS PHARMACY SJ343 41.483276 -87.470604
12/21/2014 3:10 pm 10255 WICKER AV; ALSIP HOME NURSERY SJ343 41.432984 -87.470025
12/21/2014 12:20 pm 8801 WICKER AV; KOLLING ELEMENTARY SJ343 41.458933 -87.470299
12/21/2014 9:56 am 9280 WICKER AV; WALGREENS #4276 SJ343 41.451133 -87.470187
12/21/2014 3:40 am 8575 WICKER AV SJ9 41.461959 -87.470344
12/21/2014 3:03 am 8500 WICKER AV SJ17 41.462715 -87.470350
12/21/2014 2:38 am 7966 WICKER AV; DUNHILL FORMAL WEAR INC SJ17 41.473061 -87.470402
12/21/2014 2:33 am 93RD AV; WICKER AV SJ9 41.450131 -87.507993
12/21/2014 2:09 am 8900 WICKER AV SJ9 41.457608 -87.470280
12/20/2014 9:22 am W 93RD PL & CALUMET AV SJ14 41.449399 -87.507845
12/20/2014 1:32 am JOLIET ST; 9400 BLK SJ360 41.446940 -87.468764
12/20/2014 12:58 am 9500 WICKER AV SJ17 41.445991 -87.470111
12/20/2014 12:50 am 9600 WICKER AV SJ9 41.443973 -87.470069
12/20/2014 12:43 am 9700 WICKER AV SJ17 41.443089 -87.470050
12/20/2014 12:42 am 9600 WICKER AV SJ9 41.443973 -87.470069
12/19/2014 8:11 pm 9600 WHITE OAK AV SJ23 41.444525 -87.489400
12/19/2014 8:08 pm W 109TH AV & WICKER AV SJ9 41.421149 -87.470100
12/19/2014 7:27 pm 10600 WICKER AV SJ9 41.427299 -87.470069
12/19/2014 7:18 pm 9280 WICKER AV; WALGREENS #4276 SJ9 41.451133 -87.470187
12/19/2014 6:48 pm 9600 BLAINE ST SJ17 41.444416 -87.426456
12/19/2014 6:39 pm 10700 CLINE AV SJ17 41.424868 -87.431179
12/19/2014 1:28 pm W 101ST AV & CLINE AV SJ23 41.436724 -87.431153
12/19/2014 7:47 am W 109TH AV & OLCOTT AV SJ23 41.421214 -87.481530
12/18/2014 10:27 pm South of 231 on wicker SJ24
12/18/2014 7:29 pm 9500 WICKER AV SJ17 41.445991 -87.470111
12/18/2014 7:12 pm 8575 WICKER AV; SPEEDWAY SJ17 41.461959 -87.470344
12/18/2014 6:50 pm 10100 WICKER AV SJ17 41.436091 -87.469997
12/18/2014 6:31 pm 9200 WICKER AV SJ17 41.453592 -87.470222
12/18/2014 5:41 pm WALL ST & WICKER AV SJ17 41.453043 -87.470213
12/18/2014 5:28 pm 8400 WICKER AV SJ17 41.464281 -87.470364
12/18/2014 5:07 pm WALL ST & PATTERSON ST SJ17 41.452823 -87.472087
12/18/2014 4:59 pm 9270 WICKER AV; QUIZNOS SUB SUITE C SJ17 41.451746 -87.470195
12/18/2014 4:39 pm 9270 WICKER AV; QUIZNOS SUB SUITE C SJ17 41.451746 -87.470195
12/18/2014 4:28 pm WALL ST & WICKER AV SJ17 41.453043 -87.470213
12/18/2014 4:18 pm 9270 WICKER AV; QUIZNOS SUB SUITE C SJ17 41.451746 -87.470195
12/18/2014 4:04 pm 9141 WICKER AV; ASPEN CAFE SJ17 41.454382 -87.470233
12/18/2014 3:10 am 8300 WICKER AV SJ22 41.466787 -87.470378
12/18/2014 2:58 am W 93RD AV & HENRY ST SJ22 41.450119 -87.512337
12/18/2014 12:46 am 10100 WICKER AV SJ22 41.436091 -87.469997
12/18/2014 12:33 am 8300 WICKER AV SJ22 41.466787 -87.470378
12/18/2014 12:17 am 8400 WICKER AV SJ24 41.464281 -87.470364
12/17/2014 11:20 pm 9155 WICKER AV SJ22 41.454195 -87.470230
12/17/2014 11:16 pm WICKER AV; 11000 BLK SJ24 41.337327 -87.469614
12/17/2014 11:06 pm 10800 WICKER AV SJ22 41.422959 -87.470092
12/16/2014 6:33 pm W 106TH LN & WICKER AV SJ4 41.425479 -87.470079 VW
12/16/2014 9:14 am 9200 PATTERSON ST SJ14 41.452344 -87.471852
12/15/2014 12:20 am 8200 WICKER AV SJ24 41.469318 -87.470392
12/14/2014 7:10 pm WICKER AV & VENTURA DR SJ365 41.464281 -87.470364
12/14/2014 6:39 pm 8575 WICKER AV; SPEEDWAY SJ365 41.461959 -87.470344
12/14/2014 11:16 am VENTURA DR & WICKER AV SJ22 41.464281 -87.470364
12/14/2014 7:37 am 8200 WICKER AV SJ22 41.469318 -87.470392
12/14/2014 12:11 am W 77TH AV & WICKER AV SJ24 41.478956 -87.470527
12/14/2014 12:07 am 9321 WICKER AV; STANDARD BANK AND TRUST SJ18 41.449554 -87.470165
12/13/2014 10:49 pm 8400 WICKER AV SJ19 41.464281 -87.470364 WW
12/13/2014 10:45 pm W 97TH LN & KEILMAN ST SJ18 41.441070 -87.472398
12/13/2014 10:17 pm 10100 WICKER AV SJ19 41.436091 -87.469997 CIT
12/13/2014 10:06 pm 8400 WICKER AV SJ19 41.464281 -87.470364 WW
12/13/2014 9:45 pm 8801 WICKER AV; KOLLING ELEMENTARY SJ19 41.458933 -87.470299 CIT
12/13/2014 8:31 pm W 85TH AV & LAKE HILLS DR SJ24 41.464322 -87.455889
12/13/2014 8:24 pm W 109TH AV & MANOR DR SJ19 41.421247 -87.487135 CIT
12/13/2014 8:07 pm 10100 WHITE OAK AV SJ19 41.435704 -87.489289 CIT
12/13/2014 7:28 pm PD SJ19
12/13/2014 6:50 pm 8400 WICKER AV SJ19 41.464281 -87.470364 CIT
12/13/2014 6:21 pm PD SJ19 CIT
12/13/2014 2:59 pm 8700 WICKER AV SJ22 41.460285 -87.470319 CIT
12/13/2014 10:34 am W 109TH AV & WICKER AV SJ22 41.421149 -87.470100
12/13/2014 8:01 am 9600 WICKER AV SJ22 41.443973 -87.470069
12/12/2014 9:30 pm 9500 WICKER AV SJ360 41.445991 -87.470111
12/12/2014 8:00 pm 10600 WHITE OAK AV SJ24 41.427178 -87.489314
12/12/2014 4:23 pm 9425 WICKER AV; MIGHTY MIKES SJ22 41.447516 -87.470135
12/12/2014 12:41 pm VENTURA DR & WICKER AV SJ22 41.464281 -87.470364
12/12/2014 11:36 am WICKER AV; SOUTH OF W 109TH AV SJ22 41.422054 -87.470096
12/12/2014 11:19 am 8801 WICKER AV; Kolling SJ22 41.458933 -87.470299
12/12/2014 9:34 am WALL ST & WICKER AV SJ22 41.453043 -87.470213
12/12/2014 12:14 am 8575 WICKER AV SJ9 41.461959 -87.470344
12/11/2014 11:52 pm 11000 WICKER AV SJ17 41.420373 -87.470098
12/11/2014 11:49 pm W 97TH LN & HEDWIG AV SJ17 41.441070 -87.472398
12/11/2014 10:58 pm 9285 WICKER AV SJ14 41.450826 -87.470183
12/11/2014 8:55 pm 9500 WICKER AV SJ22 41.445991 -87.470111
12/11/2014 8:44 pm W 85TH AV & WICKER AV SJ9 41.462715 -87.470350
12/11/2014 8:42 pm OLCOTT AV & W 93RD AV SJ22 41.449969 -87.481228
12/11/2014 8:19 pm 9285 WICKER AV; JJS PETRO SJ17 41.450826 -87.470183
12/11/2014 8:09 pm 9407 WICKER AV; DUNKIN DONUTS SJ22 41.447861 -87.470140
12/11/2014 7:49 pm 9425 WICKER AV; MIGHTY MIKES SJ22 41.447516 -87.470135
12/11/2014 7:48 pm 10300 WICKER AV SJ17 41.431350 -87.470039
12/11/2014 7:29 pm 8300 WICKER AV SJ22 41.466787 -87.470378
12/11/2014 7:23 pm 9280 WICKER AV; WALGREENS #4276 SJ17 41.451133 -87.470187
12/11/2014 7:15 pm 11600 WICKER AV SJ22 41.411508 -87.470077
12/11/2014 7:09 pm 9500 WICKER AV SJ9 41.445991 -87.470111
12/11/2014 6:55 pm 8801 WICKER AV; KOLLING ELEMENTARY SJ22 41.458933 -87.470299
12/11/2014 6:30 pm 8100 WICKER AV SJ17 41.471886 -87.470393
12/11/2014 6:21 pm 8575 WICKER AV; SPEEDWAY SJ22 41.461959 -87.470344
12/11/2014 5:36 pm 8200 WICKER AV SJ22 41.469318 -87.470392
12/11/2014 5:28 pm 8801 WICKER AV; KOLLING ELEMENTARY SJ22 41.458933 -87.470299
12/11/2014 5:06 pm 9270 WICKER AV; QUIZNOS SUB SUITE C SJ22 41.451746 -87.470195
12/11/2014 4:38 pm W 90TH AV & PATTERSON ST SJ22 41.455863 -87.474706
12/11/2014 4:25 pm 8801 WICKER AV; KOLLING ELEMENTARY SJ22 41.458933 -87.470299
12/11/2014 3:09 pm W 101ST AV & BLAINE ST SJ4 41.436088 -87.426323
12/11/2014 11:07 am 9400 WICKER AV; DUNKIN DONUTS SJ23 41.447998 -87.470142
12/11/2014 9:54 am W 93RD AV & CLINE AV SJ4 41.449743 -87.431354
12/11/2014 8:18 am 11033 W 93RD AV SJ21 41.449958 -87.469145
12/11/2014 7:01 am ST JOHN LIQUORS II SJ4
12/11/2014 2:40 am 10800 WICKER AV SJ17 41.422959 -87.470092
12/11/2014 1:30 am 9200 WICKER AV SJ17 41.453592 -87.470222
12/10/2014 10:11 am 9280 WICKER AV; WALGREENS #4276 SJ21 41.451133 -87.470187
12/10/2014 9:34 am S 231 CLINE SJ23
12/10/2014 7:43 am 9400 WICKER AV SJ21 41.447998 -87.470142
12/10/2014 2:51 am 8801 WICKER AV SJ22 41.458933 -87.470299
12/10/2014 1:10 am WICKER AV; 8200 BLK SJ22
12/10/2014 12:56 am 9285 WICKER AV SJ22 41.450826 -87.470183
12/10/2014 12:43 am 11700 W 93RD AV SJ364 41.449987 -87.476751
12/10/2014 12:28 am W OAKRIDGE DR & W 93RD AV SJ22 41.449989 -87.478157
12/09/2014 10:54 pm 10255 WICKER AV SJ364 41.432984 -87.470025
12/09/2014 10:42 pm 109TH AV; PARRISH SJ22
12/09/2014 10:05 pm 9600 WICKER AV SJ22 41.443973 -87.470069
12/09/2014 3:25 am 9600 WICKER AV SJ22 41.443973 -87.470069
12/09/2014 2:53 am 9700 WICKER AV SJ22 41.443089 -87.470050
12/09/2014 1:13 am 10600 WICKER AV SJ22 41.427299 -87.470069
12/09/2014 12:46 am 9600 WICKER AV SJ22 41.443973 -87.470069
12/08/2014 11:20 pm 7967 WICKER AV; STANS AUTO BODY SJ22 41.472678 -87.470399
12/08/2014 11:04 pm 8365 WICKER AV; DEYOUNG INTERIORS SJ22 41.465142 -87.470369
12/08/2014 7:36 pm 10300 WICKER AV SJ22 41.431350 -87.470039
12/08/2014 7:05 pm 9000 WICKER AV SJ22 41.456270 -87.470261
12/08/2014 7:01 pm W 109TH AV & SCHNEIDER PL SJ23 41.421141 -87.468343
12/07/2014 11:46 pm W 101ST AV & SHEFFIELD AV SJ19 41.435615 -87.517966
12/07/2014 10:45 pm 10200 WICKER AV SJ14 41.435026 -87.470008
12/07/2014 7:49 pm W 77TH AV & WICKER AV SJ19 41.478956 -87.470527 VW
12/07/2014 7:25 pm 9280 WICKER AV; WALGREENS #4276 SJ19 41.451133 -87.470187 CIT
12/07/2014 5:27 pm SJ19 CIT
12/07/2014 5:19 pm CALUMET AV & 93RD AV SJ343 41.450132 -87.507827
12/07/2014 4:00 pm SJ343 WW
12/07/2014 2:35 pm 9100 W 93RD AV SJ343 41.450808 -87.452756 WW
12/07/2014 1:11 pm 8500 WICKER AV SJ343 41.462715 -87.470350
12/07/2014 1:03 pm 8500 WICKER AV SJ343 41.462715 -87.470350
12/07/2014 3:14 am W 109TH AV & SCHNEIDER PL SJ19 41.421141 -87.468343
12/07/2014 2:00 am W SPRINGHILL & N SPRINGHILL SJ17
12/07/2014 12:54 am 9300 WICKER AV SJ19 41.449967 -87.470171
12/07/2014 12:41 am 9700 WICKER AV SJ19 41.443089 -87.470050
12/06/2014 10:12 pm 8400 WICKER AV SJ14 41.464281 -87.470364
12/06/2014 7:59 pm 8400 ALEXANDER SJ17
12/06/2014 7:54 pm DQ SJ17
12/06/2014 6:52 pm WALL ST & PATTERSON ST SJ22 41.452823 -87.472087
12/06/2014 6:34 pm 9000 WICKER AV SJ22 41.456270 -87.470261
12/06/2014 6:22 pm 8580 WICKER AV; FAGEN MILLER FUNERAL HOM SJ22 41.461892 -87.470343
12/06/2014 6:12 pm 11200 WICKER AV SJ19 41.418819 -87.470094
12/06/2014 4:32 pm 1555 US 41; WALMART SJ22 41.495733 -87.470940
12/06/2014 4:17 pm 8400 WICKER AV SJ22 41.464281 -87.470364
12/06/2014 3:22 pm HEATHER CT & LEONARDO DR SJ21 41.465060 -87.475648
12/06/2014 11:25 am 11033 W 93RD AV SJ21 41.449958 -87.469145
12/06/2014 2:39 am 10200 WICKER AV SJ14 41.435026 -87.470008
12/06/2014 12:50 am 9400 JOLIET ST SJ17 41.441165 -87.450616
12/06/2014 12:28 am W 85TH AV & CLINE AV SJ19 41.464197 -87.431621
12/05/2014 11:40 pm 101ST ST SJ19 41.435995 -87.481739
12/05/2014 11:19 pm 9700 WICKER AV SJ19 41.443089 -87.470050
12/05/2014 11:09 pm 8500 WICKER AV SJ17 41.462715 -87.470350
12/05/2014 10:46 pm 8500 WICKER AV SJ17 41.462715 -87.470350
12/05/2014 10:28 pm 8500 WICKER AV SJ17 41.462715 -87.470350
12/05/2014 8:19 pm SJ19
12/05/2014 7:40 pm 10800 WICKER AV SJ23 41.422959 -87.470092
12/05/2014 7:17 pm SJ17
12/05/2014 6:47 pm W 97TH AV & WICKER AV SJ14 41.441590 -87.470028
12/05/2014 2:26 pm 6400 W 101ST AV SJ4 41.435150 -87.409556
12/05/2014 5:44 am 9280 WICKER AV SJ9 41.451133 -87.470187
12/05/2014 2:54 am 7700 WICKER AV SJ22 41.478956 -87.470527
12/05/2014 2:36 am WICKER AV; 11000 BLK SJ22 41.337327 -87.469614
12/05/2014 1:39 am 9270 WICKER AV; QUIZNOS SUB SUITE C SJ364 41.451746 -87.470195
12/05/2014 1:04 am 8575 WICKER AV SJ22 41.461959 -87.470344
12/05/2014 12:46 am 9500 WICKER AV SJ365 41.445991 -87.470111
12/05/2014 12:34 am 10630 WICKER AV SJ22 41.426185 -87.470075
12/04/2014 11:26 pm 10600 WICKER AV SJ364 41.427299 -87.470069
12/04/2014 11:09 pm W 109TH AV & PARK PL SJ365 41.420989 -87.441287
12/04/2014 11:02 pm 10800 WICKER AV SJ22 41.422959 -87.470092
12/04/2014 10:11 pm 9600 WICKER AV SJ22 41.443973 -87.470069
12/04/2014 3:34 pm 9200 WICKER AV SJ17 41.453592 -87.470222 CIT
12/04/2014 3:25 pm WALL ST & WICKER AV SJ17 41.453043 -87.470213 CIT
12/04/2014 11:56 am W 109TH AV & WHITE OAK AV SJ18 41.421258 -87.489398
12/04/2014 10:31 am W 93RD AV & RENAISSANCE DR SJ18 41.449797 -87.446679
12/04/2014 1:45 am W 109TH AV & WICKER AV SJ22 41.421149 -87.470100
12/04/2014 1:13 am 11033 W 93RD AV SJ22 41.449958 -87.469145
12/04/2014 12:39 am 9321 WICKER AV; STANDARD BANK AND TRUST SJ22 41.449554 -87.470165
12/04/2014 12:33 am 10200 WICKER AV SJ22 41.435026 -87.470008
12/03/2014 11:01 pm WILDWOOD DR & PATTERSON ST SJ22 41.463196 -87.480041
12/03/2014 10:34 pm 9425 WICKER AV; MIGHTY MIKES SJ22 41.447516 -87.470135
12/03/2014 11:25 am 9141 WICKER AV; ASPEN CAFE SJ9 41.454382 -87.470233
12/03/2014 2:41 am W 85TH AV; WICKER AV SJ14 41.464535 -87.496385
12/03/2014 2:08 am 11700 W 93RD AV SJ14 41.449987 -87.476751
12/03/2014 1:46 am 8575 WICKER AV SJ14 41.461959 -87.470344
12/03/2014 12:29 am VENTURA DR & WICKER AV SJ21 41.464281 -87.470364
12/02/2014 8:54 pm AZ SJ23 VW
12/02/2014 3:14 pm 8801 WICKER AV; KOLLING ELEMENTARY SJ9 41.458933 -87.470299 VW
12/02/2014 11:51 am 9500 WICKER AV SJ9 41.445991 -87.470111
12/02/2014 11:22 am 101 WICKER SJ9
12/02/2014 8:42 am 9200 41 SJ9
12/02/2014 4:57 am 12700 WICKER AV SJ4 41.388319 -87.470024
12/02/2014 3:02 am 8200 WICKER AV SJ17 41.469318 -87.470392
12/01/2014 10:33 pm 9500 WICKER AV SJ21 41.445991 -87.470111
12/01/2014 2:55 pm 8400 WICKER AV SJ9 41.464281 -87.470364 CIT
12/01/2014 2:32 pm WALL ST & WICKER AV SJ9 41.453043 -87.470213 CIT
12/01/2014 1:46 pm 9600 WICKER AV SJ9 41.443973 -87.470069 VW
12/01/2014 9:19 am 8700 WICKER AV SJ9 41.460285 -87.470319
12/01/2014 2:12 am 8100 PATTERSON ST SJ22 41.468955 -87.484669
12/01/2014 1:15 am 9700 WICKER AV SJ22 41.443089 -87.470050
12/01/2014 1:05 am 10800 WICKER AV SJ364 41.422959 -87.470092
12/01/2014 12:41 am 9700 WICKER AV SJ22 41.443089 -87.470050
11/30/2014 9:55 pm 8575 WICKER AV; SPEEDWAY SJ22 41.461959 -87.470344
11/30/2014 9:40 am pd SJ24
11/30/2014 1:05 am 10800 WICKER AV SJ22 41.422959 -87.470092
11/29/2014 8:54 pm WALL ST & WICKER AV SJ19 41.453043 -87.470213 CIT
11/29/2014 8:25 pm 8400 WICKER AV SJ19 41.464281 -87.470364 WW
11/29/2014 8:06 pm W 90TH AV & PATTERSON ST SJ19 41.455863 -87.474706 WW
11/29/2014 6:43 pm HILLCREST LN SJ19 41.423704 -87.495721
11/29/2014 6:10 pm 14100 W 101ST AV SJ19 41.435623 -87.507252 CIT
11/29/2014 5:48 pm 10200 WHITE OAK AV SJ19 41.433370 -87.489295 CIT
11/29/2014 5:25 pm SJ19 CIT
11/29/2014 5:03 pm SJ19 WW
11/29/2014 4:35 pm SJ19 WW
11/29/2014 4:18 pm 9500 WICKER AV SJ19 41.445991 -87.470111 CIT
11/29/2014 10:59 am SJ23 CIT
11/29/2014 10:48 am SJ23 CIT
11/29/2014 10:33 am SJ24 CIT
11/29/2014 10:17 am SJ23 WW
11/29/2014 9:52 am SJ12 VW
11/29/2014 9:41 am 8801 WICKER AV; KOLLING ELEMENTARY SJ23 41.458933 -87.470299 VW
11/29/2014 9:25 am SJ23
11/29/2014 9:11 am SJ23 CIT
11/29/2014 9:06 am 10600 WHITE OAK AV SJ24 41.427178 -87.489314 WW
11/29/2014 9:02 am SJ23 CIT
11/29/2014 8:56 am 9200 WICKER AV SJ23 41.453592 -87.470222 WW
11/29/2014 8:53 am 10900 WICKER AV SJ24 41.421149 -87.470100 WW
11/29/2014 8:45 am WALL ST & WICKER AV SJ23 41.453043 -87.470213
11/29/2014 8:28 am 10200 WICKER AV SJ23 41.435026 -87.470008 CIT
11/29/2014 12:57 am 9600 WICKER AV SJ22 41.443973 -87.470069
11/29/2014 12:47 am W 93RD AV; CALUMET SJ22 41.450129 -87.508672
11/29/2014 12:11 am 8496 WICKER AV SJ22 41.462763 -87.470351
11/28/2014 11:37 pm 8200 WICKER AV SJ22 41.469318 -87.470392
11/28/2014 11:30 pm HART ST & JOLIET ST SJ22 41.442976 -87.461448
11/28/2014 10:50 pm 10100 WICKER AV SJ19 41.436091 -87.469997
11/28/2014 10:40 pm 9550 WICKER AV SJ19 41.444972 -87.470090
11/28/2014 10:27 pm 8575 WICKER AV SJ19 41.461959 -87.470344
11/28/2014 10:17 pm 8200 WICKER AV SJ19 41.469318 -87.470392
11/28/2014 9:31 pm 10900 WICKER AV SJ19 41.421149 -87.470100
11/28/2014 9:18 pm W 109TH AV & SCHNEIDER PL; RT231 SJ19 41.421141 -87.468343
11/28/2014 8:45 pm 9400 WICKER AV SJ19 41.447998 -87.470142
11/28/2014 7:57 pm 10900 W 93RD AV SJ19 41.449951 -87.468324
11/28/2014 7:38 pm W 85TH AV & WICKER AV SJ19 41.462715 -87.470350
11/28/2014 7:18 pm W 85TH AV & WICKER AV SJ19 41.462715 -87.470350
11/28/2014 6:35 pm W 101ST AV & WHITE OAK AV SJ19 41.435563 -87.489287
11/28/2014 6:26 pm BLUE SPRING & W 101ST SJ19
11/28/2014 6:17 pm W 101ST AV & WHITE OAK AV SJ19 41.435563 -87.489287
11/28/2014 10:54 am 10800 WHITE OAK AV SJ24 41.423212 -87.489361 VW
11/28/2014 10:36 am W 93RD AV & BLAINE ST SJ24 41.449720 -87.426537 WW
11/27/2014 3:16 pm 10300 WICKER AV SJ19 41.431350 -87.470039
11/27/2014 2:25 pm 8575 WICKER AV; SPEEDWAY SJ343 41.461959 -87.470344
11/27/2014 2:16 pm WALL ST & WICKER AV SJ343 41.453043 -87.470213
11/27/2014 12:17 pm 8575 WICKER AV; SPEEDWAY SJ343 41.461959 -87.470344
11/27/2014 7:28 am 96 41 S/B SJ7
11/27/2014 7:08 am 11300 W 97TH LN; ELMWOOD FUNERAL CHAPEL SJ19 41.441077 -87.471281
11/27/2014 5:57 am 8575 WICKER AV; SPEEDWAY SJ19 41.461959 -87.470344
11/27/2014 1:20 am W 109TH AV & HILLCREST LN SJ17 41.421205 -87.496638
11/27/2014 12:33 am 10900 WICKER AV SJ17 41.421149 -87.470100
11/26/2014 10:58 pm 8365 WICKER AV; DEYOUNG INTERIORS SJ21 41.465142 -87.470369
11/26/2014 3:14 pm 10100 WHITE OAK AV SJ9 41.435704 -87.489289
11/26/2014 2:16 pm W 93RD AV & KEILMAN ST SJ9 41.449981 -87.472491
11/26/2014 2:11 pm OSAGE CT & KNICKERBOCKER PL SJ19 41.471017 -87.477159
11/26/2014 2:00 pm MALLARD COVE & W 93RD AV SJ9 41.449778 -87.436813
11/26/2014 12:56 pm W 93RD AV & DEODOR ST SJ19 41.450808 -87.452756
11/26/2014 10:38 am 10600 CALUMET AV SJ19 41.424438 -87.508299
11/26/2014 10:05 am W 109TH AV & CALUMET AV SJ19 41.421141 -87.508266
11/26/2014 10:02 am NORTHCOTE AV & W 93RD AV SJ9 41.449966 -87.482130
11/26/2014 9:38 am 93RD AV & BEALL ST SJ19 41.450124 -87.510347
11/26/2014 9:26 am 93RD AV & BEALL ST SJ19 41.450124 -87.510347
11/26/2014 9:09 am 8600 WICKER AV SJ9 41.461624 -87.470339
11/25/2014 10:13 pm 11000 WICKER AV SJ24 41.420373 -87.470098
11/25/2014 9:27 pm 8801 WICKER AV; KOLLING ELEMENTARY SJ23 41.458933 -87.470299 WW
11/25/2014 9:10 pm 8575 WICKER AV; SPEEDWAY SJ23 41.461959 -87.470344 CIT
11/25/2014 9:00 pm W 93RD AV & PATTERSON ST SJ23 41.449971 -87.470688 WW
11/25/2014 3:57 pm 85th av; Kohling SJ22 VW
11/25/2014 2:22 pm 9700 WICKER AV SJ17 41.443089 -87.470050
11/25/2014 2:05 pm 8575 WICKER AV; SPEEDWAY SJ17 41.461959 -87.470344
11/25/2014 12:54 pm 9500 WICKER AV SJ17 41.445991 -87.470111 CIT
11/25/2014 12:36 pm 8801 WICKER AV; KOLLING ELEMENTARY SJ17 41.458933 -87.470299
11/25/2014 12:03 pm 85TH & KOLLING SCHOOL RD SJ17
11/25/2014 11:36 am 8801 WICKER AV; KOLLING ELEMENTARY SJ17 41.458933 -87.470299
11/25/2014 11:28 am 92 41 SJ17
11/25/2014 11:18 am 8500 WICKER AV SJ17 41.462715 -87.470350
11/25/2014 11:01 am 9500 WICKER AV SJ17 41.445991 -87.470111
11/25/2014 10:40 am 9141 WICKER AV; ASPEN CAFE SJ22 41.454382 -87.470233
11/25/2014 7:53 am HICKORY;97TH SJ22
11/25/2014 7:08 am ZIGGYS SJ22
11/24/2014 10:22 pm W 109TH AV & OLCOTT AV SJ24 41.421214 -87.481530
11/24/2014 10:09 pm 8575 WICKER AV; SPEEDWAY SJ19 41.461959 -87.470344
11/24/2014 9:16 pm W 109TH AV & SCHNEIDER PL SJ19 41.421141 -87.468343
11/24/2014 9:03 pm W 109TH AV & SCHNEIDER PL SJ19 41.421141 -87.468343
11/24/2014 8:54 pm W 109TH AV & E SCHNEIDER CT SJ19 41.421136 -87.467561
11/24/2014 8:37 pm W 109TH AV & SCHNEIDER PL SJ19 41.421141 -87.468343
11/24/2014 7:56 pm 8500 WICKER AV SJ19 41.462715 -87.470350
11/24/2014 7:26 pm 8200 WICKER AV SJ19 41.469318 -87.470392
11/24/2014 6:12 pm 10600 WICKER AV SJ19 41.427299 -87.470069
11/24/2014 5:53 pm 8400 WICKER AV SJ19 41.464281 -87.470364
11/23/2014 11:53 pm 11500 PARRISH AV SJ21 41.410075 -87.450613
11/23/2014 8:58 am VENTURA DR; 41 SJ14 41.462336 -87.475790
11/23/2014 8:44 am 108 41 SJ23
11/23/2014 7:45 am wall 41 SJ14
11/23/2014 3:36 am WICKER AV & SCHOOL ST SJ21 41.447742 -87.470138
11/22/2014 11:13 pm 8661 WICKER AV; ST JOHN ANIMAL CLINIC SJ9 41.460807 -87.470327
11/22/2014 10:56 pm 8200 WICKER AV SJ9 41.469318 -87.470392
11/22/2014 10:54 pm 8575 WICKER AV SJ19 41.461959 -87.470344
11/22/2014 10:35 pm 9700 WICKER AV SJ19 41.443089 -87.470050
11/22/2014 10:18 pm HEATHER CT & VENTURA DR SJ19 41.462775 -87.474927
11/22/2014 10:06 pm 9200 WICKER AV SJ19 41.453592 -87.470222
11/22/2014 9:47 pm 9500 WICKER AV SJ19 41.445991 -87.470111
11/22/2014 9:25 pm 10800 WICKER AV SJ19 41.422959 -87.470092
11/22/2014 9:01 pm 93RD AV & CALUMET AV SJ19 41.450132 -87.507827
11/22/2014 8:47 pm 8400 WICKER AV SJ17 41.464281 -87.470364
11/22/2014 8:35 pm 8575 WICKER AV; SPEEDWAY SJ9 41.461959 -87.470344
11/22/2014 8:21 pm 10800 WICKER AV SJ19 41.422959 -87.470092
11/22/2014 8:14 pm 8700 WICKER AV SJ9 41.460285 -87.470319
11/22/2014 8:04 pm 10800 WICKER AV SJ19 41.422959 -87.470092
11/22/2014 7:55 pm 8209 WICKER AV SJ9 41.469091 -87.470391
11/22/2014 7:51 pm 8000 WICKER AV SJ17 41.472761 -87.470400 CIT
11/22/2014 7:42 pm 10800 WICKER AV SJ19 41.422959 -87.470092
11/22/2014 7:35 pm 9400 KEILMAN ST SJ4 41.448184 -87.472483
11/22/2014 7:23 pm 10200 WICKER AV SJ19 41.435026 -87.470008
11/22/2014 7:12 pm 10800 WICKER AV SJ19 41.422959 -87.470092
11/22/2014 7:09 pm 8575 WICKER AV; SPEEDWAY SJ17 41.461959 -87.470344
11/22/2014 6:59 pm 109TH AND PARK SJ4
11/22/2014 6:55 pm 8600 WICKER AV SJ17 41.461624 -87.470339
11/22/2014 6:44 pm 9407 WICKER AV; DUNKIN DONUTS SJ21 41.447861 -87.470140
11/22/2014 2:15 pm 8915 W 93RD AV; CLARK MIDDLE SCHOOL SJ22 41.449796 -87.443725
11/22/2014 1:45 pm 8500 WICKER AV; SPEEDWAY SJ22 41.462715 -87.470350
11/22/2014 1:19 pm 8500 WICKER AV; SPEEDWAY SJ22 41.462715 -87.470350
11/22/2014 1:10 pm 11033 W 93RD AV SJ22 41.449958 -87.469145
11/22/2014 12:10 pm 9270 WICKER AV; QUIZNOS SUB SUITE C SJ22 41.451746 -87.470195
11/22/2014 11:44 am 8365 WICKER AV; DEYOUNG INTERIORS SJ22 41.465142 -87.470369
11/22/2014 11:34 am 8400 WICKER AV SJ22 41.464281 -87.470364
11/22/2014 10:44 am TCU BANK SJ22
11/22/2014 10:15 am 11331 VENTURA DR SJ22 41.463836 -87.472885
11/22/2014 10:03 am 8300 WICKER AV SJ22 41.466787 -87.470378
11/22/2014 9:36 am 8500 WICKER AV; SPEEDWAY SJ22 41.462715 -87.470350
11/22/2014 8:54 am W 93RD AV & MERRILLVILLE RD SJ22 41.449379 -87.352713
11/22/2014 12:17 am 8575 WICKER AV SJ9 41.461959 -87.470344
11/21/2014 11:59 pm WICKER AV & WALL ST SJ21 41.453043 -87.470213
11/21/2014 11:48 pm 9500 WICKER AV SJ17 41.445991 -87.470111
11/21/2014 11:23 pm ST JOHN CROSSING SJ21
11/21/2014 11:20 pm 9280 WICKER AV SJ17 41.451133 -87.470187
11/21/2014 10:18 pm 9700 WICKER AV SJ21 41.443089 -87.470050
11/21/2014 9:41 pm 8575 WICKER AV; SPEEDWAY SJ21 41.461959 -87.470344
11/21/2014 8:48 pm 9400 WICKER AV SJ21 41.447998 -87.470142
11/21/2014 8:37 pm 10900 WICKER AV SJ9 41.421149 -87.470100
11/21/2014 7:39 pm 8575 WICKER AV; SPEEDWAY SJ9 41.461959 -87.470344
11/21/2014 7:24 pm 9600 WICKER AV SJ9 41.443973 -87.470069
11/21/2014 6:38 pm 8400 WICKER AV SJ9 41.464281 -87.470364
11/21/2014 6:02 pm 9500 WHITE OAK AV SJ23 41.446362 -87.489428
11/21/2014 5:53 pm 9400 WHITE OAK AV SJ23 41.448199 -87.489455
11/21/2014 5:28 pm 9141 WICKER AV; ASPEN CAFE SJ9 41.454382 -87.470233
11/21/2014 5:23 pm WALL ST & WICKER AV SJ23 41.453043 -87.470213
11/21/2014 5:15 pm 8801 WICKER AV; KOLLING ELEMENTARY SJ23 41.458933 -87.470299
11/21/2014 1:19 pm W 101ST AV & SADDLE CREEK DR SJ23 41.435592 -87.499938
11/21/2014 1:16 pm 8650 PATTERSON ST SJ22 41.461666 -87.479345
11/21/2014 12:58 pm W 85TH AV & FAIRWAY DR SJ22 41.464359 -87.463697
11/21/2014 12:44 pm W 85TH AV & WICKER AV SJ22 41.462715 -87.470350
11/21/2014 11:46 am SCHOOL ST & WICKER AV SJ22 41.447742 -87.470138
11/21/2014 11:35 am W 90TH AV & PATTERSON ST SJ22 41.455863 -87.474706
11/21/2014 11:23 am SJ LIBRARY SJ22
11/21/2014 11:17 am 9400 WICKER AV SJ22 41.447998 -87.470142
11/21/2014 11:15 am 8500 WICKER AV SJ14 41.462715 -87.470350
11/21/2014 11:01 am W 101ST AV & BLAINE ST SJ23 41.436088 -87.426323
11/21/2014 10:38 am JOLIET ST & WICKER AV SJ22 41.447742 -87.470138
11/21/2014 10:14 am 93RD AV; STANDARD BANK ENTRANCE SJ22 41.450131 -87.507993
11/21/2014 10:03 am 9900 WICKER AV SJ22 41.439393 -87.470004
11/21/2014 9:40 am HILLCREST LN & W 109TH AV SJ22 41.421205 -87.496638
11/21/2014 9:20 am 9500 WICKER AV SJ22 41.445991 -87.470111
11/21/2014 8:57 am W 97TH LN & PHEASANT LN SJ23 41.441077 -87.471281
11/21/2014 8:48 am SCHOOL ST & WICKER AV SJ23 41.447742 -87.470138
11/20/2014 10:40 pm VENTURA DR & WICKER AV SJ18 41.464281 -87.470364
11/20/2014 10:26 pm W 109TH AV & FORESTDALE ST SJ23 41.421168 -87.473684
11/20/2014 10:17 pm 231 & SCHNEIDER SJ23
11/20/2014 10:04 pm W 109TH AV & WHITE OAK AV SJ23 41.421258 -87.489398
11/20/2014 9:53 pm W 109TH AV & FORESTDALE ST SJ23 41.421168 -87.473684
11/20/2014 9:47 pm 10600 WHITE OAK AV SJ24 41.427178 -87.489314
11/20/2014 9:41 pm W 109TH AV & ONTARIO ST SJ23 41.421154 -87.471273
11/20/2014 9:23 pm 11000 WICKER AV SJ23 41.420373 -87.470098
11/20/2014 7:20 pm BULL RUN DR & UPPER PENINSULA PL SJ24 41.434314 -87.474014
11/20/2014 7:08 pm BULL RUN DR & UPPER PENINSULA PL SJ24 41.434314 -87.474014
11/20/2014 7:08 pm 7967 WICKER AV; STANS AUTO BODY SJ18 41.472678 -87.470399
11/20/2014 6:23 pm W 93RD AV & MONIX DR SJ24 41.450028 -87.491955
11/20/2014 5:53 pm 9280 WICKER AV; WALGREENS #4276 SJ24 41.451133 -87.470187
11/20/2014 5:29 pm 9400 WHITE OAK AV SJ23 41.448199 -87.489455
11/20/2014 5:19 pm W 101ST AV & SADDLE CREEK DR SJ23 41.435592 -87.499938
11/20/2014 4:51 pm WHITE OAK AV & W 93RD AV SJ23 41.450009 -87.489482
11/20/2014 4:47 pm W 85TH AV & WICKER AV SJ24 41.462715 -87.470350
11/20/2014 4:37 pm W 85TH AV & LAKE HILLS DR SJ23 41.464322 -87.455889
11/20/2014 4:28 pm W 85TH AV & WINDING TRAIL SJ23 41.464348 -87.460495
11/20/2014 4:15 pm 8801 WICKER AV; KOLLING ELEMENTARY SJ23 41.458933 -87.470299
11/20/2014 12:55 pm 86 41 SJAC SJ17
11/20/2014 12:33 pm 8400 WICKER AV SJ17 41.464281 -87.470364
11/20/2014 12:18 pm 8801 WICKER AV; KOLLING ELEMENTARY SJ17 41.458933 -87.470299
11/20/2014 10:51 am 8801 WICKER AV; KOLLING ELEMENTARY SJ17 41.458933 -87.470299 CIT
11/20/2014 10:36 am 85 41 SJ17
11/20/2014 9:56 am wall 41 SJ7
11/20/2014 7:54 am 9600 WICKER AV SJ22 41.443973 -87.470069
11/20/2014 5:57 am 9200 WICKER AV SJ10 41.453592 -87.470222
11/19/2014 10:50 pm 10300 CALUMET AV SJ18 41.431140 -87.508328
11/19/2014 10:23 pm 9400 WICKER AV SJ19 41.447998 -87.470142
11/19/2014 10:08 pm 8575 WICKER AV SJ19 41.461959 -87.470344
11/19/2014 9:55 pm 11700 W 93RD AV SJ24 41.449987 -87.476751
11/19/2014 9:49 pm W 85TH AV & WICKER AV SJ19 41.462715 -87.470350
11/19/2014 9:35 pm 8200 WICKER AV SJ19 41.469318 -87.470392
11/19/2014 9:16 pm 8900 W 93RD AV SJ19 41.449796 -87.442718
11/19/2014 8:37 pm W 93RD AV & W OAKRIDGE DR SJ19 41.449989 -87.478157
11/19/2014 8:03 pm 8575 WICKER AV; SPEEDWAY SJ19 41.461959 -87.470344
11/19/2014 7:52 pm 8100 WICKER AV SJ19 41.471886 -87.470393
11/19/2014 7:40 pm 9500 WICKER AV SJ19 41.445991 -87.470111
11/19/2014 6:59 pm W 109TH AV & SCHNEIDER PL; RT231 SJ19 41.421141 -87.468343
11/19/2014 6:59 pm 11700 W 93RD AV SJ24 41.449987 -87.476751
11/19/2014 6:41 pm W 109TH AV & CALUMET AV SJ19 41.421141 -87.508266
11/19/2014 5:48 pm W 101ST AV & WHITE OAK AV SJ19 41.435563 -87.489287
11/19/2014 5:29 pm W 101ST AV & WHITE OAK AV SJ19 41.435563 -87.489287
11/19/2014 5:04 pm 9200 WICKER AV SJ19 41.453592 -87.470222
11/19/2014 1:42 pm 8400 WICKER AV SJ17 41.464281 -87.470364
11/19/2014 1:27 pm 8801 WICKER AV; KOLLING ELEMENTARY SJ17 41.458933 -87.470299
11/19/2014 1:15 pm 8600 WICKER AV SJ17 41.461624 -87.470339
11/19/2014 12:59 pm PD LOT SJ17
11/19/2014 12:51 pm WALL 41 SJ17
11/19/2014 12:24 pm WALL 41 SJ17
11/19/2014 12:13 pm WALL 41 SJ17
11/19/2014 11:59 am 9200 WICKER AV SJ17 41.453592 -87.470222
11/19/2014 11:45 am 93 DEODOR SJ17
11/19/2014 11:35 am 8575 WICKER AV; SPEEDWAY SJ17 41.461959 -87.470344
11/19/2014 11:22 am WALL 41 SJ17
11/19/2014 10:59 am 10200 WICKER AV SJ17 41.435026 -87.470008 CIT
11/19/2014 10:43 am 9900 HEDWIG AV SJ17 41.438222 -87.473256
11/19/2014 10:23 am HILLCREST LN & W 109TH AV SJ22 41.421205 -87.496638
11/18/2014 8:00 pm 9600 WICKER AV SJ17 41.443973 -87.470069
11/18/2014 7:26 pm 9600 WICKER AV SJ9 41.443973 -87.470069
11/18/2014 7:24 pm 8500 WICKER AV SJ17 41.462715 -87.470350
11/18/2014 7:23 pm W 109TH AV & E SCHNEIDER CT SJ23 41.421136 -87.467561
11/18/2014 7:11 pm 10800 CALUMET AV SJ23 41.419816 -87.508261
11/18/2014 7:05 pm 8500 WICKER AV SJ17 41.462715 -87.470350
11/18/2014 6:55 pm 109TH AND HERON SJ23
11/18/2014 6:47 pm 8600 WICKER AV SJ17 41.461624 -87.470339
11/18/2014 6:38 pm 9500 WHITE OAK AV SJ23 41.446362 -87.489428
11/18/2014 6:02 pm W 85TH AV & FAIRWAY DR SJ23 41.464359 -87.463697
11/18/2014 5:29 pm WICKER AV & KELLY DR SJ23 41.462025 -87.470344
11/18/2014 5:20 pm 9280 WICKER AV; WALGREENS #4276 SJ23 41.451133 -87.470187
11/18/2014 5:10 pm 8800 WICKER AV SJ23 41.458947 -87.470300
11/18/2014 5:03 pm 8600 WICKER AV SJ23 41.461624 -87.470339
11/18/2014 10:54 am 231 S OF CLINE SJ23
11/18/2014 10:26 am 8000 41 SJ14
11/18/2014 9:50 am 95 41 SJ21
11/18/2014 9:14 am 41 WALL SJ10
11/18/2014 8:13 am 92 41 SJ10
11/18/2014 8:01 am 97 41 SJ10
11/18/2014 7:51 am S OF 109TH ON CALUMET SJ23
11/18/2014 7:37 am 96 & WICKER SJ10
11/18/2014 7:23 am JOLIET 41 SJ10
11/18/2014 6:58 am 92 WICKER SJ10
11/18/2014 6:33 am 8575 WICKER AV; SPEEDWAY SJ10 41.461959 -87.470344
11/18/2014 6:20 am DD LOT SJ10
11/18/2014 5:56 am 85 41 SJ10
11/18/2014 5:51 am SJ MALL SJ10
11/18/2014 5:31 am 8575 WICKER AV; SPEEDWAY SJ10 41.461959 -87.470344
11/17/2014 9:49 pm 9400 WICKER AV SJ19 41.447998 -87.470142
11/17/2014 9:27 pm W 85TH AV & WICKER AV SJ19 41.462715 -87.470350
11/17/2014 9:13 pm 9400 WICKER AV SJ19 41.447998 -87.470142
11/17/2014 8:20 pm W 109TH AV & SCHNEIDER PL SJ19 41.421141 -87.468343
11/17/2014 8:03 pm 10900 WICKER AV SJ19 41.421149 -87.470100
11/17/2014 7:51 pm 10900 WICKER AV SJ19 41.421149 -87.470100
11/17/2014 7:41 pm 10900 WICKER AV SJ19 41.421149 -87.470100
11/17/2014 6:37 pm W 97TH AV & WICKER AV SJ19 41.441590 -87.470028
11/17/2014 5:50 pm PD SJ19
11/17/2014 3:11 pm W 93RD AV & HILLTOP DR SJ23 41.450000 -87.487793
11/17/2014 2:57 pm 9600 WHITE OAK AV SJ23 41.444525 -87.489400
11/17/2014 2:41 pm W 102ND AV & WHITE OAK AV SJ23 41.433370 -87.489295
11/17/2014 1:32 pm 8600 WICKER AV SJ21 41.461624 -87.470339
11/17/2014 11:25 am 9500 WICKER AV SJ21
11/17/2014 11:13 am 8200 WICKER AV SJ21 41.469318 -87.470392
11/17/2014 9:07 am 8200 WICKER AV SJ10 41.469318 -87.470392
11/17/2014 8:46 am 109 HURON SJ14
11/17/2014 8:07 am 9500 WICKER AV SJ10 41.445991 -87.470111
11/17/2014 8:02 am 109 41 SJ21
11/17/2014 6:33 am WICKER AV; MORRAINE TRACE SJ10 41.422054 -87.470096
11/17/2014 6:12 am 8400 WICKER AV SJ10 41.464281 -87.470364
11/17/2014 6:00 am 9285 WICKER AV; JJS PETRO SJ10 41.450826 -87.470183
11/17/2014 5:43 am 9500 WICKER AV SJ10 41.445991 -87.470111
11/17/2014 5:32 am JOLIET ST & WICKER AV SJ10 41.447742 -87.470138
11/17/2014 5:16 am 8200 WICKER AV SJ10 41.469318 -87.470392
11/16/2014 7:11 pm W 109TH AV & WICKER AV SJ24 41.421149 -87.470100
11/16/2014 4:04 pm W 77TH AV & JUNE DR SJ22 41.478978 -87.476994
11/16/2014 3:29 pm 8615 WICKER AV SJ22 41.461423 -87.470336
11/16/2014 3:11 pm W 101ST AV & W 99TH PL SJ22 41.439649 -87.447138
11/16/2014 2:52 pm BULLRUN AND HEDWIG SJ22
11/16/2014 2:14 pm 9825 WICKER AV; STRACK & VANTIL SJ22 41.440661 -87.470018
11/16/2014 9:23 am W 96TH AV & WICKER AV SJ22 41.443973 -87.470069
11/16/2014 12:26 am W 85TH AV & FAIRWAY DR SJ24 41.464359 -87.463697
11/16/2014 12:04 am 9700 WICKER AV SJ24 41.443089 -87.470050
11/15/2014 10:23 pm 11700 W 93RD AV SJ18 41.449987 -87.476751
11/15/2014 9:13 pm 8575 WICKER AV; SPEEDWAY SJ19 41.461959 -87.470344
11/15/2014 8:41 pm 8400 WICKER AV SJ19 41.464281 -87.470364
11/15/2014 8:25 pm W 93RD AV & PATTERSON ST SJ19 41.449971 -87.470688
11/15/2014 8:15 pm 9600 WICKER AV SJ19 41.443973 -87.470069
11/15/2014 8:01 pm 9623 WICKER AV; RASCALS SJ19 41.443768 -87.470065
11/15/2014 7:46 pm WALL ST & WICKER AV SJ19 41.453043 -87.470213
11/15/2014 7:34 pm 9400 WICKER AV SJ19 41.447998 -87.470142
11/15/2014 6:11 pm 109TH AND OLCOTT SJ18
11/15/2014 5:16 pm 10900 WICKER AV SJ19
11/15/2014 4:56 pm 8400 WICKER AV SJ19 41.464281 -87.470364
11/15/2014 4:21 pm 9280 WICKER AV; WALGREENS #4276 SJ22 41.451133 -87.470187
11/15/2014 11:08 am 10800 WICKER AV; KUBIAK'S SJ22 41.422959 -87.470092
11/15/2014 10:58 am 9151 WICKER AV; CENTIER BANK SJ22 41.454248 -87.470231
11/15/2014 10:24 am 11055 W 93RD AV; SJFD -; 9100 WICKER AV SJ23 41.449959 -87.469281
11/15/2014 10:05 am 8400 WICKER AV; SPEEDWAY SJ23 41.464281 -87.470364
11/15/2014 9:58 am 8600 WICKER AV; TEACHER'S CREDIT UNION SJ23 41.461624 -87.470339
11/15/2014 9:47 am 8600 WICKER AV; TEACHER'S CREDIT UNION SJ23 41.461624 -87.470339
11/15/2014 9:37 am 9200 WICKER AV; SJ MALL SJ23 41.453592 -87.470222
11/15/2014 9:20 am 8801 WICKER AV; kolling SJ23 41.458933 -87.470299
11/15/2014 8:32 am WICKER AV & VENTURA DR SJ23 41.464281 -87.470364
11/15/2014 8:11 am 10300 WICKER AV SJ23 41.431350 -87.470039
11/15/2014 7:52 am 8801 WICKER AV; KOLLING SJ23 41.458933 -87.470299
11/15/2014 7:44 am 9700 WICKER AV; Oil Express SJ22 41.443089 -87.470050
11/15/2014 7:35 am W 93RD AV & PATTERSON ST; Walgreens SJ23 41.449971 -87.470688
11/15/2014 7:19 am 9285 WICKER AV; JJ's SJ23 41.450826 -87.470183
11/15/2014 7:12 am WALL ST & WICKER AV SJ23 41.453043 -87.470213
11/15/2014 1:12 am 11700 W 93RD AV SJ24 41.449987 -87.476751
11/14/2014 9:21 pm 8801 WICKER AV; KOLLING ELEMENTARY SJ360 41.458933 -87.470299
11/14/2014 9:07 pm 8496 WICKER AV; TACO BELL SJ360 41.462763 -87.470351
11/14/2014 8:55 pm WALL ST & WICKER AV SJ19 41.453043 -87.470213
11/14/2014 8:35 pm 8500 HEATHER CT SJ19
11/14/2014 8:00 pm 10100 WICKER AV SJ19 41.436091 -87.469997
11/14/2014 7:23 pm 8801 WICKER AV; KOLLING ELEMENTARY SJ19 41.458933 -87.470299
11/14/2014 6:52 pm W 102ND AV & WHITE OAK AV SJ19 41.433370 -87.489295
11/14/2014 6:29 pm W 109TH AV & MANOR DR SJ360 41.421247 -87.487135
11/14/2014 6:22 pm 101ST & ROSEWOOD SJ24
11/14/2014 6:19 pm W 101ST AV & WHITE OAK AV SJ19 41.435563 -87.489287
11/14/2014 6:06 pm 9400 WHITE OAK AV SJ19 41.448199 -87.489455
11/14/2014 6:04 pm 8575 WICKER AV; SPEEDWAY SJ24 41.461959 -87.470344
11/14/2014 5:51 pm W 101ST AV & WHITE OAK AV SJ19 41.435563 -87.489287
11/14/2014 5:37 pm W 93RD AV & HILLTOP DR SJ19 41.450000 -87.487793
11/14/2014 5:23 pm W 93RD AV & CLARMONTE DR SJ19 41.449796 -87.449160
11/14/2014 5:07 pm W 101ST AV & CLINE AV SJ19 41.436724 -87.431153
11/14/2014 2:48 pm 8500 WICKER AV SJ17 41.462715 -87.470350
11/14/2014 2:40 pm 9141 WICKER AV; ASPEN CAFE SJ17 41.454382 -87.470233
11/14/2014 1:35 pm 8400 WICKER AV; SPEEDWAY SJ17 41.464281 -87.470364 WW
11/14/2014 1:26 pm WALL ST & WICKER AV SJ22 41.453043 -87.470213
11/14/2014 1:17 pm Kolling School Rd & W 85th Ave SJ17
11/14/2014 1:02 pm 9200 WICKER AV; QUIZNOS SJ17 41.453592 -87.470222
11/14/2014 12:54 pm 9200 WICKER AV; QUIZNOS SJ17 41.453592 -87.470222
11/14/2014 12:41 pm HAMMOND CLINIC SJ17
11/14/2014 12:33 pm 9600 KEILMAN ST SJ17 41.444611 -87.472455
11/14/2014 12:24 pm WALL ST & WICKER AV SJ17 41.453043 -87.470213
11/14/2014 12:02 pm 8500 WICKER AV SJ17 41.462715 -87.470350 CIT
11/14/2014 10:58 am 9200 WICKER AV SJ17 41.453592 -87.470222 VW
11/14/2014 10:42 am 9200 WICKER AV SJ17 41.453592 -87.470222
11/14/2014 4:23 am 8200 WICKER AV SJ9 41.469318 -87.470392
11/14/2014 2:52 am 9600 WICKER AV SJ9 41.443973 -87.470069
11/14/2014 2:04 am 8801 WICKER AV; KOLLING ELEMENTARY SJ9 41.458933 -87.470299
11/14/2014 12:42 am W 97TH AV & WICKER AV SJ17 41.441590 -87.470028
11/13/2014 11:22 pm 8600 WICKER AV SJ365 41.461624 -87.470339
11/13/2014 11:05 pm 9400 WICKER AV SJ365 41.447998 -87.470142
11/13/2014 10:28 pm 10600 WHITE OAK AV SJ14 41.427178 -87.489314
11/13/2014 10:25 pm 9600 WICKER AV SJ365 41.443973 -87.470069
11/13/2014 7:57 pm 8496 WICKER AV; TACO BELL SJ9 41.462763 -87.470351
11/13/2014 7:53 pm 8575 WICKER AV; SPEEDWAY SJ17 41.461959 -87.470344
11/13/2014 6:43 am 9200 WICKER AV SJ21 41.453592 -87.470222
11/13/2014 6:25 am 109 WO SJ23
11/13/2014 6:07 am pwp SJ23
11/13/2014 12:23 am 9280 WICKER AV; WALGREENS #4276 SJ9 41.451133 -87.470187
11/13/2014 12:02 am 9600 WICKER AV SJ9 41.443973 -87.470069
11/12/2014 10:55 pm 8365 WICKER AV; DEYOUNG INTERIORS SJ9 41.465142 -87.470369
11/12/2014 10:34 pm 8575 WICKER AV; SPEEDWAY SJ9 41.461959 -87.470344
11/12/2014 9:57 pm W 101ST AV & SHEFFIELD AV SJ14 41.435615 -87.517966
11/12/2014 10:06 am LC PLAZA SJ13
11/12/2014 7:31 am 9400 WHITE OAK AV SJ23 41.448199 -87.489455
11/12/2014 6:39 am 101 w of calumet SJ23
11/12/2014 12:36 am SR231 & SCHNEIDER SJ18
11/11/2014 11:08 pm 8700 WICKER AV SJ18 41.460285 -87.470319
11/11/2014 5:55 am 8575 WICKER AV; SPEEDWAY SJ24 41.461959 -87.470344
11/11/2014 2:09 am 10200 WICKER AV SJ22 41.435026 -87.470008
11/11/2014 1:38 am KEILMAN ST & W 97TH LN SJ22 41.441070 -87.472398
11/11/2014 1:17 am W 83RD PL & PATTERSON AV SJ22 41.469357 -87.484956
11/10/2014 11:39 pm HART ST & JOLIET ST SJ22 41.442976 -87.461448
11/10/2014 10:56 pm 9939 WICKER AV; STARBUCKS SJ22 41.438734 -87.469997
11/10/2014 10:37 pm W 109TH AV & WICKER AV SJ22 41.421149 -87.470100
11/10/2014 9:08 pm 9600 WICKER AV SJ22 41.443973 -87.470069 CIT
11/10/2014 6:59 pm 93RD AV & CALUMET AV SJ22 41.450132 -87.507827 VW
11/10/2014 6:31 pm SJ22 VW
11/10/2014 4:08 pm 10900 WICKER AV SJ24 41.421149 -87.470100
11/10/2014 8:09 am 9280 WICKER AV; WALGREENS #4276 SJ24 41.451133 -87.470187
11/10/2014 7:56 am 9500 WICKER AV SJ24 41.445991 -87.470111
11/10/2014 6:41 am 9141 WICKER AV; ASPEN CAFE SJ7 41.454382 -87.470233
11/10/2014 6:18 am S OF 231 ON 41 SJ24
11/10/2014 2:07 am 11033 W 93RD AV SJ19 41.449958 -87.469145
11/10/2014 1:36 am 9200 WICKER AV SJ19 41.453592 -87.470222
11/10/2014 1:04 am 10900 WICKER AV SJ19 41.421149 -87.470100
11/10/2014 12:40 am 9200 WICKER AV SJ17 41.453592 -87.470222
11/10/2014 12:28 am 9200 WICKER AV SJ17 41.453592 -87.470222
11/10/2014 12:14 am 8900 WICKER AV; SCHILLING LUMBER SJ17 41.457608 -87.470280
11/09/2014 8:12 pm SJM SJ19 CIT
11/09/2014 6:31 pm SPEEDWAY SJ19 CIT
11/09/2014 6:23 pm 86 41 SJ17 CIT
11/09/2014 6:06 pm 8900 WICKER AV SJ19 41.457608 -87.470280 VW
11/09/2014 5:25 pm 8400 WICKER AV SJ17 41.464281 -87.470364 CIT
11/09/2014 3:15 pm 9200 WICKER AV SJ9 41.453592 -87.470222
11/09/2014 10:08 am 9600 WICKER AV SJ9 41.443973 -87.470069
11/09/2014 9:18 am 8900 WICKER AV; SCHILLING LUMBER SJ4 41.457608 -87.470280
11/09/2014 12:50 am 10100 WICKER AV SJ19 41.436091 -87.469997 CIT
11/09/2014 12:38 am 10900 WICKER AV SJ17 41.421149 -87.470100
11/09/2014 12:08 am W 93RD AV & SCHILLTON DR SJ23 41.450605 -87.496506 CIT
11/09/2014 12:02 am 8500 WICKER AV SJ17 41.462715 -87.470350 CIT
11/08/2014 11:36 pm 10700 WICKER AV SJ17 41.424209 -87.470085 CIT
11/08/2014 11:16 pm W 93RD AV & PATTERSON ST SJ14 41.449971 -87.470688
11/08/2014 10:52 pm 9200 WICKER AV SJ17 41.453592 -87.470222 CIT
11/08/2014 10:49 pm 8500 WICKER AV SJ19 41.462715 -87.470350 CIT
11/08/2014 10:36 pm 8801 WICKER AV; KOLLING ELEMENTARY SJ19 41.458933 -87.470299 CIT
11/08/2014 10:13 pm WALL PATTERSON SJ17 VW
11/08/2014 9:52 pm 8400 WICKER AV SJ19 41.464281 -87.470364
11/08/2014 9:49 pm SJ23 VW
11/08/2014 9:39 pm SJ23 CIT
11/08/2014 9:08 pm 9500 WICKER AV SJ23 41.445991 -87.470111
11/08/2014 8:50 pm 9500 WICKER AV SJ22 41.445991 -87.470111
11/08/2014 8:25 pm W 93RD AV & DEODOR ST SJ19 41.450808 -87.452756 VW
11/08/2014 8:20 pm 8500 WICKER AV SJ22 41.462715 -87.470350
11/08/2014 8:05 pm 7900 WICKER AV SJ22 41.473644 -87.470406 WW
11/08/2014 7:55 pm 8801 WICKER AV; KOLLING ELEMENTARY SJ22 41.458933 -87.470299
11/08/2014 7:39 pm SJ22
11/08/2014 7:16 pm SJ22
11/08/2014 6:49 pm 8801 WICKER AV; KOLLING ELEMENTARY SJ22 41.458933 -87.470299 WW
11/08/2014 6:18 pm 10900 WICKER AV SJ22 41.421149 -87.470100 CIT
11/08/2014 6:07 pm 10500 WICKER AV SJ22 41.428395 -87.470062 WW
11/08/2014 5:59 pm 9200 WICKER AV SJ22 41.453592 -87.470222 WW
11/08/2014 5:46 pm 9500 WICKER AV SJ17 41.445991 -87.470111 VW
11/08/2014 5:44 pm 8801 WICKER AV; KOLLING ELEMENTARY SJ22 41.458933 -87.470299 VW
11/08/2014 5:25 pm WALL ST & WICKER AV SJ17 41.453043 -87.470213 CIT
11/08/2014 5:20 pm SCHOOL ST & WICKER AV SJ22 41.447742 -87.470138 WW
11/08/2014 5:05 pm W 90TH AV & PATTERSON ST SJ22 41.455863 -87.474706 CIT
11/08/2014 4:54 pm WILDWOOD DR & PATTERSON ST SJ22 41.463196 -87.480041 CIT
11/08/2014 4:23 pm 8500 WICKER AV SJ22 41.462715 -87.470350 CIT
11/08/2014 4:05 pm 8800 WICKER AV SJ22 41.458947 -87.470300 WW
11/08/2014 8:27 am WALL ST & WICKER AV SJ9 41.453043 -87.470213
11/08/2014 7:46 am 8800 SCHILLTON DR SJ4 41.458887 -87.491943
11/08/2014 1:31 am 10800 WICKER AV SJ360 41.422959 -87.470092
11/08/2014 1:22 am 8200 WICKER AV SJ19 41.469318 -87.470392
11/08/2014 1:11 am 10500 WICKER AV SJ23 41.428395 -87.470062
11/08/2014 1:10 am 10500 WICKER AV SJ17 41.428395 -87.470062
11/08/2014 12:54 am 10800 FORESTDALE ST SJ19 41.422970 -87.473671
11/08/2014 12:14 am 9450 JOLIET ST; LOADS OF FUN SJ17 41.441277 -87.451156
11/07/2014 11:43 pm 9825 WICKER AV SJ17 41.440661 -87.470018
11/07/2014 11:07 pm 9285 WICKER AV SJ19 41.450826 -87.470183
11/07/2014 10:50 pm 8575 WICKER AV SJ19 41.461959 -87.470344
11/07/2014 8:50 pm 8600 WICKER AV SJ23 41.461624 -87.470339
11/07/2014 8:43 pm PATTERSON ST & WALL ST SJ19 41.452823 -87.472087
11/07/2014 8:26 pm RT 231 & GATES SJ360
11/07/2014 8:12 pm 11000 RT 231 SJ360
11/07/2014 7:53 pm WHITE OAK & ROSEWOOD SJ10
11/07/2014 7:37 pm W 77TH AV & WICKER AV SJ17 41.478956 -87.470527
11/07/2014 7:36 pm W 93RD AV & BELMONT AV SJ10 41.449965 -87.483809
11/07/2014 7:25 pm W 93RD AV & HILLTOP DR SJ10 41.450000 -87.487793
11/07/2014 7:08 pm 9600 WHITE OAK AV SJ10 41.444525 -87.489400
11/07/2014 6:52 pm 10600 WHITE OAK AV SJ10 41.427178 -87.489314
11/07/2014 6:39 pm W 101ST AV & WHITE OAK AV SJ10 41.435563 -87.489287
11/07/2014 6:30 pm WHITE OAK & ROSEWOOD SJ10
11/07/2014 6:19 pm 9200 WICKER AV SJ17 41.453592 -87.470222
11/07/2014 6:14 pm W 93RD AV & HILLTOP DR SJ10 41.450000 -87.487793
11/07/2014 5:56 pm W 93RD AV & HILLTOP DR SJ10 41.450000 -87.487793
11/07/2014 5:46 pm W 93RD AV & BELMONT AV SJ10 41.449965 -87.483809
11/07/2014 5:29 pm 8200 WICKER AV SJ17 41.469318 -87.470392
11/07/2014 5:28 pm W 93RD AV & HILLTOP DR SJ10 41.450000 -87.487793
11/07/2014 5:12 pm W 93RD AV & HILLTOP DR SJ10 41.450000 -87.487793
11/07/2014 4:54 pm W 93RD AV & HILLTOP DR SJ10 41.450000 -87.487793
11/07/2014 4:44 pm W 93RD AV & WHITE OAK AV SJ10 41.450009 -87.489482
11/07/2014 4:34 pm HILLTOP DR & W 93RD AV SJ10 41.450000 -87.487793
11/07/2014 12:56 pm W 93RD AV & MARQUETTE ST SJ4 41.449792 -87.441074
11/07/2014 10:12 am 9500 WICKER AV SJ9 41.449958 -87.469145
11/07/2014 6:18 am 9500 WICKER AV SJ9 41.445991 -87.470111
11/06/2014 9:07 pm 8445 WICKER AV; HANDS ON CAR WASH SJ365 41.463570 -87.470358
11/06/2014 7:36 pm 10700 WICKER AV SJ17 41.424209 -87.470085
11/06/2014 7:25 pm 10300 WICKER AV SJ17 41.431350 -87.470039
11/06/2014 7:06 pm 8400 WICKER AV SJ17 41.464281 -87.470364
11/06/2014 6:36 pm 9285 WICKER AV; JJS PETRO SJ17 41.450826 -87.470183
11/06/2014 6:20 pm 9700 WICKER AV SJ17 41.443089 -87.470050
11/06/2014 6:09 pm 9550 WICKER AV; KMART SJ17 41.444972 -87.470090
11/06/2014 5:52 pm 8801 WICKER AV; KOLLING ELEMENTARY SJ17 41.458933 -87.470299
11/06/2014 5:32 pm WALL ST & WICKER AV SJ17 41.453043 -87.470213
11/06/2014 5:23 pm W 85TH AV & WICKER AV SJ17 41.462715 -87.470350
11/06/2014 4:50 pm 8445 WICKER AV; HANDS ON CAR WASH SJ17 41.463570 -87.470358
11/06/2014 4:39 pm W 85TH AV & WICKER AV SJ17 41.462715 -87.470350
11/06/2014 4:21 pm 9270 WICKER AV; QUIZNOS SUB SUITE C SJ17 41.451746 -87.470195
11/06/2014 4:05 pm WALL ST & WICKER AV SJ17 41.453043 -87.470213
11/06/2014 4:39 am 9700 WICKER AV SJ22 41.443089 -87.470050
11/05/2014 10:43 pm W 93RD AV & RENAISSANCE DR SJ24 41.449797 -87.446679
11/05/2014 1:09 pm 10000 41 SJ18
11/05/2014 12:21 pm 9200 93 SJ12 WW
11/05/2014 6:34 am 93 & CLARMONTE SJ18
11/04/2014 11:54 pm W 83RD PL & PATTERSON AV SJ23 41.469357 -87.484956
11/04/2014 11:48 pm 8600 WICKER AV SJ365 41.461624 -87.470339
11/04/2014 11:38 pm 8000 WICKER AV SJ17 41.472761 -87.470400
11/04/2014 11:19 pm 8801 WICKER AV SJ365 41.458933 -87.470299
11/04/2014 11:11 pm 9700 WICKER AV SJ17 41.443089 -87.470050
11/04/2014 11:02 pm JOLIET ST & HART ST SJ23 41.442976 -87.461448
11/04/2014 10:37 pm 8445 WICKER AV; HANDS ON CAR WASH SJ17 41.463570 -87.470358
11/04/2014 10:07 pm 11300 WICKER AV SJ23 41.418042 -87.470092
11/04/2014 9:33 pm W 109TH AV & HILLCREST LN SJ365 41.421205 -87.496638 WW
11/04/2014 8:28 pm 10900 WICKER AV SJ17 41.421149 -87.470100 CIT
11/04/2014 8:14 pm 8600 WICKER AV SJ365 41.461624 -87.470339 CIT
11/04/2014 7:48 pm JOLIET ST & WICKER AV SJ17 41.447742 -87.470138 VW
11/04/2014 7:39 pm SJ365 CIT
11/04/2014 6:49 pm W 93RD AV & THIEL ST SJ23 41.449948 -87.467867 CIT
11/04/2014 6:47 pm 9957 EARL DR; TRACTOR SUPPLY SJ17 41.438451 -87.468672 CIT
11/04/2014 11:38 am 9200 WICKER AV SJ9 41.453592 -87.470222
11/04/2014 9:58 am WHI GMC SJ4
11/04/2014 5:23 am 8400 WICKER AV SJ19 41.464281 -87.470364
11/04/2014 12:14 am 8600 WICKER AV SJ17 41.461624 -87.470339
11/03/2014 10:59 pm 9500 WICKER AV SJ17 41.445991 -87.470111
11/03/2014 10:31 pm 104TH & CLINE SJ23
11/03/2014 10:21 pm W 109TH AV & WICKER AV SJ17 41.421149 -87.470100
11/03/2014 10:07 pm 8500 WICKER AV SJ23 41.462715 -87.470350
11/03/2014 8:14 pm 109TH AND SCHNEIDER SJ23 CIT
11/03/2014 8:06 pm W 102ND AV & WHITE OAK AV SJ23 41.433370 -87.489295
11/03/2014 7:11 pm 9885 WICKER AV SJ17 41.439647 -87.470007
11/03/2014 6:51 pm 9600 WICKER AV SJ23 41.443973 -87.470069
11/03/2014 6:26 pm 8000 WICKER AV SJ17
11/03/2014 2:44 pm WALL ST & WICKER AV SJ9 41.453043 -87.470213
11/03/2014 2:15 pm 9200 WICKER AV SJ9 41.453592 -87.470222
11/03/2014 12:37 pm 11700 W 93RD AV; PRAIRIE WEST PARK SJ19 41.449987 -87.476751
11/03/2014 9:34 am 8200 WICKER AV SJ19 41.469318 -87.470392
11/03/2014 5:08 am W 93RD AV & MERRILLVILLE RD SJ22 41.449379 -87.352713
11/03/2014 1:21 am WICKER AV & WALL ST SJ24 41.453043 -87.470213
11/03/2014 12:49 am W 77TH AV & WICKER AV SJ22 41.478956 -87.470527
11/03/2014 12:09 am W 92ND AV & CLINE AV SJ22 41.451877 -87.431390
11/02/2014 11:59 pm 10133 W 93RD AV SJ22 41.450412 -87.459144
11/02/2014 11:48 pm HILLCREST LN & W 109TH AV SJ22 41.421205 -87.496638
11/02/2014 9:33 pm W 93RD AV & NORTHCOTE AV SJ22 41.449966 -87.482130
11/02/2014 2:22 pm 11033 W 93RD AV; ST JOHN POLICE DEPARTME SJ18 41.449958 -87.469145
11/02/2014 6:13 am 11000 W 109TH AV SJ18 41.421125 -87.465951 CIT
11/02/2014 3:45 am MCDONALDS LOT SJ22
11/02/2014 1:27 am 8575 WICKER AV SJ24 41.461959 -87.470344
11/02/2014 1:20 am 9400 WICKER AV SJ22 41.447998 -87.470142
11/02/2014 12:39 am 9200 WICKER AV SJ22 41.453592 -87.470222
11/02/2014 12:34 am 8200 WICKER AV SJ24 41.469318 -87.470392
11/02/2014 12:23 am 9600 WICKER AV SJ22 41.443973 -87.470069
11/01/2014 10:55 pm W 109TH AV; 11000 BLK SJ22 41.421213 -87.495438
11/01/2014 10:37 pm 9285 WICKER AV SJ22 41.450826 -87.470183
11/01/2014 10:24 pm 8900 WICKER AV SJ22 41.457608 -87.470280
11/01/2014 10:20 pm 8900 WICKER AV SJ19 41.457608 -87.470280
11/01/2014 8:47 pm 10800 WICKER AV SJ19 41.422959 -87.470092 CIT
11/01/2014 8:40 pm WALL ST & WICKER AV SJ22 41.453043 -87.470213 VW
11/01/2014 8:31 pm 8400 WICKER AV SJ19 41.464281 -87.470364 WW
11/01/2014 7:46 pm W 117TH AV & WICKER AV SJ19 41.406558 -87.470069 CIT
11/01/2014 7:37 pm W 109TH AV & SCHNEIDER PL SJ19 41.421141 -87.468343 CIT
11/01/2014 7:13 pm 11400 WHITE OAK AV SJ19 41.412152 -87.489325 CIT
11/01/2014 6:33 pm 10300 WICKER AV SJ19 41.431350 -87.470039 WW
11/01/2014 6:14 pm SJ19
11/01/2014 5:31 pm SJ24 CIT
11/01/2014 5:23 pm W 101ST AV & SADDLE CREEK DR SJ19 41.435592 -87.499938
11/01/2014 5:08 pm 9400 WHITE OAK AV SJ19 41.448199 -87.489455
11/01/2014 4:57 pm 10100 WHITE OAK AV SJ19 41.435704 -87.489289
11/01/2014 11:26 am 9500 WICKER AV SJ18 41.445991 -87.470111 CIT
11/01/2014 8:15 am W 93RD AV & GERLACK ST SJ12 41.449906 -87.463029
10/31/2014 10:46 pm W 85TH AV & PARRISH AV SJ22 41.464299 -87.451065
10/31/2014 8:13 am 10300 JOLIET ST SJ7 41.443389 -87.462809
10/30/2014 6:42 pm PATTERSON ST & WALL ST SJ365 41.452823 -87.472087
10/30/2014 3:09 pm 9500 WICKER AV SJ9 41.445991 -87.470111
10/29/2014 10:47 pm W 93RD AV; BEALL SJ23 41.450129 -87.508672
10/29/2014 9:29 pm 9700 WICKER AV SJ23 41.443089 -87.470050 VW
10/29/2014 7:19 pm WALL ST & WICKER AV SJ23 41.453043 -87.470213
10/29/2014 4:05 pm 9200 WICKER AV SJ9 41.453592 -87.470222 CIT
10/29/2014 3:33 pm 8900 WICKER AV SJ9 41.457608 -87.470280 CIT
10/29/2014 3:21 pm 9300 WICKER AV SJ9 41.449967 -87.470171 VW
10/29/2014 6:31 am 9600 WICKER AV SJ9 41.443973 -87.470069
10/28/2014 12:00 pm 10300 JOLIET ST SJ12 41.443389 -87.462809
10/28/2014 11:32 am 9900 WHITE OAK AV SJ18 41.439215 -87.489331
10/28/2014 10:35 am RENAISSANCE DR SJ12 41.444940 -87.446460
10/27/2014 7:51 pm 8575 WICKER AV; SPEEDWAY SJ24 41.461959 -87.470344
10/27/2014 7:08 pm 8300 WICKER AV SJ9 41.466787 -87.470378
10/27/2014 3:44 pm SCHOOL ST & WICKER AV SJ12 41.447742 -87.470138
10/27/2014 3:42 pm 9623 WICKER AV; RASCALS SJ18 41.443768 -87.470065
10/27/2014 7:52 am 10000 PARRISH SJ12
10/27/2014 1:06 am 10600 WICKER AV SJ17 41.427299 -87.470069
10/26/2014 11:13 pm SJ4
10/26/2014 7:48 pm W 109TH AV & WICKER AV SJ4 41.421149 -87.470100
10/26/2014 5:25 pm WALL ST & WICKER AV SJ17 41.453043 -87.470213 CIT
10/26/2014 3:59 pm 10100 WICKER AV SJ19 41.436091 -87.469997 CIT
10/26/2014 3:05 pm W 109TH AV & CLINE AV SJ19 41.420910 -87.431171 CIT
10/26/2014 2:44 pm 10800 OLCOTT AV SJ10 41.423403 -87.481327
10/26/2014 1:23 pm 231 PARKSIDE SJ19 VW
10/26/2014 9:39 am 11100 WICKER AV SJ19 41.419596 -87.470096
10/26/2014 6:36 am 10630 WICKER AV; SHRINE OF CHRISTS PASSI SJ19 41.426185 -87.470075
10/26/2014 1:07 am 8575 WICKER AV SJ9 41.461959 -87.470344
10/26/2014 12:48 am 8200 WICKER AV SJ9 41.469318 -87.470392
10/26/2014 12:36 am 8500 WICKER AV SJ9 41.462715 -87.470350
10/26/2014 12:35 am 8400 WICKER AV SJ4 41.464281 -87.470364
10/25/2014 11:53 pm 8400 AUSTIN AV SJ4 41.466495 -87.446269
10/25/2014 11:13 pm 8500 WICKER AV SJ17 41.462715 -87.470350
10/25/2014 10:49 pm 9600 WICKER AV SJ9 41.443973 -87.470069
10/25/2014 10:27 pm 8801 WICKER AV SJ17 41.458933 -87.470299
10/25/2014 8:42 pm 8500 WICKER AV SJ4 41.462715 -87.470350
10/25/2014 8:29 pm 10300 WICKER AV SJ4 41.431350 -87.470039
10/25/2014 8:18 pm 8801 WICKER AV; KOLLING ELEMENTARY SJ17 41.458933 -87.470299
10/25/2014 7:33 pm 9270 WICKER AV; QUIZNOS SUB SUITE C SJ17 41.451746 -87.470195
10/25/2014 7:13 pm 8801 WICKER AV; KOLLING ELEMENTARY SJ17 41.458933 -87.470299
10/25/2014 6:44 pm 8400 WICKER AV SJ17 41.464281 -87.470364
10/25/2014 4:08 pm 9500 WICKER AV SJ19 41.445991 -87.470111
10/25/2014 3:33 pm W 93RD AV & SCHAFER DR SJ19 41.449796 -87.442718
10/25/2014 3:12 pm 8400 ALEXANDER SJ19
10/25/2014 2:34 pm W 108TH AND CALUMET SJ23
10/25/2014 2:18 pm W 93RD AV & HILLTOP DR SJ23 41.450000 -87.487793
10/25/2014 1:34 pm 9500 WICKER AV SJ19 41.445991 -87.470111
10/25/2014 7:38 am W 93RD AV & BLAINE ST SJ23 41.449720 -87.426537
10/25/2014 7:28 am W 93RD AV & CLINE AV SJ19 41.449743 -87.431354
10/25/2014 6:59 am W 101ST AV & WHITE OAK AV SJ19 41.435563 -87.489287
10/25/2014 6:52 am W 101ST AV & SHEFFIELD AV SJ23 41.435615 -87.517966
10/25/2014 6:42 am W 109TH AV & HILLCREST LN SJ23 41.421205 -87.496638
10/25/2014 6:26 am VENTURA DR & WICKER AV SJ14 41.464281 -87.470364
10/25/2014 1:31 am 8200 WICKER AV SJ9 41.469318 -87.470392
10/25/2014 12:30 am W 93RD AV; W OAKRIDGE SJ9 41.450129 -87.508672
10/24/2014 11:58 pm 9600 WICKER AV SJ365 41.443973 -87.470069
10/24/2014 11:57 pm 8200 WICKER AV SJ9 41.469318 -87.470392
10/24/2014 11:25 pm W 85TH AV & WICKER AV SJ365 41.462715 -87.470350
10/24/2014 7:51 pm 9280 WICKER AV; WALGREENS #4276 SJ9 41.451133 -87.470187
10/24/2014 5:43 pm 8900 MARQUETTE ST SJ4 41.456387 -87.441221
10/24/2014 4:07 pm W 101ST AV & WHITE OAK AV SJ23 41.435563 -87.489287
10/23/2014 10:51 pm 10600 WICKER AV SJ24 41.427299 -87.470069
10/23/2014 8:54 pm PD SJ24 WW
10/23/2014 7:35 pm 8400 WICKER AV SJ17 41.464281 -87.470364 CIT
10/23/2014 7:13 pm 8600 WICKER AV SJ24 41.461624 -87.470339 CIT
10/23/2014 6:32 pm 102ND WALSH SJ24
10/23/2014 5:02 pm 9300 WICKER AV SJ17 41.449967 -87.470171 CIT
10/23/2014 4:29 pm 10600 WICKER AV SJ22 41.427299 -87.470069
10/23/2014 4:10 pm ST JOHN PROFESSIONAL SJ22 VW
10/23/2014 11:07 am 9600 KEILMAN ST SJ22 41.444611 -87.472455 WW
10/23/2014 10:36 am 8500 WICKER AV SJ22 41.462715 -87.470350
10/22/2014 8:31 pm 8575 WICKER AV; SPEEDWAY SJ24 41.461959 -87.470344
10/22/2014 8:05 pm 8400 WICKER AV SJ17 41.464281 -87.470364
10/22/2014 7:22 pm 11700 W 93RD AV SJ24 41.449987 -87.476751
10/22/2014 7:10 pm 8575 WICKER AV; SPEEDWAY SJ17 41.461959 -87.470344
10/22/2014 5:22 pm 8500 WICKER AV SJ17 41.462715 -87.470350
10/22/2014 11:03 am SCHOOL ST; 41 SJ22 41.447738 -87.471309
10/22/2014 9:40 am 108 41 SJ22
10/22/2014 9:35 am 92 41 SJ22
10/22/2014 1:07 am JOLIET ST & WICKER AV SJ9 41.447742 -87.470138
10/21/2014 9:38 pm 8113 WICKER AV SJ4 41.470585 -87.470393
10/21/2014 4:11 pm 11033 W 93RD AV; ST JOHN POLICE DEPARTME SJ21 41.449958 -87.469145
10/21/2014 3:38 pm W 93RD AV & NORTHCOTE AV SJ23 41.449966 -87.482130
10/21/2014 3:27 pm 9500 WHITE OAK AV SJ23
10/21/2014 9:44 am 41 S 109 SJ21
10/21/2014 8:27 am 101 WO SJ23
10/21/2014 8:18 am 101 WO SJ23
10/21/2014 7:58 am W 101ST AV & WHITE OAK AV SJ23 41.435563 -87.489287
10/21/2014 7:41 am 95 WO SJ23
10/21/2014 7:12 am 8400 WICKER AV SJ21 41.464281 -87.470364
10/21/2014 2:08 am US231 & RT 231 SJ4
10/21/2014 12:06 am 8575 WICKER AV; SPEEDWAY SJ17 41.461959 -87.470344
10/20/2014 11:56 pm 8600 WICKER AV SJ365 41.461624 -87.470339
10/20/2014 10:31 pm W 93RD AV & PATTERSON ST SJ365 41.449971 -87.470688
10/20/2014 10:13 pm WICKER AV & JOLIET ST SJ365 41.447742 -87.470138
10/20/2014 7:34 pm 9200 OLCOTT AV SJ9 41.451570 -87.481338 CIT
10/20/2014 7:30 pm 9700 WICKER AV SJ17 41.443089 -87.470050 CIT
10/20/2014 6:28 pm 9400 WHITE OAK AV SJ365 41.448199 -87.489455 WW
10/20/2014 6:03 pm 93RD WICKER SJ17 CIT
10/20/2014 12:33 pm 93RD AV & BRAMBLEWOOD DR SJ23 41.450151 -87.505367
10/20/2014 9:23 am 9425 WICKER AV; MIGHTY MIKES SJ23 41.447516 -87.470135
10/20/2014 7:56 am 93 W BELMONT SJ21
10/19/2014 11:01 pm W 93RD AV & DEODOR ST SJ12 41.450808 -87.452756
10/19/2014 10:45 pm 9200 WICKER AV SJ12 41.453592 -87.470222
10/19/2014 3:04 pm 10100 WICKER AV SJ22 41.436091 -87.469997
10/19/2014 2:46 pm 9285 WICKER AV; JJS PETRO SJ22 41.450826 -87.470183
10/19/2014 9:42 am 9400 WICKER AV SJ22 41.447998 -87.470142
10/19/2014 12:49 am 9300 WHITE OAK AV SJ24 41.450009 -87.489482
10/18/2014 10:46 pm 8801 WICKER AV SJ12 41.458933 -87.470299
10/18/2014 9:23 pm W 93RD AV & SCHAFER DR SJ12 41.449796 -87.442718 WW
10/18/2014 4:49 pm 8500 WICKER AV SJ24 41.462715 -87.470350 CIT
10/18/2014 2:37 pm 10600 WICKER AV SJ22 41.427299 -87.470069
10/18/2014 9:54 am 8800 WICKER AV; KOLLING SCHOOL SJ22 41.458947 -87.470300
10/18/2014 9:40 am W 93RD AV & KEILMAN ST SJ10 41.449981 -87.472491
10/18/2014 9:03 am 9300 WICKER AV SJ22 41.449967 -87.470171
10/18/2014 12:31 am W 93RD AV; CALUMET SJ24 41.450129 -87.508672
10/17/2014 10:31 pm 10200 WICKER AV SJ12 41.435026 -87.470008
10/17/2014 8:09 pm 9300 KEILMAN ST SJ12 41.449981 -87.472491
10/17/2014 7:54 pm W 93RD AV & CLARMONTE DR SJ12 41.449796 -87.449160
10/17/2014 4:31 pm HACK ST & W 93RD AV SJ22 41.449925 -87.465068
10/17/2014 4:16 pm 9100 OLCOTT AV SJ19 41.453187 -87.481448
10/17/2014 4:13 pm HACK ST & W 93RD AV SJ22 41.449925 -87.465068
10/17/2014 4:04 pm 9100 OLCOTT AV SJ19 41.453187 -87.481448
10/17/2014 3:39 pm 9100 OLCOTT AV SJ19 41.453187 -87.481448
10/17/2014 3:25 pm 9100 OLCOTT AV SJ19 41.453187 -87.481448
10/17/2014 3:35 am 8209 WICKER AV SJ9 41.469091 -87.470391
10/17/2014 3:07 am 10600 WICKER AV SJ9 41.427299 -87.470069
10/17/2014 12:54 am 11033 W 93RD AV SJ9 41.449958 -87.469145
10/16/2014 11:46 pm 8575 WICKER AV SJ9 41.461959 -87.470344
10/16/2014 10:41 pm W 101ST AV & WHITE OAK AV SJ364 41.435563 -87.489287
10/16/2014 8:04 pm W 85TH AV & FARMINGTON ST SJ9 41.463284 -87.467568
10/16/2014 7:35 pm 9600 WICKER AV SJ9 41.443973 -87.470069
10/16/2014 7:22 pm SJ MALL SJ17
10/16/2014 7:10 pm 8575 WICKER AV; SPEEDWAY SJ17 41.461959 -87.470344
10/16/2014 6:36 pm 9600 WICKER AV SJ9 41.443973 -87.470069
10/16/2014 2:02 pm JOLIET ST & IVY AV SJ21 41.441512 -87.452718
10/16/2014 1:32 pm 41 S OF 231 SJ21
10/16/2014 12:52 pm 93 MALLARD SJ4
10/16/2014 12:13 am 11000 WICKER AV SJ365 41.420373 -87.470098
10/15/2014 11:46 pm W 109TH AV & OLCOTT AV SJ365 41.421214 -87.481530
10/15/2014 8:19 am 10200 41 SJ23
10/14/2014 11:57 pm 8900 WICKER AV SJ22 41.457608 -87.470280
10/14/2014 10:31 pm WHITE OAK AV; 9300 BLK SJ12 41.423231 -87.489361
10/14/2014 6:09 am 9700 WICKER AV SJ18 41.443089 -87.470050
10/14/2014 3:43 am 8575 WICKER AV; SPEEDWAY SJ364 41.461959 -87.470344
10/14/2014 2:58 am WICKER Ave & KOLLING SCHOOL SJ364
10/13/2014 11:59 pm 11300 VALLEY DR SJ22 41.436678 -87.473343
10/13/2014 11:35 pm 9300 WICKER AV SJ22 41.449967 -87.470171
10/13/2014 9:27 pm W 101ST AV & SADDLE CREEK DR SJ22 41.435592 -87.499938
10/13/2014 5:48 pm 9600 WICKER AV SJ22 41.443973 -87.470069
10/13/2014 8:44 am 9600 WICKER AV SJ9 41.443973 -87.470069
10/13/2014 7:33 am 9200 WICKER AV SJ9 41.453592 -87.470222
10/13/2014 12:29 am 93RD AV & BRAMBLEWOOD DR SJ23 41.450151 -87.505367
10/12/2014 7:49 pm 9500 WICKER AV SJ17 41.445991 -87.470111
10/12/2014 5:41 pm 9285 WICKER AV; JJS PETRO SJ17 41.450826 -87.470183
10/12/2014 5:26 pm 10200 WICKER AV SJ17 41.435026 -87.470008
10/12/2014 3:48 am 9321 WICKER AV; STANDARD BANK AND TRUST SJ23 41.449554 -87.470165
10/12/2014 3:29 am 8801 WICKER AV SJ17 41.458933 -87.470299
10/12/2014 3:23 am 8801 WICKER AV SJ17 41.458933 -87.470299
10/11/2014 11:33 pm 8200 WICKER AV SJ23 41.469318 -87.470392
10/11/2014 3:07 pm PARK DR SJ21 41.450924 -87.460065
10/11/2014 1:40 pm 9500 WICKER AV SJ21 41.445991 -87.470111
10/11/2014 11:44 am NORTHWOODS SJ9
10/11/2014 11:35 am 9200 WICKER AV SJ21 41.453592 -87.470222
10/11/2014 8:20 am 9280 WICKER AV; WALGREENS #4276 SJ9 41.451133 -87.470187
10/11/2014 2:00 am 9285 WICKER AV SJ17 41.450826 -87.470183
10/10/2014 9:04 pm W 92ND AV & MONIX DR SJ17 41.451894 -87.492244
10/10/2014 8:16 pm W 93RD AV & RENAISSANCE DR SJ17 41.449797 -87.446679
10/10/2014 7:30 pm 8496 WICKER AV; TACO BELL SJ17 41.462763 -87.470351
10/10/2014 10:50 am 9600 WICKER AV SJ9 41.443973 -87.470069
10/10/2014 10:27 am 9600 WICKER AV SJ9 41.443973 -87.470069
10/10/2014 10:17 am 9153 WICKER AV; MALINICH JEWLERS SJ9 41.454221 -87.470231
10/10/2014 9:08 am WALL ST & WICKER AV SJ9 41.453043 -87.470213
10/10/2014 8:44 am WALL ST & WICKER AV SJ9 41.453043 -87.470213
10/10/2014 8:26 am 9600 WICKER AV SJ9 41.443973 -87.470069
10/10/2014 7:46 am 9825 WICKER AV; STRACK & VANTIL SJ21 41.440661 -87.470018
10/10/2014 2:56 am 9400 WICKER AV SJ22 41.447998 -87.470142
10/10/2014 2:44 am 11033 W 93RD AV SJ22 41.449958 -87.469145
10/10/2014 1:48 am 9500 WICKER AV SJ364 41.445991 -87.470111
10/10/2014 1:25 am 9571 WICKER AV SJ22 41.444544 -87.470081
10/10/2014 12:55 am W 93RD AV; RENAISSANCE SJ22 41.450129 -87.508672
10/10/2014 12:29 am LAKE HILLS FIRE DEPARTMENT SJ22
10/09/2014 8:13 pm W 93RD AV & COLUMBIA AV SJ19 41.450881 -87.500558
10/09/2014 8:10 pm 9300 WICKER AV SJ22 41.449967 -87.470171
10/09/2014 8:04 pm W 93RD AV & COLUMBIA AV SJ19 41.450881 -87.500558
10/09/2014 7:38 pm 10800 WHITE OAK AV SJ19 41.423212 -87.489361
10/09/2014 7:11 pm 9285 WICKER AV; JJS PETRO SJ19 41.450826 -87.470183
10/09/2014 3:52 pm W 93RD AV & RENAISSANCE DR SJ19 41.449797 -87.446679
10/09/2014 3:43 pm COMMUNITY BABTIST SJ19
10/09/2014 12:09 pm 93 WO SJ18
10/09/2014 9:23 am 9400 BLAINE ST SJ18 41.447814 -87.426508
10/09/2014 6:21 am 108 41 SJ18
10/09/2014 1:55 am 10600 WICKER AV SJ22 41.427299 -87.470069
10/09/2014 12:59 am 8700 WICKER AV SJ22 41.460285 -87.470319 VW
10/08/2014 3:45 pm 9100 W 93RD AV SJ19 41.450808 -87.452756
10/08/2014 2:49 pm W 109TH AV & HILLCREST LN SJ19 41.421205 -87.496638
10/08/2014 12:23 pm 93 DEODOR SJ19
10/08/2014 9:53 am 85 41 SJ19
10/08/2014 9:43 am 8575 WICKER AV; SPEEDWAY SJ19 41.461959 -87.470344
10/08/2014 12:01 am SCHOOL ST & WICKER AV SJ23 41.447742 -87.470138
10/07/2014 8:55 pm 8500 WICKER AV SJ23 41.462715 -87.470350
10/07/2014 8:47 pm 8500 WICKER AV SJ23 41.462715 -87.470350
10/07/2014 7:36 pm W 95TH AV & WICKER AV SJ17 41.446031 -87.470111
10/07/2014 5:54 pm WALL ST & PATTERSON ST SJ17 41.452823 -87.472087
10/07/2014 4:17 pm 11300 KELLY DR SJ19 41.463096 -87.474315
10/07/2014 3:53 pm 8900 W 93RD AV SJ19 41.449796 -87.442718
10/07/2014 1:19 pm 85 41 SJ19
10/07/2014 12:00 pm JOLIET 41 SJ9
10/07/2014 11:51 am WALL WICKER SJ9
10/07/2014 8:35 am 95 41 SJ21
10/07/2014 6:59 am 9600 WICKER AV SJ9 41.443973 -87.470069
10/06/2014 3:33 am 9600 WICKER AV SJ22 41.443973 -87.470069 VW
10/06/2014 2:58 am BLAINE ST & W 93RD AV SJ22 41.449720 -87.426537 VW
10/05/2014 11:16 pm W 91ST AV & NOBLE ST SJ22 41.453207 -87.380268 VW
10/05/2014 5:54 pm 1600 109TH SJ16
10/05/2014 5:53 pm 7600 WICKER SJ22
10/05/2014 3:30 am W 109TH AV; HILLCREST SJ22 41.421213 -87.495438
10/05/2014 2:49 am 8500 WICKER AV SJ22 41.462715 -87.470350
10/05/2014 2:42 am 10500 WICKER AV SJ22 41.428395 -87.470062
10/05/2014 2:01 am W OAKRIDGE DR & W 93RD AV SJ22 41.449989 -87.478157
10/05/2014 1:19 am 10633 WICKER AV SJ22 41.426074 -87.470075
10/04/2014 9:46 pm 8900 WICKER AV SJ22 41.457608 -87.470280
10/04/2014 9:35 pm 9300 WICKER AV SJ22 41.449967 -87.470171 VW
10/04/2014 8:38 am sr231 & schneider pl SJ18
10/04/2014 8:13 am 10500 WHITE OAK AV SJ18 41.429191 -87.489305
10/04/2014 3:17 am W 85TH AV; FRAIRWAY SJ22 41.464535 -87.496385
10/04/2014 3:02 am W 109TH AV & WICKER SJ22
10/04/2014 2:40 am W 109TH AV & CALUMET AV SJ22 41.421141 -87.508266
10/04/2014 1:51 am 11033 W 93RD AV SJ22 41.449958 -87.469145
10/04/2014 1:43 am 8101 WICKER AV SJ22 41.470761 -87.470393
10/03/2014 11:35 pm W 93RD AV & PATTERSON ST SJ22 41.449971 -87.470688
10/03/2014 10:49 pm W 96TH AV & W OAKRIDGE DR SJ22 41.444072 -87.477168
10/03/2014 10:04 pm W 85TH AV & ALEXANDER ST SJ16 41.464367 -87.465541
10/03/2014 9:10 pm 9155 WICKER AV; SUBWAY SJ16 41.454195 -87.470230
10/03/2014 5:32 pm 9321 WICKER AV; STANDARD BANK AND TRUST SJ22 41.449554 -87.470165
10/02/2014 7:43 pm 8575 WICKER AV; SPEEDWAY SJ23 41.461959 -87.470344
10/02/2014 6:50 pm W 109TH AV & E SCHNEIDER CT; US231 SJ23 41.421136 -87.467561
10/02/2014 6:19 pm 11033 W 93RD AV SJ17 41.449958 -87.469145
10/02/2014 5:32 pm 9285 WICKER AV; JJS PETRO SJ17 41.450826 -87.470183
10/02/2014 5:22 pm 8400 WICKER AV SJ21 41.464281 -87.470364 VW
10/02/2014 5:16 pm 9500 WICKER AV SJ17 41.445991 -87.470111
10/02/2014 2:19 pm WALL ST & WICKER AV SJ9 41.453043 -87.470213
10/02/2014 12:11 pm WALL ST & WICKER AV SJ9 41.453043 -87.470213
10/02/2014 8:19 am 9500 RENAISSANCE DR SJ9 41.446249 -87.446597
10/02/2014 7:55 am WALL ST & WICKER AV SJ9 41.453043 -87.470213
10/02/2014 12:17 am 7800 WICKER AV SJ21 41.475903 -87.470459
10/01/2014 10:09 pm 9700 WICKER AV SJ21 41.443089 -87.470050
10/01/2014 9:37 pm 9400 WICKER AV SJ21 41.447998 -87.470142
10/01/2014 9:09 pm 8801 WICKER AV; KOLLING ELEMENTARY SJ23 41.458933 -87.470299
10/01/2014 8:15 pm 8400 WICKER AV SJ21 41.464281 -87.470364
10/01/2014 8:01 pm 10200 WICKER AV SJ17 41.435026 -87.470008
10/01/2014 4:23 pm 9600 WICKER AV SJ9 41.443973 -87.470069
10/01/2014 10:46 am 9600 WICKER AV SJ9 41.443973 -87.470069
10/01/2014 10:26 am W 96TH AV & KEILMAN ST SJ9 41.443956 -87.472445
10/01/2014 9:23 am 9500 WICKER AV SJ9 41.445991 -87.470111
10/01/2014 8:03 am 9200 W 101ST AV SJ365 41.439141 -87.446047
10/01/2014 7:59 am PD SJ14 CIT
10/01/2014 6:52 am 101 PARRISH SJ7
10/01/2014 6:39 am 95 41 SJ9
10/01/2014 6:12 am psrrsih 109th SJ9
09/30/2014 11:30 pm 8200 WICKER AV SJ22 41.469318 -87.470392
09/30/2014 10:35 pm W 109TH AV & HILLCREST LN SJ22 41.421205 -87.496638
09/30/2014 7:24 pm 8801 WICKER AV; KOLLING ELEMENTARY SJ22 41.458933 -87.470299
09/30/2014 12:11 pm 231 41 SJ16
09/30/2014 11:08 am 41 S OF 231 SJ16
09/30/2014 8:39 am 92 CLINE SJ18
09/30/2014 1:02 am W 85TH AV & WICKER AV SJ22 41.462715 -87.470350
09/30/2014 12:37 am WALL ST & WICKER AV SJ22 41.453043 -87.470213
09/29/2014 9:54 pm 9500 WICKER AV; SB SJ22 41.445991 -87.470111
09/29/2014 1:55 pm 109 OLCOTT SJ18
09/29/2014 9:49 am PWP SJ16
09/28/2014 8:09 pm 9300 WICKER AV SJ9 41.449967 -87.470171
09/28/2014 7:58 pm 11100 WICKER AV SJ17
09/28/2014 4:57 pm 8200 WICKER AV SJ21 41.469318 -87.470392
09/28/2014 11:12 am SCHOOL ST & WICKER AV SJ21 41.447742 -87.470138 VW
09/27/2014 6:43 pm 8300 WICKER AV SJ9 41.466787 -87.470378
09/27/2014 6:11 pm 8600 WICKER AV SJ17 41.461624 -87.470339
09/27/2014 6:07 pm 8300 WICKER AV SJ9 41.466787 -87.470378
09/27/2014 2:53 pm W 93RD AV & DEODOR ST SJ19 41.450808 -87.452756
09/27/2014 2:43 pm W 93RD AV & DEODOR ST SJ19 41.450808 -87.452756
09/27/2014 1:28 pm 10100 WICKER AV SJ19 41.436091 -87.469997
09/27/2014 1:15 pm 9200 WICKER AV SJ19 41.453592 -87.470222
09/27/2014 12:56 pm WICKER AV & WALL ST SJ19 41.453043 -87.470213
09/27/2014 11:53 am 9400 WHITE OAK AV SJ19 41.448199 -87.489455
09/27/2014 11:38 am W 101ST AV & WELLINGTON CT E SJ19 41.435574 -87.493895
09/27/2014 10:54 am 9400 WICKER AV SJ19 41.447998 -87.470142
09/27/2014 10:43 am STRACK AND VAN TIL SJ19
09/27/2014 10:31 am 10100 WICKER AV SJ19 41.436091 -87.469997
09/27/2014 10:20 am 9400 WICKER AV SJ19 41.447998 -87.470142
09/27/2014 9:57 am CASH FOR GOLD SJ21
09/27/2014 9:50 am 8400 WICKER AV SJ19 41.464281 -87.470364
09/27/2014 1:29 am 9321 WICKER AV; STANDARD BANK AND TRUST SJ9 41.449554 -87.470165
09/27/2014 12:23 am 9400 WICKER AV SJ19 41.447998 -87.470142
09/27/2014 12:15 am 11700 W 93RD AV SJ19 41.449987 -87.476751
09/27/2014 12:05 am W 93RD AV & PATTERSON ST SJ19 41.449971 -87.470688
09/26/2014 11:51 pm 8575 WICKER AV SJ19 41.461959 -87.470344
09/26/2014 11:34 pm W 85TH AV & WICKER AV SJ19 41.462715 -87.470350
09/26/2014 11:07 pm 231 & SCHNEIDER PL SJ19
09/26/2014 10:48 pm W 109TH AV & WICKER AV SJ19
09/26/2014 10:22 pm 8575 WICKER AV SJ19 41.461959 -87.470344
09/26/2014 10:09 pm WICKER AV & WALL ST SJ19 41.453043 -87.470213
09/26/2014 9:26 pm 11700 W 93RD AV SJ19 41.449987 -87.476751
09/26/2014 8:58 pm W 97TH LN & WICKER AV SJ19 41.441590 -87.470028
09/26/2014 8:40 pm ZIG'E'S SJ19
09/26/2014 10:06 am 9200 WICKER AV SJ21 41.453592 -87.470222
09/26/2014 8:10 am WICKER AV & SCHOOL ST SJ21 41.447742 -87.470138
09/25/2014 10:08 pm 8575 WICKER AV SJ24 41.461959 -87.470344
09/25/2014 2:41 pm 9141 WICKER AV; ASPEN CAFE SJ17 41.454382 -87.470233
09/25/2014 2:11 pm W 85TH AV & WICKER AV SJ17 41.462715 -87.470350
09/25/2014 1:55 pm 9500 WICKER AV SJ17 41.445991 -87.470111
09/25/2014 1:39 pm WALL ST & WICKER AV SJ17 41.453043 -87.470213
09/25/2014 1:17 pm 8400 WICKER AV; SPEEDWAY SJ17 41.464281 -87.470364
09/25/2014 1:04 pm 8400 WICKER AV; SPEEDWAY SJ17 41.464281 -87.470364
09/25/2014 12:45 pm SCHILLTON DR & W 93RD AV SJ17 41.448199 -87.489455
09/25/2014 12:32 pm 9400 WICKER AV; sb SJ22 41.447998 -87.470142
09/25/2014 12:26 pm 9270 WICKER AV; QUIZNOS SUB SUITE C SJ17 41.451746 -87.470195
09/25/2014 12:13 pm 8801 WICKER AV; KOLLING SJ17 41.458933 -87.470299
09/25/2014 12:04 pm WALL ST & WICKER AV SJ17 41.453043 -87.470213
09/25/2014 11:51 am 8801 WICKER AV; KOLLING SCHOOL SJ17 41.458933 -87.470299
09/25/2014 11:43 am 8400 WICKER AV; SPEEDWAY SJ17 41.464281 -87.470364
09/25/2014 11:25 am 9280 WICKER AV; WALGREENS #4276 SJ17 41.451133 -87.470187 CIT
09/25/2014 11:05 am 9400 WICKER AV SJ17 41.447998 -87.470142
09/25/2014 10:54 am 8365 WICKER AV; DEYOUNG INTERIORS SJ17 41.465142 -87.470369
09/25/2014 10:53 am W 109TH AV & WICKER AV SJ16 41.421149 -87.470100
09/25/2014 10:18 am 8801 WICKER AV; kolling parking lot SJ7 41.458933 -87.470299
09/25/2014 7:14 am 101ST & WHITE OAK SJ23
09/25/2014 5:49 am 8801 WICKER AV SJ23 41.458933 -87.470299
09/24/2014 4:00 pm PD SJ16 CIT
09/24/2014 2:20 pm WALL ST & WICKER AV SJ17 41.453043 -87.470213 CIT
09/24/2014 1:31 pm W 85TH AV & KOLLING SCHOOL RD SJ17
09/24/2014 1:12 pm 9500 WICKER AV SJ17 41.445991 -87.470111
09/24/2014 1:00 pm 10200 WICKER AV SJ17 41.435026 -87.470008
09/24/2014 12:40 pm 11400 VENTURA DR SJ17 41.463317 -87.473913
09/24/2014 11:57 am 9200 WICKER AV; QUIZNOS SJ17 41.453592 -87.470222
09/24/2014 11:44 am 9200 WICKER AV; Quiznos SJ17 41.453592 -87.470222
09/24/2014 11:32 am 8500 WICKER AV SJ17 41.462715 -87.470350
09/24/2014 11:31 am 11033 W 93RD AV SJ7 41.449958 -87.469145
09/24/2014 11:14 am 9280 WICKER AV; WALGREENS #4276 SJ17 41.451133 -87.470187
09/24/2014 11:06 am 9700 WICKER AV SJ17 41.443089 -87.470050
09/24/2014 11:01 am 10300 WICKER AV SJ17 41.431350 -87.470039
09/24/2014 6:36 am 1095th av & wicker av SJ22
09/23/2014 10:54 pm 8575 WICKER AV SJ9 41.461959 -87.470344
09/23/2014 9:59 pm WICKER AV; 8900 BLK SJ9 41.422054 -87.470096
09/23/2014 8:35 pm 8600 WICKER AV SJ9 41.461624 -87.470339 VW
09/23/2014 8:05 pm 9200 WICKER AV SJ9 41.453592 -87.470222 CIT
09/23/2014 7:22 pm SJ17 VW
09/23/2014 7:08 pm 8500 WICKER AV SJ9 41.462715 -87.470350 VW
09/23/2014 6:42 pm 9200 WICKER AV SJ17 41.453592 -87.470222 CIT
09/23/2014 6:11 pm 9400 WICKER AV SJ17 41.447998 -87.470142 CIT
09/23/2014 8:15 am 11700 W 93RD AV; wb at Prairie West SJ10 41.449987 -87.476751
09/23/2014 7:59 am W 95TH AV & WICKER AV SJ10 41.446031 -87.470111
09/23/2014 7:46 am 9900 WICKER AV SJ10 41.439393 -87.470004
09/23/2014 7:29 am W 85TH AV & WICKER AV SJ10 41.462715 -87.470350
09/23/2014 7:17 am PATTERSON ST & WALL ST SJ10 41.452823 -87.472087
09/23/2014 6:23 am W 95TH AV & WICKER AV SJ10 41.446031 -87.470111
09/23/2014 5:58 am WICKER AV & JOLIET ST SJ10 41.447742 -87.470138
09/23/2014 5:45 am W 85TH AV & WICKER AV SJ10 41.462715 -87.470350
09/23/2014 5:10 am SJ ANIMAL CLINIC SJ10
09/22/2014 6:48 pm 8400 WICKER AV SJ17 41.464281 -87.470364
09/22/2014 3:35 pm W 85TH AV & WICKER AV SJ21 41.462715 -87.470350
09/22/2014 2:56 pm 8801 WICKER AV; KOLLING ELEMENTARY SJ21 41.458933 -87.470299
09/22/2014 2:48 pm 9600 WICKER AV SJ23 41.443973 -87.470069
09/22/2014 8:49 am ROGERS & SONS SJ21
09/22/2014 8:43 am WALGREENS SJ23
09/22/2014 8:35 am WICKER AV & SCHOOL ST SJ21 41.447742 -87.470138
09/21/2014 11:51 pm W 109TH AV & WICKER AV SJ18 41.421149 -87.470100
09/21/2014 11:42 pm PD SJ24
09/21/2014 1:26 pm 9141 WICKER AV; ASPEN CAFE SJ343 41.454382 -87.470233
09/21/2014 1:13 pm 8575 WICKER AV; SPEEDWAY SJ343 41.461959 -87.470344
09/21/2014 10:57 am 97 41 SJ343
09/21/2014 9:51 am VENTURA DR & WICKER AV SJ343 41.464281 -87.470364
09/21/2014 9:43 am 8575 WICKER AV; SPEEDWAY SJ343 41.461959 -87.470344
09/21/2014 9:29 am 9500 WICKER AV SJ343 41.445991 -87.470111
09/21/2014 8:35 am SCHILLTON 93 SJ343
09/20/2014 3:49 pm 8000 WICKER AV SJ22 41.472761 -87.470400 VW
09/20/2014 2:29 pm 9700 WICKER AV SJ22 41.443089 -87.470050 VW
09/20/2014 8:44 am 9400 WICKER AV SJ16 41.447998 -87.470142
09/20/2014 8:12 am SR 231 SJ16
09/20/2014 7:53 am 11000 WICKER AV; SB SJ16 41.420373 -87.470098
09/20/2014 7:36 am SR 231; BEHIND THE BANK SJ16
09/20/2014 7:33 am CEDAR CREEK GOLF COURSE SJ22
09/20/2014 1:57 am 8575 WICKER AV; SPEEDWAY SJ24 41.461959 -87.470344
09/20/2014 1:57 am 8575 WICKER AV; SPEEDWAY SJ24 41.461959 -87.470344
09/19/2014 11:31 pm 8575 WICKER AV; SPEEDWAY SJ24 41.461959 -87.470344
09/19/2014 10:55 pm W 109TH AV & WHITE OAK AV SJ18 41.421258 -87.489398
09/19/2014 10:10 pm 10630 WICKER AV; SHRINE OF CHRISTS PASSI SJ24 41.426185 -87.470075
09/19/2014 8:25 pm 8500 WICKER AV SJ18 41.462715 -87.470350
09/19/2014 7:40 pm W 93RD AV & OLCOTT AV SJ24 41.449974 -87.480663
09/19/2014 3:23 pm 8900 WICKER AV SJ17 41.457608 -87.470280
09/19/2014 3:05 pm 9500 WICKER AV SJ17 41.445991 -87.470111
09/19/2014 2:50 pm 8400 WICKER AV SJ17 41.464281 -87.470364
09/19/2014 2:30 pm WALL ST & WICKER AV SJ17 41.453043 -87.470213
09/19/2014 12:48 pm 8900 WICKER AV; SCHILLING LUMBER SJ17 41.457608 -87.470280 WW
09/19/2014 12:33 pm WALL ST & WICKER AV SJ17 41.453043 -87.470213 CIT
09/19/2014 11:51 am 9300 PATTERSON ST; WALGREENS SJ17 CIT
09/19/2014 11:50 am 9700 WICKER AV SJ22 41.443089 -87.470050
09/19/2014 11:40 am 9100 WICKER AV; SJ Mall SJ17 41.454931 -87.470241
09/19/2014 10:48 am 8900 WICKER AV SJ16 41.457608 -87.470280
09/19/2014 10:43 am 8400 WICKER AV SJ17 41.464281 -87.470364 CIT
09/19/2014 9:45 am SR231 & WICKER AV SJ16
09/19/2014 8:37 am SPEEDWAY; NB WICKER SJ10 41.461959 -87.470344
09/19/2014 7:33 am W 93RD AV; entrance to Standard Bank SJ22 41.450129 -87.508672
09/19/2014 5:45 am 9500 WICKER AV SJ16 41.445991 -87.470111 CIT
09/19/2014 12:04 am 11300 W 97TH LN; ELMWOOD FUNERAL CHAPEL SJ9 41.441077 -87.471281
09/18/2014 11:33 pm 9500 WICKER AV SJ9 41.445991 -87.470111 CIT
09/18/2014 11:12 pm 8300 WICKER AV SJ17 41.466787 -87.470378 CIT
09/18/2014 8:13 pm 8575 WICKER AV; SPEEDWAY SJ9 41.461959 -87.470344
09/18/2014 8:01 pm 8500 WICKER AV SJ9 41.462715 -87.470350
09/18/2014 7:55 pm W 85TH AV & WICKER AV SJ9 41.462715 -87.470350
09/18/2014 7:13 pm W 85TH AV & WICKER AV SJ17 41.462715 -87.470350
09/18/2014 7:04 pm 9270 WICKER AV; QUIZNOS SUB SUITE C SJ9 41.451746 -87.470195
09/18/2014 6:35 pm 8600 WICKER AV SJ17 41.461624 -87.470339
09/18/2014 6:21 pm 8500 WICKER AV SJ17 41.462715 -87.470350
09/18/2014 6:16 pm WALL ST & WICKER AV SJ9 41.453043 -87.470213
09/18/2014 5:30 pm 8400 WICKER AV SJ17 41.464281 -87.470364
09/18/2014 5:22 pm WALL ST & WICKER AV SJ9 41.453043 -87.470213
09/18/2014 2:41 pm 9400 WICKER AV SJ21 41.447998 -87.470142
09/18/2014 2:34 pm W 109TH AV & WICKER AV; US231 SJ10 41.421149 -87.470100
09/18/2014 2:23 pm WICKER AV & W 109TH AV SJ10 41.421149 -87.470100
09/18/2014 2:10 pm 10800 WICKER AV SJ10 41.422959 -87.470092
09/18/2014 2:05 pm 8801 WICKER AV; KOLLING ELEMENTARY SJ21 41.458933 -87.470299
09/18/2014 1:55 pm 231 41 SJ10
09/18/2014 1:42 pm 231 41 SJ10
09/18/2014 1:29 pm 10749 WICKER AV; KUBIAKS SERVICE SJ10 41.423403 -87.470089
09/18/2014 1:22 pm 109 HILLCREST SJ10
09/18/2014 1:11 pm 109 MANOR SJ10
09/18/2014 9:59 am WALL WICKER SJ23
09/18/2014 9:29 am 93 KEILMAN SJ21
09/18/2014 9:04 am 8575 WICKER AV; SPEEDWAY SJ21 41.461959 -87.470344
09/18/2014 9:02 am 231 41 SJ10
09/18/2014 8:49 am 10749 WICKER AV; KUBIAKS SERVICE SJ10 41.423403 -87.470089
09/18/2014 8:32 am 231 & 41 SJ10
09/18/2014 7:53 am 41 S/B DECOR TILE SJ10
09/18/2014 7:41 am W 93RD AV & HART ST SJ10 41.449891 -87.461531
09/18/2014 7:30 am PD LOT SJ10
09/18/2014 6:21 am WICKER AV & SCHOOL ST SJ10 41.447742 -87.470138
09/18/2014 6:09 am PWP SJ10
09/18/2014 5:57 am 8500 WICKER AV SJ10 41.462715 -87.470350
09/18/2014 5:47 am 9280 WICKER AV; WALGREENS #4276 SJ10 41.451133 -87.470187
09/18/2014 5:37 am W 85TH AV & WICKER AV SJ10 41.462715 -87.470350
09/18/2014 5:27 am ST JOHN MALL SJ10
09/18/2014 5:13 am 8575 WICKER AV; SPEEDWAY SJ10 41.461959 -87.470344
09/17/2014 11:54 pm 8400 WICKER AV SJ9 41.464281 -87.470364
09/17/2014 7:24 pm VENTURA DR & WICKER AV SJ9 41.464281 -87.470364
09/17/2014 6:59 pm WALL ST & WICKER AV SJ9 41.453043 -87.470213
09/17/2014 6:23 pm 10800 WICKER AV SJ17 41.422959 -87.470092
09/17/2014 6:09 pm OLCOTT AV & W 93RD AV SJ17 41.449974 -87.480663
09/17/2014 5:36 pm 8200 WICKER AV SJ23 41.469318 -87.470392
09/17/2014 2:29 pm 7900 PATTERSON AV SJ4 41.473041 -87.485026
09/17/2014 2:28 pm 9280 WICKER AV; WALGREENS #4276 SJ10 41.451133 -87.470187
09/17/2014 2:13 pm W 85TH AV & WICKER AV SJ10 41.462715 -87.470350
09/17/2014 2:00 pm 41 WALL SJ10
09/17/2014 1:48 pm 9200 WICKER AV SJ10 41.453592 -87.470222
09/17/2014 1:32 pm MALL LOT SJ10
09/17/2014 1:26 pm 9200 WICKER AV SJ10 41.453592 -87.470222
09/17/2014 1:16 pm 109 FORESTDALE SJ23
09/17/2014 1:15 pm 8801 WICKER AV; KOLLING ELEMENTARY SJ10 41.458933 -87.470299
09/17/2014 1:03 pm 9500 WICKER AV SJ10 41.445991 -87.470111
09/17/2014 10:51 am 85 LAKE HILLS DR SJ23
09/17/2014 10:25 am 9270 WICKER AV; QUIZNOS SUB SUITE C SJ23 41.451746 -87.470195
09/17/2014 9:07 am 92 41 SJ23
09/17/2014 8:41 am 97 41 SJ10
09/17/2014 8:26 am 95 41 SJ10
09/17/2014 8:07 am 9200 WICKER AV SJ10 41.453592 -87.470222
09/17/2014 8:05 am 9141 WICKER AV; ASPEN CAFE SJ10 41.454382 -87.470233
09/17/2014 7:46 am 9500 WICKER AV SJ10 41.445991 -87.470111
09/17/2014 7:33 am 8900 WICKER AV SJ10 41.457608 -87.470280
09/17/2014 7:23 am 93 HACK SJ10
09/17/2014 6:51 am VENTURA 41 SJ10
09/17/2014 6:39 am 95 41 SJ10
09/17/2014 6:30 am 9300 WICKER AV SJ21 41.449967 -87.470171
09/17/2014 6:22 am 9500 WICKER AV SJ10 41.445991 -87.470111
09/17/2014 6:14 am 9200 WICKER AV SJ10 41.453592 -87.470222
09/17/2014 5:53 am 9280 WICKER AV; WALGREENS #4276 SJ10 41.451133 -87.470187
09/17/2014 5:20 am 9141 WICKER AV; ASPEN CAFE SJ10 41.454382 -87.470233 CIT
09/17/2014 2:54 am 10255 WICKER AV; ALSIP HOME NURSERY SJ22 41.432984 -87.470025
09/17/2014 2:39 am 8300 WICKER AV; Northwoods SJ22 41.466787 -87.470378 WW
09/17/2014 1:33 am 8000 WICKER AV SJ22 41.472761 -87.470400 CIT
09/16/2014 11:03 pm W 109TH AV & WICKER AV SJ18 41.421149 -87.470100 CIT
09/16/2014 10:50 pm 231 & schneider SJ18 CIT
09/16/2014 6:41 pm W 109TH AV & WICKER AV SJ22
09/16/2014 2:48 pm 8800 WICKER AV SJ17 41.458947 -87.470300 CIT
09/16/2014 1:43 pm 7900 WICKER AV SJ17 41.473644 -87.470406 CIT
09/16/2014 1:31 pm 8200 WICKER AV SJ17 41.469318 -87.470392
09/16/2014 12:53 pm 9467 JOLIET ST; ANGIES ALTERATIONS INC SJ17 41.471382 -87.470393
09/16/2014 12:42 pm 8575 WICKER AV; SPEEDWAY SJ17 41.461959 -87.470344
09/16/2014 12:23 pm 85 41 SJ17
09/16/2014 12:10 pm 94 41 SJ17
09/16/2014 11:15 am WALL 41 SJ17
09/16/2014 10:48 am 8900 WICKER AV; SCHILLING LUMBER SJ17 41.457608 -87.470280
09/16/2014 10:39 am 85 41 SJ17
09/16/2014 10:33 am 231 41 SJ24
09/16/2014 10:23 am 9500 WICKER AV SJ24 41.445991 -87.470111
09/16/2014 10:07 am WALGREENS LOT SJ24
09/16/2014 12:22 am 8500 WICKER AV SJ22 41.462715 -87.470350
09/15/2014 9:22 pm 109TH AND WICKER SJ22
09/15/2014 7:26 pm WHITE OAK AV & 35TH ST SJ369 41.555809 -87.490502
09/14/2014 3:12 pm 8600 WICKER AV SJ9 41.461624 -87.470339 CIT
09/14/2014 10:46 am 8575 WICKER AV; SPEEDWAY SJ9 41.461959 -87.470344
09/14/2014 10:35 am 9600 WICKER AV SJ9 41.443973 -87.470069
09/14/2014 10:25 am 8300 WICKER AV SJ21 41.466787 -87.470378
09/14/2014 10:02 am 9500 WICKER AV SJ21 41.445991 -87.470111
09/14/2014 12:15 am 9200 WICKER AV SJ17 41.453592 -87.470222
09/13/2014 11:17 pm 9407 WICKER AV; DUNKIN DONUTS SJ17 41.447861 -87.470140
09/13/2014 9:59 pm W 109TH AV & FORESTDALE ST SJ365 41.421168 -87.473684
09/13/2014 9:56 pm W 109TH AV & FORESTDALE ST SJ19 41.421168 -87.473684
09/13/2014 9:41 pm W 109TH AV & OLCOTT AV SJ19 41.421214 -87.481530
09/13/2014 9:27 pm W 109TH AV & FORESTDALE ST SJ19 41.421168 -87.473684
09/13/2014 9:08 pm 10400 CALUMET AV SJ19 41.428882 -87.508319
09/13/2014 8:34 pm W 85TH AV & WICKER AV SJ19 41.462715 -87.470350
09/13/2014 8:26 pm W 85TH AV & WICKER AV SJ19 41.462715 -87.470350
09/13/2014 8:16 pm 8900 WICKER AV; SCHILLING LUMBER SJ19 41.457608 -87.470280
09/13/2014 7:44 pm WICKER AV & SCHOOL ST SJ365 41.447742 -87.470138
09/13/2014 7:12 pm W 93RD AV & CLARMONTE DR SJ19 41.449796 -87.449160
09/13/2014 6:54 pm W 93RD AV & MARQUETTE ST SJ19 41.449792 -87.441074
09/13/2014 6:45 pm 8600 WICKER AV SJ17 41.461624 -87.470339 CIT
09/13/2014 6:36 pm W 93RD AV & MARQUETTE ST SJ19 41.449792 -87.441074
09/13/2014 6:23 pm W 93RD AV & RENAISSANCE DR SJ19 41.449797 -87.446679
09/13/2014 6:12 pm 10800 WICKER AV SJ365 41.422959 -87.470092
09/13/2014 6:11 pm 8400 WICKER AV; LAKE CENTRAL HIGH SCHOOL SJ17 41.464281 -87.470364
09/13/2014 6:09 pm W 93RD AV & RENAISSANCE DR SJ19 41.449797 -87.446679
09/13/2014 5:47 pm W 101ST AV & WHITE OAK AV SJ19 41.435563 -87.489287
09/13/2014 5:20 pm W 93RD AV & PATTERSON ST SJ19 41.449971 -87.470688
09/13/2014 3:41 pm 8400 WICKER AV SJ21 41.464281 -87.470364
09/13/2014 3:41 pm W 85TH AV & JENNIFER CT SJ4 41.464517 -87.490791
09/13/2014 3:35 pm HALLMARK SJ9
09/13/2014 3:24 pm 9280 WICKER AV; WALGREENS #4276 SJ9 41.451133 -87.470187
09/13/2014 2:30 pm 9280 WICKER AV; WALGREENS #4276 SJ9 41.451133 -87.470187
09/13/2014 2:27 pm 10100 OLCOTT AV SJ4 41.435974 -87.481004
09/13/2014 2:20 pm 9141 WICKER AV; ASPEN CAFE SJ21 41.454382 -87.470233
09/13/2014 2:01 pm 9100 WICKER AV SJ4 41.454931 -87.470241 VW
09/13/2014 11:47 am WALL ST & WICKER AV SJ9 41.453043 -87.470213 VW
09/13/2014 10:42 am 9600 WICKER AV SJ9 41.443973 -87.470069 CIT
09/13/2014 9:50 am 93RD & CLAREMONT SJ4 CIT
09/13/2014 9:18 am 8400 WICKER AV SJ21 41.464281 -87.470364 CIT
09/13/2014 9:16 am WALL ST & WICKER AV SJ9 41.453043 -87.470213
09/13/2014 9:04 am 10100 PARRISH AV SJ4 41.438508 -87.450596 VW
09/13/2014 8:59 am 9600 WICKER AV SJ9 41.443973 -87.470069 CIT
09/13/2014 8:50 am 9141 WICKER AV; ASPEN CAFE SJ9 41.454382 -87.470233 VW
09/13/2014 7:30 am 9280 WICKER AV; WALGREENS #4276 SJ9 41.451133 -87.470187 VW
09/13/2014 7:01 am SCHOOL ST & WICKER AV SJ21 41.447742 -87.470138 VW
09/12/2014 11:50 pm JOLIET ST & CLARMONTE DR SJ14 41.441261 -87.451048
09/12/2014 9:32 pm 9200 WICKER AV SJ19 41.453592 -87.470222
09/12/2014 8:58 pm W 97TH AV & WICKER AV SJ19 41.441590 -87.470028
09/12/2014 8:36 pm 8575 WICKER AV; SPEEDWAY SJ19 41.461959 -87.470344
09/12/2014 8:29 pm W 85TH AV & WICKER AV SJ19 41.462715 -87.470350
09/12/2014 8:17 pm W 85TH AV & WICKER AV SJ19 41.462715 -87.470350
09/12/2014 7:43 pm 11500 WICKER AV SJ17 41.416488 -87.470088
09/12/2014 7:39 pm W 109TH AV & FORESTDALE ST SJ19 41.421168 -87.473684
09/12/2014 7:26 pm 9461 WICKER AV; DAIRY QUEEN SJ17 41.446774 -87.470123
09/12/2014 7:24 pm W 109TH AV & OLCOTT AV SJ19 41.421214 -87.481530
09/12/2014 7:10 pm W 101ST AV & WELLINGTON CT E SJ19 41.435574 -87.493895
09/12/2014 7:01 pm W 101ST AV & WELLINGTON CT E SJ19 41.435574 -87.493895
09/12/2014 6:00 pm 8400 WICKER AV SJ17 41.464281 -87.470364
09/12/2014 5:17 pm W 93RD AV & BELMONT AV SJ10 41.449965 -87.483809
09/12/2014 5:06 pm W 93RD AV & MONIX DR SJ10 41.450028 -87.491955
09/12/2014 4:10 pm W 93RD AV & HILLTOP DR SJ10 41.450000 -87.487793
09/12/2014 3:46 pm W 93RD AV & MONIX DR SJ10 41.450028 -87.491955
09/12/2014 3:40 pm 8400 WICKER AV SJ21 41.464281 -87.470364
09/12/2014 3:37 pm W 93RD AV & HILLTOP DR SJ10 41.450000 -87.487793
09/12/2014 3:23 pm W 93RD AV & MONIX DR SJ10 41.450028 -87.491955
09/12/2014 3:11 pm W 93RD AV & HILLTOP DR SJ10 41.450000 -87.487793
09/12/2014 8:15 am WICKER AV & W 77TH AV; nb SJ21 41.478956 -87.470527
09/12/2014 7:59 am WICKER AV & WALL ST SJ21 41.453043 -87.470213
09/12/2014 7:50 am 9600 WICKER AV SJ9 41.443973 -87.470069
09/11/2014 10:28 pm W 109TH AV & MANOR DR SJ16 41.421247 -87.487135
09/11/2014 10:19 pm 10900 WICKER AV SJ16 41.421149 -87.470100
09/11/2014 10:05 pm 10900 WICKER AV SJ16 41.421149 -87.470100
09/11/2014 3:01 pm 8400 WICKER AV SJ17 41.464281 -87.470364
09/11/2014 2:50 pm 8400 WICKER AV SJ17 41.464281 -87.470364
09/11/2014 2:36 pm WALL ST & WICKER AV SJ17 41.453043 -87.470213 CIT
09/11/2014 2:21 pm 7800 WICKER AV SJ17 41.475903 -87.470459
09/11/2014 2:08 pm 8200 WICKER AV SJ17 41.469318 -87.470392
09/11/2014 1:52 pm 8900 WICKER AV; SCHILLING LUMBER SJ17 41.457608 -87.470280
09/11/2014 1:43 pm 8801 WICKER AV; KOLLING ELEMENTARY SJ17 41.458933 -87.470299 CIT
09/11/2014 1:29 pm 8400 WICKER AV SJ17 41.464281 -87.470364
09/11/2014 1:22 pm 8801 WICKER AV; KOLLING ELEMENTARY SJ17 41.458933 -87.470299
09/11/2014 1:11 pm 9280 WICKER AV; WALGREENS #4276 SJ17 41.451133 -87.470187
09/11/2014 12:57 pm WALL ST & PATTERSON ST SJ17 41.452823 -87.472087
09/11/2014 12:52 pm 9200 WICKER AV SJ17 41.453592 -87.470222
09/11/2014 12:35 pm 9200 WICKER AV SJ17 41.453592 -87.470222
09/11/2014 11:50 am 9200 WICKER AV SJ17 41.453592 -87.470222
09/11/2014 9:46 am 95 41 SJ17
09/11/2014 9:27 am 9770 WICKER AV; HARRIS BANK SJ23 41.441384 -87.470026
09/11/2014 9:00 am 8600 WICKER AV SJ23 41.461624 -87.470339
09/11/2014 8:29 am 8700 WICKER AV SJ18 41.460285 -87.470319
09/11/2014 8:14 am 9321 WICKER AV; STANDARD BANK AND TRUST SJ23 41.449554 -87.470165
09/11/2014 7:58 am 11700 W 93RD AV; PRAIRIE WEST PARK SJ23 41.449987 -87.476751
09/11/2014 7:35 am WALL ST & WICKER AV SJ23 41.453043 -87.470213
09/11/2014 7:26 am W 102ND AV & WHITE OAK AV SJ24 41.433370 -87.489295
09/11/2014 7:15 am WICKER AV & WALL ST SJ23 41.453043 -87.470213
09/11/2014 7:01 am 9401 WICKER AV; SCHOOPS SJ23 41.447979 -87.470142
09/11/2014 6:19 am W 96TH AV & WICKER AV SJ23 41.443973 -87.470069
09/11/2014 6:15 am 9100 WICKER AV SJ24 41.454931 -87.470241
09/11/2014 6:07 am 8575 WICKER AV; SPEEDWAY SJ23 41.461959 -87.470344
09/10/2014 9:01 pm 10900 WICKER AV SJ16 41.421149 -87.470100
09/10/2014 8:58 pm 10900 WICKER AV SJ19 41.421149 -87.470100
09/10/2014 8:44 pm W 109TH AV & WHITE OAK AV SJ16 41.421258 -87.489398
09/10/2014 7:45 pm 10900 WICKER AV SJ16 41.421149 -87.470100
09/10/2014 9:21 am 93 keilman SJ24
09/10/2014 1:04 am W 109TH AV & WICKER AV SJ10 41.421149 -87.470100
09/10/2014 12:40 am W 109TH AV & WICKER AV SJ10 41.421149 -87.470100
09/10/2014 12:24 am W 109TH AV & WICKER AV SJ10 41.421149 -87.470100
09/10/2014 12:07 am W 109TH AV & WICKER AV SJ10 41.421149 -87.470100
09/09/2014 11:46 pm 10900 WICKER AV SJ10 41.421149 -87.470100
09/09/2014 11:34 pm 10900 WICKER AV SJ10 41.421149 -87.470100
09/09/2014 11:21 pm 10900 WICKER AV SJ10 41.421149 -87.470100
09/09/2014 11:01 pm W 109TH AV & MANOR DR SJ10 41.421247 -87.487135
09/09/2014 10:47 pm 10900 WICKER AV SJ10 41.421149 -87.470100
09/09/2014 10:39 pm 10900 WICKER AV SJ10 41.421149 -87.470100
09/09/2014 10:25 pm 8400 WICKER AV SJ21 41.464281 -87.470364
09/09/2014 10:12 pm 10900 WICKER AV SJ10 41.421149 -87.470100
09/09/2014 6:20 pm 9700 WICKER AV SJ21 41.443089 -87.470050 VW
09/09/2014 1:44 am W 109TH AV & OLCOTT AV SJ17 41.421214 -87.481530
09/09/2014 12:44 am 8400 WICKER AV SJ21 41.464281 -87.470364
09/08/2014 10:20 pm 8400 WICKER AV SJ21 41.464281 -87.470364 VW
09/08/2014 8:04 pm SJ23 CIT
09/08/2014 7:41 pm 9300 WICKER AV SJ17 41.449967 -87.470171 VW
09/08/2014 2:56 pm 9600 WICKER AV SJ9 41.443973 -87.470069 CIT
09/08/2014 11:11 am 8801 WICKER AV; KOLLING ELEMENTARY SJ23 41.458933 -87.470299
09/08/2014 10:15 am STRACKS SJ23
09/08/2014 10:08 am 93 KEILMAN SJ9
09/08/2014 10:01 am KELLY 41 SJ23
09/08/2014 9:50 am 7967 WICKER AV; STANS AUTO BODY SJ23 41.472678 -87.470399
09/08/2014 8:36 am PATTERSON WALGREENS SJ23
09/08/2014 8:22 am 95 41 SJ23
09/08/2014 8:16 am JJ'S SJ23
09/07/2014 6:39 pm W 93RD AV & HILLTOP DR SJ10 41.450000 -87.487793
09/07/2014 6:31 pm W 109TH AV & WICKER AV SJ16 41.421149 -87.470100
09/07/2014 6:27 pm W 93RD AV & HILLTOP DR SJ10 41.450000 -87.487793
09/07/2014 6:01 pm 13500 W 109TH AV SJ16 41.421200 -87.497501
09/07/2014 3:23 pm 9500 WICKER AV SJ343 41.445991 -87.470111
09/07/2014 2:51 pm 10300 WICKER AV SJ343 41.431350 -87.470039
09/07/2014 11:07 am 82 41 SJ24
09/07/2014 9:02 am wall 41 SJ343
09/07/2014 8:56 am 8575 WICKER AV; SPEEDWAY SJ343 41.461959 -87.470344
09/07/2014 7:47 am POST OFFICE SJ343
09/06/2014 6:20 pm W 109TH AV & WHITE OAK AV SJ16 41.421258 -87.489398
09/06/2014 6:00 pm 13500 W 109TH AV SJ16 41.421200 -87.497501
09/05/2014 11:13 pm 10200 WICKER AV SJ360 41.435026 -87.470008
09/05/2014 11:02 pm 9700 WICKER AV SJ16 41.443089 -87.470050
09/05/2014 11:16 am 9000 W 103RD ST SJ7 41.431028 -87.443453
09/05/2014 10:42 am 10000 WICKER AV SJ18 41.437165 -87.469986
09/05/2014 10:13 am W 93RD AV & W OAKRIDGE DR SJ24 41.449989 -87.478157
09/05/2014 9:06 am W 82ND LN & WICKER AV SJ24 41.469318 -87.470392
09/05/2014 8:52 am JOLIET ST & THREE SPRINGS DR SJ18 41.442090 -87.456412
09/05/2014 7:33 am 10749 WICKER AV; KUBIAKS SERVICE SJ24 41.423403 -87.470089
09/05/2014 6:30 am 8700 WICKER AV SJ18 41.460285 -87.470319
09/05/2014 2:39 am 8575 WICKER AV SJ364 41.461959 -87.470344
09/05/2014 1:50 am 9480 WICKER AV SJ21 41.446382 -87.470117
09/05/2014 1:05 am 8400 WICKER AV SJ21 41.464281 -87.470364
09/04/2014 11:54 pm 8500 FAIRWAY DR SJ21 41.463740 -87.463694
09/04/2014 10:51 pm 10400 W 93RD AV SJ4 41.449906 -87.463029
09/04/2014 9:58 pm W 109TH AV & MANOR DR SJ4 41.421247 -87.487135
09/04/2014 9:48 pm 10900 WICKER AV SJ4 41.421149 -87.470100
09/04/2014 9:19 pm 9500 JOLIET ST SJ4 41.441379 -87.451835
09/04/2014 8:03 pm LC PLAZA SJ21
09/04/2014 7:19 pm W 97TH AV & WICKER AV SJ17 41.441590 -87.470028
09/04/2014 7:08 pm 10800 WICKER AV SJ17 41.422959 -87.470092
09/04/2014 6:20 pm 9500 WICKER AV SJ17 41.445991 -87.470111
09/04/2014 3:05 pm WICKER AV & VENTURA DR SJ23 41.464281 -87.470364
09/04/2014 9:22 am 9600 WICKER AV SJ9 41.443973 -87.470069
09/04/2014 9:10 am 9600 WICKER AV SJ9 41.443973 -87.470069
09/04/2014 4:52 am 11700 WICKER AV SJ4 41.406558 -87.470069
09/03/2014 10:48 pm 8801 WICKER AV SJ21 41.458933 -87.470299
09/03/2014 10:27 pm VENTURA DR & WICKER AV SJ21 41.464281 -87.470364
09/03/2014 8:51 pm 9400 WICKER AV SJ365 41.447998 -87.470142
09/03/2014 8:42 pm 8801 WICKER AV; KOLLING ELEMENTARY SJ17 41.458933 -87.470299
09/03/2014 8:21 pm 9700 WICKER AV SJ4 41.443089 -87.470050
09/03/2014 8:11 pm 11700 WICKER AV SJ17 41.406558 -87.470069
09/03/2014 7:41 pm 9500 WICKER AV SJ17 41.445991 -87.470111
09/03/2014 7:30 pm W 93RD AV & HILLTOP DR SJ365 41.450000 -87.487793
09/03/2014 7:19 pm 9000 PATTERSON ST SJ4 41.455863 -87.474706
09/03/2014 10:46 am 96 41 SJ9
09/03/2014 9:51 am 93 SCHAFER SJ23
09/03/2014 8:53 am SJ AUTO SJ9
09/03/2014 8:30 am 9600 WICKER AV SJ9 41.443973 -87.470069
09/03/2014 7:04 am 96 41 RASCALS PIZZA SJ23
09/03/2014 6:47 am 231 PARK SJ23
09/03/2014 2:01 am 9475 WICKER AV SJ24 41.446485 -87.470119
09/03/2014 1:20 am 10633 WICKER AV SJ24 41.426074 -87.470075
09/02/2014 11:27 pm 9500 WICKER AV SJ10 41.445991 -87.470111
09/02/2014 6:10 pm 97 41 SJ24
09/02/2014 10:49 am 85 41 SJ7 VW
09/02/2014 6:08 am 9450 JOLIET ST; LOADS OF FUN SJ7 41.441277 -87.451156
09/01/2014 10:39 pm PRARIE West AND 93RD SJ24
09/01/2014 6:38 pm 10955 W 93RD AV; TOWN OF ST JOHN SJ10 41.449954 -87.468663
09/01/2014 3:44 pm SJ343
09/01/2014 2:52 pm SJ343
09/01/2014 2:41 pm 9280 WICKER AV; WALGREENS #4276 SJ343 41.451133 -87.470187
09/01/2014 2:19 pm 8575 WICKER AV; SPEEDWAY SJ343 41.461959 -87.470344
09/01/2014 12:05 pm 85 41 SJ18
09/01/2014 11:55 am 8580 WICKER AV; FAGEN MILLER FUNERAL HOM SJ343 41.461892 -87.470343
09/01/2014 11:46 am 8575 WICKER AV SJ343 41.461959 -87.470344
09/01/2014 11:21 am 90 COLUMBIA SJ343
09/01/2014 9:33 am RAVENWOOD DR SJ343 41.436207 -87.467041
09/01/2014 9:07 am 8445 WICKER AV; HANDS ON CAR WASH SJ343 41.463570 -87.470358
09/01/2014 7:01 am 82 41 SJ18
09/01/2014 6:54 am 82 41 SJ12
09/01/2014 2:48 am 9200 WICKER AV SJ21 41.441083 -87.470022
09/01/2014 2:13 am 8400 WICKER AV SJ21 41.464281 -87.470364
08/31/2014 9:47 pm 10800 WICKER AV SJ4 41.422959 -87.470092
08/31/2014 7:59 pm 8445 WICKER AV; HANDS ON CAR WASH SJ365 41.463570 -87.470358
08/31/2014 4:18 pm 8400 WICKER AV SJ365 41.464281 -87.470364
08/31/2014 7:38 am 95 41 SJ14
08/31/2014 7:05 am 96 41 SJ14
08/31/2014 3:57 am W 109TH AV & WHITE OAK AV SJ9 41.421258 -87.489398
08/31/2014 12:27 am 10955 W 93RD AV SJ4 41.449954 -87.468663
08/30/2014 10:33 pm 8500 WICKER AV SJ9 41.462715 -87.470350
08/30/2014 7:38 pm WALGREENS SJ23
08/30/2014 6:00 pm 109 OLCOTT SJ23
08/30/2014 5:29 pm WALGREENS SJ23
08/30/2014 4:14 pm 93 HILLTOP SJ19
08/30/2014 4:00 pm 93 HILLTOP SJ19
08/30/2014 12:25 pm SJ23
08/30/2014 10:33 am WICKER AV & W 93RD AV SJ19 41.449967 -87.470171
08/30/2014 9:02 am WICKER AV & WALL ST SJ19 41.453043 -87.470213
08/30/2014 8:11 am W 101ST AV & WHITE OAK AV SJ23 41.435563 -87.489287
08/30/2014 8:02 am W 109TH AV & OLCOTT AV SJ23 41.421214 -87.481530
08/30/2014 12:25 am WHITE OAK AV; 10200 BLK SJ9 41.423231 -87.489361
08/29/2014 11:16 pm 109TH AV; MANOR SJ10
08/29/2014 11:04 pm 231 & WICKER SJ10
08/29/2014 11:02 pm WICKER AV; 10100 BLK SJ4 41.422054 -87.470096
08/29/2014 11:00 pm 8200 WICKER AV SJ9 41.469318 -87.470392
08/29/2014 10:47 pm W 109TH AV & MANOR DR SJ10 41.421247 -87.487135
08/29/2014 10:32 pm 231 & 41 SJ10
08/29/2014 10:10 pm 9200 CLINE AV SJ4 41.451549 -87.431385
08/29/2014 9:59 pm 231 & WICKER SJ10
08/29/2014 7:39 pm W 93RD AV & HILLTOP DR SJ10 41.450000 -87.487793
08/29/2014 7:24 pm SJ23 CIT
08/29/2014 6:06 pm 8801 WICKER AV; KOLLING SCHOOL SJ23 41.458933 -87.470299
08/29/2014 9:41 am 9270 WICKER AV; QUIZNOS SUB SUITE C SJ23 41.451746 -87.470195
08/29/2014 9:26 am W 109TH AV & ONTARIO ST SJ23 41.421154 -87.471273
08/29/2014 8:21 am 9825 WICKER AV; STRACK & VANTIL SJ23 41.440661 -87.470018
08/29/2014 5:05 am 9141 WICKER AV SJ14 41.454382 -87.470233
08/28/2014 7:01 pm 8600 WICKER AV SJ21 41.461624 -87.470339
08/28/2014 6:49 pm 9200 WICKER AV SJ21 41.453592 -87.470222
08/28/2014 6:32 pm 8600 WICKER AV SJ21 41.461624 -87.470339
08/28/2014 6:19 pm W 85TH AV & FARMINGTON ST SJ21 41.463284 -87.467568
08/28/2014 6:07 pm 8400 WICKER AV SJ21 41.464281 -87.470364
08/28/2014 7:11 am 9600 WICKER AV SJ24 41.443973 -87.470069
08/28/2014 12:23 am WICKER AV; 10200 BLK SJ365 41.422054 -87.470096
08/28/2014 12:03 am WALL ST & WICKER AV SJ365 41.453043 -87.470213
08/27/2014 9:03 pm ice arena SJ19 41.423231 -87.489361
08/27/2014 8:12 pm W 93RD AV & MONIX DR SJ10 41.450028 -87.491955 CIT
08/27/2014 7:58 pm W 93RD AV & BELMONT AV SJ10 41.449965 -87.483809 WW
08/27/2014 7:40 pm W 93RD AV & HILLTOP DR SJ10 41.450000 -87.487793 CIT
08/27/2014 6:58 pm WHITE OAK & ROSEWOOD SJ10 CIT
08/27/2014 6:46 pm W 93RD AV & MONIX DR SJ10 41.450028 -87.491955 CIT
08/27/2014 6:27 pm W 93RD AV & BELMONT AV SJ10 41.449965 -87.483809
08/27/2014 6:15 pm W 93RD AV & HILLTOP DR SJ10 41.450000 -87.487793 CIT
08/27/2014 5:57 pm W 93RD AV & HILLTOP DR SJ10 41.450000 -87.487793 CIT
08/27/2014 5:40 pm W 93RD AV & BELMONT AV SJ10 41.449965 -87.483809 CIT
08/27/2014 9:25 am PWP SJ24
08/27/2014 9:05 am PWP SJ24
08/26/2014 11:45 pm JOLIET ST & WICKER AV SJ4 41.447742 -87.470138
08/26/2014 7:44 pm 9461 WICKER AV; DAIRY QUEEN SJ17 41.446774 -87.470123
08/26/2014 7:32 pm WALL ST & WICKER AV SJ17 41.453043 -87.470213
08/26/2014 7:20 pm W 93RD AV & WICKER AV SJ22 41.449967 -87.470171
08/26/2014 7:12 pm 9500 WICKER AV SJ9 41.445991 -87.470111 VW
08/26/2014 6:56 pm W 105TH AV & WHITE OAK AV SJ22 41.429197 -87.489325
08/26/2014 6:41 pm 10400 W 93RD AV; VFW POST SJ22 41.449906 -87.463029
08/26/2014 6:08 pm W 90TH AV & PATTERSON ST SJ22 41.455863 -87.474706
08/26/2014 6:04 pm 11700 W 90TH AV SJ22 41.455633 -87.475804
08/26/2014 5:54 pm W 90TH AV & PATTERSON ST SJ22 41.455863 -87.474706
08/26/2014 5:42 pm 9000 PATTERSON ST SJ22 41.455863 -87.474706
08/26/2014 5:19 pm 8500 WICKER AV SJ22 41.462715 -87.470350
08/26/2014 12:18 pm KOLLING RD SJ21 41.493474 -87.441225
08/26/2014 1:31 am W 109TH AV & WICKER AV; US231 SJ10 41.421149 -87.470100
08/26/2014 1:20 am W 109TH AV & WICKER AV; US231 SJ10 41.421149 -87.470100
08/26/2014 1:01 am W 109TH AV & WICKER AV SJ10 41.421149 -87.470100
08/26/2014 12:33 am CORNERSTONE CHURCH SJ10
08/26/2014 12:13 am W 109TH AV & MANOR DR SJ10 41.421247 -87.487135
08/25/2014 11:55 pm W 109TH AV & OLCOTT AV SJ10 41.421214 -87.481530
08/25/2014 11:44 pm W 109TH AV & WICKER AV; US231 SJ10 41.421149 -87.470100
08/25/2014 11:27 pm W 109TH AV & WICKER AV; US231 SJ10 41.421149 -87.470100
08/25/2014 11:10 pm W 109TH AV & MANOR DR SJ10 41.421247 -87.487135
08/25/2014 10:52 pm W 109TH AV & WICKER AV; US231 SJ10 41.421149 -87.470100
08/25/2014 10:39 pm W 109TH AV & WICKER AV; US231 SJ10 41.421149 -87.470100
08/25/2014 10:30 pm W 109TH AV & WICKER AV; US231 SJ4 41.421149 -87.470100
08/25/2014 10:11 pm W 82ND LN & WICKER AV SJ10 41.469318 -87.470392
08/25/2014 9:01 pm 8400 WICKER AV SJ19 41.464281 -87.470364
08/25/2014 12:03 am W 97TH AV & WICKER AV SJ364 41.441590 -87.470028
08/24/2014 6:41 pm 8801 WICKER AV; KOLLING SCHOOL SJ12 41.458933 -87.470299
08/24/2014 7:26 am W 93RD AV & BLAINE ST SJ24 41.449720 -87.426537 VW
08/22/2014 10:04 am W 93RD AV & WICKER AV SJ24 41.449967 -87.470171
08/22/2014 8:30 am W 85TH AV & WICKER AV SJ24 41.462715 -87.470350
08/22/2014 7:35 am W 101ST AV & WHITE OAK AV SJ24 41.435563 -87.489287
08/21/2014 11:54 pm WALL ST & PATTERSON ST SJ17 41.452823 -87.472087
08/21/2014 9:58 pm 9825 WICKER AV SJ4 41.440661 -87.470018
08/21/2014 9:35 pm 10600 WICKER AV SJ4 41.427299 -87.470069
08/20/2014 11:49 pm 10800 CALUMET AV SJ23 41.419816 -87.508261
08/20/2014 10:59 pm 9500 WICKER AV SJ9 41.445991 -87.470111
08/20/2014 10:35 pm 10900 WICKER AV SJ4 41.421149 -87.470100
08/20/2014 9:13 pm W 109TH AV & HILLCREST LN SJ23 41.421205 -87.496638
08/20/2014 8:50 pm W 85TH AV & WICKER AV SJ19 41.462715 -87.470350
08/20/2014 8:42 pm W 85TH AV & WICKER AV SJ19 41.462715 -87.470350
08/20/2014 8:34 pm 13500 WICKER AV SJ23 41.372894 -87.470001
08/20/2014 8:27 pm 9885 WICKER AV; TARGET SJ19 41.439647 -87.470007
08/20/2014 8:08 pm 8801 WICKER AV; KOLLING SCHOOL SJ19 41.458933 -87.470299
08/20/2014 7:53 pm W 85TH AV & WICKER AV SJ19 41.462715 -87.470350
08/20/2014 7:50 pm 8400 WICKER AV SJ19 41.464281 -87.470364
08/20/2014 7:38 pm 11033 W 93RD AV; ST JOHN POLICE DEPARTME SJ19 41.449958 -87.469145
08/20/2014 6:50 pm W 93RD AV & SCHAFER DR SJ19 41.449796 -87.442718
08/20/2014 6:39 pm W 93RD AV & MARQUETTE ST SJ19 41.449792 -87.441074
08/20/2014 6:26 pm WALL ST & WICKER AV SJ17 41.453043 -87.470213
08/20/2014 6:23 pm W 93RD AV & MARQUETTE ST SJ19 41.449792 -87.441074
08/20/2014 6:21 pm 8400 WICKER AV SJ17 41.464281 -87.470364
08/20/2014 6:08 pm 9270 WICKER AV; QUIZNOS SUB SUITE C SJ17 41.451746 -87.470195
08/20/2014 5:58 pm W 93RD AV & CLINE AV SJ19 41.449743 -87.431354
08/20/2014 5:17 pm W 101ST AV & BLUFF VIEW RD SJ19 41.435603 -87.505416
08/20/2014 4:38 pm 8575 WICKER AV; SPEEDWAY SJ19 41.461959 -87.470344
08/20/2014 2:38 pm 8400 WICKER AV SJ21 41.464281 -87.470364
08/20/2014 3:23 am W 101ST AV & WICKER AV SJ22 41.437165 -87.469986
08/20/2014 12:26 am 9600 WICKER AV SJ22 41.443973 -87.470069
08/20/2014 12:16 am W 109TH AV & WICKER AV SJ22 41.421149 -87.470100
08/19/2014 10:32 pm 8100 WICKER AV SJ22 41.471886 -87.470393
08/19/2014 10:30 pm W 109TH AV; 13500 BLK SJ16 41.421213 -87.495438
08/19/2014 10:15 pm 7900 WICKER AV SJ22 41.473644 -87.470406
08/19/2014 6:57 pm 13500 W 109TH AV SJ16 41.421200 -87.497501 CIT
08/19/2014 4:05 pm 8921 WHITE OAK AV; WHITE OAK; ice arena SJ24 41.551506 -87.490478 WW
08/19/2014 10:47 am PWP SJ24
08/19/2014 6:11 am 231; FIRST MERCHANTS BANK SJ24
08/19/2014 3:54 am 9875 WICKER AV SJ22 41.439816 -87.470009
08/19/2014 12:55 am VENTURA DR & WICKER AV SJ22 41.464281 -87.470364
08/19/2014 12:10 am 8000 WICKER AV SJ22 41.472761 -87.470400
08/18/2014 10:20 pm 8400 WICKER AV SJ19 41.464281 -87.470364
08/18/2014 10:12 pm 9280 WICKER AV SJ19 41.451133 -87.470187
08/18/2014 9:47 pm 9280 WICKER AV; WALGREENS #4276 SJ19 41.451133 -87.470187 WW
08/18/2014 9:37 pm 9280 WICKER AV; WALGREENS #4276 SJ19 41.451133 -87.470187 CIT
08/18/2014 9:24 pm W 77TH AV & WICKER AV SJ365 41.478956 -87.470527 WW
08/18/2014 9:14 pm W 85TH AV & WICKER AV SJ19 41.462715 -87.470350 WW
08/18/2014 6:57 pm 10900 CLINE AV SJ19 41.420910 -87.431171 CIT
08/18/2014 6:49 pm 11100 CLINE AV SJ19 41.417385 -87.431173 CIT
08/18/2014 6:35 pm 11200 CLINE AV SJ19 41.415546 -87.431175 CIT
08/18/2014 6:21 pm 10800 CLINE AV SJ19 41.422869 -87.431175 CIT
08/18/2014 6:08 pm 11200 CLINE AV SJ19 41.415546 -87.431175 CIT
08/18/2014 5:56 pm 11200 CLINE AV SJ19 41.415546 -87.431175 CIT
08/18/2014 5:29 pm 10900 CLINE AV SJ19 41.420910 -87.431171 CIT
08/18/2014 5:20 pm W 117TH AV & CLINE AV SJ19 41.406370 -87.431185 CIT
08/18/2014 10:21 am 93 REN SJ12
08/18/2014 7:16 am 101ST AND WHITE OAK SJ24 CIT
08/18/2014 1:01 am 9200 WICKER AV SJ19 41.453592 -87.470222
08/18/2014 12:26 am 8200 WICKER AV SJ19 41.469318 -87.470392
08/18/2014 12:15 am 8200 WICKER AV SJ19 41.469318 -87.470392
08/17/2014 10:11 pm JOLIET ST & WICKER AV SJ19 41.447742 -87.470138
08/17/2014 1:43 pm 8400 WICKER AV SJ21 41.464281 -87.470364 VW
08/17/2014 11:59 am HACK ST & W 93RD AV SJ9 41.449925 -87.465068
08/17/2014 10:22 am CORNERSTONE CHURCH SJ9
08/17/2014 9:25 am 10400 WHITE OAK SJ9
08/17/2014 2:34 am W 85TH AV & WICKER AV SJ19 41.462715 -87.470350
08/17/2014 1:12 am 9400 WICKER AV SJ19 41.447998 -87.470142
08/16/2014 7:32 pm W 93RD AV & HILLTOP DR SJ10 41.450000 -87.487793 WW
08/16/2014 7:23 pm W 93RD AV & HILLTOP DR SJ10 41.450000 -87.487793
08/16/2014 7:06 pm W 93RD AV & HILLTOP DR SJ10 41.450000 -87.487793 WW
08/16/2014 6:54 pm W 93RD AV & MONIX DR SJ10 WW
08/16/2014 6:40 pm W 93RD AV & MONIX DR SJ10 41.450028 -87.491955 CIT
08/16/2014 6:19 pm W 93RD AV & MONIX DR SJ10 41.450028 -87.491955 CIT
08/16/2014 5:52 pm W 93RD AV & BELMONT AV SJ10 41.449965 -87.483809 CIT
08/16/2014 5:41 pm W 93RD AV & MONIX DR SJ10 CIT
08/16/2014 5:31 pm W 93RD AV & HILLTOP DR SJ10 41.450000 -87.487793 WW
08/16/2014 5:16 pm ROSEWOOD & WHITE OAK SJ10
08/16/2014 4:13 pm SCHOOL ST & KEILMAN ST SJ10 41.447734 -87.472480 WW
08/16/2014 3:47 pm WICKER AV & SCHOOL ST SJ21 41.447742 -87.470138 CIT
08/16/2014 3:31 pm W 85TH AV & FARMINGTON ST SJ10 41.463284 -87.467568 WW
08/16/2014 2:59 pm 10300 WHITE OAK AV SJ9 41.431968 -87.489298 CIT
08/16/2014 2:37 pm ROSEWOOD AND WHITE OAK SJ9 WW
08/16/2014 2:02 pm 8400 WICKER AV SJ21 41.464281 -87.470364 VW
08/16/2014 11:10 am 9270 WICKER AV; QUIZNOS SUB SUITE C SJ9 41.451746 -87.470195
08/16/2014 10:57 am 9300 WICKER AV SJ9 41.449967 -87.470171
08/16/2014 9:49 am WICKER AV & WALL ST SJ21 41.453043 -87.470213
08/16/2014 1:44 am 10300 PARRISH AV SJ17 41.436557 -87.450581
08/16/2014 1:15 am 9500 WICKER AV SJ19 41.445991 -87.470111
08/15/2014 11:44 pm 8801 WICKER AV SJ19 41.458933 -87.470299
08/15/2014 10:20 pm 11000 WICKER AV SJ23 41.420373 -87.470098
08/15/2014 9:34 pm W 93RD AV & W OAKRIDGE DR SJ360 41.449989 -87.478157
08/15/2014 9:23 pm 11033 W 93RD AV; ST JOHN POLICE DEPARTME SJ360 41.449958 -87.469145
08/15/2014 9:17 pm 9200 WICKER AV SJ23 41.453592 -87.470222
08/15/2014 8:31 pm 9270 WICKER AV; QUIZNOS SUB SUITE C SJ17 41.451746 -87.470195
08/15/2014 8:04 pm W 109TH AV & FORESTDALE ST SJ23 41.421168 -87.473684
08/15/2014 7:26 pm SJ AUTO SJ10
08/15/2014 7:17 pm W 101ST AV & WHITE OAK AV SJ10 41.435563 -87.489287
08/15/2014 6:59 pm W 93RD AV & HILLTOP DR SJ10 41.450000 -87.487793
08/15/2014 6:44 pm WHITE OAK & ROSEWOOD SJ10
08/15/2014 6:27 pm W 93RD AV & HILLTOP DR SJ10 41.450000 -87.487793
08/15/2014 6:14 pm W 101ST AV & WHITE OAK AV SJ10 41.435563 -87.489287
08/15/2014 6:01 pm W 93RD AV & HILLTOP DR SJ10 41.450000 -87.487793
08/15/2014 5:31 pm W 93RD AV & BELMONT AV SJ10 41.449965 -87.483809
08/15/2014 5:15 pm W 93RD AV & HILLTOP DR SJ10 41.450000 -87.487793
08/15/2014 4:18 pm W 101ST AV & WHITE OAK AV SJ10 41.435563 -87.489287
08/15/2014 4:06 pm W 101ST AV & WHITE OAK AV SJ10 41.435563 -87.489287
08/15/2014 4:03 pm W 101ST AV & WHITE OAK AV SJ10 41.435563 -87.489287
08/15/2014 12:48 pm ZIGES SJ15
08/15/2014 8:30 am 8575 WICKER AV; SPEEDWAY SJ21 41.461959 -87.470344
08/15/2014 8:21 am W 97TH AV & WICKER AV SJ21 41.441590 -87.470028
08/15/2014 7:46 am 9270 WICKER AV; QUIZNOS SUB SUITE C SJ9 41.451746 -87.470195
08/15/2014 7:34 am 9600 WICKER AV SJ9 41.443973 -87.470069
08/15/2014 7:22 am GRASSELLI AV & JOLIET ST SJ7 41.442138 -87.456710
08/15/2014 7:11 am 10100 PARRISH AV SJ21 41.438508 -87.450596
08/15/2014 1:00 am 109TH AV; WICKER SJ22
08/14/2014 11:58 pm 9200 WICKER AV SJ22 41.453592 -87.470222
08/14/2014 8:56 pm W 109TH AV & MANOR DR SJ16 41.421247 -87.487135
08/14/2014 8:28 pm W 109TH AV & WICKER AV; US231 SJ16 41.421149 -87.470100
08/14/2014 8:19 pm W 109TH AV & WICKER AV; US231 SJ16 41.421149 -87.470100
08/14/2014 7:42 pm 11700 W 93RD AV SJ22 41.449987 -87.476751
08/14/2014 7:23 pm 9700 WICKER AV SJ22 41.443089 -87.470050
08/14/2014 3:59 pm 22 US 41; WALGREENS; NORTH SJ21 41.522638 -87.471337
08/13/2014 9:26 pm W 93RD AV & PATTERSON ST SJ19 41.449971 -87.470688
08/13/2014 9:19 pm W 97TH AV & WICKER AV SJ19 41.441590 -87.470028
08/13/2014 8:51 pm 9200 WICKER AV SJ19 41.453592 -87.470222
08/13/2014 8:24 pm 9400 WICKER AV SJ19 41.447998 -87.470142
08/13/2014 7:22 pm 8801 WICKER AV; KOLLING SCHOOL SJ19 41.458933 -87.470299
08/13/2014 7:00 pm W 109TH AV & SCHNEIDER PL; US231 SJ19 41.421141 -87.468343
08/13/2014 6:41 pm 10900 WICKER AV SJ19 41.421149 -87.470100
08/13/2014 6:27 pm W 109TH AV & SCHNEIDER PL; US231 SJ19 41.421141 -87.468343
08/13/2014 6:16 pm W 109TH AV & ONTARIO ST SJ19 41.421154 -87.471273
08/13/2014 6:07 pm 8801 WICKER AV; KOLLING SCHOOL SJ22 41.458933 -87.470299
08/13/2014 6:00 pm W 109TH AV & ONTARIO ST SJ19 41.421154 -87.471273
08/13/2014 5:44 pm W 101ST AV & WELLINGTON CT E SJ19 41.435574 -87.493895
08/13/2014 5:11 pm W 101ST AV & SADDLE CREEK DR SJ19 41.435592 -87.499938
08/13/2014 4:40 pm KELLY CT & VENTURA DR SJ19 41.463412 -87.473735
08/13/2014 12:37 pm BLAINE ST & W 93RD AV SJ18 41.449720 -87.426537
08/13/2014 10:43 am CLINE AV & W 101ST AV SJ18 41.436724 -87.431153
08/13/2014 10:34 am CLINE AV & W 101ST AV SJ19 41.436724 -87.431153
08/12/2014 11:48 pm W 93RD AV; W OLAKRIDGE SJ10 41.450129 -87.508672
08/12/2014 11:30 pm SR231 & 41 SJ10
08/12/2014 11:19 pm SR231 & 41 SJ10
08/12/2014 10:44 pm SR231 & 41 SJ10
08/12/2014 10:28 pm SR231 & 41 SJ10
08/12/2014 10:15 pm SR231 & 41 SJ10
08/12/2014 9:46 pm SR231 & 41 SJ10
08/12/2014 9:27 pm 10900 WICKER AV SJ10 41.421149 -87.470100
08/12/2014 9:12 pm W 109TH AV & WICKER AV SJ10 41.421149 -87.470100
08/12/2014 8:27 pm 9200 WICKER AV SJ22 41.453592 -87.470222 WW
08/12/2014 8:14 pm 9500 WICKER AV SJ22 41.445991 -87.470111 WW
08/12/2014 8:01 pm 9200 WICKER AV SJ22 41.453592 -87.470222 WW
08/12/2014 7:38 pm 8300 WICKER AV SJ22 41.466787 -87.470378 WW
08/12/2014 7:07 pm 8100 WICKER AV SJ22 41.471886 -87.470393 CIT
08/12/2014 6:46 pm 9200 WICKER AV SJ17 41.453592 -87.470222 CIT
08/12/2014 6:38 pm W 93RD AV & KEILMAN ST SJ17 41.449981 -87.472491 VW
08/12/2014 6:28 pm 8500 WICKER AV SJ17 41.462715 -87.470350 CIT
08/12/2014 6:17 pm 8500 WICKER AV SJ17 41.462715 -87.470350 CIT
08/12/2014 5:00 pm SJ22
08/12/2014 4:37 pm SJ22 CIT
08/12/2014 4:03 pm WALL ST & WICKER AV SJ9 41.453043 -87.470213 CIT
08/12/2014 8:37 am W 93RD AV & MARQUETTE ST SJ19 41.449792 -87.441074
08/11/2014 10:08 pm SJPD SJ17
08/11/2014 9:56 pm 9400 WHITE OAK AV SJ23 41.448199 -87.489455
08/11/2014 9:18 pm 8801 WICKER AV; KOLLING SCHOOL SJ17 41.458933 -87.470299 VW
08/11/2014 9:02 pm SJ23 CIT
08/11/2014 8:59 pm 9500 WICKER AV SJ17 41.445991 -87.470111 VW
08/11/2014 8:45 pm 10900 WICKER AV SJ23 41.421149 -87.470100 CIT
08/11/2014 8:38 pm W 109TH AV & HURON ST SJ23 41.421160 -87.472295 CIT
08/11/2014 7:48 pm 8575 WICKER AV; SPEEDWAY SJ17 41.461959 -87.470344 CIT
08/11/2014 7:35 pm W 109TH AV & E SCHNEIDER CT SJ23 41.421136 -87.467561 CIT
08/11/2014 7:17 pm 8575 WICKER AV; SPEEDWAY SJ17 41.461959 -87.470344 CIT
08/11/2014 6:45 pm 9321 WICKER AV; STANDARD BANK AND TRUST SJ23 41.449554 -87.470165 CIT
08/11/2014 4:07 pm 9200 WICKER AV SJ9 41.453592 -87.470222 CIT
08/11/2014 4:06 pm W 89TH AV & MARQUETTE RD SJ19 41.456387 -87.441221 CIT
08/11/2014 4:02 pm 9200 WICKER AV SJ19 41.453592 -87.470222
08/11/2014 3:54 pm 9100 MARQUETTE ST SJ19 41.453759 -87.441168 VW
08/11/2014 3:46 pm W 93RD AV & OLCOTT AV SJ9 0.017073 -0.107584 VW
08/11/2014 3:34 pm W 93RD AV & MARQUETTE ST SJ19 41.449792 -87.441074 CIT
08/11/2014 3:26 pm W 93RD AV & SCHAFER DR SJ19 41.449796 -87.442718
08/11/2014 3:14 pm 9600 WICKER AV SJ9 41.443973 -87.470069
08/11/2014 12:28 pm DEODOR ST & W 93RD AV SJ7 41.450808 -87.452756
08/11/2014 11:02 am 9400 WICKER AV SJ19 41.447998 -87.470142
08/11/2014 9:50 am WALL ST & WICKER AV SJ9 41.453043 -87.470213
08/11/2014 9:35 am WALL ST & WICKER AV SJ9 41.453043 -87.470213
08/11/2014 2:24 am HART ST & JOLIET ST SJ22 41.442976 -87.461448
08/10/2014 3:56 pm 99TH & PARRISH SJ12 WW
08/10/2014 2:03 pm 8400 WICKER AV SJ18 41.464281 -87.470364 VW
08/10/2014 1:22 pm 8500 WICKER AV SJ24 41.462715 -87.470350
08/10/2014 12:51 pm W 85TH AV & LAKE HILLS DR SJ343 41.464322 -87.455889
08/10/2014 12:21 pm W 82ND LN & WICKER AV SJ343 41.469318 -87.470392
08/10/2014 11:13 am 8575 WICKER AV; SPEEDWAY SJ343 41.461959 -87.470344
08/10/2014 9:54 am 9100 COLUMBIA AV SJ343 41.455414 -87.498780
08/10/2014 9:27 am 109TH AND WELLINGTON SJ343
08/10/2014 9:13 am W 109TH AV & HILLCREST LN SJ343 41.421205 -87.496638
08/10/2014 8:03 am W 93RD AV & HILLTOP DR SJ24 41.450000 -87.487793
08/10/2014 7:21 am 8500 WICKER AV SJ18 41.462715 -87.470350
08/10/2014 7:09 am W 95TH AV & WICKER AV SJ24 41.446031 -87.470111
08/10/2014 6:42 am W 97TH AV & WICKER AV SJ12 41.441590 -87.470028
08/10/2014 6:12 am 11033 W 93RD AV SJ12 41.449958 -87.469145
08/10/2014 4:30 am RT2 West SJ4
08/10/2014 4:25 am W 121ST AV & CALUMET AV SJ19 41.399385 -87.508177
08/10/2014 1:26 am W 109TH AV & PARRISH AV SJ14 41.421037 -87.450588
08/10/2014 12:52 am SJ16 41.443089 -87.470050
08/10/2014 12:30 am 8101 WICKER AV SJ22 41.470761 -87.470393
08/10/2014 12:22 am LEAPS SJ22 VW
08/10/2014 12:05 am 9700 WICKER AV SJ22 41.443089 -87.470050
08/09/2014 11:53 pm 8400 WICKER AV SJ22 41.464281 -87.470364
08/09/2014 11:40 pm SJ14 VW
08/09/2014 11:21 pm TRI TOWN COMMONS SJ16
08/09/2014 10:31 pm 109TH & SILVERLEAF SJ16 CIT
08/09/2014 8:28 pm SCHOOL ST & WICKER AV SJ19 41.447742 -87.470138 CIT
08/09/2014 8:14 pm 8400 WICKER AV SJ19 41.464281 -87.470364 WW
08/09/2014 8:04 pm W 93RD AV & PATTERSON ST SJ19 41.449971 -87.470688 WW
08/09/2014 7:52 pm 8500 WICKER AV SJ19 41.462715 -87.470350 WW
08/09/2014 7:47 pm 9200 WICKER AV SJ19 41.453592 -87.470222 VW
08/09/2014 7:20 pm W 109TH AV & ONTARIO ST SJ19 41.421154 -87.471273 CIT
08/09/2014 7:02 pm W 109TH AV & SCHNEIDER PL SJ19 41.421141 -87.468343 CIT
08/09/2014 6:45 pm W 109TH AV & OLCOTT AV SJ19 41.421214 -87.481530 CIT
08/09/2014 6:31 pm 9700 WHITE OAK AV SJ19 41.442725 -87.489373 WW
08/09/2014 5:49 pm 10100 WHITE OAK AV SJ19 41.435704 -87.489289 WW
08/09/2014 5:37 pm 11700 W 93RD AV; PRAIRIE WEST PARK SJ19 41.449987 -87.476751 CIT
08/09/2014 5:17 pm W 85TH AV & AUSTIN AV SJ19 41.464273 -87.446219 WW
08/09/2014 5:01 pm 8500 LAKE HILLS DR SJ19 41.464322 -87.455889 CIT
08/09/2014 4:53 pm W 85TH AV & ALEXANDER ST SJ19 41.464367 -87.465541 CIT
08/09/2014 4:35 pm 10000 W 85TH AV SJ19 41.464324 -87.456410 CIT
08/09/2014 3:14 pm 10700 WICKER AV SJ18 41.424209 -87.470085 CIT
08/09/2014 9:52 am W 93RD AV & DEODOR ST SJ12 41.450808 -87.452756
08/09/2014 9:37 am 10400 WHITE OAK AV SJ24 41.430566 -87.489301
08/09/2014 8:57 am 8801 WICKER AV; KOLLING SCHOOL SJ24 41.458933 -87.470299
08/09/2014 8:53 am 9200 PARK DR SJ12 41.451589 -87.460692
08/09/2014 7:22 am W 95TH AV & WICKER AV SJ24 41.446031 -87.470111
08/09/2014 6:47 am 8200 WICKER AV SJ18 41.469318 -87.470392
08/09/2014 12:51 am W 90TH AV; PATTERSON SJ22 41.455463 -87.506315
08/09/2014 12:37 am 9700 WICKER AV SJ22 41.443089 -87.470050
08/08/2014 11:59 pm 8200 WICKER AV SJ22 41.469318 -87.470392
08/08/2014 11:37 pm 8167 WICKER AV; LOANSUM PAWN SJ22 41.470455 -87.470393
08/08/2014 10:06 pm 80/90 & CENTRAL Ave SJ19
08/08/2014 7:46 pm 8200 WICKER AV SJ22 41.469318 -87.470392
08/08/2014 7:36 pm WALL ST & WICKER AV SJ23 41.453043 -87.470213
08/08/2014 7:35 pm 13500 W 109TH AV SJ16 41.421200 -87.497501
08/08/2014 7:11 pm W 109TH AV & WICKER AV; US231 SJ16 41.421149 -87.470100
08/08/2014 7:09 pm 8801 WICKER AV; KOLLING SCHOOL SJ23 41.458933 -87.470299
08/08/2014 6:58 pm 8600 WICKER AV SJ23 41.461624 -87.470339
08/08/2014 6:30 pm 9200 WICKER AV SJ23 41.453592 -87.470222
08/08/2014 10:46 am W 101ST AV & CALUMET AV SJ18 41.435635 -87.508349
08/08/2014 9:00 am W 101ST AV & SADDLE CREEK DR SJ24 41.435592 -87.499938
08/08/2014 7:09 am W 85TH AV & WICKER AV SJ24 41.462715 -87.470350
08/08/2014 6:44 am W 93RD AV & W OAKRIDGE DR SJ24 41.449989 -87.478157
08/08/2014 6:36 am 11700 W 93RD AV; PRAIRIE WEST PARK SJ24 41.449987 -87.476751
08/08/2014 5:54 am PARRISH AV; 10200 BLK SJ7 41.421600 -87.450588
08/08/2014 2:02 am WICKER AV & KELLY DR SJ23 41.462025 -87.470344
08/08/2014 1:09 am 11000 WICKER AV SJ17 41.420373 -87.470098
08/07/2014 10:22 pm W 109TH AV & FORESTDALE ST SJ23 41.421168 -87.473684
08/07/2014 8:27 pm 9400 WICKER AV SJ21 41.447998 -87.470142
08/07/2014 6:59 pm 1855 US 41; MCDONALDS SJ17 41.488841 -87.470867
08/07/2014 6:43 pm 9400 WICKER AV SJ21 41.447998 -87.470142
08/07/2014 6:41 pm 9425 WICKER AV; MIGHTY MIKES SJ17 41.447516 -87.470135
08/07/2014 6:23 pm 9500 WICKER AV SJ17 41.445991 -87.470111
08/07/2014 8:53 am 8800 WICKER AV; Kolling parking lot SJ19 41.458947 -87.470300
08/07/2014 5:07 am KOHLS SJ21
08/06/2014 10:58 pm 9200 WICKER AV SJ17 41.453592 -87.470222
08/06/2014 10:42 pm 9280 WICKER AV SJ17 41.451133 -87.470187
08/06/2014 10:25 pm 9280 WICKER AV SJ21 41.451133 -87.470187
08/06/2014 7:54 pm W 109TH AV & ONTARIO ST SJ23 41.421154 -87.471273
08/06/2014 7:30 pm 11000 WICKER AV SJ17 41.420373 -87.470098
08/06/2014 2:05 pm W 93RD AV & WICKER AV SJ9 41.449967 -87.470171
08/06/2014 7:28 am JOLIET ST & HART ST SJ7 41.442976 -87.461448
08/06/2014 1:25 am 10600 WICKER AV SJ24 41.427299 -87.470069
08/05/2014 10:07 pm 9500 WICKER AV SJ24 41.445991 -87.470111
08/05/2014 7:32 pm 10600 WHITE OAK AV SJ24 41.427178 -87.489314 VW
08/05/2014 4:35 pm 9200 WICKER AV SJ22 41.453592 -87.470222 VW
08/05/2014 2:33 pm 8600 WICKER AV SJ22 41.461624 -87.470339 VW
08/05/2014 1:22 pm 9500 WICKER AV SJ18 41.445991 -87.470111
08/05/2014 1:17 pm MMM MOTOR SJ22
08/05/2014 9:03 am W 101ST AV & WICKER AV SJ22 41.437165 -87.469986
08/05/2014 7:19 am WICKER AV & WALL ST SJ18 41.453043 -87.470213
08/04/2014 6:03 pm 10630 WICKER AV; SHRINE OF CHRISTS PASSI SJ24 41.426185 -87.470075 WW
08/04/2014 3:13 pm 9600 WICKER AV SJ22 41.443973 -87.470069 VW
08/04/2014 3:06 pm W 97TH AV & WICKER AV SJ22 41.441590 -87.470028 VW
08/04/2014 2:46 pm 8200 WICKER AV SJ22 41.469318 -87.470392 VW
08/04/2014 11:08 am KEILMAN ST & W 93RD AV SJ22 41.449981 -87.472491
08/04/2014 10:52 am 8801 WICKER AV; KOLLING SCHOOL SJ22 41.458933 -87.470299
08/04/2014 6:02 am 8496 WICKER AV; TACO BELL SJ22 41.462763 -87.470351
08/04/2014 3:51 am 8445 WICKER AV; HANDS ON CAR WASH SJ9 41.463570 -87.470358
08/04/2014 2:47 am 9500 WICKER AV SJ9 41.445991 -87.470111
08/04/2014 12:49 am W 97TH AV & WICKER AV SJ9 41.441590 -87.470028
08/03/2014 6:39 pm 8400 WICKER AV SJ9 41.464281 -87.470364 VW
08/03/2014 6:03 pm 9700 WICKER AV SJ21 41.443089 -87.470050 CIT
08/03/2014 6:02 pm 8400 WICKER AV SJ9 41.464281 -87.470364 CIT
08/03/2014 1:35 pm SJ343 WW
08/03/2014 10:27 am 8445 WICKER AV; HANDS ON CAR WASH SJ343 41.463570 -87.470358 WW
08/03/2014 10:18 am SJ343 WW
08/03/2014 10:12 am SJ343
08/03/2014 9:59 am SJ343 WW
08/03/2014 9:51 am SJ343 VW
08/03/2014 9:15 am 93 SCH SJ23 CIT
08/03/2014 5:08 am 8200 WICKER AV SJ14 41.469318 -87.470392
08/03/2014 4:36 am 11400 W 93RD AV SJ21 41.449981 -87.472491
08/03/2014 2:17 am 9600 WICKER AV SJ9 41.443973 -87.470069
08/03/2014 1:33 am 8200 WICKER AV SJ9 41.469318 -87.470392
08/03/2014 1:17 am 8445 WICKER AV; HANDS ON CAR WASH SJ9 41.463570 -87.470358
08/03/2014 12:19 am 8200 WICKER AV SJ21 41.469318 -87.470392
08/03/2014 12:02 am 7800 WICKER AV SJ21 41.475903 -87.470459
08/02/2014 11:47 pm 9500 WICKER AV SJ4 41.445991 -87.470111
08/02/2014 7:52 pm JOLIET AND SUNCREST SJ21
08/02/2014 7:45 pm JOLIET ST & WICKER AV SJ4 41.447742 -87.470138
08/02/2014 7:32 pm WICKER AV & WALL ST SJ21 41.453043 -87.470213
08/02/2014 7:04 pm 8575 WICKER AV; SPEEDWAY SJ21 41.461959 -87.470344
08/02/2014 5:05 pm 9400 WICKER AV SJ9 41.447998 -87.470142
08/02/2014 5:03 pm 11033 W 93RD AV SJ21 41.449958 -87.469145
08/02/2014 2:29 pm 8575 WICKER AV; SPEEDWAY SJ19 41.461959 -87.470344
08/02/2014 2:03 pm 9285 WICKER AV; JJS PETRO SJ19 41.450826 -87.470183
08/02/2014 1:37 pm 14100 W 101ST AV SJ19 41.435623 -87.507252
08/02/2014 1:30 pm W 109TH AV & ONTARIO ST SJ23 41.421154 -87.471273
08/02/2014 1:15 pm 14100 W 101ST AV SJ19 41.435623 -87.507252
08/02/2014 11:16 am CLINE AV & W 109TH AV SJ341 41.420910 -87.431171
08/02/2014 11:16 am CLINE AV & W 109TH AV SJ341 41.420910 -87.431171
08/02/2014 10:43 am 9200 WICKER AV SJ19 41.453592 -87.470222
08/02/2014 10:22 am 9280 WICKER AV; WALGREENS #4276 SJ19 41.451133 -87.470187
08/02/2014 9:44 am CLARK SJ23
08/02/2014 9:35 am W 93RD AV & COLUMBIA AV SJ19 41.450881 -87.500558
08/02/2014 9:23 am W 101ST AV & CALUMET AV SJ23 41.435635 -87.508349
08/02/2014 9:18 am 93RD AND COLUMBIA SJ19
08/02/2014 8:47 am 8575 WICKER AV; SPEEDWAY SJ23 41.461959 -87.470344
08/02/2014 8:38 am 8600 WICKER AV SJ23 41.461624 -87.470339
08/02/2014 8:15 am W 109TH AV & FORESTDALE ST SJ23 41.421168 -87.473684
08/02/2014 7:44 am SJ23
08/02/2014 7:37 am 9400 WICKER AV SJ19 41.447998 -87.470142
08/02/2014 3:38 am 8200 WICKER AV SJ9 41.469318 -87.470392
08/02/2014 3:26 am 8200 WICKER AV SJ9 41.469318 -87.470392
08/02/2014 2:28 am 109OO WICKER AV SJ4
08/02/2014 2:16 am W 93RD AV & WICKER AV SJ21 41.449967 -87.470171
08/02/2014 1:53 am 8200 WICKER AV SJ9 41.469318 -87.470392
08/02/2014 12:41 am 9700 WICKER AV SJ9 41.443089 -87.470050
08/01/2014 11:40 pm 8575 WICKER AV SJ21 41.461959 -87.470344
08/01/2014 11:25 pm WICKER AV & VENTURA DR SJ21 41.464281 -87.470364
08/01/2014 11:12 pm 8801 WICKER AV SJ21 41.458933 -87.470299
08/01/2014 10:15 pm 9700 WICKER AV SJ4 41.443089 -87.470050
08/01/2014 10:06 pm 9100 WICKER AV SJ4 41.454931 -87.470241
08/01/2014 8:21 pm 8575 WICKER AV; SPEEDWAY SJ9 41.461959 -87.470344
08/01/2014 7:54 pm 9600 WICKER AV SJ9 41.443973 -87.470069
08/01/2014 7:39 pm WALL ST & PATTERSON ST SJ9 41.452823 -87.472087
08/01/2014 7:20 pm ROSEWOOD & WHITE OAK SJ10 CIT
08/01/2014 7:04 pm W 93RD AV & HILLTOP DR SJ10 41.450000 -87.487793
08/01/2014 6:54 pm W 93RD AV & HILLTOP DR SJ10 41.450000 -87.487793
08/01/2014 6:52 pm 9285 WICKER AV; JJS PETRO SJ21 41.450826 -87.470183
08/01/2014 6:29 pm W 93RD AV & HILLTOP DR SJ10 41.450000 -87.487793
08/01/2014 6:15 pm W 93RD AV & HILLTOP DR SJ10 41.450000 -87.487793
08/01/2014 6:07 pm PARK & 109TH SJ4
08/01/2014 5:46 pm W 93RD AV & HILLTOP DR SJ10 41.450000 -87.487793
08/01/2014 5:32 pm 9270 WICKER AV; QUIZNOS SUB SUITE C SJ22 41.451746 -87.470195
08/01/2014 5:22 pm ROSEWOOD & WHITE OAK SJ10
08/01/2014 5:02 pm W 93RD AV & MONIX DR SJ10 41.450028 -87.491955
08/01/2014 4:39 pm W 101ST AV & WHITE OAK AV SJ10 41.435563 -87.489287
08/01/2014 4:20 pm W 93RD AV & W OAKRIDGE DR SJ10 41.449989 -87.478157
08/01/2014 4:07 pm W 101ST AV & WELLINGTON CT E SJ10 41.435574 -87.493895
08/01/2014 3:43 pm W 93RD AV & OLCOTT AV SJ10 0.017073 -0.107584
08/01/2014 3:29 pm W 93RD AV & HILLTOP DR SJ10 41.450000 -87.487793
08/01/2014 2:26 pm W 109TH AV & WICKER AV SJ23 41.421149 -87.470100
08/01/2014 12:05 pm 9100 W 93RD AV SJ19 41.450808 -87.452756
08/01/2014 12:04 pm 9900 BLAINE ST SJ23 41.439416 -87.426377
08/01/2014 11:49 am 231 West OF CLINE Ave SJ23
08/01/2014 11:09 am W 85TH AV & WICKER AV SJ19 41.462715 -87.470350
08/01/2014 10:59 am 9200 WICKER AV SJ19 41.453592 -87.470222
08/01/2014 10:26 am 9200 WICKER AV SJ14 41.453592 -87.470222
08/01/2014 9:20 am 9500 WICKER AV; KMART PARKIGN LOT SJ23 41.445991 -87.470111
08/01/2014 9:04 am W 101ST AV & WHITE OAK AV SJ23 41.435563 -87.489287
08/01/2014 8:40 am W 109TH AV & WICKER AV SJ23 41.421149 -87.470100
08/01/2014 1:34 am 8200 WICKER AV SJ10 41.469318 -87.470392
08/01/2014 1:18 am 231 & 41 SJ10
08/01/2014 1:08 am 8575 WICKER AV SJ24 41.461959 -87.470344
08/01/2014 12:37 am 9500 WICKER AV SJ10 41.445991 -87.470111
08/01/2014 12:11 am 231 & WICKER AV SJ10
08/01/2014 12:02 am 231 & WICKER AV SJ10
07/31/2014 11:45 pm 231 & WICKER AV SJ10
07/31/2014 11:33 pm KELLY DR & WICKER AV SJ10 41.462025 -87.470344
07/31/2014 10:20 pm 8200 WICKER AV SJ10 41.469318 -87.470392
07/31/2014 10:05 pm W 77TH AV & WICKER AV SJ10 41.478956 -87.470527
07/31/2014 8:58 pm W 101ST AV & WICKER AV SJ18 41.437165 -87.469986
07/31/2014 7:36 pm W 85TH AV & WICKER AV SJ18 41.462715 -87.470350
07/31/2014 7:34 pm 10600 WHITE OAK AV SJ24 41.427178 -87.489314
07/31/2014 6:58 pm PW PARK SJ18
07/31/2014 6:26 pm 9500 WHITE OAK AV SJ24 41.446362 -87.489428
07/31/2014 12:55 pm 85 41 SJ22
07/31/2014 9:15 am SPEEDWAY SJ22
07/31/2014 7:02 am JOL 41 SJ22
07/31/2014 6:26 am dd lot SJ10
07/31/2014 1:31 am 8200 WICKER AV SJ24 41.469318 -87.470392
07/30/2014 5:48 pm JOLIET ST & WICKER AV SJ18 41.447742 -87.470138
07/30/2014 1:02 pm 82 41 SJ22
07/30/2014 7:35 am 107 OLCOTT SJ16
07/30/2014 7:18 am 95 41 SJ22
07/30/2014 7:06 am 231 41 BANK SJ16
07/30/2014 5:20 am 10749 WICKER AV SJ4 41.423403 -87.470089
07/30/2014 3:19 am 8200 WICKER AV SJ9 41.469318 -87.470392
07/30/2014 1:37 am 8200 WICKER AV SJ9 41.469318 -87.470392
07/30/2014 1:08 am W 93RD AV & KEILMAN ST SJ9 41.449981 -87.472491
07/30/2014 12:36 am 9700 WICKER AV SJ19 41.443089 -87.470050
07/30/2014 12:19 am 8200 WICKER AV SJ9 41.469318 -87.470392
07/29/2014 11:46 pm 8200 WICKER AV SJ9 41.469318 -87.470392
07/29/2014 11:36 pm W 93RD AV & PATTERSON ST SJ4 41.449971 -87.470688
07/29/2014 11:00 pm 9600 WICKER AV SJ9 41.443973 -87.470069
07/29/2014 9:25 pm 10600 WICKER AV SJ19 41.427299 -87.470069 WW
07/29/2014 1:55 pm TH SJ14 VW
07/29/2014 11:26 am 95 41 SJ23
07/29/2014 4:43 am 8575 WICKER AV; SPEEDWAY SJ9 41.461959 -87.470344 VW
07/28/2014 11:30 pm W 94TH CT & WOODLAND DR SJ4 41.447026 -87.486281
07/28/2014 10:48 pm BINGO LAKE RD SJ4
07/28/2014 10:35 pm LC PLAZA SJ9
07/28/2014 10:20 pm W 103RD AV & WICKER AV SJ4 41.431350 -87.470039
07/28/2014 10:18 pm W 102ND AV & NORTHCOTE CT SJ9 41.433393 -87.482473
07/28/2014 10:13 pm 9600 KEILMAN ST SJ4 41.444611 -87.472455
07/28/2014 9:50 pm W 103RD AV & WICKER AV SJ4 41.431350 -87.470039
07/28/2014 11:08 am 109 HILLCREST SJ21
07/28/2014 10:58 am 108 41 SJ21
07/28/2014 8:48 am 101 cline SJ23
07/28/2014 7:05 am 41 WALL SJ21
07/27/2014 6:48 pm 9400 WHITE OAK AV SJ24 41.448199 -87.489455
07/27/2014 5:07 pm 8575 WICKER AV; SPEEDWAY SJ24 41.461959 -87.470344
07/27/2014 4:58 pm 8575 WICKER AV; SPEEDWAY SJ24 41.461959 -87.470344
07/27/2014 12:25 pm W 85TH AV & FARMINGTON ST SJ343 41.463284 -87.467568
07/27/2014 11:19 am 8400 WICKER AV SJ343 41.464281 -87.470364
07/27/2014 10:48 am 10808 WICKER AV; DICKS RESTRAUANT SJ343 41.422813 -87.470092
07/27/2014 7:29 am 83 41 SJ343
07/27/2014 3:13 am W 93RD AV; BRAMBLEWOOD SJ22 41.450129 -87.508672
07/27/2014 2:00 am ONTARIO ST & W 109TH AV SJ22 41.421154 -87.471273
07/27/2014 1:27 am 8200 WICKER AV SJ24 41.469318 -87.470392
07/27/2014 1:27 am 8200 WICKER AV SJ22 41.469318 -87.470392
07/27/2014 1:16 am 8900 WICKER AV SJ22 41.457608 -87.470280
07/27/2014 12:29 am W 109TH AV & WICKER AV SJ22 41.421149 -87.470100
07/26/2014 3:45 am JOLIET ST & WICKER AV SJ22 41.447742 -87.470138
07/26/2014 3:08 am W 85TH AV & PRIMROSE DR SJ22 41.464508 -87.487911
07/26/2014 2:44 am 11700 W 93RD AV SJ22 41.449987 -87.476751
07/26/2014 2:18 am PARRISH & SR231 SJ22
07/26/2014 2:02 am 10600 WHITE OAK AV SJ22 41.427178 -87.489314
07/26/2014 1:26 am 10630 WICKER AV; SHRINE OF CHRISTS PASSI SJ22 41.426185 -87.470075
07/25/2014 11:38 pm W 93RD AV & DEODOR ST SJ22 41.450808 -87.452756
07/25/2014 10:41 pm 8235 WICKER AV; SMOOTHIE KING SJ18 41.468433 -87.470388
07/25/2014 10:38 pm 8200 WICKER AV SJ22 41.469318 -87.470392
07/25/2014 7:15 pm 11033 W 93RD AV SJ24 41.449958 -87.469145
07/25/2014 7:05 pm W 93RD AV & COLUMBIA AV SJ24 41.450881 -87.500558
07/25/2014 7:01 pm 8200 WICKER AV SJ22 41.469318 -87.470392
07/25/2014 1:34 pm W 109TH AV & MANOR DR SJ16 41.421247 -87.487135
07/25/2014 1:12 pm WICKER AV & SR231 SJ16
07/25/2014 3:17 am 9700 WICKER AV SJ14 41.443089 -87.470050
07/24/2014 11:06 pm 9600 WICKER AV SJ14 41.443973 -87.470069
07/24/2014 6:31 pm 9270 WICKER AV; QUIZNOS SUB SUITE C SJ17 41.451746 -87.470195
07/24/2014 6:01 pm 8575 WICKER AV; SPEEDWAY SJ17 41.461959 -87.470344
07/24/2014 1:00 pm 109 ONTARIO SJ23
07/24/2014 12:07 pm 83 41 SJ21
07/24/2014 10:27 am 9401 WICKER AV; SCHOOPS SJ21 41.447979 -87.470142
07/24/2014 9:34 am SCHNEIDER 231 SJ23
07/24/2014 8:43 am 96 41 SJ23
07/24/2014 8:33 am 101ST AV SJ21
07/24/2014 8:08 am 231 PARRISH SJ23
07/24/2014 7:55 am 109 MANOR SJ23
07/24/2014 7:21 am 85 AUSTIN SJ23
07/24/2014 7:13 am TCU SJ23
07/24/2014 7:01 am 92 41 SJ21
07/24/2014 2:46 am 77TH & PATTERSON SJ22
07/24/2014 2:26 am W 89TH PL & LEE PL SJ14 41.456316 -87.429680
07/24/2014 2:21 am W 97TH LN & W OAKRIDGE DR SJ22 41.442714 -87.477150
07/24/2014 1:12 am W 109TH AV & WICKER AV SJ22 41.421149 -87.470100
07/23/2014 6:16 pm SADDLE CREEK DR & W 101ST AV SJ22 41.435592 -87.499938
07/23/2014 9:36 am LIBRARY SJ21
07/23/2014 8:37 am 93 WICKER SJ23
07/23/2014 7:56 am 92 CLINE SJ23
07/22/2014 11:41 pm 9500 WICKER AV SJ9 41.445991 -87.470111
07/22/2014 11:27 pm 231 & SCHNEIDER PL SJ18
07/22/2014 11:08 pm 9600 WICKER AV SJ9 41.443973 -87.470069
07/22/2014 10:50 pm 9400 WICKER AV SJ18 41.447998 -87.470142
07/22/2014 10:48 pm 9600 WICKER AV SJ9 41.443973 -87.470069
07/22/2014 7:35 pm W 109TH AV & HILLCREST LN SJ16 41.421205 -87.496638 CIT
07/22/2014 7:23 pm W 109TH AV & WICKER AV SJ16 41.421149 -87.470100 WW
07/22/2014 2:51 pm 9700 WICKER AV SJ24 41.443089 -87.470050 WW
07/22/2014 2:20 pm 11700 W 93RD AV; PRAIRIE WEST PARK SJ24 41.449987 -87.476751 CIT
07/22/2014 1:32 pm PWP SJ24
07/21/2014 8:21 pm W 93RD AV & HILLTOP DR SJ18 41.450000 -87.487793
07/21/2014 7:56 am 8915 W 93RD AV SJ24 41.449796 -87.443725
07/21/2014 6:57 am 11700 W 93RD AV; PRAIRIE WEST PARK SJ24 41.449987 -87.476751
07/21/2014 6:32 am JOLIET ST; Wicker Ave SJ24 41.446940 -87.468764
07/21/2014 4:58 am 9407 WICKER AV; DUNKIN DONUTS SJ24 41.447861 -87.470140
07/20/2014 8:35 pm 9700 WICKER AV SJ23 41.443089 -87.470050
07/20/2014 8:29 pm KOLLING RD SJ23 41.493474 -87.441225
07/20/2014 8:21 pm JOLIET ST & INDUSTRIAL DR SJ365 41.443788 -87.464124
07/20/2014 8:02 pm W 107TH AV & MALOIAN DR SJ365 41.425199 -87.485819
07/20/2014 6:59 pm NORTHWOODS SJ23
07/20/2014 4:27 pm W 109TH AV & ONTARIO ST SJ21 41.421154 -87.471273
07/20/2014 3:56 pm 8575 WICKER AV; SPEEDWAY SJ343 41.461959 -87.470344
07/20/2014 10:40 am SJ343 WW
07/20/2014 10:32 am SJ343 CIT
07/19/2014 11:01 pm SJ23
07/19/2014 10:25 pm SJ23 CIT
07/19/2014 9:51 pm W 93RD AV & WICKER AV SJ23 41.449967 -87.470171
07/19/2014 7:13 pm 10200 WICKER AV SJ23 41.435026 -87.470008 CIT
07/19/2014 7:02 pm SPEEDWAY SJ23 CIT
07/19/2014 6:32 pm 10800 WICKER AV SJ14 41.422959 -87.470092
07/19/2014 6:24 pm 9200 WICKER AV SJ17 41.453592 -87.470222 CIT
07/19/2014 6:08 pm DQ SJ17 CIT
07/19/2014 4:16 pm 102 SJ4 CIT
07/19/2014 4:13 pm W 101ST AV & SADDLE CREEK DR SJ9 41.435592 -87.499938 VW
07/19/2014 3:58 pm 10200 WHITE OAK AV SJ9 41.433370 -87.489295 CIT
07/19/2014 12:56 pm 9500 BLAINE ST SJ4 41.446068 -87.426481 VW
07/19/2014 8:31 am 8500 WICKER AV SJ9 41.462715 -87.470350 CIT
07/19/2014 1:47 am 8575 WICKER AV SJ17 41.461959 -87.470344
07/18/2014 10:45 pm 8200 WICKER AV SJ23 41.469318 -87.470392
07/18/2014 7:08 pm 9200 WICKER AV SJ17 41.453592 -87.470222
07/17/2014 10:47 pm 9285 WICKER AV SJ19 41.450826 -87.470183
07/17/2014 10:30 pm W 85TH AV & WICKER AV SJ19 41.462715 -87.470350
07/17/2014 10:27 pm ST JOHN LIBRARY SJ16
07/17/2014 9:33 pm 8200 WICKER AV SJ19 41.469318 -87.470392
07/17/2014 9:02 pm 11700 W 93RD AV SJ19 41.449987 -87.476751
07/17/2014 8:45 pm W 109TH AV & E SCHNEIDER CT; US231 SJ19 41.421136 -87.467561
07/17/2014 8:24 pm 10800 WICKER AV SJ19 41.422959 -87.470092
07/17/2014 8:06 pm W 109TH AV & E SCHNEIDER CT; US231 SJ19 41.421136 -87.467561
07/17/2014 7:53 pm 10800 WICKER AV SJ19 41.422959 -87.470092
07/17/2014 7:31 pm 10900 WICKER AV SJ19 41.421149 -87.470100
07/17/2014 7:09 pm 10600 WHITE OAK AV SJ19 41.427178 -87.489314
07/17/2014 6:54 pm 9280 WICKER AV; WALGREENS #4276 SJ19 41.451133 -87.470187
07/17/2014 6:41 pm W 85TH AV & WICKER AV SJ19 41.462715 -87.470350
07/17/2014 11:26 am 9200 WICKER AV SJ18 41.453592 -87.470222
07/17/2014 9:52 am CORNERSTONE CHURCH SJ18
07/16/2014 10:25 pm 11300 WICKER AV SJ24 41.418042 -87.470092
07/16/2014 9:55 pm SJ MALL SJ365
07/16/2014 10:21 am 9000 PATTERSON ST SJ18 41.455863 -87.474706
07/16/2014 6:05 am JOLIET 94 SJ7
07/15/2014 10:21 pm JOLIET & TULIP LN SJ17
07/15/2014 9:05 pm W 95TH AV & WICKER AV SJ14 41.446031 -87.470111
07/15/2014 8:21 pm 8575 WICKER AV; SPEEDWAY SJ17 41.461959 -87.470344
07/15/2014 4:57 pm W 85TH AV & WICKER AV SJ19 41.462715 -87.470350
07/15/2014 4:49 pm 10955 W 93RD AV; TOWN OF ST JOHN SJ9 41.449954 -87.468663 CIT
07/15/2014 3:59 pm LAKE CENTRAL PLAZA SJ9
07/15/2014 3:38 pm 8575 WICKER AV; SPEEDWAY SJ9 41.461959 -87.470344
07/15/2014 1:50 pm STRACKS SJ9
07/15/2014 1:31 pm 97 41 SJ9
07/15/2014 12:00 pm 93 CALUMET SJ19
07/15/2014 10:50 am 92 MARQUETTE SJ19
07/14/2014 11:30 pm VENTURA DR & WICKER AV SJ21 41.464281 -87.470364
07/14/2014 8:46 pm 8400 WICKER AV SJ17 41.464281 -87.470364
07/14/2014 7:50 pm 9200 WICKER AV SJ21 41.453592 -87.470222 CIT
07/14/2014 7:00 pm PATTERSON ST & W 93RD AV SJ17 41.449971 -87.470688 CIT
07/14/2014 6:16 pm 9200 WICKER AV SJ17 41.453592 -87.470222 CIT
07/14/2014 5:04 pm 10200 WHITE OAK AV SJ17 41.433370 -87.489295 VW
07/14/2014 12:51 pm W 109TH AV & OLCOTT AV SJ4 41.421214 -87.481530
07/14/2014 6:34 am 92 41 SJ19
07/14/2014 3:35 am wall wicker SJ22 VW
07/14/2014 2:16 am W 101ST AV & WICKER AV SJ22 41.437165 -87.469986 VW
07/14/2014 1:07 am WALL WICKER SJ22 VW
07/14/2014 12:49 am 8200 WICKER AV SJ22 41.469318 -87.470392 VW
07/13/2014 11:35 pm CALUMET 109 SJ22
07/13/2014 2:14 pm 105 WO SJ24
07/13/2014 1:55 pm 102 DELMAR SJ24
07/13/2014 11:44 am 107 WO SJ24
07/13/2014 11:39 am 102 WO SJ24
07/13/2014 11:07 am 106 WO SJ24
07/13/2014 6:43 am 84 41 SJ12
07/13/2014 2:18 am JOLIET ST & INDUSTRIAL DR SJ22 41.443788 -87.464124
07/13/2014 12:36 am W 93RD AV; KEILMAN SJ22 41.450129 -87.508672
07/12/2014 11:04 pm E OAKWOOD DR SJ22 41.459658 -87.479136
07/12/2014 9:13 pm DEODOR ST & W 93RD AV SJ22 41.450808 -87.452756 WW
07/12/2014 8:52 pm W 85TH AV & WICKER AV SJ22 41.462715 -87.470350 CIT
07/12/2014 7:50 pm 9825 WICKER AV; STRACK & VANTIL SJ22 41.440661 -87.470018 VW
07/12/2014 7:34 pm VENTURA DR & WICKER AV SJ22 41.464281 -87.470364 VW
07/12/2014 6:14 pm W 109TH AV & MANOR DR SJ16 41.421247 -87.487135 CIT
07/12/2014 5:58 pm W 95TH AV & WICKER AV SJ343 41.446031 -87.470111 VW
07/12/2014 5:55 pm W 109TH AV & WICKER AV SJ16 41.421149 -87.470100
07/12/2014 5:30 pm CLARMONTE DR & W 93RD AV SJ343 41.449796 -87.449160 WW
07/12/2014 3:33 pm ice arena SJ24 VW
07/12/2014 3:27 pm 8575 WICKER AV; SPEEDWAY SJ343 41.461959 -87.470344 CIT
07/12/2014 3:18 pm 8600 wicker SJ343 CIT
07/12/2014 2:56 pm WALL ST & WICKER AV SJ343 41.453043 -87.470213 VW
07/12/2014 2:43 pm 9285 WICKER AV; JJS PETRO SJ343 41.450826 -87.470183 CIT
07/12/2014 9:42 am W 95TH AV & WICKER AV SJ343 41.446031 -87.470111
07/12/2014 1:54 am W 77TH AV & WICKER AV SJ22 41.478956 -87.470527
07/11/2014 9:06 pm W 109TH AV & OLCOTT AV SJ16 41.421214 -87.481530 CIT
07/11/2014 8:13 pm SJ16
07/11/2014 2:54 pm 9600 WHITE OAK AV SJ24 41.444525 -87.489400
07/11/2014 1:28 pm W 85TH AV & AUSTIN AV SJ18 41.464273 -87.446219
07/11/2014 12:30 pm Library parking lot SJ18
07/11/2014 9:06 am 8915 W 93RD AV; CLARK MS SJ24 41.449796 -87.443725
07/11/2014 12:58 am 9700 WICKER AV SJ21 41.443089 -87.470050
07/10/2014 11:47 pm W 93RD AV & KEILMAN ST SJ21 41.449981 -87.472491
07/10/2014 9:00 pm W 109TH AV & E SCHNEIDER CT SJ23 41.421136 -87.467561
07/10/2014 4:35 pm 10400 BULL RUN DR SJ19 41.430155 -87.474348 CIT
07/10/2014 6:58 am 9550 WICKER AV; KMART SJ9 41.444972 -87.470090
07/10/2014 6:39 am 93 41 SJ19
07/10/2014 6:21 am 8365 WICKER AV; DEYOUNG INTERIORS SJ9 41.465142 -87.470369
07/10/2014 6:01 am KIELMAN 93 SJ9
07/09/2014 9:42 pm W 101ST AV & PARRISH AV SJ23 41.441165 -87.450616
07/09/2014 7:25 pm W 97TH AV & WICKER AV SJ23 41.441590 -87.470028
07/09/2014 6:57 pm W 93RD AV & BLAINE ST SJ4 41.449720 -87.426537
07/09/2014 6:53 pm 7847 W 96TH LN SJ4 41.442972 -87.429778
07/09/2014 6:37 pm W 93RD AV & W OAKRIDGE DR SJ23 41.449989 -87.478157
07/09/2014 6:19 pm W 109TH AV & ONTARIO ST SJ23 41.421154 -87.471273
07/09/2014 6:05 pm 8575 WICKER AV; SPEEDWAY SJ23 41.461959 -87.470344
07/09/2014 1:06 pm JOL IND SJ21
07/09/2014 8:23 am WALGREENS SJ9
07/09/2014 8:06 am CENTIER 41 SJ9
07/09/2014 7:56 am 93RD AV; PD SJ9
07/09/2014 7:23 am JOLIET PARK SJ21
07/09/2014 3:48 am CALUNET AV w 94TH AV SJ22
07/09/2014 12:30 am WICKER AV; 109TH AV SJ22 41.422054 -87.470096
07/08/2014 3:09 am 81ST AV & PATTERSON AV SJ22 41.471726 -87.485009 VW
07/08/2014 2:07 am 9400 WICKER AV SJ22 41.447998 -87.470142 VW
07/07/2014 11:42 pm CLARMONTE DR & W 93RD AV SJ22 41.449796 -87.449160 VW
07/07/2014 3:10 pm 8500 WICKER AV SJ16 41.462715 -87.470350 VW
07/07/2014 1:37 am 9500 WICKER AV SJ9 41.445991 -87.470111
07/07/2014 1:11 am CAR WASH SJ9
07/06/2014 10:53 pm 9500 WICKER AV SJ4 41.445991 -87.470111
07/06/2014 7:35 pm 9500 BLAINE ST SJ4 41.446068 -87.426481
07/06/2014 7:15 pm 9200 WICKER AV SJ9 41.453592 -87.470222
07/06/2014 7:00 pm W 85TH AV & WICKER AV SJ9 41.462715 -87.470350
07/06/2014 6:42 pm WALL ST & WICKER AV SJ9 41.453043 -87.470213
07/06/2014 6:31 pm 9500 WICKER AV SJ9 41.445991 -87.470111
07/06/2014 5:53 pm 8575 WICKER AV; SPEEDWAY SJ9 41.461959 -87.470344
07/06/2014 4:44 pm 10300 WICKER AV SJ4 41.431350 -87.470039
07/06/2014 4:39 pm W 97TH LN & WICKER AV SJ19 41.441590 -87.470028
07/06/2014 4:00 pm 10100 WICKER AV SJ19 41.436091 -87.469997
07/06/2014 2:47 pm 9200 WICKER AV SJ19 41.453592 -87.470222
07/06/2014 2:32 pm W 101ST AV & WHITE OAK AV SJ19 41.435563 -87.489287
07/06/2014 4:26 am 9600 WICKER AV SJ9 41.443973 -87.470069
07/06/2014 3:55 am JOLIET ST SJ9 41.446940 -87.468764
07/06/2014 2:18 am 11033 W 93RD AV SJ9 41.449958 -87.469145
07/06/2014 1:48 am 9600 WICKER AV SJ9 41.443973 -87.470069
07/06/2014 12:42 am 9700 WICKER AV SJ9 41.443089 -87.470050
07/06/2014 12:20 am WICKER AV; 9400 BLK SJ21 41.422054 -87.470096
07/05/2014 11:55 pm W 93RD AV & DEODOR ST SJ4 41.450808 -87.452756
07/05/2014 9:39 pm FORESTDALE ST & W 109TH AV SJ4 41.421168 -87.473684
07/05/2014 7:36 pm 9400 WICKER AV SJ21 41.447998 -87.470142
07/05/2014 7:32 pm 11033 W 93RD AV SJ9 41.449958 -87.469145
07/05/2014 7:25 pm 9141 WICKER AV; ASPEN CAFE SJ21 41.454382 -87.470233
07/05/2014 4:14 pm W 109TH AV & HILLCREST LN SJ19 41.421205 -87.496638
07/05/2014 3:56 pm 9600 WHITE OAK AV SJ19 41.444525 -87.489400
07/05/2014 3:42 pm 10500 WHITE OAK AV SJ19 41.429191 -87.489305
07/05/2014 3:34 pm W 101ST AV & WHITE OAK AV SJ19 41.435563 -87.489287
07/05/2014 3:23 pm 10700 WHITE OAK AV SJ19 41.425204 -87.489324
07/05/2014 10:41 am W 101ST AV & WHITE OAK AV SJ23 41.435563 -87.489287 CIT
07/05/2014 9:03 am W 93RD AV & BLAINE ST SJ23 41.449720 -87.426537 CIT
07/05/2014 7:59 am W 85TH AV & MAGNOLIA ST SJ19 41.464537 -87.497139 CIT
07/05/2014 7:32 am W 109TH AV & PARRISH AV SJ23 41.421037 -87.450588 CIT
07/05/2014 12:56 am W 105TH PL & BAILEY ST SJ4 41.427339 -87.468160
07/04/2014 8:43 pm 9500 WICKER AV SJ21 41.445991 -87.470111 VW
07/04/2014 8:31 pm 8500 WICKER AV SJ9 41.462715 -87.470350 VW
07/04/2014 6:30 pm 9600 WICKER AV SJ21 41.443973 -87.470069 VW
07/04/2014 4:04 pm NORTHWOODS SJ19
07/04/2014 2:30 pm 9200 WICKER AV SJ19 41.453592 -87.470222
07/04/2014 1:00 pm WALL ST & WICKER AV SJ23 41.453043 -87.470213
07/04/2014 10:24 am ST JOHN MALL SJ19
07/04/2014 8:37 am 11000 WICKER AV SJ19 41.420373 -87.470098
07/04/2014 8:34 am 10800 CALUMET AV SJ23 41.419816 -87.508261
07/04/2014 8:28 am W 109TH AV & HILLCREST LN SJ23 41.421205 -87.496638
07/04/2014 8:18 am 11000 WICKER AV SJ19 41.420373 -87.470098
07/04/2014 8:13 am W 101ST AV; AT SHEFFIELD SJ23 41.436227 -87.487298
07/04/2014 7:51 am 8100 WICKER AV SJ19 41.471886 -87.470393
07/04/2014 7:37 am 8575 WICKER AV; SPEEDWAY SJ23 41.461959 -87.470344
07/03/2014 10:50 pm W OAKRIDGE DR & W 93RD AV SJ22 41.449989 -87.478157
07/03/2014 9:06 pm 93RD AV; VFW SJ24 41.450131 -87.507993 VW
07/03/2014 8:16 am 109 HILLCREST ST SJ16 41.538119 -87.229449 CIT
07/03/2014 7:44 am 10900 WICKER AV SJ16 41.421149 -87.470100 CIT
07/03/2014 7:32 am 11000 WICKER AV SJ16 41.420373 -87.470098 CIT
07/03/2014 7:09 am 10900 WICKER AV SJ16 41.421149 -87.470100 CIT
07/03/2014 12:51 am 8200 WICKER AV SJ24 41.469318 -87.470392
07/03/2014 12:03 am W 85TH AV & ALEXANDER ST SJ22 41.464367 -87.465541
07/02/2014 10:43 pm W 93RD AV; 11300 BLK SJ22 41.450129 -87.508672
07/02/2014 9:25 pm WALL ST & WICKER AV SJ22 41.453043 -87.470213
07/02/2014 7:47 pm 10100 WICKER AV SJ22 41.436091 -87.469997
07/02/2014 5:09 pm W 93RD AV & MARQUETTE ST SJ22 41.449792 -87.441074
07/02/2014 3:51 pm W 93RD AV & HACK ST SJ12 41.449925 -87.465068
07/01/2014 11:58 pm 9700 WICKER AV SJ9 41.443089 -87.470050
07/01/2014 2:58 pm 8801 WICKER AV; KOLLING SCHOOL SJ23 41.458933 -87.470299
07/01/2014 2:01 pm 10800 WICKER AV SJ23 41.422959 -87.470092
07/01/2014 1:20 pm 95 BLAINE SJ23
07/01/2014 12:01 pm SPEEDWAY SJ21
07/01/2014 11:52 am 85 41 SJ23
07/01/2014 11:49 am poplar & parrish SJ21
07/01/2014 11:18 am 109 HILLCREST SJ23
07/01/2014 11:16 am 113 WICKER SJ21
07/01/2014 10:02 am SJ LIQ 41 SJ21
07/01/2014 9:54 am SJ MALL SJ21
07/01/2014 9:26 am 109 OLCOTT SJ23
07/01/2014 8:06 am 108 CALUMET SJ23
07/01/2014 8:01 am 96 41 SJ21
07/01/2014 5:19 am W 82ND LN & WICKER AV SJ21 41.469318 -87.470392
06/30/2014 7:01 pm ST JOHN MALL SJ17
06/30/2014 6:47 pm 8575 WICKER AV; SPEEDWAY SJ9 41.461959 -87.470344
06/30/2014 5:40 pm 9600 WICKER AV SJ9 41.443973 -87.470069
06/30/2014 11:46 am 108 OLCOTT SJ23
06/30/2014 9:22 am PASCALES SJ23
06/29/2014 10:14 pm 9700 WICKER AV SJ24 41.443089 -87.470050
06/29/2014 8:29 pm W 109TH AV & WHITE OAK AV SJ16 41.421258 -87.489398
06/29/2014 8:19 pm 231 & WICKER SJ16
06/29/2014 8:08 pm 8000 WICKER AV SJ24 41.472761 -87.470400
06/29/2014 8:06 pm W 109TH AV & WICKER AV SJ16 41.421149 -87.470100
06/29/2014 3:45 pm 8500 WICKER AV SJ343 41.462715 -87.470350
06/29/2014 2:29 pm SCHOOL ST & WICKER AV SJ343 41.447742 -87.470138
06/29/2014 2:18 pm 8575 WICKER AV; SPEEDWAY SJ343 41.461959 -87.470344
06/29/2014 1:42 pm FARMINGTON 85 SJ343
06/29/2014 1:23 pm WALL 41 SJ343
06/29/2014 1:10 pm 97 41 SJ22
06/29/2014 12:11 pm RUTH MONIX SJ22
06/29/2014 11:49 am 9285 WICKER AV; JJS PETRO SJ343 41.450826 -87.470183
06/29/2014 11:29 am 7800 41 SJ343
06/29/2014 11:17 am 82 41 SJ343
06/29/2014 10:58 am 9000 CLOUMBIA SJ343
06/29/2014 6:30 am 8400 41 SJ12
06/29/2014 12:23 am 7900 WICKER AV SJ24 41.473644 -87.470406
06/28/2014 11:45 pm 8100 WICKER AV SJ24 41.471886 -87.470393
06/28/2014 11:18 pm 8100 WICKER AV SJ24 41.471886 -87.470393
06/28/2014 10:36 pm W 109TH AV & HILLCREST LN SJ16 41.421205 -87.496638
06/28/2014 9:32 pm 9321 WICKER AV; STANDARD BANK AND TRUST SJ19 41.449554 -87.470165
06/28/2014 9:04 pm 9400 WICKER AV SJ19 41.447998 -87.470142
06/28/2014 8:49 pm CEDAR CREEK GC SJ19
06/28/2014 8:39 pm 10900 WICKER AV SJ19 41.421149 -87.470100
06/28/2014 8:27 pm W 109TH AV & HURON ST SJ19 41.421160 -87.472295
06/28/2014 8:22 pm 231 & SCHNEIDER SJ19
06/28/2014 8:14 pm W 109TH AV & ONTARIO ST SJ19 41.421154 -87.471273
06/28/2014 8:05 pm 10900 WICKER AV SJ19 41.421149 -87.470100
06/28/2014 7:51 pm W 102ND AV & WHITE OAK AV SJ19 41.433370 -87.489295
06/28/2014 7:25 pm WICKER AV & KELLY DR SJ19 41.462025 -87.470344
06/28/2014 6:21 pm 11033 W 93RD AV SJ19 41.449958 -87.469145
06/28/2014 6:03 pm W 85TH AV & WICKER AV SJ19 41.462715 -87.470350
06/28/2014 5:59 pm W 109TH AV & WICKER AV SJ16 41.421149 -87.470100
06/28/2014 5:52 pm 11700 W 93RD AV SJ24 41.449987 -87.476751
06/28/2014 5:49 pm 10800 WICKER AV SJ16 41.422959 -87.470092
06/28/2014 5:25 pm 9200 WICKER AV SJ19 41.453592 -87.470222
06/28/2014 5:10 pm WALL ST & PATTERSON ST SJ19 41.452823 -87.472087
06/28/2014 4:52 pm W 85TH AV & WICKER AV SJ19 41.462715 -87.470350
06/28/2014 11:42 am W 105TH PL & WICKER AV SJ22 41.427299 -87.470069
06/28/2014 1:32 am WICKER AV & WALL ST SJ360 41.453043 -87.470213
06/28/2014 1:23 am 8100 WICKER AV SJ24
06/28/2014 1:19 am W 109TH AV & OLCOTT AV SJ360 41.421214 -87.481530
06/27/2014 8:37 pm 10600 WICKER AV SJ16 41.427299 -87.470069
06/27/2014 8:28 pm 108 AND OLCOTT SJ16
06/27/2014 7:20 pm W 109TH AV & MANOR DR SJ16 41.421247 -87.487135
06/27/2014 7:18 pm 9600 WHITE OAK AV SJ24 41.539465 -87.491496
06/27/2014 6:59 pm 9600 WHITE OAK AV SJ10 41.444525 -87.489400
06/27/2014 6:49 pm W 101ST AV & WHITE OAK AV SJ10 41.435563 -87.489287
06/27/2014 6:37 pm W 101ST AV & WHITE OAK AV SJ10 41.435563 -87.489287
06/27/2014 6:25 pm W 93RD AV & HILLTOP DR SJ10 41.450000 -87.487793
06/27/2014 6:23 pm 13500 W 109TH AV SJ16 41.421200 -87.497501
06/27/2014 6:06 pm W 93RD AV & HILLTOP DR SJ10 41.450000 -87.487793
06/27/2014 5:53 pm W 93RD AV & HILLTOP DR SJ10 41.450000 -87.487793
06/27/2014 5:36 pm W 101ST AV & WHITE OAK AV SJ10 41.435563 -87.489287
06/27/2014 5:05 pm W 93RD AV & HILLTOP DR SJ10 41.450000 -87.487793
06/27/2014 4:43 pm W 101ST AV & WHITE OAK AV SJ10 41.435563 -87.489287
06/27/2014 4:14 pm W 101ST AV & WHITE OAK AV SJ10 41.435563 -87.489287
06/27/2014 4:06 pm W 93RD AV & HILLTOP DR SJ10 41.450000 -87.487793
06/27/2014 3:28 pm 9600 WHITE OAK AV SJ10 41.444525 -87.489400
06/27/2014 2:49 pm 10000 PARRISH SJ12
06/27/2014 1:09 pm 8200 WICKER AV SJ22 41.469318 -87.470392
06/27/2014 12:47 pm 101ST ST & OLCOTT AV SJ22 41.435896 -87.481069
06/27/2014 12:35 pm SCHOOL ST & WICKER AV SJ22 41.447742 -87.470138
06/27/2014 10:05 am 9200 WICKER AV SJ22 41.453592 -87.470222
06/27/2014 1:12 am 8200 WICKER AV SJ17 41.469318 -87.470392
06/27/2014 1:03 am 11700 W 93RD AV SJ17 41.449987 -87.476751
06/27/2014 12:59 am 8200 WICKER AV SJ10 41.469318 -87.470392
06/27/2014 12:47 am W 85TH AV & WICKER AV SJ10 41.462715 -87.470350
06/27/2014 12:04 am W 109TH AV & MANOR DR SJ10 41.421247 -87.487135
06/26/2014 11:36 pm W 109TH AV & WICKER AV SJ10 41.421149 -87.470100
06/26/2014 11:23 pm W 109TH AV & WICKER AV SJ10 41.421149 -87.470100
06/26/2014 11:11 pm W 109TH AV & WICKER AV SJ10 41.421149 -87.470100
06/26/2014 10:57 pm W 109TH AV & WICKER AV SJ10 41.421149 -87.470100
06/26/2014 10:48 pm W 109TH AV & WICKER AV SJ10 41.421149 -87.470100
06/26/2014 10:35 pm 231 & 41 SJ10
06/26/2014 10:22 pm W 109TH AV & HILLCREST LN SJ10 41.421205 -87.496638
06/26/2014 10:01 pm W 109TH AV & HILLCREST LN SJ10 41.421205 -87.496638
06/26/2014 9:47 pm W 109TH AV & WHITE OAK AV SJ10 41.421258 -87.489398
06/26/2014 7:44 pm 8575 WICKER AV; SPEEDWAY SJ17 41.461959 -87.470344
06/26/2014 10:35 am 10300 WHITE OAK AV SJ23 41.431968 -87.489298
06/26/2014 9:48 am W 109TH AV & MANOR DR SJ21 41.421247 -87.487135
06/26/2014 8:16 am JOLIET ST & INDUSTRIAL DR SJ21 41.443788 -87.464124
06/26/2014 7:51 am 10800 WICKER AV SJ21 41.422959 -87.470092
06/26/2014 1:41 am PHEASANT LN; W 97TH LN SJ9 41.437483 -87.471573
06/25/2014 11:58 pm 8500 WICKER AV SJ9 41.462715 -87.470350
06/25/2014 10:41 pm 9500 WICKER AV SJ9 41.445991 -87.470111
06/25/2014 8:21 pm 10600 WICKER AV SJ17 41.427299 -87.470069
06/25/2014 7:58 pm 9155 WICKER AV; SUBWAY SJ17 41.454195 -87.470230
06/25/2014 1:41 pm 93 WO SJ4
06/25/2014 10:17 am SJ MALL SJ23
06/25/2014 9:09 am 41 S 231 SJ21
06/25/2014 12:49 am 8400 WICKER AV SJ364 41.464281 -87.470364
06/24/2014 11:38 pm 9500 WICKER AV SJ12 41.445991 -87.470111
06/24/2014 10:11 pm 8400 WICKER AV SJ12 41.464281 -87.470364
06/23/2014 11:48 pm 8445 WICKER AV; HANDS ON CAR WASH SJ365 41.463570 -87.470358
06/23/2014 11:31 pm 8575 WICKER AV; SPEEDWAY SJ365 41.461959 -87.470344
06/23/2014 11:18 pm 8400 WICKER AV SJ16 41.464281 -87.470364
06/23/2014 9:29 pm 231 SCHNEIDER SJ18 CIT
06/23/2014 9:12 pm 8400 WICKER AV SJ18 41.464281 -87.470364 WW
06/23/2014 10:43 am 12100 W 101 SJ24
06/23/2014 3:26 am MORSE PL & W 92ND LN SJ19 41.450973 -87.422460
06/23/2014 3:02 am 8200 ALEXANDER ST SJ19 41.468028 -87.465580
06/23/2014 2:17 am 10900 WICKER AV SJ19 41.421149 -87.470100
06/23/2014 1:41 am W 85TH AV & MATTSON DR SJ19 41.464506 -87.484944
06/23/2014 12:51 am W 93RD AV & RENAISSANCE DR SJ17 41.449797 -87.446679
06/22/2014 7:39 pm 9957 EARL DR; TRACTOR SUPPLY SJ17 41.438451 -87.468672
06/22/2014 4:53 pm TCU SJ343
06/22/2014 4:13 pm W 101ST AV & PARK PL SJ343 41.437293 -87.438335
06/22/2014 1:13 pm 8445 WICKER AV; HANDS ON CAR WASH SJ343 41.463570 -87.470358
06/22/2014 12:58 pm TCU SJ343
06/22/2014 12:46 pm FAIRWAY 85TH SJ343
06/22/2014 12:04 pm KOLLING SJ343
06/22/2014 11:15 am COLUMBIA TAPPER SJ343
06/22/2014 10:56 am SCHOOL 41 SJ343
06/22/2014 9:15 am 10800 41 SJ21
06/22/2014 8:57 am 41 S 231 SJ21
06/22/2014 8:39 am 96 41 SJ9
06/22/2014 8:20 am 109 WO SJ9
06/22/2014 8:18 am 95 41 SJ4
06/22/2014 7:32 am 9600 WICKER AV SJ9 41.443973 -87.470069
06/22/2014 7:29 am 9300 KEILMAN ST SJ21 41.449981 -87.472491
06/22/2014 7:02 am 8575 WICKER AV SJ9 41.461959 -87.470344
06/22/2014 5:06 am WICKER AV & WALL ST SJ21 41.453043 -87.470213
06/22/2014 12:59 am 7700 WICKER AV SJ19 41.478956 -87.470527
06/21/2014 11:40 pm 8400 WICKER AV SJ19 41.464281 -87.470364
06/21/2014 9:17 pm 9285 WICKER AV; JJS PETRO SJ17 41.450826 -87.470183
06/21/2014 9:07 pm W 93RD AV & SCHILLTON DR SJ23 41.450605 -87.496506
06/21/2014 6:22 pm WALL ST & WICKER AV SJ17 41.453043 -87.470213
06/21/2014 6:01 pm 8900 WICKER AV; SCHILLING LUMBER SJ17 41.457608 -87.470280
06/21/2014 5:49 pm 8801 WICKER AV; KOLLING SCHOOL SJ17 41.458933 -87.470299
06/21/2014 12:37 pm 8400 WICKER AV SJ9 41.464281 -87.470364
06/21/2014 12:37 pm 8400 WICKER AV SJ21 41.464281 -87.470364
06/21/2014 11:50 am MANOR DR & W 109TH AV SJ9 41.421247 -87.487135
06/21/2014 10:21 am 9600 WICKER AV SJ21 41.443973 -87.470069
06/21/2014 10:00 am 8575 WICKER AV; SPEEDWAY SJ21 41.461959 -87.470344
06/21/2014 9:38 am 9700 WHITE OAK AV SJ9 41.536585 -87.490389
06/21/2014 7:37 am 9500 BLAINE ST SJ4 41.446068 -87.426481
06/21/2014 7:33 am 8575 WICKER AV; SPEEDWAY SJ9 41.461959 -87.470344
06/21/2014 7:15 am 8575 WICKER AV; SPEEDWAY SJ9 41.461959 -87.470344
06/21/2014 6:49 am WALL ST & WICKER AV SJ9 41.453043 -87.470213
06/21/2014 6:35 am 9700 WICKER AV SJ9 41.443089 -87.470050
06/21/2014 5:27 am WHITCOMB ST; W 91ST AV SJ22 41.385228 -87.383135
06/21/2014 4:22 am 10900 WICKER AV SJ22 41.421149 -87.470100
06/21/2014 3:17 am W 109TH AV & CLINE AV SJ22 41.420910 -87.431171
06/21/2014 2:52 am W 90TH AV & PATTERSON ST SJ364 41.455863 -87.474706
06/21/2014 2:51 am 10100 WICKER AV SJ19 41.436091 -87.469997
06/21/2014 2:36 am W 109TH AV; MANOR SJ22 41.421213 -87.495438
06/21/2014 2:18 am 109TH East SIDE OF WICKER SJ14
06/21/2014 2:10 am W 109TH AV & WICKER AV SJ22 41.421149 -87.470100
06/20/2014 11:52 pm 11033 W 93RD AV SJ19 41.449958 -87.469145
06/20/2014 11:40 pm W 85TH AV & WICKER AV SJ22 41.462715 -87.470350
06/20/2014 11:33 pm 8500 WICKER AV SJ22 41.462715 -87.470350
06/20/2014 11:05 pm INDUSTRIAL DR & JOLIET ST SJ22 41.443788 -87.464124
06/20/2014 11:04 pm 93RD & MONIX SJ19
06/20/2014 10:50 pm 9400 WHITE OAK AV SJ19
06/20/2014 10:19 pm 8801 WICKER AV; KOLLING SCHOOL SJ22 41.458933 -87.470299
06/20/2014 8:21 pm W 85TH AV & WICKER AV SJ10 41.462715 -87.470350
06/20/2014 8:14 pm 8167 WICKER AV; LOANSUM PAWN SJ10 41.470455 -87.470393
06/20/2014 8:09 pm 8801 WICKER AV; KOLLING SCHOOL SJ22 41.458933 -87.470299
06/20/2014 7:53 pm W 93RD AV & MONIX DR SJ10 41.450028 -87.491955
06/20/2014 7:31 pm W 93RD AV & HILLTOP DR SJ10 41.450000 -87.487793
06/20/2014 7:18 pm W 93RD AV & HILLTOP DR SJ10 41.450000 -87.487793
06/20/2014 7:05 pm W 93RD AV & HILLTOP DR SJ10 41.450000 -87.487793
06/20/2014 6:37 pm W 93RD AV & BELMONT AV SJ10 41.449965 -87.483809
06/20/2014 6:13 pm W 101ST AV & WHITE OAK AV SJ10 41.435563 -87.489287
06/20/2014 5:54 pm W 93RD AV & NORTHCOTE AV SJ10 41.449966 -87.482130
06/20/2014 5:35 pm W 93RD AV & HILLTOP DR SJ10 41.450000 -87.487793
06/20/2014 5:24 pm W 93RD AV & MONIX DR SJ10 41.450028 -87.491955
06/20/2014 5:12 pm W 101ST AV & WHITE OAK AV SJ10 41.435563 -87.489287
06/20/2014 4:57 pm W 101ST AV & WHITE OAK AV SJ10 41.435563 -87.489287
06/20/2014 4:46 pm W 93RD AV & MONIX DR SJ10 41.450028 -87.491955
06/20/2014 4:37 pm W 93RD AV & OLCOTT AV SJ9 0.017073 -0.107584
06/20/2014 4:28 pm 10955 W 93RD AV; TOWN OF ST JOHN SJ10 41.449954 -87.468663
06/20/2014 1:35 pm W 93RD AV & WHITE OAK AV SJ9 41.450009 -87.489482
06/20/2014 1:29 pm W 93RD AV & WHITE OAK AV SJ9 41.450009 -87.489482
06/20/2014 8:48 am W 93RD AV & WHITE OAK AV SJ9 41.450009 -87.489482
06/20/2014 7:52 am JOLIET ST & WICKER AV SJ21 41.447742 -87.470138
06/20/2014 6:47 am W 109TH AV & HURON ST SJ9 41.421160 -87.472295
06/20/2014 12:08 am LEONARDO DR & HERON LAKE RD SJ22 41.465126 -87.476321
06/19/2014 11:46 pm W 85TH & HILLSIDE SJ22
06/19/2014 1:04 pm STRACKS LOT SJ24
06/19/2014 10:08 am 95 WO SJ24
06/19/2014 9:22 am 96 WO SJ24
06/19/2014 9:19 am 87 CLINE SJ18
06/19/2014 8:42 am 93 CLINE SJ18
06/19/2014 5:57 am 9300 CLARMONTE DR SJ12 41.449796 -87.449160
06/19/2014 5:44 am 8200 WICKER AV SJ24 41.469318 -87.470392
06/18/2014 7:12 pm 8700 PARRISH AV SJ4 41.461347 -87.451027
06/18/2014 7:10 pm 8700 PARRISH AV SJ7 41.461347 -87.451027
06/18/2014 3:32 pm 9200 WICKER AV SJ18 41.453592 -87.470222
06/18/2014 2:39 am W 93RD AV & WICKER AV SJ14 41.449967 -87.470171
06/17/2014 9:01 pm W 85TH AV & LAKE HILLS DR SJ17 41.464322 -87.455889
06/17/2014 4:34 pm BELMONT AV & W 93RD AV SJ9 41.449965 -87.483809
06/17/2014 4:33 pm BEALL ST & 93RD AV SJ9 41.449965 -87.483809
06/17/2014 4:16 pm 10300 PARRISH AV SJ19 41.436557 -87.450581
06/17/2014 4:01 pm 10300 PARRISH AV SJ19 41.436557 -87.450581
06/17/2014 3:44 pm W 93RD AV & MALLARD COVE SJ19 41.449778 -87.436813
06/17/2014 3:36 pm W 93RD AV & MALLARD COVE SJ19 41.449778 -87.436813
06/17/2014 11:27 am BELMONT 93 SJ9
06/17/2014 9:41 am 101 SADDLE SJ9
06/17/2014 7:37 am 101 SADDLE SJ9
06/17/2014 6:39 am SADDLECREEK 101 SJ9
06/16/2014 11:36 pm W 97TH LN & PHEASANT LN SJ365 41.441077 -87.471281
06/16/2014 10:11 pm 9800 OLCOTT AV SJ365 41.440244 -87.478804
06/16/2014 9:36 pm PARRISH AV & JOLIET ST SJ341 41.441165 -87.450616
06/16/2014 6:46 pm W 93RD AV & CLARMONTE DR SJ19 41.449796 -87.449160
06/16/2014 4:24 pm 10800 PARRISH AV SJ19 41.423732 -87.450580
06/16/2014 3:56 pm 10200 PARRISH AV SJ19 41.437569 -87.450589
06/16/2014 3:09 pm 8575 WICKER AV; SPEEDWAY SJ9 41.461959 -87.470344
06/16/2014 2:50 pm 10600 WHITE OAK AV SJ9 41.427178 -87.489314
06/16/2014 2:32 pm OLCOTT AV & W 93RD AV SJ9 41.449969 -87.481228
06/16/2014 2:16 pm W 93RD AV & WHITE OAK AV SJ9 41.450009 -87.489482
06/16/2014 2:13 pm DEWEY PL & BLAINE ST SJ4 41.446860 -87.426493
06/16/2014 11:53 am 102 PARRISH SJ19
06/16/2014 11:22 am 93 CLAREMONT SJ19
06/16/2014 11:10 am 91 41 SJ19
06/16/2014 10:40 am 86 winding trl SJ19
06/16/2014 7:17 am VENT KELLY SJ19
06/16/2014 6:43 am OLCOTT 9 SJ9
06/16/2014 5:47 am JOLIET ST & INDUSTRIAL DR SJ7 41.443788 -87.464124
06/15/2014 9:41 pm 11700 W 93RD AV; PRAIRIE WEST PARK SJ22 41.449987 -87.476751
06/15/2014 6:02 pm 11100 WICKER AV SJ22 41.419596 -87.470096
06/15/2014 5:52 pm W 109TH AV & SCHNEIDER PL SJ18 41.421141 -87.468343
06/15/2014 5:41 pm 10200 WICKER AV SJ22 41.435026 -87.470008
06/15/2014 2:15 pm 9270 WICKER AV; QUIZNOS SUB SUITE C SJ24 41.451746 -87.470195
06/15/2014 8:51 am 96 41 SJ24
06/15/2014 12:40 am W 93RD AV & HART ST SJ22 41.449891 -87.461531
06/14/2014 11:21 pm MCD SJ22
06/14/2014 11:19 pm 7967 WICKER AV; STANS AUTO BODY SJ22 41.472678 -87.470399
06/14/2014 7:59 pm W 77TH AV & WICKER AV SJ22 41.478956 -87.470527
06/14/2014 6:41 am W 93RD AV & SCHILLTON DR SJ12 41.450605 -87.496506
06/14/2014 3:41 am W 109TH AV & WHITE OAK AV SJ22 41.421258 -87.489398
06/14/2014 3:21 am W 109TH AV & WICKER AV SJ22 41.421149 -87.470100
06/14/2014 2:58 am VALLEY CT & HEDWIG AV SJ22 41.437190 -87.474046
06/14/2014 1:45 am W 85TH AV & ALEXANDER ST SJ22 41.464367 -87.465541
06/14/2014 1:30 am 8600 WICKER AV SJ22 41.461624 -87.470339
06/14/2014 12:20 am W 93RD AV; HILLTOP SJ22 41.450129 -87.508672
06/14/2014 12:00 am 8167 WICKER AV; LOANSUM PAWN SJ22 41.470455 -87.470393
06/13/2014 2:19 pm 9700 WICKER AV SJ24 41.443089 -87.470050
06/13/2014 10:54 am 9700 WICKER AV SJ24 41.443089 -87.470050
06/13/2014 10:11 am 9700 WICKER AV SJ24 41.443089 -87.470050
06/13/2014 6:24 am W 93RD AV & COLUMBIA AV SJ24 41.450881 -87.500558
06/13/2014 1:03 am W 109TH AV & HILLCREST LN SJ23 41.421205 -87.496638
06/12/2014 10:54 pm JOLIET ST; 10000 BLK SJ19 41.446940 -87.468764
06/12/2014 10:45 pm JOLIET ST & INDUSTRIAL DR SJ19 41.443788 -87.464124
06/12/2014 10:31 pm 8400 WICKER AV SJ19 41.464281 -87.470364
06/12/2014 10:19 pm 8400 WICKER AV SJ19 41.464281 -87.470364
06/12/2014 9:51 pm 9461 WICKER AV; DAIRY QUEEN SJ19 41.446774 -87.470123
06/12/2014 9:38 pm 9285 WICKER AV; JJS PETRO SJ19 41.450826 -87.470183
06/12/2014 9:27 pm 8400 WICKER AV SJ19 41.464281 -87.470364
06/12/2014 9:22 pm W 93RD AV & KARDEL DR SJ21 41.449965 -87.482962
06/12/2014 9:15 pm 8400 WICKER AV SJ19 41.464281 -87.470364
06/12/2014 8:57 pm 9200 WICKER AV SJ19 41.453592 -87.470222
06/12/2014 8:23 pm 10800 WICKER AV SJ19 41.422959 -87.470092
06/12/2014 7:58 pm W 109TH AV & FORESTDALE ST SJ19 41.421168 -87.473684
06/12/2014 7:47 pm W 109TH AV & FORESTDALE ST SJ19 41.421168 -87.473684
06/12/2014 7:39 pm W 109TH AV & OLCOTT AV SJ19 41.421214 -87.481530
06/12/2014 7:06 pm 9200 WICKER AV SJ19 41.453592 -87.470222
06/12/2014 2:00 pm W 93RD AV & OLCOTT AV SJ9 0.017073 -0.107584
06/12/2014 1:48 pm bingo lke rd SJ9
06/12/2014 1:31 pm 93RD & SCHILLTON SJ9
06/12/2014 1:29 pm 101 PARRISH SJ19
06/12/2014 1:06 pm 93 hart SJ19
06/12/2014 12:02 pm 93 PD SJ19
06/12/2014 10:56 am TOWN HALL SJ7
06/12/2014 10:52 am WALL 41 SJ7
06/12/2014 10:28 am 86 PRIMROSE SJ19
06/12/2014 10:16 am CALUMET 101 SJ9
06/12/2014 9:55 am JOL & TULIP SJ7
06/12/2014 7:55 am 101 CLINE SJ19
06/12/2014 7:43 am 109 wo SJ9
06/12/2014 7:33 am 82 41 SJ19
06/12/2014 6:48 am 9600 41 SJ19
06/12/2014 3:21 am 10630 WICKER AV SJ23 41.426185 -87.470075
06/12/2014 2:22 am 11200 WICKER AV SJ23 41.418819 -87.470094
06/11/2014 8:55 pm 108TH & PARISH SJ23 CIT
06/11/2014 8:40 pm 8200 WICKER AV SJ17 41.469318 -87.470392 CIT
06/11/2014 8:20 pm 9500 WICKER AV SJ17 41.445991 -87.470111 CIT
06/11/2014 7:59 pm 8000 WICKER AV SJ17 41.472761 -87.470400 CIT
06/11/2014 7:57 pm 8300 WICKER AV SJ23 41.466787 -87.470378 CIT
06/11/2014 7:46 pm 9300 WICKER AV SJ21 41.449967 -87.470171 CIT
06/11/2014 7:31 pm 8575 WICKER AV; SPEEDWAY SJ17 41.461959 -87.470344 CIT
06/11/2014 2:27 pm IVY AV SJ19 41.442081 -87.452717 CIT
06/11/2014 1:47 pm 93 KIELMAN SJ9
06/11/2014 10:52 am 101 WO SJ19
06/10/2014 11:59 pm 8200 WICKER AV SJ22 41.469318 -87.470392
06/10/2014 11:52 pm 8200 WICKER AV SJ24 41.469318 -87.470392
06/10/2014 11:42 pm 8801 WICKER AV SJ22 41.458933 -87.470299
06/10/2014 9:14 pm 8200 WICKER AV SJ22 41.469318 -87.470392
06/10/2014 7:42 am SJ MALL SJ18
06/10/2014 2:16 am 9285 WICKER AV; JJS PETRO SJ22 41.450826 -87.470183
06/09/2014 10:04 pm 9200 WICKER AV SJ13 41.453592 -87.470222
06/09/2014 12:42 pm 9825 WICKER AV; STRACK & VANTIL SJ12 41.440661 -87.470018
06/09/2014 1:28 am 8400 WICKER AV SJ9 41.464281 -87.470364
06/08/2014 4:44 pm TCU SJ343
06/08/2014 4:14 pm 13900 W 90TH AV SJ343 41.455414 -87.497988
06/08/2014 4:06 pm TAPPER ST & COLUMBIA AV SJ343 41.452758 -87.500079
06/08/2014 11:23 am 9200 COLUMBIA AV SJ343 41.452024 -87.500465
06/07/2014 8:17 pm 8575 WICKER AV; SPEEDWAY SJ9 41.461959 -87.470344
06/07/2014 3:10 pm 9300 HART ST SJ19 41.449891 -87.461531
06/07/2014 3:05 pm 8500 WICKER AV SJ14 41.462715 -87.470350
06/07/2014 2:51 pm W 93RD AV & WICKER AV SJ19 41.449967 -87.470171
06/07/2014 2:13 pm 8900 SCHILLTON DR SJ19 41.456642 -87.492147
06/07/2014 12:39 pm W 93RD AV & WICKER AV SJ23 41.449967 -87.470171
06/07/2014 10:36 am W 93RD AV & SCHAFER DR SJ19 41.449796 -87.442718
06/07/2014 9:25 am PD SJ19
06/07/2014 9:12 am 9600 WICKER AV SJ19 41.443973 -87.470069
06/07/2014 8:47 am 10700 WHITE OAK AV SJ19 41.425204 -87.489324
06/07/2014 8:37 am 10600 WHITE OAK AV SJ19 41.427178 -87.489314
06/07/2014 4:36 am 8900 WICKER AV SJ9 41.457608 -87.470280
06/07/2014 1:46 am 9100 WICKER AV SJ9 41.454931 -87.470241
06/07/2014 12:52 am WICKER AV; 9300 BLK SJ9 41.422054 -87.470096
06/06/2014 11:53 pm 9700 WICKER AV SJ9 41.443089 -87.470050
06/06/2014 11:44 pm W 93RD AV; PARK SJ9 41.450129 -87.508672
06/06/2014 11:36 pm W 93RD AV; OLCOTT SJ9 41.450129 -87.508672
06/06/2014 11:02 pm W 101ST AV; 7900 BLK SJ360 41.436227 -87.487298
06/06/2014 10:47 pm CLINE & 93ES AV SJ360
06/06/2014 8:47 pm W 96TH AV & WICKER AV SJ21 41.443973 -87.470069
06/06/2014 8:00 pm W 85TH AV & WICKER AV SJ17 41.462715 -87.470350
06/06/2014 7:50 pm SCHILLTON DR & W 93RD AV SJ9 41.450605 -87.496506
06/06/2014 7:40 pm OLCOTT AV & W 93RD AV SJ9 41.449969 -87.481228
06/06/2014 7:37 pm 9280 WICKER AV; WALGREENS #4276 SJ17 41.451133 -87.470187
06/06/2014 7:18 pm 9500 WICKER AV SJ17 41.445991 -87.470111
06/06/2014 7:05 pm 9270 WICKER AV; QUIZNOS SUB SUITE C SJ17 41.451746 -87.470195
06/06/2014 10:56 am W 93RD AV & MARQUETTE ST SJ19 41.449792 -87.441074
06/06/2014 10:03 am 9600 WICKER AV SJ23 41.443973 -87.470069
06/06/2014 9:46 am LIBRARY SJ23
06/06/2014 9:45 am 93RD AV & BEALL ST SJ19 41.450124 -87.510347
06/06/2014 7:37 am 9280 WICKER AV; WALGREENS #4276 SJ19 41.451133 -87.470187
06/06/2014 7:23 am 9400 WICKER AV SJ19 41.447998 -87.470142
06/05/2014 7:06 pm 8500 WICKER AV SJ17 41.462715 -87.470350 WW
06/05/2014 6:58 pm 8500 WICKER AV SJ17 41.462715 -87.470350 CIT
06/05/2014 6:40 pm 8575 WICKER AV; SPEEDWAY SJ17 41.461959 -87.470344 WW
06/05/2014 5:26 pm WALL ST & WICKER AV SJ17 41.453043 -87.470213 WW
06/05/2014 5:15 pm WALL ST & WICKER AV SJ17 41.453043 -87.470213 CIT
06/05/2014 5:03 pm 7900 WICKER AV SJ17 41.473644 -87.470406 CIT
06/05/2014 4:53 pm 8400 WICKER AV SJ17 41.464281 -87.470364 CIT
06/05/2014 4:44 pm 8801 WICKER AV; KOLLING SCHOOL SJ17 41.458933 -87.470299 CIT
06/05/2014 4:35 pm 9270 WICKER AV; QUIZNOS SUB SUITE C SJ17 41.451746 -87.470195 CIT
06/05/2014 4:26 pm 8801 WICKER AV; KOLLING SCHOOL SJ17 41.458933 -87.470299 CIT
06/05/2014 4:03 pm 8575 WICKER AV; SPEEDWAY SJ17 41.461959 -87.470344 CIT
06/05/2014 2:37 pm MALLARD COVE & W 93RD AV SJ22 41.449778 -87.436813
06/05/2014 11:40 am 7900 WICKER AV SJ22 41.473644 -87.470406
06/05/2014 12:24 am 11700 W 93RD AV SJ24 41.449987 -87.476751
06/04/2014 10:58 pm WICKER AV; 9600 BLK SJ12 41.422054 -87.470096
06/04/2014 10:57 pm 101ST & CALUMET SJ365
06/04/2014 10:19 pm 10600 WHITE OAK AV SJ365 41.427178 -87.489314
06/04/2014 10:12 pm 9300 WHITE OAK AV SJ12
06/04/2014 9:08 pm WICKER AV & KELLY DR SJ365 41.462025 -87.470344
06/04/2014 1:01 pm 8100 WICKER AV SJ22 41.471886 -87.470393 CIT
06/04/2014 6:30 am W 109TH AV & ONTARIO ST SJ22 41.421154 -87.471273 WW
06/04/2014 6:11 am 10600 WICKER AV SJ22 41.427299 -87.470069 CIT
06/04/2014 5:47 am 9400 JOLIET ST SJ7 41.441165 -87.450616
06/03/2014 11:17 pm 8575 WICKER AV SJ9 41.461959 -87.470344
06/03/2014 9:07 pm W 93RD AV & MARQUETTE ST SJ19 41.449792 -87.441074
06/03/2014 7:17 pm 10600 WHITE OAK AV SJ9 41.427178 -87.489314
06/03/2014 7:06 pm 10600 WHITE OAK AV SJ9 41.427178 -87.489314
06/03/2014 7:38 am 10955 W 93RD AV SJ23 41.449954 -87.468663
06/03/2014 1:55 am 10255 WICKER AV; ALSIP HOME NURSERY SJ9 41.432984 -87.470025
06/03/2014 1:15 am 8575 WICKER AV; SPEEDWAY SJ19 41.461959 -87.470344
06/02/2014 11:24 pm W 97TH AV & WICKER AV SJ9 41.441590 -87.470028
06/02/2014 10:23 pm LC PLAZA SJ9
06/02/2014 10:09 pm 9400 WICKER AV SJ19 41.447998 -87.470142
06/02/2014 10:02 pm 8445 WICKER AV; HANDS ON CAR WASH SJ9 41.463570 -87.470358
06/02/2014 7:41 pm 9280 WICKER AV; WALGREENS #4276 SJ17 41.451133 -87.470187
06/02/2014 7:11 pm 9270 WICKER AV; QUIZNOS SUB SUITE C SJ17 41.451746 -87.470195
06/02/2014 6:42 pm 8575 WICKER AV; SPEEDWAY SJ17 41.461959 -87.470344
06/02/2014 6:32 pm 8500 WICKER AV SJ17 41.462715 -87.470350
06/02/2014 6:09 pm 9155 WICKER AV; SUBWAY SJ17 41.454195 -87.470230
06/02/2014 11:27 am 8580 WICKER AV; FAGEN MILLER FUNERAL HOM SJ21 41.461892 -87.470343 VW
06/02/2014 10:32 am 95 41 SJ21
06/02/2014 2:23 am 8200 WICKER AV SJ24 41.469318 -87.470392
06/02/2014 2:02 am 11800 WICKER AV SJ24 41.404709 -87.470061
06/02/2014 1:38 am 8200 WICKER AV SJ24 41.469318 -87.470392
06/01/2014 11:51 pm 9825 WICKER AV; STRACK & VANTIL SJ24 41.440661 -87.470018
06/01/2014 9:55 pm 8801 WICKER AV; KOLLING SCHOOL SJ365 41.458933 -87.470299
06/01/2014 9:31 pm W 97TH LN & WICKER AV SJ365 41.441590 -87.470028
06/01/2014 8:09 pm 8575 WICKER AV; SPEEDWAY SJ365 41.461959 -87.470344
06/01/2014 8:04 pm 8575 WICKER AV; SPEEDWAY SJ19 41.461959 -87.470344
06/01/2014 7:56 pm 8575 WICKER AV; SPEEDWAY SJ24 41.461959 -87.470344
06/01/2014 7:54 pm W 85TH AV & WICKER AV SJ19 41.462715 -87.470350
06/01/2014 7:41 pm KELLY DR & WICKER AV SJ365 41.462025 -87.470344
06/01/2014 5:35 pm 8400 WICKER AV SJ19 41.464281 -87.470364
06/01/2014 5:34 pm 8400 WICKER AV SJ19 41.464281 -87.470364
06/01/2014 5:23 pm SCHOOL ST & WICKER AV SJ343 41.447742 -87.470138
06/01/2014 5:18 pm 9200 WICKER AV SJ19 41.453592 -87.470222
06/01/2014 5:05 pm PATTERSON ST & W 93RD AV SJ343 41.449971 -87.470688
06/01/2014 5:03 pm 9200 WICKER AV SJ19 41.453592 -87.470222
06/01/2014 4:46 pm 8900 WICKER AV SJ19 41.457608 -87.470280
06/01/2014 4:31 pm 9200 WICKER AV SJ19 41.453592 -87.470222
06/01/2014 4:12 pm 8600 WICKER AV SJ22 41.461624 -87.470339
06/01/2014 4:03 pm 8400 WICKER AV SJ22 41.464281 -87.470364
06/01/2014 3:51 pm 9600 WICKER AV SJ22 41.443973 -87.470069
06/01/2014 2:58 pm 11000 WICKER AV SJ343 41.420373 -87.470098
06/01/2014 1:45 pm 93 & ren SJ343
06/01/2014 12:45 pm LC PLAZA SJ21
06/01/2014 12:16 pm ALEXANDER ST & HOMESTEAD DR SJ21 41.471915 -87.465610
06/01/2014 12:15 pm SJ21
06/01/2014 12:14 pm 82 41 SJ22
06/01/2014 12:04 pm 84 41 SJ21
06/01/2014 11:44 am WO 109 SJ343
06/01/2014 11:38 am WO 109 SJ343
06/01/2014 11:25 am 2151 US 41; ANYTIME FITNESS SJ22 41.485808 -87.470717
06/01/2014 10:59 am 93RD AV SJ343 41.450131 -87.507993
06/01/2014 10:38 am 88 PARK SJ343
06/01/2014 10:23 am 81 41 SJ22
06/01/2014 10:08 am 85 41 SJ22
06/01/2014 9:22 am TAPPER & COLUMBIA SJ343
06/01/2014 9:12 am 92 COLUMBIA SJ343
06/01/2014 8:44 am SPEEDWAY SJ22
06/01/2014 8:37 am 8801 WICKER AV; KOLLING SCHOOL SJ22 41.458933 -87.470299
06/01/2014 8:37 am 8801 WICKER AV; KOLLING SCHOOL SJ22 41.458933 -87.470299
06/01/2014 8:20 am lc plaza SJ343
06/01/2014 2:49 am 7700 WICKER AV SJ24 41.478956 -87.470527
06/01/2014 2:03 am W 109TH AV & PARRISH AV SJ24 41.421037 -87.450588 VW
06/01/2014 12:54 am 9700 WICKER AV SJ24 41.443089 -87.470050 VW
05/31/2014 10:09 pm MATTSON DR & W 85TH AV SJ364 41.464506 -87.484944 WW
05/31/2014 9:23 pm W 109TH AV & E SCHNEIDER CT SJ24 41.421136 -87.467561 WW
05/31/2014 7:00 pm 9500 WHITE OAK AV SJ24 41.446362 -87.489428 VW
05/31/2014 6:15 pm 9200 WICKER AV SJ24 41.453592 -87.470222 WW
05/31/2014 5:40 pm 11000 WICKER AV SJ17 41.420373 -87.470098 CIT
05/31/2014 5:21 pm 11900 WICKER AV SJ17 41.402878 -87.470053 CIT
05/31/2014 5:01 pm 10600 WICKER AV SJ17 41.427299 -87.470069 CIT
05/31/2014 4:41 pm 8400 WICKER AV SJ17 41.464281 -87.470364 CIT
05/31/2014 4:21 pm 9200 WICKER AV SJ17 41.453592 -87.470222 WW
05/31/2014 4:14 pm 9200 WICKER AV SJ17 41.453592 -87.470222 WW
05/31/2014 4:02 pm W 93RD AV & WICKER AV SJ17 41.449967 -87.470171 CIT
05/31/2014 3:49 pm 9200 WICKER AV SJ17 41.453592 -87.470222 CIT
05/31/2014 3:41 pm 9825 WICKER AV; STRACK & VANTIL SJ17 41.440661 -87.470018 CIT
05/31/2014 3:33 pm W 97TH LN & E OAKRIDGE DR SJ17 41.441195 -87.473430 CIT
05/31/2014 3:27 pm 9700 WICKER AV SJ17 41.443089 -87.470050 CIT
05/31/2014 3:19 pm 9550 WICKER AV SJ17 41.444972 -87.470090 CIT
05/31/2014 3:09 pm W 85TH AV & ALEXANDER ST SJ22 41.464367 -87.465541 VW
05/31/2014 2:58 pm 8200 WICKER AV SJ22 41.469318 -87.470392 VW
05/31/2014 10:58 am 9155 WICKER AV; SUBWAY SJ22 41.454195 -87.470230 VW
05/31/2014 10:07 am 8400 WICKER AV SJ22 41.464281 -87.470364
05/31/2014 7:02 am 8100 WICKER AV SJ22 41.471886 -87.470393
05/30/2014 11:22 pm 11319 VENTURA TRL SJ364
05/30/2014 8:55 pm 9200 WICKER AV SJ19 41.453592 -87.470222
05/30/2014 8:41 pm 231 & SCHNEIDER SJ19
05/30/2014 8:29 pm 10800 WICKER AV SJ19 41.422959 -87.470092
05/30/2014 8:29 pm 8801 WICKER AV; KOLLING SCHOOL SJ12 41.458933 -87.470299
05/30/2014 8:01 pm W 109TH AV & ONTARIO ST SJ19 41.421154 -87.471273
05/30/2014 7:21 pm W 93RD AV & HILLTOP DR SJ19 41.450000 -87.487793
05/30/2014 7:10 pm W 109TH AV & FORESTDALE ST SJ365 41.421168 -87.473684
05/30/2014 7:03 pm W 101ST AV & WHITE OAK AV SJ19 41.435563 -87.489287
05/30/2014 6:35 pm 9800 ROSEWOOD SJ19
05/30/2014 6:27 pm ROSEWOOD & WHITE OAK SJ19
05/30/2014 6:12 pm W 101ST AV & WHITE OAK AV SJ19 41.435563 -87.489287
05/30/2014 6:04 pm W 101ST AV & WHITE OAK AV SJ19 41.435563 -87.489287
05/30/2014 3:35 pm MAPLEWOOD DR & W 90TH AV SJ22 41.455472 -87.504866
05/30/2014 3:26 pm W 101ST AV & SADDLE CREEK DR SJ18 41.435592 -87.499938
05/30/2014 2:06 pm 9500 WICKER AV SJ22 41.445991 -87.470111
05/30/2014 1:52 pm SCHOOL ST & WICKER AV SJ22 41.447742 -87.470138
05/30/2014 8:20 am 8580 WICKER AV; FAGEN MILLER FUNERAL HOM SJ17 41.461892 -87.470343
05/30/2014 8:03 am 11033 W 93RD AV SJ17 41.449958 -87.469145
05/30/2014 7:54 am 9270 WICKER AV; QUIZNOS SUB SUITE C SJ17 41.451746 -87.470195
05/30/2014 7:38 am 8500 WICKER AV SJ17 41.462715 -87.470350
05/30/2014 7:04 am 9500 WICKER AV SJ17 41.445991 -87.470111
05/30/2014 6:52 am 9500 WICKER AV SJ17 41.445991 -87.470111
05/30/2014 6:38 am 9700 WICKER AV SJ17 41.443089 -87.470050
05/30/2014 6:30 am 9700 WICKER AV SJ17 41.443089 -87.470050
05/30/2014 6:21 am 8500 WICKER AV SJ17 41.462715 -87.470350
05/30/2014 6:15 am 8500 WICKER AV SJ17 41.462715 -87.470350
05/30/2014 6:00 am 8500 WICKER AV SJ17 41.462715 -87.470350
05/30/2014 5:50 am 9700 WICKER AV SJ17 41.443089 -87.470050
05/30/2014 5:38 am 8500 WICKER AV SJ17 41.462715 -87.470350
05/30/2014 2:05 am 10800 WICKER AV SJ17 41.422959 -87.470092
05/30/2014 1:33 am 8900 WICKER AV SJ19 41.457608 -87.470280
05/30/2014 1:03 am 11033 W 93RD AV SJ19 41.449958 -87.469145
05/29/2014 11:16 pm WICKER AV; 12500 SJ17 41.337327 -87.469614
05/29/2014 11:13 pm 9700 WICKER AV SJ19 41.443089 -87.470050
05/29/2014 10:56 pm 9440 JOLIET ST; MAMA DS PIZZA SJ17 41.441258 -87.451037
05/29/2014 9:11 pm 10200 WICKER AV SJ14 41.435026 -87.470008
05/29/2014 1:14 pm W 109TH AV & WICKER AV SJ21 41.421149 -87.470100
05/29/2014 9:41 am LCHS West LOT SJ13
05/29/2014 9:22 am 9300 KEILMAN ST SJ21 41.449981 -87.472491
05/29/2014 3:33 am COLUMBIA AV; w 93RD AV SJ17 41.451452 -87.500511
05/29/2014 1:47 am WICKER AV; 10400 BLK SJ9 41.422054 -87.470096
05/29/2014 12:19 am WICKER AV; 12000 BLK SJ17 41.337327 -87.469614
05/28/2014 9:15 pm 8801 WICKER AV; KOLLING SCHOOL SJ19 41.458933 -87.470299
05/28/2014 8:06 pm W 93RD AV & CLINE AV SJ19 41.449743 -87.431354
05/28/2014 7:36 pm 8800 PRIMROSE DR SJ14 41.460848 -87.487808
05/28/2014 7:07 pm FARMINGTON ST & W 85TH AV SJ17 41.463284 -87.467568
05/28/2014 6:49 pm W 101ST AV & SADDLE CREEK DR SJ9 41.435592 -87.499938
05/28/2014 6:34 pm W 101ST AV & SADDLE CREEK DR SJ9 41.435592 -87.499938
05/28/2014 5:46 pm 8500 WICKER AV SJ17 41.462715 -87.470350
05/28/2014 10:35 am 101 wellington SJ23
05/28/2014 8:47 am KOLLING SJ23
05/28/2014 7:52 am WALGREENS SJ21
05/28/2014 1:12 am 85TH & 41 SJ21
05/27/2014 11:08 pm 9500 WICKER AV SJ22 41.445991 -87.470111
05/27/2014 5:34 pm 10300 OLCOTT AV SJ19 41.432267 -87.481104
05/27/2014 5:24 pm W 103RD CT & OLCOTT AV SJ19 41.431781 -87.481105
05/27/2014 5:13 pm W 102ND AV & OLCOTT AV SJ19 41.433394 -87.481104
05/27/2014 4:48 pm WHITE OAK & ROSEWOOD SJ19
05/27/2014 4:37 pm W 101ST AV & WHITE OAK AV SJ19 41.435563 -87.489287
05/27/2014 4:24 pm W 101ST AV & WHITE OAK AV SJ19 41.435563 -87.489287
05/27/2014 4:13 pm white oak & rosewood SJ19
05/27/2014 4:04 pm W 101ST AV & WELLINGTON CT E SJ19 41.435574 -87.493895
05/27/2014 3:53 pm W 101ST AV & WHITE OAK AV SJ19 41.435563 -87.489287
05/27/2014 3:13 pm 9957 EARL DR; TRACTOR SUPPLY SJ19 41.438451 -87.468672
05/27/2014 2:57 pm 8801 WICKER AV; KOLLING SCHOOL SJ19 41.458933 -87.470299
05/27/2014 2:48 pm 8500 WICKER AV SJ19 41.462715 -87.470350
05/27/2014 2:33 pm W 85TH AV & WICKER AV SJ17 41.462715 -87.470350
05/27/2014 2:13 pm 9270 WICKER AV; QUIZNOS SUB SUITE C SJ17 41.451746 -87.470195
05/27/2014 1:56 pm 9200 WICKER AV SJ17 41.453592 -87.470222
05/27/2014 1:46 pm SCHOOL 41 SJ17
05/27/2014 1:37 pm WALL 41 SJ17
05/27/2014 1:28 pm WALL 41 SJ17 CIT
05/27/2014 12:50 pm 9141 WICKER AV; ASPEN CAFE SJ17 41.454382 -87.470233
05/27/2014 12:30 pm WALL ST SJ17 41.452933 -87.471150
05/27/2014 12:06 pm WALL 41 SJ17
05/27/2014 11:44 am 8900 41 SJ17
05/27/2014 11:33 am 9500 41 SJ17
05/27/2014 8:56 am 93 DEODOR SJ10
05/27/2014 8:49 am DAIRY QUEEN SJ7
05/27/2014 6:43 am SJ LOT SJ18
05/27/2014 6:22 am 95 41 SJ10
05/26/2014 8:23 pm 11700 W 93RD AV SJ22 41.449987 -87.476751
05/26/2014 11:59 am 93 OLCOTT SJ24
05/26/2014 11:19 am SPEEDWAY SJ24
05/26/2014 10:50 am ALSIP SJ7
05/26/2014 10:34 am PWP SJ24
05/26/2014 10:16 am 41 SCHOOL SJ18
05/26/2014 9:27 am 9500 W 94TH PL SJ7
05/26/2014 9:19 am 231 SCHNEIDER SJ18
05/25/2014 9:36 pm 9400 WICKER AV SJ19 41.447998 -87.470142
05/25/2014 8:52 pm W 93RD AV & MONIX DR SJ19 41.450028 -87.491955
05/25/2014 8:23 pm W 102ND AV & WHITE OAK AV SJ23 41.433370 -87.489295
05/25/2014 8:14 pm 8575 WICKER AV; SPEEDWAY SJ23 41.461959 -87.470344
05/25/2014 8:07 pm 8200 WICKER AV SJ23 41.469318 -87.470392
05/25/2014 7:48 pm WICKER AV & W 97TH LN SJ23 41.441590 -87.470028
05/25/2014 3:15 pm 8496 WICKER AV; TACO BELL SJ9 41.462763 -87.470351
05/25/2014 2:54 pm W 109TH AV & WICKER AV SJ9 41.421149 -87.470100
05/25/2014 12:55 pm TOWN HALL SJ21
05/25/2014 10:55 am 107 WO SJ4
05/25/2014 10:35 am 105 WO SJ4
05/25/2014 10:21 am 102 OLCOTT SJ9
05/25/2014 8:05 am 41 231 SJ9
05/25/2014 7:50 am LIBRARY SJ10
05/25/2014 7:34 am 231 SCHNEIDER SJ9
05/25/2014 7:33 am 92 41 SJ7
05/25/2014 7:33 am ASPEN SJ10
05/25/2014 7:28 am KOLLING SJ7
05/25/2014 7:21 am WALL 41 SJ7
05/25/2014 7:06 am WALL 41 SJ7
05/25/2014 6:59 am SCHOOL 41 SJ7
05/25/2014 6:52 am 92 41 SJ7
05/25/2014 6:45 am WALGREENS SJ7
05/25/2014 6:37 am 41 SCHOOL SJ7
05/25/2014 5:59 am 10100 WICKER AV SJ21 41.436091 -87.469997
05/25/2014 5:37 am 9200 WICKER AV SJ7 41.453592 -87.470222
05/25/2014 5:27 am 9700 WICKER AV SJ7 41.443089 -87.470050
05/25/2014 12:44 am 11200 WICKER AV SJ360 41.418819 -87.470094
05/25/2014 12:37 am 10200 WICKER AV SJ14 41.435026 -87.470008
05/25/2014 12:22 am 8200 WICKER AV SJ23 41.469318 -87.470392
05/25/2014 12:20 am 8200 WICKER AV SJ23 41.469318 -87.470392
05/24/2014 11:53 pm 8200 WICKER AV SJ23 41.469318 -87.470392
05/24/2014 11:33 pm 8209 WICKER AV SJ360 41.469091 -87.470391
05/24/2014 8:10 pm 9407 WICKER AV; DUNKIN DONUTS SJ23 41.447861 -87.470140
05/24/2014 7:47 pm 8801 WICKER AV; KOLLING SCHOOL SJ23 41.458933 -87.470299
05/24/2014 7:39 pm 9400 WICKER AV SJ23 41.447998 -87.470142
05/24/2014 7:39 pm 10300 BULL RUN DR SJ19 41.431573 -87.473643
05/24/2014 7:27 pm JOLIET ST & WICKER AV SJ22 41.447742 -87.470138
05/24/2014 7:16 pm 10955 W 93RD AV SJ22 41.449954 -87.468663
05/24/2014 7:13 pm 9270 WICKER AV; QUIZNOS SUB SUITE C SJ23 41.451746 -87.470195
05/24/2014 7:05 pm 9285 WICKER AV; JJS PETRO SJ23 41.450826 -87.470183
05/24/2014 6:53 pm 9200 WICKER AV SJ19 41.453592 -87.470222
05/24/2014 6:28 pm 9200 WICKER AV SJ19 41.453592 -87.470222
05/24/2014 6:11 pm TCU LOT SJ19
05/24/2014 5:11 pm 8575 WICKER AV; SPEEDWAY SJ22 41.461959 -87.470344
05/24/2014 4:53 pm 9600 WICKER AV SJ22 41.443973 -87.470069
05/24/2014 4:46 pm 10200 WICKER AV SJ22 41.435026 -87.470008
05/24/2014 4:15 pm W 93RD AV & OLCOTT AV SJ9 0.017073 -0.107584
05/24/2014 4:09 pm 9270 WICKER AV; QUIZNOS SUB SUITE C SJ22 41.451746 -87.470195
05/24/2014 3:34 pm 8445 WICKER AV; HANDS ON CAR WASH SJ23 41.463570 -87.470358
05/24/2014 3:33 pm W 95TH PL & W OAKRIDGE DR SJ4 41.446273 -87.477198
05/24/2014 3:09 pm 11800 WICKER AV SJ4 41.404709 -87.470061
05/24/2014 11:47 am 8400 WICKER AV SJ21 41.464281 -87.470364
05/24/2014 11:37 am VENTURA DR & WICKER AV SJ9 41.464281 -87.470364
05/24/2014 10:59 am 8801 WICKER AV; KOLLING SCHOOL SJ21 41.458933 -87.470299
05/24/2014 10:42 am W 93RD AV & BLAINE ST SJ4 41.449720 -87.426537
05/24/2014 9:26 am SJ4
05/24/2014 9:16 am WHITE OAK AND ROSEWOOD DR SJ21
05/24/2014 8:55 am JOLIET ST & INDUSTRIAL DR SJ4 41.443788 -87.464124
05/24/2014 8:40 am 9825 WICKER AV; STRACK & VANTIL SJ9 41.440661 -87.470018
05/24/2014 8:26 am W 85TH AV & ALEXANDER ST SJ10 41.464367 -87.465541
05/24/2014 8:15 am W 85TH AV & WICKER AV SJ10 41.462715 -87.470350
05/24/2014 8:00 am 8900 WICKER AV SJ10 41.457608 -87.470280
05/24/2014 7:55 am PARRISH AV & W 109TH AV SJ9 41.421037 -87.450588
05/24/2014 7:47 am W 85TH AV & WICKER AV SJ10 41.462715 -87.470350
05/24/2014 7:37 am 8801 WICKER AV; KOLLING SCHOOL SJ10 41.458933 -87.470299
05/24/2014 7:27 am 8575 WICKER AV; SPEEDWAY SJ10 41.461959 -87.470344
05/24/2014 7:14 am 9550 WICKER AV; KMART SJ9
05/24/2014 6:57 am W 93RD AV & DEODOR ST SJ4 41.450808 -87.452756
05/24/2014 6:36 am 7967 WICKER AV; STANS AUTO BODY SJ10 41.472678 -87.470399
05/24/2014 6:26 am 8801 WICKER AV; KOLLING SCHOOL SJ10 41.458933 -87.470299
05/24/2014 6:11 am W 95TH AV & WICKER AV SJ10 41.446031 -87.470111
05/24/2014 5:40 am 9600 WICKER AV SJ10 41.443973 -87.470069
05/24/2014 5:29 am 8575 WICKER AV SJ10 41.461959 -87.470344
05/24/2014 5:19 am 7700 WICKER AV SJ10 41.478956 -87.470527
05/24/2014 1:18 am 8200 WICKER AV SJ19 41.469318 -87.470392
05/24/2014 1:08 am 8575 WICKER AV SJ19 41.461959 -87.470344
05/24/2014 12:54 am 9600 WICKER AV SJ19 41.443973 -87.470069
05/24/2014 12:04 am W 93RD AV; BELMONT SJ19 41.450129 -87.508672
05/23/2014 11:27 pm 8575 WICKER AV SJ14 41.461959 -87.470344
05/23/2014 11:08 pm 8400 WICKER AV SJ365 41.464281 -87.470364
05/23/2014 9:33 pm W 102ND AV & WHITE OAK AV SJ365 41.433370 -87.489295
05/23/2014 8:51 pm W 85TH AV & PATTERSON ST SJ22 41.464506 -87.481488
05/23/2014 8:30 pm 9500 WICKER AV SJ22 41.445991 -87.470111
05/23/2014 8:21 pm 8200 WICKER AV SJ22 41.469318 -87.470392
05/23/2014 8:10 pm 8200 WICKER AV SJ22 41.469318 -87.470392
05/23/2014 7:56 pm 9500 WICKER AV SJ22 41.445991 -87.470111
05/23/2014 7:21 pm 8200 WICKER AV SJ22 41.469318 -87.470392
05/23/2014 7:05 pm 9400 WICKER AV SJ22 41.447998 -87.470142
05/23/2014 6:14 pm 8100 WICKER AV SJ22 41.471886 -87.470393
05/23/2014 5:58 pm 9151 WICKER AV; CENTIER BANK SJ22 41.454248 -87.470231
05/23/2014 5:45 pm W 85TH AV & WICKER AV SJ22 41.462715 -87.470350
05/23/2014 5:35 pm 8400 WICKER AV SJ22 41.464281 -87.470364
05/23/2014 5:21 pm PARRISH AV & W 85TH AV SJ22 41.464299 -87.451065
05/23/2014 2:15 pm 10400 W 93RD AV; VFW POST SJ22 41.449906 -87.463029
05/23/2014 1:54 pm LIBRARY SJ21
05/23/2014 1:45 pm 9500 WICKER AV SJ22 41.445991 -87.470111
05/23/2014 1:33 pm 8801 WICKER AV SJ22 41.458933 -87.470299
05/23/2014 1:22 pm W 96TH AV & KEILMAN ST SJ22 41.443956 -87.472445
05/23/2014 12:54 pm 8400 WICKER AV SJ22 41.464281 -87.470364
05/23/2014 12:38 pm 8800 WICKER AV; KOLLING SJ22 41.458947 -87.470300
05/23/2014 12:26 pm 8200 WICKER AV SJ22 41.469318 -87.470392
05/23/2014 12:11 pm W 93RD AV & WICKER AV SJ22 41.449967 -87.470171
05/23/2014 10:19 am CORNERSTONE CHURCH SJ9
05/23/2014 7:45 am W 109TH AV & CALUMET AV SJ21 41.421141 -87.508266
05/23/2014 4:32 am 109TH AV; HILLCREST SJ22
05/23/2014 4:13 am WICKER AV; 109TH SJ22 41.422054 -87.470096
05/23/2014 3:55 am W 109TH AV & HILLCREST LN SJ22 41.421205 -87.496638
05/23/2014 2:30 am 9700 WICKER AV SJ22 41.443089 -87.470050
05/23/2014 2:07 am 9200 WICKER AV SJ22 41.453592 -87.470222
05/23/2014 1:46 am East OF 109TH & PARRISH SJ22
05/22/2014 7:23 pm HILLCREST LN & W 109TH AV SJ22 41.421205 -87.496638
05/22/2014 3:04 pm 9400 WICKER AV SJ17 41.447998 -87.470142
05/22/2014 2:48 pm W 85TH AV & WICKER AV SJ17 41.462715 -87.470350
05/22/2014 2:26 pm W 83RD PL & HERON LAKE RD SJ24 41.467357 -87.481887
05/22/2014 1:34 pm 85 41 SJ17
05/22/2014 1:21 pm 8801 WICKER AV; KOLLING SCHOOL SJ17 41.458933 -87.470299
05/22/2014 1:02 pm SUBWAY LOT SJ17
05/22/2014 12:48 pm 9270 WICKER AV; QUIZNOS SUB SUITE C SJ17 41.451746 -87.470195
05/22/2014 12:37 pm 95 41 SJ17
05/22/2014 12:30 pm 9285 WICKER AV; JJS PETRO SJ17 41.450826 -87.470183
05/22/2014 12:25 pm 8900 CLINE AV SJ18 41.456975 -87.431502
05/22/2014 12:08 pm TACO BELL SJ17 WW
05/22/2014 12:01 pm 101 CALUMET SJ24
05/22/2014 11:53 am WALL 41 SJ17
05/22/2014 11:45 am 8900 WICKER AV; SCHILLING LUMBER SJ17 41.457608 -87.470280
05/22/2014 10:09 am 9700 WICKER AV SJ24 41.443089 -87.470050
05/22/2014 8:42 am JOLIET INDUSTRIAL SJ18
05/22/2014 8:33 am 98 HART SJ18
05/22/2014 8:18 am JOLIET HART SJ18
05/22/2014 7:54 am 99 HART SJ18
05/22/2014 1:25 am 9600 WICKER AV SJ19 41.443973 -87.470069
05/21/2014 7:56 pm 9800 HART ST SJ19 41.440828 -87.461035
05/21/2014 7:34 pm W 99TH AV & HART ST SJ19 41.438147 -87.460318
05/21/2014 7:05 pm 9800 HART ST SJ19 41.440828 -87.461035
05/21/2014 6:30 pm W 101ST AV & WHITE OAK AV SJ10 41.435563 -87.489287
05/21/2014 6:16 pm ROSEWOOD & WHI OAK SJ10
05/21/2014 2:29 pm W 85TH AV & AUSTIN AV SJ18 41.464273 -87.446219
05/21/2014 1:39 pm WICKER AV & WALL ST SJ10 41.453043 -87.470213
05/21/2014 1:29 pm 9200 WICKER AV SJ10 41.453592 -87.470222
05/21/2014 1:18 pm WICKER AV; DQ parking lot SJ10 41.422054 -87.470096
05/21/2014 1:05 pm THIELEN ST; GLASS SJ10 41.447036 -87.465650
05/21/2014 12:51 pm W 95TH AV & WICKER AV SJ10 41.446031 -87.470111
05/21/2014 12:34 pm 11700 W 93RD AV SJ10 41.449987 -87.476751
05/21/2014 11:40 am W 101ST AV & CALUMET AV SJ18 41.435635 -87.508349
05/21/2014 11:24 am 8400 WICKER AV; NB SJ10 41.464281 -87.470364
05/21/2014 11:04 am 10255 WICKER AV; NB ALSIP SJ10 41.432984 -87.470025
05/21/2014 10:29 am 11700 W 93RD AV; PRAIRIE WEST PARK SJ24 41.449987 -87.476751
05/21/2014 10:07 am 9280 WICKER AV; Walgreens SJ10 41.451133 -87.470187
05/21/2014 10:04 am 9600 white oak Ave SJ24
05/21/2014 9:40 am 8800 WICKER AV SJ10 41.458947 -87.470300
05/21/2014 9:35 am 8400 WICKER AV SJ10 41.464281 -87.470364
05/21/2014 8:57 am 11700 W 93RD AV; PRAIRIE WEST PARK SJ10 41.449987 -87.476751
05/21/2014 8:52 am WICKER AV & WALL ST SJ10 41.453043 -87.470213
05/21/2014 8:42 am W 97TH AV & WICKER AV SJ10 41.441590 -87.470028
05/21/2014 8:26 am W 85TH AV & WICKER AV SJ10 41.462715 -87.470350
05/21/2014 8:02 am 11000 WICKER AV SJ24 41.420373 -87.470098
05/21/2014 8:00 am 9280 WICKER AV SJ10 41.451133 -87.470187
05/21/2014 7:47 am 9280 WICKER AV SJ10 41.451133 -87.470187
05/21/2014 6:48 am 8800 WICKER AV SJ10 41.458947 -87.470300
05/21/2014 6:37 am 8801 WICKER AV SJ10 41.458933 -87.470299
05/21/2014 6:24 am WICKER AV & WALL ST SJ10 41.453043 -87.470213
05/20/2014 4:30 pm W 93RD AV & HILLTOP DR SJ10 41.450000 -87.487793
05/20/2014 4:15 pm W 93RD AV & NORTHCOTE AV SJ10 41.449966 -87.482130
05/20/2014 3:57 pm W 93RD AV & BELMONT AV SJ10 41.449965 -87.483809
05/20/2014 3:48 pm W 109TH AV & CALUMET AV SJ19 41.421141 -87.508266
05/20/2014 3:36 pm W 97TH LN & WICKER AV SJ10 41.441590 -87.470028
05/20/2014 2:57 pm WICKER AV & SCHOOL ST SJ10 41.447742 -87.470138
05/20/2014 2:47 pm W 85TH AV & WICKER AV SJ10 41.462715 -87.470350
05/20/2014 2:38 pm 8400 WICKER AV SJ10 41.464281 -87.470364
05/20/2014 2:24 pm 12700 WICKER AV SJ4 41.388319 -87.470024
05/20/2014 1:55 pm W 85TH AV & WICKER AV SJ10 41.462715 -87.470350
05/20/2014 1:41 pm W 95TH AV & WICKER AV SJ10 41.446031 -87.470111
05/20/2014 1:29 pm 9280 WICKER AV SJ10 41.451133 -87.470187
05/20/2014 1:18 pm 9280 WICKER AV SJ10 41.451133 -87.470187
05/20/2014 9:41 am WHITE CHEVY P/U SJ10
05/20/2014 9:32 am 231 & WICKER AV SJ10
05/20/2014 9:21 am WICKER AV SJ10 41.422054 -87.470096
05/20/2014 9:13 am SCHNEIDER PL & SR 231 SJ19
05/20/2014 8:51 am 9285 WICKER AV SJ4 41.450826 -87.470183
05/20/2014 8:16 am W 95TH AV & WICKER AV SJ10 41.446031 -87.470111
05/20/2014 7:59 am W 96TH AV & WICKER AV SJ10 41.443973 -87.470069
05/20/2014 7:40 am 9550 WICKER AV SJ10 41.444972 -87.470090
05/20/2014 7:27 am WICKER AV & WALL ST SJ10 41.453043 -87.470213
05/20/2014 7:07 am 9660 WICKER AV SJ10 41.443438 -87.470058
05/20/2014 6:43 am WICKER AV & WALL ST SJ10 41.453043 -87.470213
05/20/2014 6:30 am W 85TH AV & WICKER AV SJ10 41.462715 -87.470350
05/20/2014 6:19 am 9280 WICKER AV SJ10 41.451133 -87.470187
05/19/2014 11:45 pm PD SJ9
05/19/2014 11:24 pm 9500 WICKER AV SJ9 41.445991 -87.470111
05/19/2014 10:54 pm 9300 WICKER AV SJ9 41.449967 -87.470171
05/19/2014 10:13 pm W 109TH AV & PARRISH AV SJ21 41.421037 -87.450588
05/19/2014 9:48 pm 109 HIL SJ23
05/19/2014 9:08 pm 8700 AUSTIN SJ23 CIT
05/19/2014 8:37 pm 8801 WICKER AV; KOLLING SCHOOL SJ19 41.458933 -87.470299 WW
05/19/2014 8:11 pm SJ19 CIT
05/19/2014 7:58 pm 8500 WICKER AV SJ19 41.462715 -87.470350 CIT
05/19/2014 7:45 pm 8200 WICKER AV SJ19 41.469318 -87.470392 CIT
05/19/2014 7:41 pm 8500 WICKER AV SJ19 41.462715 -87.470350 VW
05/19/2014 7:29 pm W 109TH AV & SCHNEIDER PL SJ19 41.421141 -87.468343 CIT
05/19/2014 7:05 pm W 101ST AV & WELLINGTON CT E SJ19 41.435574 -87.493895 WW
05/19/2014 6:49 pm W 101ST AV & WHITE OAK AV SJ19 41.435563 -87.489287 WW
05/19/2014 6:37 pm W 101ST AV & WHITE OAK AV SJ19 41.435563 -87.489287 WW
05/19/2014 6:27 pm W 101ST AV & WHITE OAK AV SJ19 41.435563 -87.489287 CIT
05/19/2014 6:18 pm WICKER AV & VENTURA DR SJ9 41.464281 -87.470364 CIT
05/19/2014 6:13 pm W 101ST AV & WHITE OAK AV SJ19 41.435563 -87.489287 CIT
05/19/2014 6:05 pm W 101ST AV & WHITE OAK AV SJ19 41.435563 -87.489287 WW
05/19/2014 5:51 pm 10200 WHITE OAK AV SJ19 41.433370 -87.489295 CIT
05/19/2014 4:31 pm WALL ST & WICKER AV SJ22 41.453043 -87.470213 VW
05/19/2014 4:04 pm SJ22 CIT
05/19/2014 2:41 pm 8300 WICKER AV SJ22 41.466787 -87.470378 VW
05/19/2014 2:17 pm W 96TH AV & KEILMAN ST SJ22 41.443956 -87.472445 WW
05/19/2014 2:01 pm W 93RD AV & KEILMAN ST SJ22 41.449981 -87.472491 VW
05/19/2014 12:28 pm LHFD SJ4
05/19/2014 11:58 am 95 KIELMAN SJ22
05/19/2014 11:51 am 97 KIELMAN SJ22
05/19/2014 11:02 am SCHOOL KIELMAN SJ22
05/19/2014 9:54 am 95 41 SJ22
05/19/2014 9:22 am 9285 WICKER AV; JJS PETRO SJ7 41.450826 -87.470183
05/19/2014 9:17 am crossings SJ7
05/19/2014 8:31 am CROSSINGS SJ7
05/19/2014 8:21 am MALL SJ7
05/19/2014 8:08 am KOLLING LOT SJ7
05/19/2014 7:55 am 93 41 SJ7
05/19/2014 7:43 am CROSSINGS SJ7
05/19/2014 7:41 am 95 41 SJ22
05/19/2014 7:37 am 92 41 SJ7
05/19/2014 6:10 am JOL THIELEN SJ7
05/18/2014 10:58 pm 9500 WICKER AV SJ16 41.445991 -87.470111
05/18/2014 10:30 pm 8801 WICKER AV; KOLLING SCHOOL SJ365 41.458933 -87.470299
05/18/2014 10:21 pm 9500 WICKER AV SJ16 41.445991 -87.470111
05/18/2014 10:10 pm 9500 WICKER AV SJ16 41.445991 -87.470111
05/18/2014 8:53 pm 11033 W 93RD AV SJ10 41.449958 -87.469145
05/18/2014 8:27 pm W 93RD AV & WHITE OAK AV SJ365 41.450009 -87.489482
05/18/2014 7:48 pm W 101ST AV & BLAINE ST SJ10 41.436088 -87.426323
05/18/2014 5:55 pm 8600 WICKER AV SJ23 41.461624 -87.470339
05/18/2014 5:12 pm 10100 OLCOTT AV SJ343 41.435974 -87.481004
05/18/2014 3:28 pm 9600 WICKER AV SJ12 41.443973 -87.470069
05/18/2014 2:58 pm 12800 W 109TH AV SJ343 41.421233 -87.492747
05/18/2014 2:50 pm 10800 MANOR SJ343
05/18/2014 12:41 pm LCHS SJ343
05/18/2014 11:37 am 8100 41 SJ24
05/18/2014 10:43 am 93 MONIX SJ24
05/18/2014 7:07 am CORNERSTONE 109 SJ24
05/18/2014 6:58 am 109 hillcrest SJ24
05/18/2014 6:40 am 84 41 SJ18
05/18/2014 6:32 am KOLLING 41 SJ12
05/18/2014 5:19 am 8575 WICKER AV SJ18 41.461959 -87.470344
05/18/2014 2:48 am W 85T AV & ALEXANDER SJ22
05/18/2014 2:05 am 9600 WICKER AV SJ22 41.443973 -87.470069
05/18/2014 1:56 am 8100 WICKER AV SJ22 41.471886 -87.470393
05/18/2014 12:43 am 8801 WICKER AV SJ22 41.458933 -87.470299
05/18/2014 12:36 am 9700 WICKER AV SJ22 41.443089 -87.470050
05/17/2014 11:51 pm PINE HILL ESTATES SJ22
05/17/2014 11:48 pm 9200 WICKER AV SJ10 41.453592 -87.470222
05/17/2014 11:31 pm 11033 W 93RD AV SJ10 41.449958 -87.469145
05/17/2014 11:12 pm 8167 WICKER AV; LOANSUM PAWN SJ22 41.470455 -87.470393
05/17/2014 10:55 pm VENTURA DR & WICKER AV SJ22 41.464281 -87.470364
05/17/2014 10:30 pm 7967 WICKER AV SJ22 41.472678 -87.470399
05/17/2014 10:22 pm MARTIN LANDSCAPING SJ16
05/17/2014 9:44 pm HILLTOP DR & W 93RD AV SJ22 41.450000 -87.487793
05/17/2014 9:00 pm JOLIET ST & WICKER AV SJ22 41.447742 -87.470138
05/17/2014 8:39 pm 9500 WHITE OAK AV SJ19 41.446362 -87.489428
05/17/2014 8:24 pm W 105TH AV & WHITE OAK AV SJ19 41.429197 -87.489325
05/17/2014 8:14 pm W 101ST AV & WHITE OAK AV SJ19 41.435563 -87.489287
05/17/2014 8:06 pm W 101ST AV & WELLINGTON CT E SJ19 41.435574 -87.493895
05/17/2014 7:58 pm 10700 WHITE OAK AV SJ19 41.425204 -87.489324
05/17/2014 7:45 pm W 97TH LN SJ19 41.442529 -87.480056
05/17/2014 7:35 pm 9400 WICKER AV SJ19 41.447998 -87.470142
05/17/2014 7:00 pm 8661 WICKER AV; ST JOHN ANIMAL CLINIC SJ19 41.460807 -87.470327
05/17/2014 6:44 pm 9600 WICKER AV SJ19 41.443973 -87.470069
05/17/2014 6:17 pm WALL ST & WICKER AV SJ19 41.453043 -87.470213
05/17/2014 6:05 pm WALL ST & WICKER AV SJ19 41.453043 -87.470213
05/17/2014 5:57 pm WALL ST & WICKER AV SJ19 41.453043 -87.470213
05/17/2014 5:46 pm 9400 WICKER AV SJ19 41.447998 -87.470142
05/17/2014 4:22 pm 8600 LAKE HILLS DR SJ24 41.462096 -87.455489
05/17/2014 3:37 pm W 93RD AV & HILLTOP DR SJ24 41.450000 -87.487793
05/17/2014 11:41 am W 101ST AV & WHITE OAK AV SJ18 41.435563 -87.489287
05/17/2014 11:28 am W 101ST AV & WHITE OAK AV SJ18 41.435563 -87.489287
05/17/2014 9:42 am 8801 WICKER AV; KOLLING SCHOOL SJ24 41.458933 -87.470299
05/17/2014 7:56 am 8801 WICKER AV; KOLLING SCHOOL SJ7 41.458933 -87.470299
05/17/2014 7:47 am WALL ST & WICKER AV SJ7 41.453043 -87.470213
05/17/2014 7:08 am 9550 WICKER AV; KMART SJ7 41.444972 -87.470090
05/17/2014 6:49 am 10400 W 93RD AV; VFW POST SJ24 41.449906 -87.463029
05/17/2014 6:27 am VENTURA DR & WICKER AV SJ7 41.464281 -87.470364
05/17/2014 6:17 am 8801 WICKER AV; KOLLING SCHOOL SJ7 41.458933 -87.470299
05/17/2014 6:10 am 8801 WICKER AV; KOLLING SCHOOL SJ7 41.458933 -87.470299
05/17/2014 6:02 am 8801 WICKER AV SJ7 41.458933 -87.470299
05/17/2014 6:00 am W 85TH AV & WICKER AV SJ7 41.462715 -87.470350
05/17/2014 5:43 am WALL ST & WICKER AV SJ7 41.453043 -87.470213
05/17/2014 5:35 am W 85TH AV & WICKER AV SJ7 41.462715 -87.470350
05/17/2014 5:23 am 9500 WICKER AV SJ7 41.445991 -87.470111
05/17/2014 12:47 am 8100 WICKER AV SJ22 41.471886 -87.470393
05/17/2014 12:16 am 8300 WICKER AV SJ22 41.466787 -87.470378
05/17/2014 12:07 am 8209 WICKER AV SJ22 41.469091 -87.470391
05/16/2014 11:06 pm WICKER AV; 10900 BLK SJ22 41.422054 -87.470096
05/16/2014 10:53 pm 9407 WICKER AV; DUNKIN DONUTS SJ19 41.447861 -87.470140
05/16/2014 10:37 pm 9200 WICKER AV SJ19 41.453592 -87.470222
05/16/2014 10:27 pm 10955 W 93RD AV; TOWN OF ST JOHN SJ19 41.449954 -87.468663
05/16/2014 10:16 pm 8100 WICKER AV SJ19 41.471886 -87.470393
05/16/2014 9:46 pm 9400 WICKER AV SJ19 41.447998 -87.470142
05/16/2014 9:37 pm WALL ST & WICKER AV SJ19 41.453043 -87.470213
05/16/2014 9:25 pm 8200 WICKER AV SJ22 41.469318 -87.470392
05/16/2014 9:17 pm 8200 WICKER AV SJ19 41.469318 -87.470392
05/16/2014 9:11 pm 9280 WICKER AV; WALGREENS #4276 SJ10 41.451133 -87.470187
05/16/2014 9:06 pm W 85TH AV & WICKER AV SJ19 41.462715 -87.470350
05/16/2014 8:48 pm 8801 WICKER AV; KOLLING SCHOOL SJ19 41.458933 -87.470299
05/16/2014 5:45 pm 9400 WHITE OAK AV SJ19 41.448199 -87.489455
05/16/2014 5:29 pm 9400 WHITE OAK AV SJ19 41.448199 -87.489455
05/16/2014 5:07 pm 9700 WHITE OAK AV SJ19 41.442725 -87.489373
05/16/2014 1:05 pm W 109TH AV & HILLCREST LN SJ24 41.421205 -87.496638
05/16/2014 12:57 pm W 109TH AV & HILLCREST LN SJ24 41.421205 -87.496638
05/16/2014 4:10 am 7700 WICKER AV SJ23 41.478956 -87.470527
05/16/2014 2:28 am W 101ST AV & SHEFFIELD AV SJ17 41.435615 -87.517966
05/15/2014 11:01 pm 10800 WICKER AV SJ17 41.422959 -87.470092
05/15/2014 9:20 pm 9500 WICKER AV SJ4 41.445991 -87.470111
05/15/2014 8:15 pm W 109TH AV & FORESTDALE ST SJ23 41.421168 -87.473684
05/15/2014 8:10 pm 9425 WICKER AV; MIGHTY MIKES SJ17 41.447516 -87.470135
05/15/2014 7:55 pm 9270 WICKER AV; QUIZNOS SUB SUITE C SJ17 41.451746 -87.470195
05/15/2014 7:25 pm DQ & US41 SJ17
05/15/2014 7:09 pm 9700 WICKER AV SJ17 41.443089 -87.470050
05/15/2014 7:08 pm 8200 WICKER AV SJ23 41.469318 -87.470392
05/15/2014 6:35 pm 11800 WICKER AV SJ23 41.404709 -87.470061
05/15/2014 10:19 am W 109TH AV & OLCOTT AV SJ10 41.421214 -87.481530 CIT
05/15/2014 10:07 am 10900 WHITE OAK SJ10
05/15/2014 9:51 am 10900 WICKER AV SJ10 41.421149 -87.470100
05/15/2014 9:22 am SJ10
05/15/2014 9:06 am 10900 WICKER AV SJ10 41.421149 -87.470100
05/15/2014 8:54 am 10900 WICKER AV SJ10 41.421149 -87.470100
05/15/2014 8:46 am 9200 WICKER AV SJ21 41.453592 -87.470222
05/15/2014 8:30 am 9500 WICKER AV SJ10 41.445991 -87.470111
05/15/2014 8:10 am 9280 WICKER AV; WALGREENS #4276 SJ10 41.451133 -87.470187
05/15/2014 7:59 am 9100 WICKER AV SJ10 41.454931 -87.470241
05/15/2014 7:37 am 9141 WICKER AV SJ10 41.454382 -87.470233
05/15/2014 7:13 am W 85TH AV & WICKER AV SJ10 41.462715 -87.470350
05/14/2014 10:07 pm 10255 WICKER AV SJ23 41.432984 -87.470025
05/14/2014 9:21 pm 8801 WICKER AV; KOLLING SCHOOL SJ4 41.458933 -87.470299
05/14/2014 1:46 pm WILDWOOD PATT SJ22
05/14/2014 1:00 pm KOLLING 41 SJ22
05/14/2014 12:52 pm 82 41 SJ22
05/14/2014 12:45 pm KOLLING 41 SJ22
05/14/2014 12:05 pm SCHOOL 41 SJ22
05/14/2014 11:47 am WILDWOOD PATT SJ12
05/14/2014 11:37 am WILDWOOD PATT SJ22
05/14/2014 11:28 am WILDWOOD PATT SJ22
05/14/2014 9:34 am 97 41 SJ10
05/14/2014 9:20 am 96 41 SJ10
05/14/2014 8:34 am 95 41 SJ10
05/14/2014 8:09 am 9440 JOLIET ST; MAMA DS PIZZA SJ10 41.441258 -87.451037
05/14/2014 7:58 am 92 41 SJ10
05/14/2014 7:38 am 85 41 SJ10
05/14/2014 7:26 am 85 41 SJ10
05/14/2014 6:44 am 84 41 SJ10
05/14/2014 6:27 am 82 41 SJ10
05/14/2014 6:06 am 95 41 SJ10
05/14/2014 3:39 am 8200 WICKER AV SJ22 41.469318 -87.470392
05/14/2014 3:30 am 9600 WICKER AV SJ24 41.443973 -87.470069
05/14/2014 2:53 am MUIRFIELD LN & GLENEAGLE PL SJ22 41.463803 -87.464899
05/14/2014 2:48 am MUIRFIELD LN & GLENEAGLE PL SJ22 41.463803 -87.464899
05/14/2014 2:43 am 8801 WICKER AV SJ22 41.458933 -87.470299
05/14/2014 2:28 am 9500 WICKER AV SJ22 41.445991 -87.470111
05/14/2014 12:56 am 8575 WICKER AV SJ22 41.461959 -87.470344
05/14/2014 12:49 am 8101 WICKER AV SJ22 41.470761 -87.470393
05/14/2014 12:02 am W 93RD AV; WHITE OAK SJ22 41.450129 -87.508672
05/13/2014 11:32 pm W 93RD & OLCOTT SJ22
05/13/2014 11:20 pm 11033 W 93RD AV SJ24 41.449958 -87.469145
05/13/2014 11:18 pm 8575 WICKER AV SJ22 41.461959 -87.470344
05/13/2014 9:56 pm 8167 WICKER AV; LOANSUM PAWN SJ22 41.470455 -87.470393
05/13/2014 9:54 pm WICKER AV; 11000 BLK SJ24 41.422054 -87.470096
05/13/2014 9:20 pm 9400 JOLIET ST SJ24 41.441165 -87.450616
05/13/2014 9:19 pm 9105 W 85TH AV SJ22 41.464270 -87.445072
05/13/2014 9:03 pm 9200 PATTERSON ST SJ24 41.452344 -87.471852
05/13/2014 8:28 pm 11320 W 93RD AV SJ22 41.449976 -87.471667
05/13/2014 5:08 pm BLAINE ST & W 101ST AV SJ22 41.436088 -87.426323
05/13/2014 12:40 pm 85 FARMINGTON SJ18
05/13/2014 9:08 am 9550 WICKER AV; KMART SJ10 41.444972 -87.470090
05/13/2014 8:58 am WALL 41 SJ10
05/13/2014 8:43 am PD LOT SJ10
05/13/2014 8:27 am 41 SCHOOL SJ10
05/13/2014 8:15 am 41 JOLIET SJ10
05/13/2014 8:04 am 85 41 SJ10
05/13/2014 7:42 am PWP SJ10
05/13/2014 7:35 am 10630 WICKER AV; SHRINE OF CHRISTS PASSI SJ16 41.426185 -87.470075
05/13/2014 7:29 am 97 41 SJ10
05/13/2014 7:13 am 97 41 SJ10
05/13/2014 6:55 am WALL 41 SJ10
05/13/2014 6:41 am 85 41 SJ10
05/12/2014 7:55 pm 8500 WICKER AV SJ24 41.462715 -87.470350
05/12/2014 7:39 pm 8300 WICKER AV SJ22 41.466787 -87.470378
05/12/2014 7:02 pm 8200 WICKER AV SJ22 41.469318 -87.470392
05/12/2014 6:42 pm 8200 WICKER AV SJ24 41.469318 -87.470392
05/12/2014 1:56 pm 9270 WICKER AV; QUIZNOS SUB SUITE C SJ17 41.451746 -87.470195
05/12/2014 1:48 pm WALL 41 SJ17
05/12/2014 1:35 pm 95 41 SJ17
05/12/2014 1:29 pm QUIZNOE SJ17
05/12/2014 1:07 pm SUBWAY SJ17
05/12/2014 12:59 pm 8900 WICKER AV; SCHILLING LUMBER SJ17 41.457608 -87.470280
05/12/2014 12:47 pm 8575 WICKER AV; SPEEDWAY SJ17 41.461959 -87.470344 CIT
05/12/2014 12:36 pm 93 KEILMAN SJ17
05/12/2014 12:15 pm WALGREENS SJ17
05/12/2014 12:05 pm STANDARD BANK N/E CORNER SJ17
05/12/2014 11:44 am BINGO LKE ;KOLING SJ17
05/12/2014 11:27 am 104 41 SJ17
05/11/2014 6:08 pm 8800 WICKER AV SJ17 41.458947 -87.470300
05/11/2014 5:48 pm 9141 WICKER AV; ASPEN CAFE SJ17 41.454382 -87.470233
05/11/2014 5:40 pm WALL ST & WICKER AV SJ17 41.453043 -87.470213
05/11/2014 11:50 am TOWN LOT SJ21
05/11/2014 8:44 am 96 41 SJ21
05/11/2014 5:12 am 8400 WICKER AV SJ23 41.464281 -87.470364
05/11/2014 2:10 am SJ22
05/11/2014 1:32 am 101S SJ22
05/11/2014 12:23 am W 93RD AV & WHITE OAK AV SJ22 41.450009 -87.489482
05/11/2014 12:00 am HILLTOP DR & W 93RD AV SJ22 41.450000 -87.487793
05/10/2014 9:41 pm 8100 WICKER AV SJ22 41.471886 -87.470393
05/10/2014 7:20 pm THIEL ST & W 93RD AV SJ9 41.449948 -87.467867
05/10/2014 5:28 pm 9500 WICKER AV SJ23 41.445991 -87.470111
05/10/2014 5:21 pm ST JOHN MALL SJ23
05/10/2014 11:11 am W 90TH AV & PATTERSON ST SJ22 41.455863 -87.474706
05/10/2014 8:22 am 8801 WICKER AV; KOLLING SCHOOL SJ10 41.458933 -87.470299
05/10/2014 8:08 am 8575 WICKER AV; SPEEDWAY SJ10 41.461959 -87.470344
05/10/2014 7:52 am W 82ND LN & WICKER AV SJ10 41.469318 -87.470392
05/10/2014 7:46 am W 85TH AV & ALEXANDER ST SJ10 41.464367 -87.465541
05/10/2014 7:36 am 11033 W 93RD AV SJ10 41.449958 -87.469145
05/10/2014 7:26 am 9543 WICKER AV; ST JOHN FLORIST SJ10 41.445115 -87.470093
05/10/2014 7:11 am 8801 WICKER AV; KOLLING SCHOOL SJ10 41.458933 -87.470299
05/10/2014 7:01 am W 85TH AV & WICKER AV SJ10 41.462715 -87.470350
05/10/2014 6:44 am 9400 WICKER AV SJ10 41.447998 -87.470142
05/10/2014 6:32 am WALL ST & WICKER AV SJ10 41.453043 -87.470213
05/10/2014 6:19 am WICKER AV & WALL ST SJ10 41.453043 -87.470213
05/10/2014 6:08 am W 95TH AV & WICKER AV SJ10 41.446031 -87.470111
05/10/2014 6:03 am WALL ST & WICKER AV SJ10 41.453043 -87.470213
05/10/2014 5:28 am 8500 WICKER AV SJ10 41.462715 -87.470350
05/10/2014 2:57 am MATTSON DR; W 85TH AV SJ22 41.462739 -87.484913
05/10/2014 2:36 am W 85TH AV; PARRISH SJ22 41.464535 -87.496385
05/10/2014 2:01 am W 93RD AV; HILLTOP SJ22 41.450129 -87.508672
05/10/2014 1:55 am 7700 WICKER AV SJ22 41.478956 -87.470527
05/10/2014 12:28 am 8300 WICKER AV SJ22 41.466787 -87.470378
05/10/2014 12:07 am WICKER AV; 8000 BLK SJ22 41.422054 -87.470096
05/10/2014 12:02 am W 101ST AV; WHITE OAK SJ360 41.436227 -87.487298
05/09/2014 11:57 pm 8801 WICKER AV SJ22 41.458933 -87.470299
05/09/2014 11:55 pm W 85TH AV & WICKER AV SJ9 41.462715 -87.470350
05/09/2014 11:17 pm 8900 PARRISH AV SJ360 41.457016 -87.450967
05/09/2014 9:42 pm CLINE AV & W 109TH AV SJ360 41.420910 -87.431171
05/09/2014 8:54 pm 8200 WICKER AV SJ22 41.469318 -87.470392
05/09/2014 8:38 pm W 109TH AV & OLCOTT AV SJ23 41.421214 -87.481530
05/09/2014 7:19 pm 8200 WICKER AV SJ22 41.469318 -87.470392
05/09/2014 6:16 pm BRAMBLEWOOD DR & W 93RD PL SJ9 41.449382 -87.505377
05/09/2014 3:44 pm 9800 WICKER AV SJ21 41.441083 -87.470022
05/09/2014 1:16 pm 10300 WICKER AV SJ23 41.431350 -87.470039
05/09/2014 12:33 pm 7967 WICKER AV SJ23 41.472678 -87.470399
05/09/2014 12:42 am 9712 W 85TH AV SJ12 41.464311 -87.453687
05/08/2014 7:36 pm WALL ST & WICKER AV SJ17 41.453043 -87.470213 CIT
05/08/2014 6:37 pm 9200 WICKER AV SJ17 41.453592 -87.470222 WW
05/08/2014 6:31 pm W 101ST AV & SADDLE CREEK DR SJ24 41.435592 -87.499938
05/08/2014 6:06 pm 9825 WICKER AV; STRACK & VANTIL SJ17 41.440661 -87.470018 CIT
05/08/2014 5:55 pm 9660 WICKER AV SJ17 41.443438 -87.470058 CIT
05/08/2014 5:43 pm 9321 WICKER AV; STANDARD BANK AND TRUST SJ17 41.449554 -87.470165 CIT
05/08/2014 5:30 pm SJ ANIMAL CLINIC SJ17 CIT
05/08/2014 5:12 pm WALL ST & WICKER AV SJ17 41.453043 -87.470213 CIT
05/08/2014 4:25 pm LC PLAZZA SJ17 CIT
05/08/2014 12:30 pm 231 41 BANK SJ16
05/08/2014 12:18 pm 108 MANOR SJ16
05/08/2014 5:56 am 9763 WICKER AV SJ10 41.441456 -87.470027
05/08/2014 1:43 am 9100 WICKER AV SJ24 41.454931 -87.470241
05/08/2014 12:41 am 8200 WICKER AV SJ24 41.469318 -87.470392
05/07/2014 11:29 pm 8200 WICKER AV SJ24 41.469318 -87.470392
05/07/2014 11:17 pm 8496 WICKER AV SJ24 41.462763 -87.470351
05/07/2014 10:26 pm 11033 W 93RD AV SJ24 41.449958 -87.469145
05/07/2014 11:01 am 97 41 SJ16
05/07/2014 9:19 am 102 PARRISH SJ16
05/07/2014 8:35 am 93 MONIX SJ10
05/07/2014 8:22 am 109 WO SJ16
05/07/2014 8:13 am 41 WALL SJ10
05/07/2014 7:04 am 109 MANOR SJ16
05/07/2014 12:05 am 8200 WICKER AV SJ4 41.469318 -87.470392
05/06/2014 11:18 pm SR 231 & CLINE SJ4
05/06/2014 6:18 pm 9700 BLAINE ST SJ4 41.442793 -87.426430
05/06/2014 3:25 pm 9400 WICKER AV SJ21 41.447998 -87.470142
05/06/2014 12:32 pm WO 93 SJ23
05/06/2014 3:06 am W 109TH AV & WHITE OAK AV SJ9 41.421258 -87.489398
05/06/2014 2:27 am W 109TH AV & WHITE OAK AV SJ9 41.421258 -87.489398
05/06/2014 1:48 am W 109TH AV & E SCHNEIDER CT SJ9 41.421136 -87.467561
05/05/2014 10:49 pm 9100 WICKER AV SJ4 41.454931 -87.470241
05/05/2014 10:48 pm W 101ST AV & WHITE OAK AV SJ365 41.435563 -87.489287
05/05/2014 10:19 pm 9600 WICKER AV SJ365 41.443973 -87.470069
05/05/2014 9:59 pm 8600 WICKER AV SJ4 41.461624 -87.470339
05/05/2014 9:39 pm 9400 WHITE OAK AV SJ4 41.448199 -87.489455
05/05/2014 8:47 pm W 109TH AV & FORESTDALE ST SJ365 41.421168 -87.473684
05/05/2014 5:37 pm 10300 WICKER AV SJ17 41.431350 -87.470039 CIT
05/05/2014 2:52 pm 9400 WHITE OAK AV SJ23 41.448199 -87.489455
05/05/2014 10:58 am fagen miller SJ7
05/05/2014 10:38 am 108 calumet SJ23
05/05/2014 8:48 am 231 cline s SJ23
05/05/2014 12:19 am ABSOLUTE NUTRITION SJ364
05/05/2014 12:18 am 9400 JOLIET ST SJ16 41.441165 -87.450616
05/04/2014 8:06 pm W 93RD AV & MONIX DR SJ24 41.450028 -87.491955
05/04/2014 7:58 pm 93RD AV & BRAMBLEWOOD DR SJ24 41.450151 -87.505367
05/04/2014 7:51 pm 10400 CLINE AV SJ12 41.430815 -87.431173
05/04/2014 7:45 pm W 93RD AV & MONIX DR SJ24 41.450028 -87.491955
05/04/2014 5:59 pm W 85TH AV & WICKER AV SJ24 41.462715 -87.470350
05/04/2014 1:53 pm 9200 WICKER AV SJ17 41.453592 -87.470222
05/04/2014 1:24 pm 41 9200 SJ17
05/04/2014 1:06 pm WALL 41 SJ17
05/04/2014 10:56 am 105 OLCOTT SJ341
05/04/2014 9:01 am 8900 WICKER AV; SCHILLING LUMBER SJ17 41.457608 -87.470280
05/04/2014 2:35 am POPLAR PL & PARRISH AV SJ13 41.422241 -87.450588
05/04/2014 1:10 am JOLIET ST; 10200 BLK SJ24 41.446940 -87.468764
05/04/2014 12:48 am JOLIET & WCKER AV SJ12
05/04/2014 12:18 am 231 & 41 SJ16
05/04/2014 12:17 am 8200 WICKER AV SJ24 41.469318 -87.470392
05/03/2014 11:26 pm W 93RD AV & HILLTOP DR SJ15 41.450000 -87.487793
05/03/2014 11:25 pm 10600 WHITE OAK AV SJ24 41.427178 -87.489314
05/03/2014 11:02 pm 231 & 41 SJ16
05/03/2014 10:24 pm W 101ST AV & WHITE OAK AV SJ24 41.435563 -87.489287
05/03/2014 8:33 pm WICKER AV & SCHOOL ST SJ12 41.447742 -87.470138
05/03/2014 7:03 pm 10600 WHITE OAK AV SJ24 41.427178 -87.489314
05/03/2014 6:44 pm W 109TH AV & OLCOTT AV SJ23 41.421214 -87.481530
05/03/2014 6:12 pm W 93RD AV & BELMONT AV SJ24 41.449965 -87.483809
05/03/2014 6:06 pm W 109TH AV & HURON ST SJ23 41.421160 -87.472295
05/03/2014 4:56 pm W 109TH AV & CLINE AV SJ14 41.420910 -87.431171
05/03/2014 4:46 pm 11500 WICKER AV SJ23 41.416488 -87.470088
05/03/2014 4:39 pm 11000 WICKER AV SJ23 41.420373 -87.470098
05/03/2014 9:19 am W 93RD AV & PATTERSON ST SJ17 41.449971 -87.470688
05/03/2014 7:08 am 9141 WICKER AV; ASPEN CAFE SJ17 41.454382 -87.470233
05/03/2014 6:51 am 9270 WICKER AV; QUIZNOS SUB SUITE C SJ17 41.451746 -87.470195
05/03/2014 6:18 am 9141 WICKER AV; ASPEN CAFE SJ17 41.454382 -87.470233
05/03/2014 12:01 am WICKER AV; 9400 BLK SJ12 41.446031 -87.470111
05/02/2014 11:43 pm RT 231 & 41 SJ16
05/02/2014 11:15 pm W 77TH AV & WICKER AV SJ16 41.478956 -87.470527
05/02/2014 10:22 pm 8801 WICKER AV SJ7 41.458933 -87.470299
05/02/2014 10:15 pm 8801 WICKER AV SJ7 41.458933 -87.470299
05/02/2014 10:10 pm KELLY & 41 SJ7
05/02/2014 9:59 pm 9623 WICKER AV SJ7 41.443768 -87.470065
05/02/2014 9:49 pm W 97TH LN & WICKER AV SJ7 41.441590 -87.470028
05/02/2014 9:36 pm WALL ST & WICKER AV SJ7 41.453043 -87.470213
05/02/2014 8:56 pm SJ7
05/02/2014 8:47 pm 11055 W 93RD AV; SJFD - STATION 75 SJ7 41.449959 -87.469281
05/02/2014 8:31 pm 9280 WICKER AV; WALGREENS #4276 SJ7 41.451133 -87.470187
05/02/2014 8:25 pm W 85TH AV & WICKER AV SJ7 41.462715 -87.470350
05/02/2014 8:00 pm 9500 WICKER AV SJ7 41.445991 -87.470111
05/02/2014 7:20 pm 9280 WICKER AV; WALGREENS #4276 SJ7 41.451133 -87.470187
05/02/2014 7:13 pm 9285 WICKER AV; JJS PETRO SJ7 41.450826 -87.470183
05/02/2014 7:08 pm 9280 WICKER AV; WALGREENS #4276 SJ7 41.451133 -87.470187
05/02/2014 6:41 pm 9280 WICKER AV; WALGREENS #4276 SJ7 41.451133 -87.470187
05/02/2014 6:33 pm 8801 WICKER AV; KOLLING SCHOOL SJ7 41.458933 -87.470299
05/02/2014 4:22 pm JOLIET ST & INDUSTRIAL DR SJ7 41.443788 -87.464124
05/02/2014 3:37 pm W 85TH AV & WICKER AV SJ7 41.462715 -87.470350
05/02/2014 3:27 pm SJ CROSSING SJ7
05/02/2014 3:26 pm W 95TH AV & WICKER AV SJ24 41.446031 -87.470111
05/02/2014 3:20 pm 9500 WICKER AV SJ7 41.445991 -87.470111
05/02/2014 3:08 pm 8801 WICKER AV; KOLLING SCHOOL SJ7 41.458933 -87.470299
05/02/2014 2:18 pm W 85TH AV & WICKER AV SJ7 41.462715 -87.470350
05/02/2014 2:12 pm 9200 WICKER AV SJ7 41.453592 -87.470222
05/02/2014 2:03 pm INDUSTRIAL DR & JOLIET ST SJ7 41.443788 -87.464124
05/02/2014 10:46 am W 97TH LN & W OAKRIDGE DR SJ4 41.442714 -87.477150
05/02/2014 10:09 am 9500 BLAINE ST SJ4 41.446068 -87.426481
05/02/2014 4:30 am 7967 WICKER AV SJ14 41.472678 -87.470399
05/01/2014 11:57 pm W 109TH AV & E SCHNEIDER CT SJ9 41.421136 -87.467561
05/01/2014 11:18 pm W 109TH AV & E SCHNEIDER CT SJ9 41.421136 -87.467561
05/01/2014 11:07 pm 8575 WICKER AV SJ14 41.461959 -87.470344
05/01/2014 10:19 pm WICKER AV; 12000 BLK SJ14 41.337327 -87.469614
05/01/2014 4:58 pm JOLIET ST & HART ST SJ7 41.442976 -87.461448
05/01/2014 4:35 pm 10000 JOLIET ST SJ7 41.442466 -87.458566
05/01/2014 4:29 pm JOLIET ST & INDUSTRIAL DR SJ7 41.443788 -87.464124
05/01/2014 3:39 pm KOLLING SJ7
05/01/2014 3:31 pm KOLLING SJ7
05/01/2014 3:08 pm 95 JOLIET SJ7
05/01/2014 2:50 pm 92 41 SJ7
05/01/2014 2:43 pm hart joliet SJ7
05/01/2014 2:16 pm JOLIET HART SJ7
05/01/2014 2:00 pm 93 HART SJ4
05/01/2014 1:59 pm 95 JOLIET SJ7
05/01/2014 1:53 pm 94 JOLIET SJ7
05/01/2014 1:47 pm ROGER & SONS SJ7
05/01/2014 1:05 pm 92 41 SJ7
05/01/2014 12:54 pm 9280 WICKER AV; WALGREENS #4276 SJ7 41.451133 -87.470187
05/01/2014 12:42 pm wall 41 SJ7
05/01/2014 11:34 am 109 41 SJ21
05/01/2014 11:14 am KOLLING SJ4
05/01/2014 7:17 am 41 library SJ21
05/01/2014 2:23 am W 93RD AV & DEODOR ST SJ17 41.450808 -87.452756
05/01/2014 1:38 am FATHKE RD; W 109TH AV SJ17 41.419080 -87.413997
04/30/2014 8:56 pm W 101ST AV & WHITE OAK AV SJ14 41.435563 -87.489287
04/30/2014 8:26 pm 9300 WHITE OAK AV SJ14 41.450009 -87.489482
04/30/2014 6:43 pm WICKER AV & VENTURA DR SJ14 41.464281 -87.470364
04/30/2014 2:59 pm 9500 VILLAGIO WAY SJ4 41.446069 -87.445230
04/30/2014 8:07 am 110 41 SJ23
04/30/2014 6:47 am 93 BLAINE SJ23
04/30/2014 5:42 am JOLIET ST; 10000 BLK SJ7 41.446940 -87.468764
04/29/2014 8:47 pm 9400 KEILMAN ST SJ12 41.448184 -87.472483
04/29/2014 7:04 pm W 109TH AV & CALUMET AV SJ16 41.421141 -87.508266
04/29/2014 3:27 pm W 101ST AV & BLUFF VIEW RD SJ24 41.435603 -87.505416
04/29/2014 6:52 am 93 schillton SJ24
04/29/2014 12:26 am 11200 WICKER AV SJ16 41.418819 -87.470094
04/28/2014 7:06 pm LANDHEIM SJ18
04/28/2014 3:54 pm W 93RD AV & COLUMBIA AV SJ24 41.450881 -87.500558
04/28/2014 3:33 pm W 93RD AV & OLCOTT AV SJ24 0.017073 -0.107584
04/28/2014 3:10 pm W 93RD AV & HILLTOP DR SJ24 41.450000 -87.487793
04/28/2014 2:59 pm W 93RD AV & WHITE OAK AV SJ24 41.450009 -87.489482
04/28/2014 2:47 pm W 101ST AV & CALUMET AV SJ24 41.435635 -87.508349
04/28/2014 8:03 am SJ MALL SJ24
04/27/2014 8:33 pm 11033 W 93RD AV; ST JOHN POLICE DEPARTME SJ19 41.449958 -87.469145
04/27/2014 8:17 pm 10100 WICKER AV SJ19 41.436091 -87.469997
04/27/2014 7:14 pm 8575 WICKER AV; SPEEDWAY SJ19 41.461959 -87.470344
04/27/2014 7:03 pm 8400 WICKER AV SJ19 41.464281 -87.470364
04/27/2014 6:16 pm JOLIET ST & PARRISH AV SJ365 41.441165 -87.450616
04/27/2014 3:19 pm PATTERSON AV & W 83RD PL SJ4 41.469357 -87.484956
04/27/2014 3:10 pm W 82ND LN & WICKER AV SJ21 41.469318 -87.470392
04/27/2014 2:07 pm LIBRARY SJ21
04/27/2014 1:43 pm 132 109 SJ21
04/27/2014 2:15 am 9700 WICKER AV SJ17 41.443089 -87.470050 VW
04/27/2014 2:00 am 8801 WICKER AV SJ23 41.458933 -87.470299
04/27/2014 1:57 am 8200 WICKER AV SJ14 41.469318 -87.470392
04/27/2014 1:04 am COLUMBIA AV; 8900 BLK SJ19 41.451452 -87.500511
04/26/2014 11:17 pm W 93RD AV & W OAKRIDGE DR SJ19 41.449989 -87.478157
04/26/2014 9:57 pm 9200 PATTERSON ST SJ14 41.452344 -87.471852
04/26/2014 8:09 pm 10900 CALUMET AV SJ19 41.417529 -87.508253 CIT
04/26/2014 8:07 pm SJ17 CIT
04/26/2014 10:28 am W 109TH AV & MANOR DR SJ21 41.421247 -87.487135
04/26/2014 9:11 am W 106TH LN & OLCOTT AV SJ21 41.426353 -87.481132
04/26/2014 12:09 am 9500 WICKER AV SJ19 41.445991 -87.470111
04/25/2014 8:10 pm 9600 WHITE OAK AV SJ10 41.444525 -87.489400
04/25/2014 7:55 pm W 93RD AV & HILLTOP DR SJ10 41.450000 -87.487793
04/25/2014 7:43 pm W 93RD AV & HILLTOP DR SJ10 41.450000 -87.487793
04/25/2014 7:27 pm W 93RD AV & HILLTOP DR SJ10 41.450000 -87.487793
04/25/2014 7:02 pm W 93RD AV & KEILMAN ST SJ14 41.449981 -87.472491
04/25/2014 6:46 pm W 93RD AV & WHITE OAK AV SJ10 41.450009 -87.489482
04/25/2014 6:27 pm W 93RD AV & HILLTOP DR SJ10 41.450000 -87.487793
04/25/2014 6:10 pm W 93RD AV & BELMONT AV SJ10 41.449965 -87.483809
04/25/2014 5:47 pm W 93RD AV & HILLTOP DR SJ10 41.450000 -87.487793
04/25/2014 5:30 pm W 101ST AV & WHITE OAK AV SJ10 41.435563 -87.489287
04/25/2014 5:18 pm W 93RD AV & HILLTOP DR SJ10 41.450000 -87.487793
04/25/2014 5:06 pm W 93RD AV & MONIX DR SJ10 41.450028 -87.491955
04/25/2014 4:54 pm W 101ST AV & WHITE OAK AV SJ10 41.435563 -87.489287
04/25/2014 4:41 pm W 93RD AV & WHITE OAK AV SJ10 41.450009 -87.489482
04/25/2014 2:52 pm 11700 W 93RD AV SJ4 41.449987 -87.476751
04/25/2014 10:53 am 8661 WICKER AV; ST JOHN ANIMAL CLINIC SJ21 41.460807 -87.470327
04/25/2014 10:39 am ST JOHN MALL SJ21
04/25/2014 7:31 am 10531 WICKER AV; KNABENHANS MOTORS SJ21 41.428052 -87.470064
04/24/2014 8:18 pm 8400 WICKER AV SJ17 41.464281 -87.470364 CIT
04/24/2014 8:09 pm JOLIET ST & WICKER AV SJ17 41.447742 -87.470138 WW
04/24/2014 8:00 pm 8500 WICKER AV SJ17 41.462715 -87.470350 WW
04/24/2014 7:50 pm WALL ST & WICKER AV SJ17 41.453043 -87.470213 CIT
04/24/2014 7:35 pm 9200 WICKER AV SJ17 41.453592 -87.470222 WW
04/24/2014 7:12 pm 10700 WICKER AV SJ16 41.424209 -87.470085
04/24/2014 7:10 pm W 93RD AV & MARQUETTE ST SJ19 41.449792 -87.441074
04/24/2014 6:51 pm 8300 WICKER AV SJ17 41.466787 -87.470378 CIT
04/24/2014 6:37 pm 8496 WICKER AV; TACO BELL SJ17 41.462763 -87.470351 CIT
04/24/2014 6:19 pm WALL ST & WICKER AV SJ17 41.453043 -87.470213 CIT
04/24/2014 5:37 pm WICKER AV & JOLIET ST SJ7 41.447742 -87.470138
04/24/2014 5:23 pm WALL ST & WICKER AV SJ7 41.453043 -87.470213
04/24/2014 5:20 pm 8600 WICKER AV SJ7 41.461624 -87.470339
04/24/2014 4:12 pm 10000 JOLIET ST SJ7 41.442466 -87.458566
04/24/2014 4:03 pm HART ST & JOLIET ST SJ7 41.442976 -87.461448
04/24/2014 3:43 pm W 101ST AV & WELLINGTON CT E SJ18 41.435574 -87.493895
04/24/2014 3:37 pm 101ST WHI OAK SJ18
04/24/2014 3:25 pm WALL ST & PATTERSON ST SJ7 41.452823 -87.472087
04/24/2014 3:18 pm CROSSING PLAZA SJ7
04/24/2014 3:13 pm 9285 WICKER AV; JJS PETRO SJ7 41.450826 -87.470183
04/24/2014 2:54 pm 85TH & SJ7 41.464535 -87.496385
04/24/2014 2:48 pm 8801 WICKER AV; KOLLING SCHOOL SJ7 41.458933 -87.470299
04/24/2014 11:23 am SJ12
04/23/2014 4:36 pm 9285 WICKER AV; JJS PETRO SJ22 41.450826 -87.470183
04/23/2014 4:08 pm W 90TH AV & PATTERSON ST SJ22 41.455863 -87.474706
04/23/2014 3:59 pm W 90TH AV & PATTERSON ST SJ22 41.455863 -87.474706
04/23/2014 3:49 pm W 85TH AV & PATTERSON ST SJ22 41.464506 -87.481488
04/23/2014 3:44 pm W 101ST AV & SADDLE CREEK DR SJ18 41.435592 -87.499938
04/23/2014 3:37 pm WILDWOOD DR & PATTERSON ST SJ22 41.463196 -87.480041
04/23/2014 3:15 pm 9600 WICKER AV SJ22 41.443973 -87.470069
04/23/2014 2:34 pm 7900 WICKER AV SJ22 41.473644 -87.470406
04/23/2014 1:17 pm 82 WICKER SJ22
04/23/2014 11:38 am 103 41 SJ22
04/23/2014 10:17 am 109 OLCOTT SJ18
04/23/2014 9:43 am 10000 PARRISH SJ12
04/23/2014 9:17 am 84 HEATHER SJ13
04/23/2014 6:45 am VENTURA 41 SJ22
04/22/2014 7:54 pm 231 & SCHNEIDER SJ23
04/22/2014 7:07 pm 8575 WICKER AV; SPEEDWAY SJ23 41.461959 -87.470344
04/22/2014 3:04 pm WILDWOOD DR & PATTERSON ST SJ22 41.463196 -87.480041
04/22/2014 2:51 pm W 90TH AV & PATTERSON ST SJ22 41.455863 -87.474706
04/22/2014 12:19 pm 90TH PATTERSON SJ22
04/22/2014 7:10 am 97 41 SJ22
04/22/2014 6:15 am 84 41 SJ22
04/22/2014 6:08 am 83 41 SJ22
04/22/2014 12:08 am JOLIET & LOADS OF FUN SJ21
04/21/2014 10:27 pm 9600 WICKER AV SJ21 41.443973 -87.470069
04/21/2014 9:06 pm 8801 WICKER AV; KOLLING SCHOOL SJ23 41.458933 -87.470299
04/21/2014 7:16 pm 87TH & WICKER SJ14
04/21/2014 4:39 pm W 101ST AV & CLINE AV SJ19 41.436724 -87.431153
04/21/2014 4:29 pm W 101ST AV & CLINE AV SJ19 41.436724 -87.431153
04/21/2014 3:04 pm CLARMONTE DR & BERKLEY LN SJ4 41.443994 -87.450809
04/21/2014 6:51 am 9100 RANDAL ST SJ4 41.455414 -87.497188
04/21/2014 3:15 am 9700 WICKER AV SJ22 41.443089 -87.470050
04/20/2014 5:05 pm SJ343 VW
04/20/2014 3:06 pm LC SJ343 VW
04/20/2014 1:59 pm SJ343 VW
04/20/2014 1:52 pm W 89TH PL & COLUMBIA AV SJ343 41.456680 -87.498822 VW
04/20/2014 12:36 pm W 80TH CT;41 SJ343
04/20/2014 12:08 pm 109th Ave baptist church SJ24
04/20/2014 9:55 am 93 bramblewood SJ24
04/20/2014 9:35 am 96 WO SJ24
04/20/2014 8:49 am 101 SADDLECREEK SJ18
04/20/2014 8:18 am 93 BRAMBLEWOOD SJ24
04/20/2014 1:26 am W 109TH & WHITE OAK SJ16
04/20/2014 12:19 am 8700 WICKER AV SJ22 41.460285 -87.470319
04/19/2014 11:06 pm WICKER AV; 231 SJ22 41.422054 -87.470096
04/19/2014 10:51 pm 8575 WICKER AV SJ22 41.461959 -87.470344
04/19/2014 10:45 pm WICKER AV; 8100 BLK SJ22 41.422054 -87.470096
04/19/2014 10:27 pm W 85TH AV & WICKER AV SJ10 41.462715 -87.470350
04/19/2014 8:20 pm OLCOTT AV & W 93RD AV SJ22 41.449969 -87.481228
04/19/2014 7:22 pm 8800 WICKER AV SJ22 41.458947 -87.470300
04/19/2014 7:10 pm W 95TH AV & WICKER AV SJ10 41.446031 -87.470111
04/19/2014 6:49 pm 9700 WICKER AV SJ16 41.443089 -87.470050
04/19/2014 3:28 pm 8575 WICKER AV; SPEEDWAY SJ24 41.461959 -87.470344
04/19/2014 3:01 pm 8200 WICKER AV SJ24 41.469318 -87.470392
04/19/2014 2:54 pm 8600 WICKER AV SJ24 41.461624 -87.470339
04/19/2014 11:44 am W 101ST AV & CALUMET AV SJ24 41.435635 -87.508349
04/19/2014 8:56 am 10600 WHITE OAK AV SJ24 41.427178 -87.489314
04/19/2014 8:07 am W 93RD AV & HILLTOP DR SJ24 41.450000 -87.487793
04/19/2014 7:57 am 8600 WICKER AV SJ12 41.461624 -87.470339
04/19/2014 7:21 am ST JOHN MALL SJ18
04/19/2014 3:29 am 8500 WICKER AV SJ22 41.462715 -87.470350
04/19/2014 1:29 am 10630 WICKER AV SJ22 41.426185 -87.470075
04/19/2014 12:54 am 9700 WICKER AV SJ22 41.443089 -87.470050
04/19/2014 12:27 am W 109TH AV; WICKER AV SJ22 41.421213 -87.495438
04/19/2014 12:19 am W 109TH AV & WICKER AV SJ22 41.421149 -87.470100
04/19/2014 12:01 am 11033 W 93RD AV SJ22 41.449958 -87.469145
04/18/2014 11:38 pm 10630 WICKER AV SJ22 41.426185 -87.470075
04/18/2014 10:54 pm 9700 WICKER AV SJ22 41.443089 -87.470050
04/18/2014 10:58 am W 93RD AV & W OAKRIDGE DR SJ24 41.449989 -87.478157
04/18/2014 10:53 am W 93RD AV & BELMONT AV SJ18 41.449965 -87.483809
04/18/2014 9:52 am W 93RD AV & BELMONT AV SJ24 41.449965 -87.483809
04/18/2014 9:42 am W 93RD AV & HILLTOP DR SJ24 41.450000 -87.487793
04/18/2014 8:08 am W 94TH AV & ELLE AV SJ12 41.447737 -87.451383
04/18/2014 7:11 am W 93RD AV & HILLTOP DR SJ24 41.450000 -87.487793
04/18/2014 6:57 am 9700 WHITE OAK AV SJ24 41.442725 -87.489373
04/18/2014 6:39 am W 101ST AV & SADDLE CREEK DR SJ18 41.435592 -87.499938
04/18/2014 6:29 am 11700 W 93RD AV SJ24 41.449987 -87.476751
04/17/2014 11:41 pm 8500 WICKER AV SJ17 41.462715 -87.470350 CIT
04/17/2014 11:35 pm 8575 WICKER AV SJ4 41.461959 -87.470344
04/17/2014 11:21 pm 9100 WICKER AV SJ4 41.454931 -87.470241
04/17/2014 10:20 pm 8200 WICKER AV SJ23 41.469318 -87.470392
04/17/2014 9:15 pm 7500 WICKER SJ23 VW
04/17/2014 8:55 pm 9200 CLINE AV SJ23 41.451549 -87.431385 VW
04/17/2014 8:46 pm W 107TH AV & MANOR DR SJ4 41.425201 -87.487132 VW
04/17/2014 8:43 pm 8200 WICKER AV SJ22 41.469318 -87.470392 CIT
04/17/2014 8:35 pm W 117TH AV & CLINE AV SJ4 41.406370 -87.431185 VW
04/17/2014 8:29 pm SJ23 CIT
04/17/2014 8:25 pm 11100 W 109TH AV SJ4 41.421133 -87.467101 VW
04/17/2014 8:20 pm 8801 WICKER AV; KOLLING SCHOOL SJ22 41.458933 -87.470299 CIT
04/17/2014 8:12 pm ONTARIO ST & W 109TH AV SJ365 41.421154 -87.471273 CIT
04/17/2014 7:45 pm 9200 WICKER AV SJ17 41.453592 -87.470222 CIT
04/17/2014 7:36 pm 10700 WICKER AV SJ22 41.424209 -87.470085 CIT
04/17/2014 7:26 pm 9700 WICKER AV SJ22 41.443089 -87.470050
04/17/2014 7:14 pm 9270 WICKER AV; QUIZNOS SUB SUITE C SJ22 41.451746 -87.470195 WW
04/17/2014 6:57 pm 9200 WICKER AV SJ17 41.453592 -87.470222 VW
04/17/2014 6:56 pm 8200 WICKER AV SJ4 41.469318 -87.470392
04/17/2014 6:43 pm 9500 WICKER AV SJ17 41.445991 -87.470111 CIT
04/17/2014 6:03 pm W 107TH AV & MILLARD DR SJ23 41.425202 -87.488444
04/17/2014 5:05 pm W 93RD AV & WICKER AV SJ22 41.449967 -87.470171
04/17/2014 4:51 pm 10200 WHITE OAK AV SJ19 41.433370 -87.489295
04/17/2014 4:28 pm SJ4 CIT
04/17/2014 4:20 pm SCHOOL ST & WICKER AV SJ22 41.447742 -87.470138 CIT
04/17/2014 4:07 pm 9300 WICKER AV SJ22 41.449967 -87.470171 WW
04/17/2014 10:09 am 93 SCHILLTON SJ19
04/17/2014 9:52 am 93 SCHILLTON SJ19
04/17/2014 9:34 am 93 WO SJ19
04/17/2014 7:21 am 101 WO SJ14
04/17/2014 7:03 am 101 WO SJ14
04/17/2014 1:36 am 9600 WICKER AV SJ17 41.443973 -87.470069
04/16/2014 10:25 pm SR 231 & SCHNEIDER SJ4
04/16/2014 10:21 pm KELLY DR SJ23 41.462561 -87.472333
04/16/2014 10:03 pm 93RD AV East OF BLAINE SJ23
04/16/2014 10:02 pm W 109TH AV & WICKER AV SJ4 41.421149 -87.470100
04/16/2014 9:48 pm 8200 WICKER AV SJ23 41.469318 -87.470392 VW
04/16/2014 9:25 pm 8200 WICKER AV SJ23 41.469318 -87.470392 VW
04/16/2014 8:27 pm 8500 WICKER AV SJ23 41.462715 -87.470350 VW
04/16/2014 7:32 pm 10200 OLCOTT AV SJ17 41.433927 -87.481103 CIT
04/16/2014 5:53 pm 10200 DELMAR SJ19
04/16/2014 10:23 am 105 WO SJ19
04/16/2014 9:01 am 93 SCHILLTON SJ14
04/16/2014 2:57 am W 77TH AV & WICKER AV SJ24 41.478956 -87.470527
04/15/2014 11:59 pm W 85TH AV & WICKER AV SJ24 41.462715 -87.470350
04/15/2014 11:44 pm W 93RD AV & WICKER AV SJ24 41.449967 -87.470171
04/15/2014 7:39 pm W 93RD AV & COLUMBIA AV SJ24 41.450881 -87.500558
04/15/2014 7:16 pm 9500 WICKER AV SJ16 41.445991 -87.470111
04/15/2014 6:53 pm 8575 WICKER AV; SPEEDWAY SJ16 41.461959 -87.470344
04/15/2014 4:05 pm W 101ST AV & WHITE OAK AV SJ22 41.435563 -87.489287
04/15/2014 3:48 pm 8000 WICKER AV SJ22 41.472761 -87.470400
04/14/2014 8:47 pm 8575 WICKER AV; SPEEDWAY SJ24 41.461959 -87.470344
04/14/2014 1:57 pm 8400 WICKER AV SJ22 41.464281 -87.470364
04/14/2014 1:38 am 8000 WICKER AV SJ17 41.472761 -87.470400
04/14/2014 1:15 am 8000 WICKER AV SJ21 41.472761 -87.470400
04/14/2014 12:49 am SJ4
04/13/2014 9:57 pm W 95TH AV & WICKER AV SJ21 41.446031 -87.470111
04/13/2014 6:15 pm 8801 WICKER AV; KOLLING SCHOOL SJ21 41.458933 -87.470299
04/13/2014 4:36 pm 9400 41 SJ19
04/13/2014 4:20 pm 9400 WICKER AV SJ19 41.447998 -87.470142
04/13/2014 2:27 pm 101ST ST & OLCOTT AV SJ19 41.435896 -87.481069
04/13/2014 11:53 am 106 WO SJ19
04/13/2014 8:15 am SJMALL LOT SJ19
04/13/2014 6:38 am 94 41 SJ23
04/13/2014 3:52 am 9500 WICKER AV SJ21 41.445991 -87.470111
04/13/2014 2:59 am 8575 WICKER AV SJ17 41.461959 -87.470344
04/13/2014 2:47 am W 85TH CT & CLINE AV SJ21 41.463302 -87.431622
04/13/2014 12:37 am W 77TH AV; WICKER AV SJ21 41.478971 -87.474396
04/12/2014 11:25 pm W 93RD AV & PATTERSON ST SJ21 41.449971 -87.470688
04/12/2014 9:54 pm 11800 WICKER AV SJ4 41.404709 -87.470061
04/12/2014 9:34 pm LIBRARY SJ4
04/12/2014 8:23 pm W 93RD AV & WICKER AV SJ4 41.449967 -87.470171
04/12/2014 8:02 pm 8500 WICKER AV SJ17 41.462715 -87.470350 CIT
04/12/2014 7:13 pm 9500 TRIANNA SJ4
04/12/2014 6:49 pm LAKE CENTRAL PLAZA SJ17
04/12/2014 6:37 pm 9600 WICKER AV; CHASE BANK SJ21 41.443973 -87.470069
04/12/2014 6:35 pm WALL ST & WICKER AV SJ17 41.453043 -87.470213 CIT
04/12/2014 6:08 pm 9500 WICKER AV SJ17 41.445991 -87.470111
04/12/2014 3:25 pm JOLIET ST & INDUSTRIAL DR SJ23 41.443788 -87.464124 WW
04/12/2014 2:17 pm 9141 WICKER AV; ASPEN CAFE SJ23 41.454382 -87.470233
04/12/2014 2:06 pm 8200 WICKER AV SJ23 41.469318 -87.470392
04/12/2014 1:46 pm 10630 WICKER AV; SHRINE OF CHRISTS PASSI SJ23 41.426185 -87.470075
04/12/2014 10:04 am 8200 ALEXANDER ST SJ19 41.468028 -87.465580
04/12/2014 9:03 am W 93RD AV & DEODOR ST SJ19 41.450808 -87.452756
04/12/2014 1:54 am 9600 WICKER AV SJ21 41.443973 -87.470069
04/12/2014 12:02 am THIELEN ST & JOLIET ST SJ364 41.446138 -87.467390
04/11/2014 10:42 pm W 101ST AV; 8700 BLK SJ360 41.436227 -87.487298
04/11/2014 9:27 pm 8900 WICKER AV SJ4 41.457608 -87.470280
04/11/2014 8:26 pm W 93RD AV & HILLTOP DR SJ10 41.450000 -87.487793
04/11/2014 8:19 pm WICKER AV & SCHOOL ST SJ21 41.447742 -87.470138
04/11/2014 8:12 pm 9700 WHITE OAK AV SJ10 41.442725 -87.489373
04/11/2014 7:59 pm W 101ST AV & WHITE OAK AV SJ10 41.435563 -87.489287
04/11/2014 7:54 pm 9141 WICKER AV; ASPEN CAFE SJ17 41.454382 -87.470233
04/11/2014 7:45 pm W 101ST AV & WHITE OAK AV SJ10 41.435563 -87.489287
04/11/2014 7:24 pm W 101ST AV & WHITE OAK AV SJ10 41.435563 -87.489287
04/11/2014 7:10 pm WALL ST & WICKER AV SJ17 41.453043 -87.470213 WW
04/11/2014 7:08 pm W 101ST AV & WHITE OAK AV SJ10 41.435563 -87.489287
04/11/2014 6:54 pm W 93RD AV & HILLTOP DR SJ10 41.450000 -87.487793
04/11/2014 6:36 pm 9200 WICKER AV SJ17 41.453592 -87.470222
04/11/2014 6:22 pm W 93RD AV & BELMONT AV SJ10 41.449965 -87.483809
04/11/2014 6:00 pm W 101ST AV & WELLINGTON CT E SJ10 41.435574 -87.493895
04/11/2014 5:34 pm W 93RD AV & HILLTOP DR SJ10 41.450000 -87.487793
04/11/2014 5:32 pm 8051 WICKER AV; OLTHOF HOMES SJ22 41.471489 -87.470393
04/11/2014 5:04 pm W 101ST AV & WHITE OAK AV SJ10 41.435563 -87.489287
04/11/2014 4:44 pm W 101ST AV & WHITE OAK AV SJ10 41.435563 -87.489287
04/11/2014 4:24 pm W 101ST AV & WHITE OAK AV SJ10 41.435563 -87.489287
04/11/2014 2:28 pm 8000 KNICKERBOCKER PL SJ19 41.471061 -87.477143
04/11/2014 1:39 pm W 93RD AV & HILLTOP DR SJ19 41.450000 -87.487793
04/11/2014 12:50 pm W 109TH AV & FORESTDALE ST SJ23 41.421168 -87.473684
04/11/2014 10:35 am W 109TH AV & ONTARIO ST SJ23 41.421154 -87.471273
04/11/2014 10:01 am 9200 WICKER AV SJ23 41.453592 -87.470222
04/11/2014 9:05 am 9300 NORTHCOTE AV SJ19 41.449966 -87.482130
04/11/2014 8:43 am 109 AND ONTARIO SJ23
04/11/2014 1:56 am WICKER AV; WALL ST SJ24 41.422054 -87.470096
04/11/2014 1:46 am 11033 W 93RD AV SJ24 41.449958 -87.469145
04/10/2014 9:11 pm 10600 WHITE OAK AV SJ24 41.427178 -87.489314
04/10/2014 9:08 pm 9400 WICKER AV SJ19 41.447998 -87.470142
04/10/2014 8:53 pm W 85TH AV & WICKER AV SJ19 41.462715 -87.470350
04/10/2014 8:45 pm 8575 WICKER AV; SPEEDWAY SJ19 41.461959 -87.470344
04/10/2014 8:41 pm W 101ST AV & WELLINGTON CT E SJ24 41.435574 -87.493895
04/10/2014 8:29 pm 9400 WICKER AV SJ19 41.447998 -87.470142
04/10/2014 8:04 pm 10900 WICKER AV SJ19 41.421149 -87.470100
04/10/2014 7:47 pm 8671 WICKER AV SJ12 41.460674 -87.470325
04/10/2014 7:27 pm 10900 WICKER AV SJ19 41.421149 -87.470100
04/10/2014 7:12 pm 9300 NORTHCOTE AV SJ12 41.449966 -87.482130
04/10/2014 7:06 pm W 109TH AV & ONTARIO ST SJ19 41.421154 -87.471273
04/10/2014 7:05 pm W 101ST AV & CALUMET AV SJ24 41.435635 -87.508349
04/10/2014 6:52 pm W 109TH AV & ONTARIO ST SJ19 41.421154 -87.471273
04/10/2014 6:41 pm W 107TH AV & WHITE OAK AV SJ19 41.425204 -87.489324
04/10/2014 6:26 pm W 101ST AV & WHITE OAK AV SJ19 41.435563 -87.489287
04/10/2014 6:11 pm W 101ST AV & WHITE OAK AV SJ19 41.435563 -87.489287
04/10/2014 5:58 pm W 101ST AV & WHITE OAK AV SJ19 41.435563 -87.489287
04/10/2014 5:39 pm W 101ST AV & SHEFFIELD AV SJ19 41.435615 -87.517966
04/10/2014 5:24 pm W 101ST AV & WHITE OAK AV SJ19 41.435563 -87.489287
04/10/2014 11:45 am PD LOT SJ22
04/10/2014 11:34 am 8900 WICKER AV; SCHILLING LUMBER SJ22 41.457608 -87.470280
04/10/2014 11:08 am 9270 WICKER AV; QUIZNOS SUB SUITE C SJ22 41.451746 -87.470195
04/10/2014 10:36 am 97 41 SJ10
04/10/2014 10:29 am 10800 41 S/B SJ22
04/10/2014 10:07 am 10800 WO SJ16
04/10/2014 10:00 am 99 41 SJ22
04/10/2014 8:01 am 97 41 SJ22
04/10/2014 8:01 am 93 claremont SJ7
04/10/2014 12:39 am 8200 WICKER AV SJ12 41.469318 -87.470392
04/10/2014 12:27 am WICKER AV; 10900 BLK SJ24 41.422054 -87.470096
04/09/2014 10:04 pm W 93RD AV & COLUMBIA AV SJ24
04/09/2014 9:49 pm W 101ST AV & SADDLE CREEK DR SJ24 41.435592 -87.499938
04/09/2014 9:39 pm 8915 W 93RD AV; CLARK MIDDLE SCHOOL SJ18 41.449796 -87.443725
04/09/2014 9:35 pm PW PARK SJ24
04/09/2014 7:29 pm 11700 W 93RD AV SJ24 41.449987 -87.476751
04/09/2014 6:55 pm W 101ST AV & WHITE OAK AV SJ24 41.435563 -87.489287
04/09/2014 6:45 pm 10800 WHITE OAK AV SJ24 41.423212 -87.489361
04/09/2014 6:28 pm 10600 WHITE OAK AV SJ24 41.427178 -87.489314
04/09/2014 6:12 pm W 93RD AV & HILLTOP DR SJ24 41.450000 -87.487793
04/09/2014 11:48 am W 109TH AV & WICKER AV SJ16 41.421149 -87.470100
04/09/2014 11:35 am 10500 WICKER AV SJ16 41.428395 -87.470062
04/09/2014 7:53 am 10200 WICKER AV XSJ11 41.435026 -87.470008 VW
04/09/2014 1:07 am 109TH AV & SCHNEIDER SJ17
04/09/2014 12:45 am 9700 WICKER AV SJ19 41.443089 -87.470050
04/09/2014 12:11 am 8575 WICKER AV SJ19 41.461959 -87.470344
04/08/2014 8:33 pm W 101ST AV & CALUMET AV SJ19 41.435635 -87.508349
04/08/2014 8:22 pm W 101ST AV & SADDLE CREEK DR SJ19 41.435592 -87.499938
04/08/2014 7:59 pm 9500 41 SJ17
04/08/2014 7:34 pm WALL ST & PATTERSON ST SJ17 41.452823 -87.472087
04/08/2014 7:08 pm KELLY DR & WICKER AV SJ17 41.462025 -87.470344
04/08/2014 4:22 pm WICKER AV & WALL ST SJ21 41.453043 -87.470213
04/08/2014 11:29 am 11400 WICKER AV SJ23 41.417265 -87.470090
04/08/2014 11:04 am W 109TH AV & MANOR DR SJ23 41.421247 -87.487135
04/08/2014 10:38 am 10600 WICKER AV SJ23 41.427299 -87.470069
04/08/2014 10:29 am 231 AND SCHNEIDER SJ23
04/08/2014 10:28 am KELLY DR & WICKER AV SJ21 41.462025 -87.470344
04/08/2014 10:18 am W 109TH AV & HILLCREST LN SJ23 41.421205 -87.496638
04/08/2014 10:17 am 9200 WICKER AV SJ21 41.453592 -87.470222
04/08/2014 8:34 am W 101ST AV & PARRISH AV SJ23 41.441165 -87.450616
04/08/2014 2:48 am W 101ST AV & WHITE OAK AV SJ17 41.435563 -87.489287
04/07/2014 9:07 pm W 85TH AV & PRIMROSE DR SJ19 41.464508 -87.487911
04/07/2014 7:31 pm 9280 WICKER AV; WALGREENS #4276 SJ19 41.451133 -87.470187
04/07/2014 7:30 pm WALL ST & PATTERSON ST SJ17 41.452823 -87.472087
04/07/2014 7:13 pm W 85TH AV & WICKER AV SJ19 41.462715 -87.470350
04/07/2014 7:01 pm WICKER AV & VENTURA DR SJ19 41.464281 -87.470364
04/07/2014 6:50 pm 8575 WICKER AV; SPEEDWAY SJ19 41.461959 -87.470344
04/07/2014 6:32 pm 8575 WICKER AV; SPEEDWAY SJ17 41.461959 -87.470344
04/07/2014 11:44 am 82 41 SJ23
04/07/2014 11:15 am 92 41 SJ14
04/07/2014 10:45 am 108 OLCOTT SJ23
04/07/2014 10:23 am GOODWILL SJ23
04/07/2014 8:50 am BLUE 82 SJ23
04/07/2014 5:44 am 8801 WICKER AV; KOLLING SCHOOL SJ14 41.458933 -87.470299
04/06/2014 11:11 pm 8000 WICKER AV SJ18 41.472761 -87.470400
04/06/2014 11:07 pm 9500 WICKER AV SJ24 41.445991 -87.470111
04/06/2014 10:49 pm W 82ND LN & WICKER AV SJ12 41.469318 -87.470392
04/06/2014 10:34 pm 9500 WICKER AV SJ18 41.445991 -87.470111
04/06/2014 10:05 pm 9200 OLCOTT AV SJ12 41.451570 -87.481338
04/06/2014 7:33 pm W 101ST AV & WELLINGTON CT E SJ24 41.435574 -87.493895
04/06/2014 7:23 pm 9900 WHITE OAK AV SJ18 41.439215 -87.489331
04/06/2014 7:20 pm 8500 WICKER AV SJ12 41.462715 -87.470350
04/06/2014 6:57 pm 11700 W 93RD AV SJ24 41.449987 -87.476751
04/06/2014 6:55 pm 8500 WICKER AV SJ12 41.462715 -87.470350
04/06/2014 6:46 pm TCU SJ12
04/06/2014 6:32 pm LIBRARY SJ12
04/06/2014 6:29 pm W 93RD AV & KARDEL DR SJ24 41.449965 -87.482962
04/06/2014 6:28 pm 9300 WICKER AV SJ12 41.449967 -87.470171
04/06/2014 5:54 pm 9401 WICKER AV; SCHOOPS SJ18 41.447979 -87.470142
04/06/2014 4:55 pm W 85TH AV & WICKER AV SJ24 41.462715 -87.470350
04/06/2014 3:38 pm ALEXANDER ST & W 85TH AV SJ22 41.464367 -87.465541
04/06/2014 3:26 pm SCHOOL ST & WICKER AV SJ343 41.447742 -87.470138
04/06/2014 3:13 pm 8200 WICKER AV SJ22 41.469318 -87.470392
04/06/2014 2:50 pm KOLLING & 85TH SJ22
04/06/2014 2:24 pm 9321 WICKER AV; STANDARD BANK AND TRUST SJ343 41.449554 -87.470165
04/06/2014 2:06 pm 2120 41 SJ343
04/06/2014 1:49 pm 9700 WICKER AV SJ22 41.443089 -87.470050
04/06/2014 1:37 pm 10955 W 93RD AV SJ22 41.449954 -87.468663
04/06/2014 1:23 pm 109 OLCOTT SJ16
04/06/2014 1:21 pm 7800 41 SJ343
04/06/2014 1:20 pm 8900 41 SJ343
04/06/2014 1:10 pm 109 FORESTDALE SJ16
04/06/2014 12:50 pm 109 MANOR SJ16
04/06/2014 12:44 pm 10630 WICKER AV; SHRINE OF CHRISTS PASSI SJ343 41.426185 -87.470075
04/06/2014 12:34 pm 9270 WICKER AV; QUIZNOS SUB SUITE C SJ343 41.451746 -87.470195
04/06/2014 12:30 pm 10749 WICKER AV; KUBIAKS SERVICE SJ16 41.423403 -87.470089
04/06/2014 12:26 pm 8575 WICKER AV; SPEEDWAY SJ22 41.461959 -87.470344
04/06/2014 2:15 am 8200 WICKER AV SJ24 41.469318 -87.470392 CIT
04/06/2014 2:06 am 8400 WICKER AV SJ24 41.464281 -87.470364 CIT
04/06/2014 1:55 am SJ24 CIT
04/05/2014 10:22 pm W 103RD CT & OLCOTT AV SJ24 41.431781 -87.481105
04/05/2014 9:19 pm 9500 WICKER AV SJ10 41.445991 -87.470111
04/05/2014 9:06 pm W 101ST AV & WHITE OAK AV SJ10 41.435563 -87.489287
04/05/2014 8:49 pm W 93RD AV & WHITE OAK AV SJ10 41.450009 -87.489482
04/05/2014 8:21 pm 9200 WICKER AV SJ10 41.453592 -87.470222
04/05/2014 8:02 pm 9825 WICKER AV; STRACK & VANTIL SJ10 41.440661 -87.470018
04/05/2014 7:46 pm 9500 WICKER AV SJ10 41.445991 -87.470111
04/05/2014 7:08 pm W 93RD AV & COLUMBIA AV SJ10 41.450881 -87.500558
04/05/2014 6:49 pm W 93RD AV & MONIX DR SJ10 41.450028 -87.491955
04/05/2014 6:36 pm W 93RD AV & HILLTOP DR SJ10 41.450000 -87.487793
04/05/2014 6:23 pm W 93RD AV & HILLTOP DR SJ10 41.450000 -87.487793
04/05/2014 6:17 pm 101ST & GOLDEN GROVE SJ24
04/05/2014 6:11 pm 10600 WHITE OAK AV SJ24 41.427178 -87.489314
04/05/2014 6:02 pm W 93RD AV & MONIX DR SJ10 41.450028 -87.491955
04/05/2014 5:51 pm 10600 WHITE OAK AV SJ24 41.427178 -87.489314
04/05/2014 5:39 pm W 93RD AV & HILLTOP DR SJ10 41.450000 -87.487793
04/05/2014 5:19 pm W 93RD AV & HILLTOP DR SJ10 41.450000 -87.487793
04/05/2014 5:05 pm W 93RD AV & BELMONT AV SJ10 41.449965 -87.483809
04/05/2014 4:47 pm 9500 WICKER AV SJ17 41.445991 -87.470111 WW
04/05/2014 4:36 pm 8100 WICKER AV SJ22 41.471886 -87.470393
04/05/2014 4:34 pm W 85TH AV & WICKER AV SJ17 41.462715 -87.470350
04/05/2014 1:53 am 8700 WICKER AV SJ18 41.460285 -87.470319 CIT
04/04/2014 11:28 pm 9200 WICKER AV SJ19 41.453592 -87.470222 WW
04/04/2014 11:18 pm 8400 WICKER AV SJ19 41.464281 -87.470364 WW
04/04/2014 10:59 pm SJ19
04/04/2014 10:48 pm W 93RD AV & PATTERSON ST SJ19 41.449971 -87.470688 CIT
04/04/2014 10:37 pm 93RD AV & CALUMET AV SJ19 41.450132 -87.507827 CIT
04/04/2014 10:03 pm 10700 WHITE OAK AV SJ19 41.425204 -87.489324 WW
04/04/2014 9:54 pm W 109TH AV & MANOR DR SJ19 41.421247 -87.487135 CIT
04/04/2014 9:24 pm WALL ST & WICKER AV SJ19 41.453043 -87.470213
04/04/2014 8:59 pm 10600 WICKER AV SJ19 41.427299 -87.470069
04/04/2014 8:42 pm W 109TH AV & WICKER AV; US231 SJ19 41.421149 -87.470100
04/04/2014 8:18 pm W 101ST AV & WELLINGTON CT E SJ19 41.435574 -87.493895
04/04/2014 7:24 pm W 109TH AV & ONTARIO ST SJ19 41.421154 -87.471273
04/04/2014 7:10 pm W 109TH AV & ONTARIO ST SJ19 41.421154 -87.471273
04/04/2014 7:01 pm W 109TH AV & ONTARIO ST SJ19 41.421154 -87.471273
04/04/2014 6:57 pm 10600 WHITE OAK AV SJ24 41.427178 -87.489314
04/04/2014 6:43 pm 8900 WICKER AV SJ19 41.457608 -87.470280
04/04/2014 6:36 pm 9100 WICKER AV SJ18 41.454931 -87.470241
04/04/2014 4:11 pm 9285 WICKER AV; JJS PETRO SJ22 41.450826 -87.470183
04/04/2014 9:54 am 9500 WICKER AV SJ22 41.445991 -87.470111
04/04/2014 5:20 am 9700 WICKER AV SJ22 41.443089 -87.470050
04/04/2014 3:16 am 9700 WICKER AV SJ17 41.443089 -87.470050
04/03/2014 10:52 pm 8400 WICKER AV SJ17 41.464281 -87.470364
04/03/2014 9:35 pm 10955 W 93RD AV; TOWN OF ST JOHN SJ19 41.449954 -87.468663
04/03/2014 9:11 pm 8575 WICKER AV; SPEEDWAY SJ14 41.461959 -87.470344
04/03/2014 8:28 pm WALL ST & WICKER AV SJ19 41.453043 -87.470213
04/03/2014 8:15 pm 8500 WICKER AV SJ17 41.462715 -87.470350
04/03/2014 8:03 pm 8496 WICKER AV; TACO BELL SJ17 41.462763 -87.470351
04/03/2014 7:46 pm 93RD AV & CALUMET AV SJ19 41.450132 -87.507827
04/03/2014 7:15 pm W 85TH AV & WICKER AV SJ19 41.462715 -87.470350
04/03/2014 6:51 pm 9270 WICKER AV; QUIZNOS SUB SUITE C SJ17 41.451746 -87.470195
04/03/2014 6:48 pm 9280 WICKER AV; WALGREENS #4276 SJ14 41.451133 -87.470187
04/03/2014 6:40 pm 9500 WICKER AV SJ17 41.445991 -87.470111
04/03/2014 1:45 pm W 93RD AV & HILLTOP DR SJ23 41.450000 -87.487793
04/03/2014 10:37 am 10800 WHITE OAK AV SJ23 41.423212 -87.489361 VW
04/03/2014 9:38 am 9600 WICKER AV SJ21 41.443973 -87.470069 CIT
04/03/2014 3:19 am 10300 WICKER AV SJ17 41.431350 -87.470039
04/03/2014 12:43 am W 93RD AV & WICKER AV SJ17 41.449967 -87.470171
04/02/2014 10:25 pm 9100 WICKER AV SJ365 41.454931 -87.470241
04/02/2014 9:39 pm W 109TH AV & WICKER AV SJ365 41.421149 -87.470100
04/02/2014 10:23 am 109TH E OF CALUMET SJ23
04/02/2014 8:42 am JOLIET 41 SJ21
04/02/2014 8:20 am COL 93 SJ23
04/02/2014 7:19 am JOLIET INDUS SJ23
04/02/2014 3:16 am 9300 WICKER AV SJ22 41.449967 -87.470171
04/02/2014 2:35 am 10630 WICKER AV; SHRINE OF CHRISTS PASSI SJ22 41.426185 -87.470075
04/02/2014 2:23 am 11000 WICKER AV SJ22 41.420373 -87.470098
04/02/2014 2:13 am 108TH PL & OLCOTT AV SJ22 41.422382 -87.481506
04/01/2014 11:57 pm 10630 WICKER AV; SHRINE OF CHRISTS PASSI SJ22 41.426185 -87.470075
04/01/2014 11:07 pm HART ST & JOLIET ST SJ22 41.442976 -87.461448
04/01/2014 10:54 pm 11700 W 93RD AV SJ22 41.449987 -87.476751
04/01/2014 10:41 pm 9500 WICKER AV SJ18 41.445991 -87.470111
04/01/2014 10:21 pm 8400 WICKER AV SJ18 41.464281 -87.470364
04/01/2014 12:54 pm 1ST MERCHANT BANK 231 SJ24
04/01/2014 6:51 am 93 41 SJ24
04/01/2014 6:24 am 93 monix SJ24
03/31/2014 11:08 pm 9300 WICKER AV SJ22 41.449967 -87.470171
03/31/2014 10:53 pm WINDING TRAIL & W 85TH AV SJ22 41.464348 -87.460495
03/31/2014 10:43 pm 10300 WICKER AV SJ22 41.431350 -87.470039
03/31/2014 10:30 pm W 109TH AV & WICKER AV; US231 SJ22 41.421149 -87.470100
03/31/2014 9:50 pm 8801 WICKER AV; KOLLING SCHOOL SJ22 41.458933 -87.470299
03/31/2014 3:48 pm W 93RD AV & WHITE OAK AV SJ24 41.450009 -87.489482
03/31/2014 9:27 am PWP SJ24
03/31/2014 9:19 am pwp SJ24
03/31/2014 3:14 am KEILMAN ST & W 96TH AV SJ17 41.443956 -87.472445
03/31/2014 1:56 am 10100 WICKER AV SJ19 41.436091 -87.469997
03/31/2014 1:10 am W 97TH AV & WICKER AV SJ14 41.441590 -87.470028
03/31/2014 12:44 am W 93RD AV & PATTERSON ST SJ17 41.449971 -87.470688
03/31/2014 12:00 am W 93RD AV & PATTERSON ST SJ19 41.449971 -87.470688
03/30/2014 11:39 pm 8575 WICKER AV; SPEEDWAY SJ19 41.461959 -87.470344
03/30/2014 10:33 pm W 109TH AV & OLCOTT AV SJ19 41.421214 -87.481530
03/30/2014 9:37 pm 9200 WICKER AV SJ19 41.453592 -87.470222
03/30/2014 8:40 pm 9400 WICKER AV SJ19 41.447998 -87.470142
03/30/2014 8:00 pm 8575 WICKER AV; SPEEDWAY SJ17 41.461959 -87.470344
03/30/2014 7:54 pm W 85TH AV & WICKER AV SJ19 41.462715 -87.470350
03/30/2014 7:40 pm 9500 WICKER AV SJ19 41.445991 -87.470111
03/30/2014 7:32 pm 9500 WICKER AV SJ17 41.445991 -87.470111
03/30/2014 7:22 pm 9500 WICKER AV SJ17 41.445991 -87.470111
03/30/2014 8:51 am 11100 41 SJ4
03/30/2014 8:17 am target SJ21
03/30/2014 2:22 am 10630 WICKER AV SJ14 41.426185 -87.470075
03/29/2014 11:32 pm 8801 WICKER AV SJ14 41.458933 -87.470299
03/29/2014 11:26 pm 8801 WICKER AV SJ14 41.458933 -87.470299
03/29/2014 11:24 pm 8900 WICKER AV SJ19 41.457608 -87.470280
03/29/2014 10:17 pm 9600 WICKER AV SJ14 41.443973 -87.470069
03/29/2014 9:21 pm W 93RD AV & CLARMONTE DR SJ19 41.449796 -87.449160
03/29/2014 8:23 pm 9270 WICKER AV; QUIZNOS SUB SUITE C SJ17 41.451746 -87.470195
03/29/2014 8:13 pm 8801 WICKER AV; KOLLING SCHOOL SJ14 41.458933 -87.470299
03/29/2014 7:34 pm 10300 WICKER AV SJ17 41.431350 -87.470039
03/29/2014 7:28 pm 9543 WICKER AV; PASCALES PIZZA SJ19 41.445115 -87.470093
03/29/2014 7:07 pm 9500 WICKER AV SJ17 41.445991 -87.470111
03/29/2014 6:20 pm 9270 WICKER AV; QUIZNOS SUB SUITE C SJ17 41.451746 -87.470195
03/29/2014 7:35 am 8200 WICKER AV SJ4 41.469318 -87.470392
03/29/2014 7:07 am 9700 WICKER AV SJ4 41.443089 -87.470050
03/29/2014 5:06 am JOLIET ST & WICKER AV SJ4 41.447742 -87.470138
03/29/2014 1:33 am W 109TH AV & SCHNEIDER PL SJ23 41.421141 -87.468343
03/29/2014 12:56 am W 109TH AV & SCHNEIDER PL SJ17 41.421141 -87.468343
03/28/2014 11:59 pm 9400 WICKER AV SJ19 41.447998 -87.470142
03/28/2014 11:47 pm 231 & CLINE SJ17
03/28/2014 11:37 pm 231 & CLINE SJ17
03/28/2014 11:28 pm W 85TH AV & WICKER AV SJ19 41.462715 -87.470350
03/28/2014 11:13 pm 10200 WICKER AV SJ23 41.435026 -87.470008
03/28/2014 11:10 pm 11300 W 97TH LN; ELMWOOD FUNERAL CHAPEL SJ360 41.441077 -87.471281
03/28/2014 11:01 pm 8200 WICKER AV SJ14 41.469318 -87.470392
03/28/2014 10:41 pm 9400 W OAKRIDGE DR SJ17 41.449588 -87.478013
03/28/2014 8:23 pm W 85TH AV & WINDING TRAIL SJ19 41.464348 -87.460495
03/28/2014 8:17 pm 9400 MALLARD SJ23
03/28/2014 7:58 pm 11200 WICKER AV SJ17 41.418819 -87.470094
03/28/2014 7:32 pm 8915 W 93RD AV; CLARK MIDDLE SCHOOL SJ23 41.449796 -87.443725
03/28/2014 7:04 pm 10955 W 93RD AV; TOWN OF ST JOHN SJ17 41.449954 -87.468663
03/28/2014 6:50 pm 8575 WICKER AV; SPEEDWAY SJ17 41.461959 -87.470344
03/28/2014 12:09 pm W 101ST AV & WICKER AV SJ21 41.437165 -87.469986
03/28/2014 11:26 am W 107TH AV & WHITE OAK AV SJ21 41.425204 -87.489324
03/28/2014 9:18 am LANTERN DR & COLUMBIA AV SJ4 41.458148 -87.498806
03/28/2014 12:27 am W 105TH AV & OLCOTT AV SJ16 41.429002 -87.481120
03/28/2014 12:26 am W 109TH AV & WICKER AV SJ22 41.421149 -87.470100
03/27/2014 11:50 pm 11200 WICKER AV SJ16 41.418819 -87.470094
03/27/2014 11:20 pm 8100 WICKER AV SJ22 41.471886 -87.470393
03/27/2014 11:15 pm W 109TH AV & HILLCREST LN SJ16 41.421205 -87.496638
03/27/2014 10:31 pm W 109TH AV & WICKER AV SJ16 41.421149 -87.470100
03/27/2014 10:14 pm W 109TH AV & WICKER AV SJ16 41.421149 -87.470100
03/27/2014 8:18 pm 8801 WICKER AV; KOLLING SCHOOL SJ22 41.458933 -87.470299
03/27/2014 8:06 pm WHITE OAK & ROSEWOOD SJ22
03/27/2014 7:51 pm 8200 WICKER AV SJ22 41.469318 -87.470392
03/27/2014 9:23 am THIEL ST & W 93RD AV SJ18 41.449948 -87.467867
03/27/2014 2:58 am 8000 WICKER AV SJ22 41.472761 -87.470400
03/27/2014 2:21 am South OF 109TH & WICKER AV SJ22
03/27/2014 1:56 am South OF 109TH & WICKER AV SJ22
03/27/2014 1:10 am HART ST & JOLIET ST SJ22 41.442976 -87.461448
03/26/2014 11:43 pm 11033 W 93RD AV SJ16 41.449958 -87.469145
03/26/2014 10:43 pm 9700 WICKER AV SJ22 41.443089 -87.470050
03/26/2014 10:09 pm 8200 WICKER AV SJ22 41.469318 -87.470392
03/26/2014 10:02 pm 9280 WICKER AV; WALGREENS #4276 SJ22 41.451133 -87.470187
03/26/2014 8:08 pm 10500 WICKER AV SJ16 41.428395 -87.470062
03/26/2014 6:48 pm 8400 WICKER AV SJ22 41.464281 -87.470364
03/25/2014 11:14 pm 8661 WICKER AV; ST JOHN ANIMAL CLINIC SJ17 41.460807 -87.470327
03/25/2014 9:16 pm 8575 WICKER AV; SPEEDWAY SJ23 41.461959 -87.470344
03/25/2014 8:29 pm 82 & WICKER SJ23
03/25/2014 8:18 pm 8575 WICKER AV; SPEEDWAY SJ17 41.461959 -87.470344
03/25/2014 8:02 pm 9550 WICKER AV SJ17 41.444972 -87.470090
03/25/2014 7:20 pm 8600 WICKER AV SJ17 41.461624 -87.470339
03/25/2014 7:15 pm 93RD AV & BRAMBLEWOOD DR SJ23 41.450151 -87.505367
03/25/2014 7:02 pm 9270 WICKER AV; QUIZNOS SUB SUITE C SJ17 41.451746 -87.470195
03/25/2014 4:28 pm 12600 W 101ST AV SJ19 41.436371 -87.486869
03/25/2014 3:53 pm W 93RD AV & MARQUETTE ST SJ19 41.449792 -87.441074
03/25/2014 3:05 pm CORNERSTONE SJ19
03/25/2014 2:45 pm W 109TH AV & WHITE OAK AV SJ19 41.421258 -87.489398
03/25/2014 11:58 am 109 hillcrest SJ19
03/25/2014 11:33 am landheim SJ19
03/25/2014 11:16 am LANDHEIM SJ19
03/25/2014 11:05 am 127 101ST SJ19
03/25/2014 9:58 am 82 41 SJ19
03/25/2014 9:29 am 93 41 SJ19
03/25/2014 12:52 am 10600 WHITE OAK AV SJ23 41.427178 -87.489314
03/25/2014 12:32 am W 85TH AV & LAKE HILLS DR SJ23 41.464322 -87.455889
03/25/2014 12:04 am W 85TH AV & WICKER AV SJ23 41.462715 -87.470350
03/24/2014 11:41 pm PD SJ17
03/24/2014 11:00 pm W 109TH AV & WICKER AV SJ23 41.421149 -87.470100
03/24/2014 10:58 pm 8575 WICKER AV; SPEEDWAY SJ365 41.461959 -87.470344
03/24/2014 10:27 pm WICKER AV & WALL ST SJ365 41.453043 -87.470213
03/24/2014 9:19 pm 13100 81ST AV SJ17 41.471778 -87.492136
03/24/2014 8:57 pm 8801 WICKER AV; KOLLING SCHOOL SJ17 41.458933 -87.470299
03/24/2014 8:18 pm 231 & SCHNEIDER SJ23
03/24/2014 4:43 pm 9400 WHITE OAK AV SJ19 41.448199 -87.489455
03/24/2014 4:32 pm W 101ST AV & WHITE OAK AV SJ19 41.435563 -87.489287
03/24/2014 2:33 pm 11700 W 93RD AV SJ19 41.449987 -87.476751
03/24/2014 2:24 pm 9280 WICKER AV; WALGREENS #4276 SJ19 41.451133 -87.470187
03/24/2014 2:09 pm W 93RD AV & SCHAFER DR SJ19 41.449796 -87.442718
03/24/2014 9:50 am SJE 93RD SJ4
03/24/2014 8:53 am 85 AUSTIN SJ19
03/24/2014 7:44 am 93 columbia SJ19
03/24/2014 7:02 am clark SJ19
03/23/2014 11:52 pm PD SJ24
03/23/2014 9:16 pm 11033 W 93RD AV SJ24 41.449958 -87.469145
03/23/2014 8:59 pm 11700 W 93RD AV SJ24 41.449987 -87.476751
03/23/2014 8:13 pm FARMINGTON ST SJ19 41.462610 -87.467052
03/23/2014 7:49 pm WICKER AV & WALL ST SJ24 41.453043 -87.470213
03/23/2014 7:49 pm 14700 W 101ST AV SJ19 41.435628 -87.512009
03/23/2014 7:42 pm W 101ST AV & SADDLE CREEK DR SJ19 41.435592 -87.499938
03/23/2014 7:19 pm 11700 W 93RD AV SJ24 41.449987 -87.476751
03/23/2014 7:08 pm 11700 W 93RD AV SJ24 41.449987 -87.476751
03/23/2014 6:59 pm 11700 W 93RD AV SJ24 41.449987 -87.476751
03/23/2014 6:07 pm WALL ST & WICKER AV SJ343 41.453043 -87.470213
03/23/2014 3:44 pm 10531 WICKER AV; KNABENHANS MOTORS SJ343 41.428052 -87.470064
03/23/2014 1:17 pm 109 MANOR SJ343
03/23/2014 1:00 pm 95 41 SJ343
03/23/2014 12:44 pm 108 olcott SJ23
03/23/2014 12:30 pm 109 hillcrest SJ23
03/23/2014 12:25 pm 109 WO SJ23
03/23/2014 12:08 pm 9270 WICKER AV; QUIZNOS SUB SUITE C SJ343 41.451746 -87.470195
03/23/2014 12:07 pm 109 HILLCREST SJ23
03/23/2014 11:56 am 109 olcott SJ23
03/23/2014 11:37 am 93 PATTERSON SJ23
03/23/2014 11:22 am 97 OLCOTT SJ343
03/23/2014 11:18 am 109 ONTARIO SJ23
03/23/2014 11:08 am 109 OLCOTT SJ23
03/23/2014 11:01 am 12800 W 109TH AV SJ343 41.421233 -87.492747
03/23/2014 2:40 am WICKER AV; 8500 BLK SJ24 41.422054 -87.470096
03/23/2014 2:30 am WICKER AV; 9700 BLK SJ16 41.422054 -87.470096
03/23/2014 2:18 am W 93RD AV & WHITE OAK AV SJ24 41.450009 -87.489482
03/22/2014 10:35 pm W 93RD AV & MONIX DR SJ24 41.450028 -87.491955
03/22/2014 10:27 pm W 93RD AV & COLUMBIA AV SJ24 41.450881 -87.500558
03/22/2014 8:33 pm 11700 W 93RD AV SJ24 41.449987 -87.476751
03/22/2014 8:19 pm W 93RD AV & BELMONT AV SJ24 41.449965 -87.483809
03/22/2014 7:25 pm W 93RD AV & HILLTOP DR SJ24 41.450000 -87.487793
03/22/2014 6:19 pm 12500 W 93RD AV SJ24 41.449965 -87.483809
03/22/2014 4:16 pm 9500 WICKER AV SJ17 41.445991 -87.470111 CIT
03/22/2014 3:56 pm 11033 W 93RD AV SJ17 41.449958 -87.469145 CIT
03/22/2014 1:35 pm W 101ST AV & WELLINGTON CT E SJ19 41.435574 -87.493895
03/22/2014 1:21 pm W 101ST AV & WELLINGTON CT E SJ19 41.435574 -87.493895
03/22/2014 1:09 pm W 101ST AV & WHITE OAK AV SJ19 41.435563 -87.489287
03/22/2014 1:04 pm W 101ST AV & WELLINGTON CT E SJ19 41.435574 -87.493895
03/22/2014 1:02 pm W 101ST AV & WELLINGTON CT E SJ12 41.435574 -87.493895
03/22/2014 12:54 pm W 101ST AV & SADDLE CREEK DR SJ19 41.435592 -87.499938
03/22/2014 12:35 pm W 101ST AV & WHITE OAK AV SJ19 41.435563 -87.489287
03/22/2014 12:18 pm W 101ST AV & WHITE OAK AV SJ19 41.435563 -87.489287
03/22/2014 12:00 pm 14500 W 101ST AV SJ19 41.435633 -87.509569
03/22/2014 11:49 am W 101ST AV & WHITE OAK AV SJ19 41.435563 -87.489287
03/22/2014 11:39 am 9400 WHITE OAK AV SJ19 41.448199 -87.489455
03/22/2014 11:32 am 9400 WHITE OAK AV SJ19 41.448199 -87.489455
03/22/2014 11:08 am 9400 WICKER AV SJ19 41.447998 -87.470142
03/22/2014 3:17 am W 109TH AV; HILLCREST SJ61 41.421054 -87.520427
03/22/2014 2:22 am W 92ND AV & MONIX DR SJ22 41.451894 -87.492244
03/22/2014 1:55 am W 93RD AV & KEILMAN ST SJ24 41.449981 -87.472491
03/22/2014 1:16 am 11033 W 93RD AV SJ24 41.449958 -87.469145
03/22/2014 12:45 am W 109TH AV & MANOR DR SJ16 41.421247 -87.487135
03/22/2014 12:33 am 8200 WICKER AV SJ22 41.469318 -87.470392
03/22/2014 12:29 am 11100 WICKER AV SJ16 41.419596 -87.470096
03/22/2014 12:25 am 9461 WICKER AV; DAIRY QUEEN SJ24 41.446774 -87.470123
03/22/2014 12:19 am 11700 W 93RD AV SJ22 41.449987 -87.476751
03/21/2014 11:28 pm 9400 WICKER AV SJ19 41.447998 -87.470142
03/21/2014 11:13 pm 11700 WICKER AV SJ22 41.406558 -87.470069
03/21/2014 10:39 pm 9500 WICKER AV SJ19 41.445991 -87.470111
03/21/2014 10:15 pm 9200 WICKER AV SJ19 41.453592 -87.470222
03/21/2014 3:04 pm 9500 WICKER AV SJ17 41.445991 -87.470111 CIT
03/21/2014 2:55 pm 9200 WICKER AV SJ17 41.453592 -87.470222 CIT
03/21/2014 2:41 pm 8200 WICKER AV SJ17 41.469318 -87.470392 CIT
03/21/2014 2:24 pm 8400 WICKER AV SJ17 41.464281 -87.470364 CIT
03/21/2014 2:10 pm 8496 WICKER AV; TACO BELL SJ17 41.462763 -87.470351 CIT
03/21/2014 2:03 pm 8575 WICKER AV; SPEEDWAY SJ17 41.461959 -87.470344 WW
03/21/2014 1:50 pm 9500 WICKER AV SJ17 41.445991 -87.470111 CIT
03/21/2014 1:30 pm 9500 WICKER AV SJ17 41.445991 -87.470111 CIT
03/21/2014 1:19 pm 9500 WICKER AV SJ17 41.445991 -87.470111 CIT
03/21/2014 1:11 pm W 97TH LN & KEILMAN ST SJ17 41.441070 -87.472398 CIT
03/21/2014 6:34 am 97TH & KARDEL SJ18 CIT
03/21/2014 4:37 am 9400 WICKER AV SJ4 41.447998 -87.470142
03/20/2014 11:59 pm W 109TH AV; HILLDREST SJ23 41.421054 -87.520427
03/20/2014 11:49 pm 109TH AV; HILLCREST SJ23
03/20/2014 10:08 pm 11700 W 93RD AV SJ4 41.449987 -87.476751
03/20/2014 8:26 pm 10300 WICKER AV SJ17 41.431350 -87.470039 CIT
03/20/2014 8:16 pm 8400 WICKER AV SJ17 41.464281 -87.470364 VW
03/20/2014 7:48 pm 2251 US 41; LONGSHOTS SJ17 41.484478 -87.470653 CIT
03/20/2014 6:58 pm 9500 WICKER AV SJ17 41.445991 -87.470111 CIT
03/20/2014 5:57 pm W 93RD AV & CLINE AV SJ17 41.449743 -87.431354 VW
03/20/2014 4:53 pm W 109TH AV & OLCOTT AV SJ4 41.421214 -87.481530 CIT
03/20/2014 4:19 pm 102 WHITE OAK SJ10 WW
03/20/2014 3:56 pm W 93RD AV & HILLTOP DR SJ10 41.450000 -87.487793 WW
03/20/2014 3:42 pm ROSEWOOD & WHITE OAK SJ10
03/20/2014 3:30 pm ROSEWOOD & WHITE OAK SJ10 WW
03/20/2014 3:15 pm W 93RD AV & BELMONT AV SJ10 41.449965 -87.483809 WW
03/20/2014 3:04 pm 9800 WHITE OAK AV SJ10 41.440970 -87.489352 WW
03/20/2014 2:50 pm W 93RD AV & HILLTOP DR SJ10 41.450000 -87.487793 CIT
03/20/2014 2:30 pm SJ10 CIT
03/20/2014 2:05 pm W 93RD AV & HACK ST SJ10 41.449925 -87.465068 CIT
03/20/2014 1:57 pm W 101ST AV & WHITE OAK AV SJ19 41.435563 -87.489287 CIT
03/20/2014 1:48 pm 93 AND PD SJ10 CIT
03/20/2014 1:07 pm 82 41 SJ10
03/20/2014 12:52 pm PATTERSON WALL SJ10
03/20/2014 12:38 pm 41 ALSIP SJ10
03/20/2014 12:26 pm 9285 WICKER AV; JJS PETRO SJ10 41.450826 -87.470183
03/20/2014 11:52 am COMM BAPT 93RD SJ19
03/20/2014 11:41 am 93 SCHAFFER SJ19
03/20/2014 10:44 am 41 SCHOOL SJ21
03/20/2014 10:39 am 85 41 SJ19
03/20/2014 8:28 am 8900 WICKER AV; SCHILLING LUMBER SJ10 41.457608 -87.470280
03/20/2014 7:50 am 8575 WICKER AV; SPEEDWAY SJ10 41.461959 -87.470344
03/20/2014 7:27 am 8801 WICKER AV; KOLLING SCHOOL SJ10 41.458933 -87.470299
03/20/2014 7:11 am 8900 WICKER AV; SCHILLING LUMBER SJ10 41.457608 -87.470280
03/20/2014 7:01 am 9141 WICKER AV; ASPEN CAFE SJ10 41.454382 -87.470233
03/20/2014 6:47 am 92 41 SJ10
03/20/2014 6:35 am 92 41 SJ10
03/19/2014 10:19 pm 11200 WICKER AV SJ17 41.418819 -87.470094
03/19/2014 8:31 pm 10300 WICKER AV SJ22 41.431350 -87.470039
03/19/2014 8:23 pm 8300 WICKER AV SJ23 41.466787 -87.470378
03/19/2014 8:22 pm 8801 WICKER AV; KOLLING SCHOOL SJ17 41.458933 -87.470299
03/19/2014 8:18 pm 8801 WICKER AV; KOLLING SCHOOL SJ22 41.458933 -87.470299
03/19/2014 7:56 pm WALL ST & WICKER AV SJ22 41.453043 -87.470213
03/19/2014 7:48 pm 9957 EARL DR; TRACTOR SUPPLY SJ23 41.438451 -87.468672
03/19/2014 7:41 pm W 93RD AV & KEILMAN ST SJ17 41.449981 -87.472491
03/19/2014 7:38 pm 10955 W 93RD AV; TOWN OF ST JOHN SJ22 41.449954 -87.468663
03/19/2014 7:33 pm JOLIET ST & INDUSTRIAL DR SJ4 41.443788 -87.464124
03/19/2014 7:24 pm JOLIET ST & HART ST SJ22 41.442976 -87.461448
03/19/2014 7:16 pm 9461 WICKER AV; DAIRY QUEEN SJ22 41.446774 -87.470123
03/19/2014 7:04 pm 8575 WICKER AV; SPEEDWAY SJ22 41.461959 -87.470344
03/19/2014 6:36 pm 8801 WICKER AV; KOLLING SCHOOL SJ22 41.458933 -87.470299
03/19/2014 6:26 pm WALL ST & WICKER AV SJ22 41.453043 -87.470213
03/19/2014 6:17 pm 8801 WICKER AV; KOLLING SCHOOL SJ22 41.458933 -87.470299
03/19/2014 5:56 pm 8400 WICKER AV SJ22 41.464281 -87.470364
03/19/2014 5:30 pm W 101ST AV & WHITE OAK AV SJ22 41.435563 -87.489287
03/19/2014 5:16 pm ICE ARENA SJ22
03/19/2014 5:07 pm 10100 WICKER AV SJ22 41.436091 -87.469997
03/19/2014 4:52 pm 9600 WICKER AV SJ22 41.443973 -87.470069
03/19/2014 4:43 pm W 93RD AV & HILLTOP DR SJ10 41.450000 -87.487793
03/19/2014 4:30 pm W 93RD AV & WHITE OAK AV SJ10 41.450009 -87.489482
03/19/2014 4:05 pm WICKER AV & WALL ST SJ10 41.453043 -87.470213
03/19/2014 3:47 pm W 85TH AV & WICKER AV SJ10 41.462715 -87.470350
03/19/2014 2:35 pm W 85TH AV & WICKER AV SJ10 41.462715 -87.470350
03/19/2014 2:25 pm SJ10
03/19/2014 2:12 pm 8801 WICKER AV; KOLLING SCHOOL SJ10 41.458933 -87.470299
03/19/2014 2:00 pm 9285 WICKER AV; JJS PETRO SJ10 41.450826 -87.470183
03/19/2014 1:18 pm WALGREENS SJ10
03/19/2014 1:09 pm 97 41 SJ10
03/19/2014 12:57 pm 41 WALL SJ10
03/18/2014 6:32 pm SJ24 CIT
03/18/2014 6:10 pm W 93RD AV & HILLTOP DR SJ24 41.450000 -87.487793 CIT
03/18/2014 3:30 pm SJ17 WW
03/18/2014 3:19 pm KELLY DR & WICKER AV SJ17 41.462025 -87.470344 CIT
03/18/2014 3:12 pm 8500 WICKER AV SJ17 41.462715 -87.470350 WW
03/18/2014 2:57 pm WALL ST & WICKER AV SJ17 41.453043 -87.470213 CIT
03/18/2014 2:49 pm PD SJ17 CIT
03/18/2014 2:24 pm WALL ST & WICKER AV SJ17 41.453043 -87.470213 CIT
03/18/2014 2:14 pm 9500 WICKER AV SJ17 41.445991 -87.470111
03/18/2014 2:06 pm SJ17
03/18/2014 1:56 pm 11033 W 93RD AV SJ17 41.449958 -87.469145
03/18/2014 1:37 pm SJ MALL SJ16
03/18/2014 1:26 pm 231 41 BANK SJ16
03/18/2014 1:13 pm SPEEDWAY SJ17
03/18/2014 12:59 pm WALL 41 SJ17
03/18/2014 12:55 pm QUIZNO SJ17
03/18/2014 12:39 pm SCHILLING SJ17
03/18/2014 11:46 am STATION SJ18
03/18/2014 11:43 am SMOKESHOP 41 SJ16
03/17/2014 10:27 pm W 93RD AV & COLUMBIA AV SJ24 41.450881 -87.500558
03/17/2014 4:24 pm 231 AND 41 SJ16
03/17/2014 3:03 pm 13200 W 109TH AV SJ16 41.422939 -87.500622
03/17/2014 2:48 pm 9400 WHITE OAK AV SJ19 41.448199 -87.489455
03/17/2014 2:31 pm W 101ST AV & WHITE OAK AV SJ19 41.435563 -87.489287
03/17/2014 1:56 pm LINCOLN SJ19
03/17/2014 1:48 pm 109 OLCOTT SJ19
03/17/2014 1:31 pm LINCOLN SJ19
03/17/2014 1:05 pm 109 MANOR SJ19
03/17/2014 12:56 pm LINCOLN SCHOOL SJ19
03/17/2014 11:57 am 109 41 SJ19
03/17/2014 9:43 am 41 KUBIAK SJ10
03/17/2014 9:28 am 109 HILLCREST SJ10
03/17/2014 9:09 am 231 41 SJ10
03/17/2014 8:50 am 109 OLCOTT SJ10
03/17/2014 8:46 am 101 41 SJ18
03/17/2014 8:12 am 96 41 SJ10
03/17/2014 7:43 am 41 WALL SJ10
03/17/2014 7:19 am 97 41 SJ10
03/17/2014 7:04 am 97 41 SJ10
03/17/2014 6:36 am LCHS SJ10
03/17/2014 6:20 am 86 41 SJ10
03/17/2014 6:11 am 86 41 SJ10
03/17/2014 1:41 am W 93RD AV & WICKER AV SJ17 41.449967 -87.470171
03/17/2014 12:14 am W 101ST AV & CALUMET AV SJ17 41.435635 -87.508349
03/17/2014 12:11 am 9600 WICKER AV SJ21 41.443973 -87.470069
03/16/2014 7:28 pm 8400 WICKER AV SJ17 41.464281 -87.470364
03/16/2014 7:12 pm 8801 WICKER AV; KOLLING SCHOOL SJ17 41.458933 -87.470299
03/16/2014 3:50 pm W 109TH AV & WHITE OAK AV SJ19 41.421258 -87.489398
03/16/2014 3:38 pm W 109TH AV & WHITE OAK AV SJ19 41.421258 -87.489398
03/16/2014 3:15 pm 8575 WICKER AV; SPEEDWAY SJ19 41.461959 -87.470344
03/16/2014 10:56 am 88 41 SJ14
03/16/2014 10:00 am SPEEDWAY SJ19
03/16/2014 9:44 am 82 41 SJ14
03/16/2014 9:35 am 89 41 SJ19
03/16/2014 9:26 am 95 41 SJ19
03/16/2014 6:59 am 112 41 SJ23
03/16/2014 6:48 am 109 MANOR SJ23
03/16/2014 6:08 am 9100 COLUMBIA AV SJ23 41.455414 -87.498780
03/16/2014 3:11 am 10400 CLINE AV SJ4 41.430815 -87.431173
03/16/2014 12:50 am W 93RD AV & PARK DR SJ21 41.450259 -87.459438
03/15/2014 9:04 pm 8500 WICKER AV SJ22 41.462715 -87.470350
03/15/2014 8:49 pm 8100 WICKER AV SJ22 41.471886 -87.470393
03/15/2014 8:45 pm JOLIET ST & INDUSTRIAL DR SJ4 41.443788 -87.464124
03/15/2014 8:40 pm W 85TH AV & WICKER AV SJ22 41.462715 -87.470350
03/15/2014 8:23 pm 8575 WICKER AV; SPEEDWAY SJ17 41.461959 -87.470344
03/15/2014 8:12 pm W 85TH AV & MARQUETTE RD SJ4 41.464263 -87.441366
03/15/2014 6:08 pm WICKER AV & KELLY DR SJ21 41.462025 -87.470344
03/15/2014 6:00 pm 9400 WICKER AV SJ17 41.447998 -87.470142
03/15/2014 5:12 pm TCU SJ21
03/15/2014 3:38 pm W 109TH AV & WHITE OAK AV SJ19 41.421258 -87.489398
03/15/2014 3:27 pm W 102ND AV & WHITE OAK AV SJ19 41.433370 -87.489295
03/15/2014 1:48 pm W 93RD AV & HILLTOP DR SJ19 41.450000 -87.487793
03/15/2014 11:59 am SJ23 CIT
03/15/2014 11:47 am 9700 WICKER AV SJ23 41.443089 -87.470050 CIT
03/15/2014 11:24 am 9600 WICKER AV SJ19 41.443973 -87.470069 CIT
03/15/2014 10:45 am 9321 WICKER AV; STANDARD BANK AND TRUST SJ23 41.449554 -87.470165 CIT
03/15/2014 9:15 am 95 41 SJ10 WW
03/15/2014 9:06 am 11700 WICKER AV SJ10 41.406558 -87.470069
03/15/2014 8:52 am 9500 WICKER AV SJ10 41.445991 -87.470111 CIT
03/15/2014 8:08 am JOLIET ST & WICKER AV SJ10 41.447742 -87.470138 CIT
03/15/2014 7:50 am 9200 WICKER AV SJ10 41.453592 -87.470222 WW
03/15/2014 7:44 am 8800 WICKER AV SJ10 41.458947 -87.470300 VW
03/15/2014 7:20 am 8500 WICKER AV SJ10 41.462715 -87.470350 CIT
03/15/2014 7:07 am 9500 WICKER AV SJ10 41.445991 -87.470111 CIT
03/15/2014 6:49 am 7700 WICKER AV SJ10 41.478956 -87.470527 WW
03/15/2014 6:37 am 8200 WICKER AV SJ10 41.469318 -87.470392 WW
03/15/2014 6:23 am 8600 WICKER AV SJ10 41.461624 -87.470339 CIT
03/15/2014 6:14 am 9200 WICKER AV SJ10 41.453592 -87.470222 WW
03/15/2014 3:23 am WICKER AV; 10100 BLK SJ4 41.422054 -87.470096
03/15/2014 2:24 am W 109TH AV & WICKER AV SJ17 41.421149 -87.470100
03/15/2014 2:22 am 7967 WICKER AV SJ21 41.472678 -87.470399 VW
03/15/2014 12:55 am W 109TH AV & CALUMET AV SJ17 41.421141 -87.508266
03/15/2014 12:27 am 9100 WICKER AV SJ17 41.454931 -87.470241
03/14/2014 8:53 pm 10255 WICKER AV; ALSIP HOME NURSERY SJ21 41.432984 -87.470025
03/14/2014 8:47 pm W 109TH AV & E SCHNEIDER CT; US231 SJ23 41.421136 -87.467561
03/14/2014 7:29 pm 10400 W 93RD AV; VFW POST SJ21 41.449906 -87.463029
03/14/2014 6:48 pm 8800 WICKER AV SJ23 41.458947 -87.470300
03/14/2014 6:37 pm WALL ST & PATTERSON ST SJ23 41.452823 -87.472087
03/14/2014 6:20 pm 8100 US41 SJ23
03/14/2014 6:14 pm 8400 WICKER AV SJ23 41.464281 -87.470364
03/14/2014 4:02 pm 9200 W 93RD AV SJ19 41.450902 -87.453235
03/14/2014 3:59 pm W 93RD AV & PATTERSON ST SJ14 41.449971 -87.470688
03/14/2014 3:50 pm 8915 W 93RD AV; CLARK MIDDLE SCHOOL SJ19 41.449796 -87.443725
03/14/2014 12:40 pm 231 & SCHNEIDER PL SJ23
03/14/2014 11:54 am 97 & 41 SJ7
03/14/2014 11:11 am 9141 WICKER AV; ASPEN CAFE SJ14 41.454382 -87.470233
03/14/2014 10:55 am 97th & 41 - Fifth Third Bank SJ14
03/14/2014 10:41 am 8801 WICKER AV; KOLLING SCHOOL SJ22 41.458933 -87.470299
03/14/2014 10:23 am WALL ST & WICKER AV SJ22 41.453043 -87.470213
03/14/2014 9:52 am 9500 WICKER AV SJ22 41.445991 -87.470111
03/14/2014 9:33 am 9500 WICKER AV SJ22 41.445991 -87.470111
03/14/2014 7:33 am W 85TH AV & WICKER AV SJ22 41.462715 -87.470350
03/14/2014 7:20 am VENTURA DR & WICKER AV SJ22 41.464281 -87.470364
03/14/2014 6:59 am JOLIET ST & WICKER AV SJ22 41.447742 -87.470138
03/13/2014 11:41 pm PATTERSON ST & WALL ST SJ16 41.452823 -87.472087
03/13/2014 1:13 pm 101 WO SJ24
03/13/2014 1:00 pm 93 KIELMAN SJ24
03/13/2014 11:31 am 101 WO SJ24
03/13/2014 10:50 am 97 PHEASANT SJ24
03/13/2014 10:23 am PWP SJ24
03/13/2014 10:14 am 97 wo SJ24
03/13/2014 9:27 am 8400 41 SJ10
03/13/2014 9:05 am PWP SJ24
03/12/2014 8:49 pm W 109TH AV & CALUMET AV SJ16 41.421141 -87.508266
03/12/2014 8:43 am 9285 WICKER AV; JJS PETRO SJ10 41.450826 -87.470183
03/12/2014 12:04 am 108TH PL & OLCOTT AV SJ17 41.422382 -87.481506
03/11/2014 3:59 pm STRACKS SJ21
03/11/2014 3:44 pm 85 PRIMROSE SJ14
03/11/2014 3:26 pm WALL PATTERSON SJ14
03/11/2014 2:39 pm WALL 41 SJ7
03/11/2014 2:31 pm KOLLING SJ7
03/11/2014 1:58 pm WALGREEN SJ7
03/11/2014 1:50 pm KOLLLING SJ13
03/11/2014 1:12 pm KOLLING SJ7
03/11/2014 1:04 pm 41 SCHILLING SJ7
03/11/2014 12:35 pm WALGREENS SJ7
03/11/2014 12:29 pm SJX SJ7
03/11/2014 11:57 am SJX SJ7
03/11/2014 11:54 am 86 41 SJ7
03/11/2014 11:44 am wall 41 SJ7
03/11/2014 11:01 am 85 41 SJ21
03/11/2014 10:45 am 82 41 XSJ11
03/11/2014 9:38 am KUBIAK SJ10
03/11/2014 9:29 am 231 41 SJ10
03/11/2014 9:16 am 231 41 SJ10
03/11/2014 9:00 am 41 S 231 SJ10
03/11/2014 8:45 am KUNIAKS SJ10
03/11/2014 8:34 am 231 41 SJ10
03/11/2014 8:11 am 41 KOLLING SJ21
03/11/2014 7:37 am 41 N/B MALL SJ10
03/11/2014 7:17 am 88 41 SJ10
03/11/2014 7:07 am LCHS LOT SJ13
03/11/2014 6:53 am 41 KOLLING SJ10
03/11/2014 6:29 am S/B SCHILLING SJ10
03/11/2014 6:20 am 41 ventura SJ10
03/11/2014 12:11 am 8575 WICKER AV; SPEEDWAY SJ19 41.461959 -87.470344
03/10/2014 11:57 pm 9400 WICKER AV SJ19 41.447998 -87.470142
03/10/2014 11:51 pm PD SJ19
03/10/2014 8:38 pm 8575 WICKER AV; SPEEDWAY SJ19 41.461959 -87.470344
03/10/2014 7:33 pm 10255 WICKER AV; ALSIP HOME NURSERY SJ19 41.432984 -87.470025
03/10/2014 7:27 pm 9700 WICKER AV SJ17 41.443089 -87.470050
03/10/2014 6:54 pm 8575 WICKER AV; SPEEDWAY SJ17 41.461959 -87.470344
03/10/2014 6:40 pm 7967 WICKER AV SJ19 41.472678 -87.470399
03/10/2014 6:25 pm SHERWOOD LAKE APTS SJ17
03/10/2014 5:59 pm 9270 WICKER AV; QUIZNOS SUB SUITE C SJ17 41.451746 -87.470195
03/10/2014 9:20 am KOLLING SJ10
03/10/2014 9:08 am 95 41 SJ10
03/10/2014 8:45 am 92 41 SJ10
03/10/2014 8:35 am SW LOT SJ10
03/10/2014 8:21 am 96 41 SJ10
03/10/2014 8:07 am 97 41 SJ10
03/10/2014 8:04 am D&D PARKING LOT SJ10
03/10/2014 7:53 am WALL WICKER SJ10
03/10/2014 7:07 am LC LOT SJ21
03/10/2014 6:29 am 97 41 SJ10
03/10/2014 6:25 am 96 41 SJ10
03/09/2014 8:12 pm W 101ST AV & BLUFF VIEW RD SJ24 41.435603 -87.505416
03/09/2014 7:52 pm W 85TH AV & WICKER AV SJ19 41.462715 -87.470350
03/09/2014 7:47 pm 10100 WICKER AV SJ12 41.436091 -87.469997
03/09/2014 7:29 pm W 93RD AV & BELMONT AV SJ24 41.449965 -87.483809
03/09/2014 7:24 pm W 85TH AV & WICKER AV SJ19 41.462715 -87.470350
03/09/2014 7:13 pm 8400 WICKER AV SJ19 41.464281 -87.470364
03/09/2014 6:59 pm 9200 WICKER AV SJ19 41.453592 -87.470222
03/09/2014 6:58 pm BINGO LAKE & KOLLING SJ12
03/09/2014 6:32 pm 9270 WICKER AV; QUIZNOS SUB SUITE C SJ19 41.451746 -87.470195
03/09/2014 6:21 pm 8900 WICKER AV; SCHILLING LUMBER SJ19 41.457608 -87.470280
03/09/2014 6:07 pm W 82ND LN & WICKER AV SJ19 41.469318 -87.470392
03/09/2014 5:58 pm W 101ST AV & WHITE OAK AV SJ24 41.435563 -87.489287
03/09/2014 5:50 pm 9461 WICKER AV; DAIRY QUEEN SJ19 41.446774 -87.470123
03/09/2014 5:08 pm W 85TH AV & WICKER AV SJ19 41.462715 -87.470350
03/09/2014 4:58 pm W 93RD AV & PATTERSON ST SJ19 41.449971 -87.470688
03/09/2014 4:42 pm 8400 WICKER AV SJ19 41.464281 -87.470364
03/09/2014 10:13 am 109 MANOR SJ16
03/09/2014 9:07 am 86 41 SJ7
03/09/2014 9:03 am TCU SJ7
03/09/2014 8:57 am KOLLING SJ7
03/09/2014 8:11 am 85 41 SJ7
03/09/2014 8:04 am SJX SJ7
03/09/2014 7:18 am WALGREENS SJ7
03/09/2014 7:12 am LIBRARY LOT SJ7
03/09/2014 7:03 am wall 41 SJ7
03/09/2014 6:58 am WALL 41 SJ7
03/09/2014 6:45 am pwp SJ7
03/09/2014 6:21 am 85 41 SJ7
03/09/2014 6:12 am kolling 41 SJ7
03/09/2014 6:09 am school 41 SJ7
03/09/2014 12:16 am 10630 WICKER AV; SHRINE OF CHRISTS PASSI SJ24 41.426185 -87.470075 VW
03/08/2014 10:23 pm W 93RD AV & HILLTOP DR SJ24 41.450000 -87.487793 CIT
03/08/2014 10:21 pm white oak & rosewood SJ24 VW
03/08/2014 10:08 pm ice arena SJ24
03/08/2014 9:54 pm WALL ST & WICKER AV SJ18 41.453043 -87.470213 CIT
03/08/2014 9:35 pm W 109TH AV & HILLCREST LN SJ18 41.421205 -87.496638
03/08/2014 8:47 pm W 109TH AV & CALUMET AV SJ360 41.421141 -87.508266
03/08/2014 7:59 pm 10100 WICKER AV SJ12 41.436091 -87.469997
03/08/2014 7:21 pm 9200 WICKER AV SJ17 41.453592 -87.470222
03/08/2014 7:12 pm 9407 WICKER AV; DUNKIN DONUTS SJ360 41.447861 -87.470140
03/08/2014 6:54 pm PALMIRA GOLF COURSE SJ24
03/08/2014 6:23 pm W 93RD AV & COLUMBIA AV SJ24 41.450881 -87.500558
03/08/2014 6:21 pm 9270 WICKER AV; QUIZNOS SUB SUITE C SJ17 41.451746 -87.470195
03/08/2014 5:58 pm 8900 WICKER AV; SCHILLING LUMBER SJ17 41.457608 -87.470280
03/08/2014 5:46 pm 8200 WICKER AV SJ17 41.469318 -87.470392
03/08/2014 5:32 pm 9285 WICKER AV; JJS PETRO SJ17 41.450826 -87.470183
03/08/2014 5:23 pm WALL ST & WICKER AV SJ17 41.453043 -87.470213
03/08/2014 5:07 pm 9600 WICKER AV SJ17 41.443973 -87.470069
03/08/2014 4:46 pm LC PLAZA SJ17
03/08/2014 4:34 pm 8200 WICKER AV SJ17 41.469318 -87.470392
03/08/2014 4:28 pm W SPRINGHILL DR & W 93RD AV SJ22 41.450726 -87.458538
03/08/2014 4:26 pm 9270 WICKER AV; QUIZNOS SUB SUITE C SJ17 41.451746 -87.470195
03/08/2014 4:19 pm 8801 WICKER AV; KOLLING SCHOOL SJ17 41.458933 -87.470299
03/08/2014 3:22 pm 11700 W 93RD AV; PRAIRIE WEST PARK SJ22 41.449987 -87.476751
03/08/2014 10:52 am WICKER AV & W 95TH AV SJ22 41.446031 -87.470111
03/08/2014 10:37 am 8400 WICKER AV SJ22 41.464281 -87.470364
03/08/2014 10:21 am W 109TH AV & WICKER AV SJ22 41.421149 -87.470100
03/08/2014 9:58 am W 93RD AV & WICKER AV SJ22 41.449967 -87.470171
03/08/2014 9:11 am 9400 JOLIET ST SJ7 41.441165 -87.450616
03/08/2014 8:35 am 9280 WICKER AV; WALGREENS #4276 SJ7 41.451133 -87.470187
03/08/2014 8:27 am 8801 WICKER AV; KOLLING SCHOOL SJ7 41.458933 -87.470299
03/08/2014 8:09 am 8900 WICKER AV; SCHILLING LUMBER SJ7 41.457608 -87.470280
03/08/2014 8:01 am W 77TH AV & WICKER AV SJ7 41.478956 -87.470527
03/08/2014 7:52 am ST JOHN CROSSING SJ7
03/08/2014 7:08 am PARK PL & W 109TH AV SJ22 41.420989 -87.441287
03/08/2014 7:03 am SJ7
03/08/2014 6:32 am SJ7
03/08/2014 6:23 am 8801 WICKER AV; KOLLING SCHOOL SJ7 41.458933 -87.470299
03/08/2014 6:13 am CROSSINGS SJ7
03/08/2014 6:06 am W 93RD AV & PATTERSON ST SJ7 41.449971 -87.470688
03/08/2014 12:46 am 8200 WICKER AV SJ24 41.469318 -87.470392
03/07/2014 10:54 pm WICKER AV; 11000 BLK SJ24 41.337327 -87.469614
03/07/2014 10:23 pm W 109TH AV & HILLCREST LN SJ18 41.421205 -87.496638
03/07/2014 9:15 pm 9700 WICKER AV SJ24 41.443089 -87.470050
03/07/2014 9:09 pm 10200 WICKER AV SJ24 41.435026 -87.470008
03/07/2014 8:27 pm W 85TH AV & WICKER AV SJ24 41.462715 -87.470350
03/07/2014 7:58 pm 10700 WHITE OAK AV SJ18 41.425204 -87.489324
03/07/2014 7:57 pm W 109TH AV & MANOR DR SJ19 41.421247 -87.487135
03/07/2014 7:48 pm W 109TH AV & HILLCREST LN SJ19 41.421205 -87.496638
03/07/2014 7:46 pm 8575 WICKER AV; SPEEDWAY SJ24 41.461959 -87.470344
03/07/2014 7:19 pm W 85TH AV & WICKER AV SJ19 41.462715 -87.470350
03/07/2014 6:58 pm 9300 BLAINE ST SJ19 41.449720 -87.426537
03/07/2014 6:40 pm W 93RD AV & RENAISSANCE DR SJ19 41.449797 -87.446679
03/07/2014 6:24 pm W 109TH AV & OLCOTT AV SJ24 41.421214 -87.481530
03/07/2014 6:15 pm W 109TH AV & OLCOTT AV SJ24 41.421214 -87.481530
03/07/2014 6:10 pm US41 South OF US231 SJ24
03/07/2014 5:49 pm W 93RD AV & E SPRINGHILL DR SJ19 41.451293 -87.457447
03/07/2014 5:27 pm W 93RD AV & MARQUETTE ST SJ19 41.449792 -87.441074
03/07/2014 5:15 pm W 93RD AV & SCHAFER DR SJ19 41.449796 -87.442718
03/07/2014 5:00 pm W 93RD AV & CLINE AV SJ19 41.449743 -87.431354
03/07/2014 4:48 pm W 93RD AV & SCHAFER DR SJ19 41.449796 -87.442718
03/07/2014 4:15 pm W 93RD AV & MARQUETTE ST SJ19 41.449792 -87.441074
03/07/2014 4:12 pm PARRISH AV & W 85TH AV SJ22 41.464299 -87.451065
03/07/2014 2:11 pm 10600 WICKER AV SJ22 41.427299 -87.470069
03/07/2014 1:57 pm W 96TH AV & WICKER AV SJ22 41.443973 -87.470069 VW
03/07/2014 11:57 am JOLIET ST & WICKER AV SJ17 41.447742 -87.470138
03/07/2014 11:47 am 8500 WICKER AV SJ17 41.462715 -87.470350
03/07/2014 11:29 am W 109TH AV & HILLCREST LN SJ16 41.421205 -87.496638
03/07/2014 11:25 am 8400 WICKER AV SJ22 41.464281 -87.470364
03/07/2014 11:22 am 9280 WICKER AV; WALGREENS #4276 SJ17 41.451133 -87.470187
03/07/2014 11:05 am W 109TH AV & HILLCREST LN SJ16 41.421205 -87.496638
03/07/2014 10:54 am ST J0HN MALL SJ17
03/07/2014 10:42 am W 97TH LN & WICKER AV SJ17 41.441590 -87.470028
03/07/2014 8:51 am 8100 WICKER AV SJ22 41.471886 -87.470393
03/07/2014 8:37 am W 109TH AV & OLCOTT AV SJ16 41.421214 -87.481530
03/07/2014 8:27 am WALL ST & WICKER AV SJ22 41.453043 -87.470213
03/07/2014 7:41 am 8801 WICKER AV; KOLLING SCHOOL SJ7 41.458933 -87.470299
03/07/2014 7:25 am W 101ST AV & WICKER AV SJ7 41.437165 -87.469986
03/07/2014 7:17 am 8801 WICKER AV; KOLLING SCHOOL SJ7 41.458933 -87.470299
03/07/2014 6:51 am JOLIET ST & THIELEN ST SJ7 41.446138 -87.467390
03/07/2014 6:30 am W 95TH AV & WICKER AV SJ7 41.446031 -87.470111
03/07/2014 6:22 am 9280 WICKER AV; WALGREENS #4276 SJ7 41.451133 -87.470187
03/07/2014 6:01 am LC LOT SJ7
03/07/2014 5:54 am 8801 WICKER AV; KOLLING SCHOOL SJ7 41.458933 -87.470299
03/07/2014 4:27 am 8200 WICKER AV SJ19 41.469318 -87.470392
03/06/2014 11:51 pm THREE SPRINGS DR; 9900 BLK SJ19 41.439399 -87.456408
03/06/2014 10:12 pm 8200 WICKER AV SJ19 41.469318 -87.470392
03/06/2014 9:36 pm 9280 WICKER AV; WALGREENS #4276 SJ4 41.451133 -87.470187
03/06/2014 9:04 pm 8801 WICKER AV; KOLLING SCHOOL SJ4 41.458933 -87.470299
03/06/2014 7:44 pm W 101ST AV & WHITE OAK AV SJ19 41.435563 -87.489287
03/06/2014 2:19 pm 8200 WICKER AV SJ21 41.469318 -87.470392
03/06/2014 1:13 pm 97 41 SJ21
03/06/2014 1:08 pm 85 41 SJ7
03/06/2014 1:02 pm 94 JOL SJ7
03/06/2014 12:55 pm KOLLING SJ7
03/06/2014 12:50 pm SCHOOP SJ7
03/06/2014 12:24 pm WALL ST;41 SJ7
03/06/2014 12:13 pm SJ ANIMAL SJ7
03/06/2014 12:04 pm 231 41 SJ7
03/06/2014 12:00 pm 10630 WICKER AV; SHRINE OF CHRISTS PASSI SJ7 41.426185 -87.470075
03/06/2014 11:41 am KOLLING SJ7
03/06/2014 11:33 am 97 41 SJ7
03/06/2014 10:31 am 41 SJ7
03/06/2014 10:20 am 95 41 SJ7
03/06/2014 10:15 am WALGREENS SJ7
03/06/2014 9:28 am 109 HILLCREST SJ10
03/06/2014 9:15 am 231 41 SJ10
03/06/2014 9:03 am 86 41 SJ21
03/06/2014 9:03 am 231 41 SJ10
03/06/2014 8:47 am 231 41 SJ10
03/06/2014 8:35 am 231 41 SJ10
03/06/2014 8:17 am 109 HILLCREST SJ10
03/06/2014 7:54 am WALGREENS SJ10
03/06/2014 7:32 am 41 WALL SJ10
03/06/2014 7:04 am 97 41 SJ10
03/06/2014 6:49 am KOLLING SJ10
03/06/2014 6:37 am SJ LIQ SJ10
03/06/2014 6:25 am 95 41 SJ10
03/05/2014 10:48 pm 8600 WICKER AV SJ23 41.461624 -87.470339
03/05/2014 10:39 pm 8801 WICKER AV SJ23 41.458933 -87.470299
03/05/2014 10:38 pm 8400 WICKER AV SJ4 41.464281 -87.470364
03/05/2014 10:26 pm 7967 WICKER AV SJ23 41.472678 -87.470399
03/05/2014 10:12 pm 10100 WICKER AV SJ4 41.436091 -87.469997
03/05/2014 10:10 pm 11000 WICKER AV SJ23 41.420373 -87.470098
03/05/2014 9:39 pm 10800 CALUMET AV SJ23 41.419816 -87.508261
03/05/2014 9:28 pm W 109TH AV & HILLCREST LN SJ23 41.421205 -87.496638
03/05/2014 9:16 pm 231 & SCHNEIDER SJ23
03/05/2014 8:58 pm 108TH PL & MILLARD DR SJ23 41.421907 -87.488484
03/05/2014 8:46 pm CEDAR CREEK SJ23
03/05/2014 8:20 pm W 109TH AV & MANOR DR SJ23 41.421247 -87.487135
03/05/2014 7:56 pm W 109TH AV & OLCOTT AV SJ23 41.421214 -87.481530
03/05/2014 2:01 pm W 93RD AV & HILLTOP DR SJ23 41.450000 -87.487793
03/05/2014 12:21 pm SUBWAY SJ21
03/05/2014 9:25 am 231 41 SJ10
03/05/2014 9:02 am 231 41 SJ10
03/05/2014 8:41 am 231 41 SJ10
03/05/2014 8:20 am 108 OLCOTT SJ10
03/05/2014 8:06 am SJ10
03/05/2014 7:41 am PD LOT SJ10
03/05/2014 7:27 am SJ MALL SJ10
03/05/2014 7:15 am 85 41 SJ10
03/05/2014 6:49 am JOLIET INDUS SJ10
03/05/2014 6:41 am 95 41 SJ10
03/05/2014 6:21 am 87 41 SJ10
03/05/2014 4:10 am WICKER AV; 10100 BLK SJ22 41.422054 -87.470096
03/05/2014 3:48 am WICKER AV; 10900 BLK SJ22 41.422054 -87.470096
03/04/2014 9:07 pm ANIMAL CLINIC LOT SJ23
03/04/2014 8:47 pm WALL ST & WICKER AV SJ23 41.453043 -87.470213
03/04/2014 7:40 pm 11500 WICKER AV SJ23 41.416488 -87.470088
03/04/2014 7:30 pm W 109TH AV & HURON ST SJ23 41.421160 -87.472295
03/04/2014 7:15 pm W 109TH AV & ONTARIO ST SJ23 41.421154 -87.471273
03/04/2014 7:04 pm 10300 WICKER AV SJ23 41.431350 -87.470039
03/04/2014 6:50 pm 9700 WICKER AV SJ23 41.443089 -87.470050
03/04/2014 6:29 pm 9700 WICKER AV SJ23 41.443089 -87.470050
03/04/2014 6:21 pm ZIGIS PARKING LOT SJ23
03/04/2014 2:50 pm HEDWIG & BULLRUN SJ24
03/04/2014 2:39 pm W 97TH LN & HEDWIG AV SJ24 41.441070 -87.472398
03/04/2014 2:17 pm WALL ST & WICKER AV SJ17 41.453043 -87.470213
03/04/2014 2:09 pm WALL ST & WICKER AV SJ17 41.453043 -87.470213
03/04/2014 1:28 pm WALGREEN SJ17
03/04/2014 1:21 pm WALL 41 SJ17
03/04/2014 1:11 pm QUIZNO SJ17
03/04/2014 1:01 pm 96 41 SJ17
03/04/2014 12:51 pm WALL ST SJ17 41.452933 -87.471150
03/04/2014 12:41 pm 85 41 SJ17
03/04/2014 12:26 pm 9200 41 SJ17 41.454382 -87.470233
03/04/2014 12:17 pm 9270 WICKER AV; QUIZNOS SUB SUITE C SJ17 41.451746 -87.470195
03/04/2014 12:00 pm 9500 WICKER AV SJ17 41.445991 -87.470111
03/04/2014 11:50 am ANIMAL CLINIC SJ17
03/04/2014 8:11 am SJ MALL SJ24
03/04/2014 6:46 am 85 41 SJ24
03/04/2014 1:30 am E OAKWOOD DR & PATTERSON ST SJ22 41.459686 -87.478444
03/04/2014 1:19 am 9600 WICKER AV SJ22 41.443973 -87.470069
03/04/2014 1:09 am W 109TH AV & WICKER AV; US231 SJ16 41.421149 -87.470100
03/03/2014 11:14 pm INDUSTRIAL DR & JOLIET ST SJ22 41.443788 -87.464124
03/03/2014 11:01 pm martin landscape SJ22
03/03/2014 8:51 pm 8200 WICKER AV SJ22 41.469318 -87.470392
03/03/2014 6:30 pm 9700 KEILMAN ST SJ19 41.442845 -87.472427
03/03/2014 6:14 pm 9700 KEILMAN ST SJ19 41.442845 -87.472427
03/03/2014 6:06 pm 9700 KEILMAN ST SJ19 41.442845 -87.472427
03/03/2014 5:49 pm 9600 KEILMAN ST SJ19 41.444611 -87.472455
03/03/2014 5:03 pm 9700 KEILMAN ST SJ19 41.442845 -87.472427
03/03/2014 4:54 pm 9700 HEDWIG SJ19
03/03/2014 4:38 pm W 97TH LN & HEDWIG AV SJ19 41.441070 -87.472398
03/03/2014 4:30 pm 9600 KEILMAN ST SJ19 41.444611 -87.472455
03/03/2014 4:03 pm W 109TH AV; AT WHITE OAK SJ19 41.421213 -87.495438
03/03/2014 3:44 pm W 109TH AV; AT WHITE OAK SJ19 41.421213 -87.495438
03/03/2014 3:32 pm W 109TH AV; AT MANOR DR SJ19 41.421213 -87.495438
03/03/2014 2:11 pm W 93RD AV & HILLTOP DR SJ24 41.450000 -87.487793
03/03/2014 12:42 pm 231 41 S/B SJ10
03/03/2014 11:16 am 85 PARRISH SJ24
03/03/2014 10:14 am 9800 ROSEWOOD SJ24
03/03/2014 9:20 am SJ X SJ7
03/03/2014 9:12 am PD LOT SJ7
03/03/2014 8:45 am sj x SJ7
03/03/2014 8:37 am JJ'S SJ7
03/03/2014 8:24 am STRACKS SJ7
03/03/2014 8:09 am MM SJ7
03/03/2014 7:59 am DQ SJ7
03/03/2014 7:49 am KOLLING SJ7
03/03/2014 7:05 am LCHS SJ10
03/03/2014 6:55 am 8801 WICKER AV; KOLLING SCHOOL SJ7 41.458933 -87.470299
03/03/2014 6:39 am 95 41 SJ7
03/03/2014 6:32 am behind walgreens SJ7
03/03/2014 3:56 am LIBRARY SJ17
03/03/2014 2:11 am 9200 WICKER AV SJ19 41.453592 -87.470222
03/03/2014 12:45 am W 109TH AV & FORESTDALE ST SJ17 41.421168 -87.473684
03/02/2014 8:12 pm W 89TH PL & COLUMBIA AV SJ23 41.456680 -87.498822
03/02/2014 7:59 pm 9425 WICKER AV; MIGHTY MIKES SJ17 41.447516 -87.470135
03/02/2014 7:41 pm WICKER AV & KELLY DR SJ23 41.462025 -87.470344
03/02/2014 7:36 pm 9200 WICKER AV SJ19 41.453592 -87.470222
03/02/2014 7:07 am 41 96 SJ7
03/02/2014 6:13 am sw SJ7
03/02/2014 3:07 am 9200 WICKER AV SJ19 41.453592 -87.470222
03/02/2014 2:43 am 108TH PL & MANOR DR SJ17 41.421912 -87.487135
03/01/2014 8:57 pm 10630 WICKER AV; SHRINE OF CHRISTS PASSI SJ19 41.426185 -87.470075
03/01/2014 5:28 pm W 93RD AV & SCHILLTON DR SJ17 41.450605 -87.496506
03/01/2014 1:20 pm SJ10 CIT
03/01/2014 1:11 pm W 109TH AV & WICKER AV SJ10 41.421149 -87.470100 WW
03/01/2014 12:56 pm W 109TH AV & WICKER AV SJ10 41.421149 -87.470100 CIT
03/01/2014 12:35 pm 10900 WCIKER SJ10
03/01/2014 12:22 pm SJ10
03/01/2014 10:32 am W 109TH AV & WICKER AV SJ10 41.421149 -87.470100
03/01/2014 10:21 am SJ10
03/01/2014 9:48 am 9400 WICKER AV SJ21 41.447998 -87.470142 CIT
03/01/2014 9:13 am SJ7 WW
03/01/2014 9:01 am SJ7 WW
03/01/2014 8:58 am SJ7 VW
03/01/2014 8:49 am SJ7 WW
03/01/2014 8:12 am SJ7 WW
03/01/2014 8:04 am 92 WICKER SJ7 WW
03/01/2014 7:58 am SJ7 WW
03/01/2014 7:28 am SJ7 CIT
03/01/2014 7:25 am SJ7 VW
03/01/2014 7:17 am SJ7 CIT
03/01/2014 7:08 am SJ7 CIT
03/01/2014 6:26 am SJ7 CIT
03/01/2014 6:15 am WALL ST & WICKER AV SJ7 41.453043 -87.470213 CIT
03/01/2014 6:04 am SJ CROSSING SJ7 CIT
03/01/2014 1:19 am 9500 WICKER AV SJ10 41.445991 -87.470111
03/01/2014 1:11 am W 93RD AV & HACK ST SJ10 41.449925 -87.465068
03/01/2014 12:49 am 10800 WICKER AV SJ17 41.422959 -87.470092
03/01/2014 12:44 am W 77TH AV & WICKER AV SJ10 41.478956 -87.470527
03/01/2014 12:30 am W 77TH AV & WICKER AV SJ10 41.478956 -87.470527
03/01/2014 12:17 am W 101ST AV & SHEFFIELD AV SJ19 41.435615 -87.517966 CIT
03/01/2014 12:13 am W 85TH AV & WICKER AV SJ10 41.462715 -87.470350
03/01/2014 12:03 am 9500 WICKER AV SJ10 41.445991 -87.470111
02/28/2014 11:52 pm 9200 WICKER AV SJ10 41.453592 -87.470222
02/28/2014 11:25 pm 231 & 41 SJ10
02/28/2014 11:03 pm 231 & 41 SJ10
02/28/2014 10:46 pm W 109TH & MANOR SJ10
02/28/2014 10:26 pm W 109TH & MANOR SJ10
02/28/2014 10:13 pm DIRST MERCHANTS BANK SJ10
02/28/2014 10:02 pm WICKER AV; 10900 blk SJ10 41.422054 -87.470096
02/28/2014 8:17 pm JOLIET ST & WICKER AV SJ23 41.447742 -87.470138
02/28/2014 6:58 pm 9200 WICKER AV SJ19 41.453592 -87.470222
02/28/2014 1:27 pm W 109TH AV & FORESTDALE ST SJ23 41.421168 -87.473684
02/28/2014 1:21 pm W 109TH AV & MANOR DR SJ23 41.421247 -87.487135
02/28/2014 1:06 pm W 101ST AV & WHITE OAK AV SJ23 41.435563 -87.489287
02/28/2014 11:31 am HERITAGE CHRISTIAN SCHOOL SJ21
02/28/2014 9:19 am W 109TH AV & OLCOTT AV SJ23 41.421214 -87.481530
02/28/2014 9:15 am W 109TH AV & OLCOTT AV SJ23 41.421214 -87.481530
02/28/2014 9:08 am W 109TH AV & OLCOTT AV SJ23 41.421214 -87.481530
02/28/2014 8:58 am W 109TH AV & OLCOTT AV SJ23 41.421214 -87.481530
02/28/2014 8:51 am 10800 WICKER AV SJ23 41.422959 -87.470092
02/28/2014 8:20 am W 109TH AV & OLCOTT AV SJ23 41.421214 -87.481530
02/28/2014 8:08 am W 109TH AV & WHITE OAK AV SJ23 41.421258 -87.489398
02/28/2014 7:51 am CEDAR CREEK GOLF SJ23
02/28/2014 7:30 am W 109TH AV & OLCOTT AV SJ23 41.421214 -87.481530
02/28/2014 6:29 am PATTERSON ST & FORREST DR SJ21 41.458455 -87.478144
02/28/2014 2:23 am 10630 WICKER AV SJ22 41.426185 -87.470075
02/27/2014 10:42 pm W 85TH AV & ALEXANDER ST SJ22 41.464367 -87.465541
02/27/2014 10:25 pm 10500 WICKER AV SJ22 41.428395 -87.470062
02/27/2014 10:10 pm 8300 WICKER AV SJ22 41.466787 -87.470378
02/27/2014 2:17 pm JOLIET ST & THIELEN ST SJ7 41.446138 -87.467390
02/27/2014 12:03 pm SJ MALL SJ7
02/27/2014 10:04 am 109 CORNERSTONE SJ18
02/27/2014 9:32 am 93 MONIX SJ24
02/27/2014 9:20 am 14400 101 SJ24
02/27/2014 9:07 am 101 WO SJ24
02/27/2014 8:29 am 109 OLCOTT SJ18
02/27/2014 8:27 am 93 HILLTOP SJ24
02/27/2014 7:31 am 9500 WO SJ24
02/27/2014 7:01 am 101 WO SJ24
02/27/2014 6:46 am 10000 41 SJ18
02/27/2014 3:00 am 11000 WICKER AV SJ22 41.420373 -87.470098
02/27/2014 2:18 am 8100 WICKER AV SJ22 41.471886 -87.470393
02/27/2014 1:59 am 8100 WICKER AV SJ22 41.471886 -87.470393
02/27/2014 1:38 am 10630 WICKER AV SJ22 41.426185 -87.470075
02/27/2014 12:50 am 9400 WICKER AV SJ22 41.447998 -87.470142
02/27/2014 12:04 am W 101ST AV & CALUMET AV SJ22 41.435635 -87.508349
02/26/2014 10:44 pm 9400 WICKER AV SJ22 41.447998 -87.470142
02/26/2014 10:27 pm 10630 WICKER AV SJ22 41.426185 -87.470075
02/26/2014 12:19 pm 93 SCHILLTON SJ24
02/26/2014 11:20 am 93 COLUMBIA SJ24
02/26/2014 6:20 am 231 park SJ24
02/25/2014 10:34 pm W 93RD AV & SCHAFER DR SJ21 41.449796 -87.442718
02/25/2014 9:07 pm W 85TH AV & FAIRWAY DR SJ23 41.464359 -87.463697
02/25/2014 7:43 pm 8300 WICKER AV SJ17 41.466787 -87.470378
02/25/2014 7:34 pm 8496 WICKER AV; TACO BELL SJ17 41.462763 -87.470351
02/25/2014 7:16 pm 9500 41 SJ17
02/25/2014 2:25 pm W 109TH AV & HILLCREST LN SJ19 41.421205 -87.496638
02/25/2014 2:11 pm W 109TH AV & HILLCREST LN SJ19 41.421205 -87.496638
02/25/2014 1:58 pm 109TH & HERON SJ19
02/25/2014 1:38 pm 109 WO SJ19
02/25/2014 4:50 am WICKER AV & W 109TH AV; US231 SJ4 41.421149 -87.470100
02/25/2014 12:13 am 9400 OLCOTT AV SJ23 41.449025 -87.480210
02/24/2014 11:27 pm 10200 CLINE AV SJ23 41.435299 -87.431161
02/24/2014 10:11 pm 8575 WICKER AV; SPEEDWAY SJ21 41.461959 -87.470344
02/24/2014 9:06 pm 9885 WICKER AV; TARGET SJ23 41.439647 -87.470007
02/24/2014 8:51 pm 10255 WICKER AV SJ21 41.432984 -87.470025
02/24/2014 8:18 pm 8400 41 SJ21
02/24/2014 6:38 pm 8500 41 SJ17
02/24/2014 3:51 pm 9100 W 93RD AV SJ19 41.450808 -87.452756
02/24/2014 3:06 pm W 93RD AV & MALLARD COVE SJ19 41.449778 -87.436813
02/24/2014 2:55 pm W 93RD AV & SCHAFER DR SJ19 41.449796 -87.442718
02/24/2014 1:27 pm 92 MONIX SJ19
02/24/2014 10:51 am 111 SJ7
02/24/2014 4:00 am 9369 RENAISSANCE DR SJ22 41.448371 -87.446652
02/24/2014 2:46 am WICKER AV & W 93RD AV SJ22 41.449967 -87.470171
02/24/2014 2:31 am W 101ST AV & WICKER AV SJ22 41.437165 -87.469986
02/24/2014 2:03 am 9100 WICKER AV SJ22 41.454931 -87.470241
02/24/2014 1:42 am OLCOTT AV & W 109TH AV SJ22 41.421214 -87.481530
02/24/2014 1:25 am HILLCREST LN & W 109TH AV SJ22 41.421205 -87.496638
02/24/2014 12:10 am 8801 WICKER AV SJ22 41.458933 -87.470299
02/24/2014 12:05 am 10255 WICKER AV; ALSIP HOME NURSERY SJ22 41.432984 -87.470025
02/23/2014 11:31 pm PD SJ22
02/23/2014 1:45 am 10630 WICKER AV SJ22 41.426185 -87.470075
02/23/2014 1:30 am 8200 WICKER AV SJ22 41.469318 -87.470392
02/22/2014 11:55 pm W 101ST AV & PARRISH AV SJ22 41.441165 -87.450616
02/22/2014 11:22 pm W 85TH AV & PATTERSON ST SJ22 41.464506 -87.481488 VW
02/22/2014 11:08 pm 11033 W 93RD AV SJ16 41.449958 -87.469145
02/22/2014 10:02 pm 9700 WICKER AV SJ22 41.443089 -87.470050
02/22/2014 3:13 am 7900 WICKER AV SJ16 41.473644 -87.470406
02/22/2014 2:48 am 9155 WICKER AV SJ22 41.454195 -87.470230
02/22/2014 2:13 am W 93RD AV & PATTERSON ST SJ22 41.449971 -87.470688
02/22/2014 2:06 am 9700 WICKER AV SJ364 41.443089 -87.470050
02/22/2014 1:45 am 10808 WICKER AV SJ364 41.422813 -87.470092
02/22/2014 1:44 am W 109TH AV & WICKER AV SJ16 41.421149 -87.470100
02/22/2014 1:34 am 9700 KEILMAN ST SJ22 41.442845 -87.472427
02/22/2014 1:31 am 11400 WICKER AV SJ16 41.417265 -87.470090
02/22/2014 1:30 am W 93RD AV & BELMONT AV SJ24 41.449965 -87.483809
02/22/2014 1:13 am W 109TH AV; 13500 BLK SJ16 41.421213 -87.495438
02/22/2014 12:53 am 8575 WICKER AV SJ22 41.461959 -87.470344
02/22/2014 12:48 am 7967 WICKER AV SJ22 41.472678 -87.470399
02/22/2014 12:40 am 11400 W 93RD AV SJ16 41.449981 -87.472491
02/22/2014 12:21 am 8200 WICKER AV SJ22 41.469318 -87.470392
02/22/2014 12:10 am 8801 WICKER AV SJ22 41.458933 -87.470299
02/21/2014 10:35 pm 9600 WICKER AV SJ22 41.443973 -87.470069
02/21/2014 7:31 pm W 93RD AV & DEODOR ST SJ24 41.450808 -87.452756
02/21/2014 6:25 pm W 85TH AV & ALEXANDER ST SJ22 41.464367 -87.465541
02/21/2014 12:20 am 9270 WICKER AV SJ17 41.451746 -87.470195
02/21/2014 12:17 am WICKER AV & SCHOOL ST SJ21 41.447742 -87.470138
02/20/2014 11:11 pm 9285 WICKER AV SJ17 41.450826 -87.470183
02/20/2014 10:57 pm JOLIET ST & THREE SPRINGS DR SJ4 41.442090 -87.456412
02/20/2014 10:37 pm 9500 WICKER AV SJ4 41.445991 -87.470111
02/20/2014 10:32 pm WICKER AV & WALL ST SJ4 41.453043 -87.470213
02/20/2014 10:20 pm WICKER AV; 11000 BLK SJ23 41.422054 -87.470096
02/20/2014 10:14 pm 231 & CLINE SJ4
02/20/2014 10:02 pm 9500 WICKER AV SJ21 41.445991 -87.470111
02/20/2014 9:13 pm W 101ST AV & CLARK RD SJ23 41.435083 -87.392434
02/20/2014 8:45 pm 8445 WICKER AV; HANDS ON CAR WASH SJ21 41.463570 -87.470358
02/20/2014 8:29 pm STAN'S SJ21
02/20/2014 8:04 pm W 85TH AV & WICKER AV SJ17 41.462715 -87.470350
02/20/2014 12:49 am 8200 WICKER AV SJ17 41.469318 -87.470392
02/19/2014 10:28 pm 9500 WICKER AV SJ4 41.445991 -87.470111
02/19/2014 10:06 pm W 85TH AV & WICKER AV SJ21 41.462715 -87.470350
02/19/2014 8:52 pm 11600 WICKER AV SJ4 41.411508 -87.470077
02/19/2014 7:46 pm 8400 WICKER AV SJ17 41.464281 -87.470364
02/19/2014 7:24 pm W 102ND AV & WHITE OAK AV SJ23 41.433370 -87.489295
02/19/2014 12:04 am 85TH & ALEXANDER SJ22
02/18/2014 11:35 pm 93RD & HILLTOP SJ22
02/18/2014 9:55 pm 9200 WICKER AV SJ22
02/18/2014 7:24 pm 107TH & BURGESS WAY SJ22
02/18/2014 12:03 pm TOWN HALL XSJ11
02/18/2014 11:59 am CORNERSTONE CHURCH SJ16
02/18/2014 11:37 am 101st av & 41 SJ16
02/18/2014 3:48 am 8200 wicker SJ22 VW
02/18/2014 3:09 am parrish & 109th SJ22 VW
02/17/2014 4:40 pm HEDWIG & OLCOTT SJ13
02/17/2014 8:46 am WALGREENS SJ7
02/17/2014 8:05 am 109TH LANDHEIM SJ16
02/17/2014 1:26 am 93 & US41 SJ17
02/17/2014 12:50 am 9600 US41 SJ17
02/16/2014 7:35 pm 10300 41 SJ17
02/16/2014 4:10 pm 93RD & HILLTOP SJ19
02/16/2014 3:47 pm 101ST & WHITE OAK SJ19
02/15/2014 8:13 pm 85TH & 41 SJ17 VW
02/15/2014 7:49 pm JJ'S SJ21 VW
02/15/2014 7:34 pm 9200 WICKER SJ17 CIT
02/15/2014 1:50 pm PD LOT SJ19
02/15/2014 12:20 pm 93RD AND PATTERSON SJ19
02/15/2014 12:01 pm MIDWEST ICE ARENA SJ23
02/15/2014 11:43 am 9200 WICKER SJ19
02/15/2014 11:06 am 8400 WICKER SJ19
02/15/2014 7:56 am 101ST AND WHITE OAK SJ23
02/15/2014 7:41 am 93RD AND BELMONT SJ23
02/15/2014 2:05 am 93RD & PATTERSON SJ21
02/15/2014 1:21 am 109TH & ONTARIO SJ4
02/14/2014 11:24 pm 11400 WICKER AV SJ17
02/14/2014 10:46 pm 9000 WICKER AV SJ21
02/14/2014 8:47 pm 101ST & US41 SJ4
02/14/2014 8:10 pm JJ'S SJ4
02/14/2014 7:48 pm 82ND & US41 SJ21
02/14/2014 4:52 pm AL'S AUTO BODY SJ4
02/14/2014 1:25 pm 9844 PARRISH SJ23
02/14/2014 9:53 am WALL & PATTERSON SJ23
02/14/2014 8:19 am SPEEDWAY 101ST & SHEFFIELD SJ23
02/14/2014 7:55 am MIGHTY MIKES SJ19
02/14/2014 7:25 am WATER WORKS SJ7
02/13/2014 10:01 pm SJ24
02/13/2014 9:45 pm CLINE & 93RD SJ18
02/13/2014 8:33 pm 101ST & SADDLE CREEK SJ24
02/13/2014 10:43 am 9900 W 117 SJ16
02/13/2014 10:26 am 109 MANOR SJ16
02/12/2014 10:09 pm W 93RD AV & NORTHCOTE SJ18
02/12/2014 9:32 pm 109TH & FORESTDALE SJ18
02/12/2014 9:13 pm 93RD & SPRINGHILL SJ18
02/12/2014 7:02 pm 93RD & SHILLTON SJ24
02/12/2014 6:30 pm 101ST & WHI OAK SJ24
02/12/2014 2:20 pm 231 & 41 SJ16
02/12/2014 1:44 pm 231 41 BANK SJ16
02/12/2014 1:23 pm 109 HILLCREST SJ16
02/12/2014 1:08 pm 11200 41 SJ16
02/12/2014 10:50 am PATTERSON WALL SJ16
02/12/2014 2:03 am LONGSHOTS SJ17
02/11/2014 9:36 am 93 HILLTOP SJ23
02/11/2014 9:29 am 93 BELMONT SJ23
02/11/2014 12:24 am US41 & VENTURA SJ19
02/11/2014 12:01 am 85TH & US41 SJ19
02/10/2014 10:42 pm 85TH & US41 SJ19
02/10/2014 8:18 pm CROWN POINT CHRISTIAN SJ4
02/10/2014 8:00 pm 101ST & CALUMET SJ365
02/10/2014 7:19 pm W 93RD & DEODOR SJ365
02/10/2014 10:57 am 41 SCHOOL SJ21
02/10/2014 6:28 am 41 library SJ14
02/09/2014 9:21 pm 231 AND SCHNEIDER SJ18
02/09/2014 5:09 pm KELLY AND WICKER SJ16
02/09/2014 2:30 pm 97TH AND OAKRIDGE SJ24
02/09/2014 2:17 pm TARGET SJ22
02/09/2014 1:36 pm 8600 WICKER SJ22
02/09/2014 11:37 am 8600 WICKER SJ22
02/09/2014 8:40 am LOAN SOME PAWN SJ22
02/08/2014 3:54 pm BINGO LAKE & 41 SJ22
02/08/2014 12:24 pm PARRISH AND 109TH SJ22
02/08/2014 12:10 pm LIBRARY SJ22
02/08/2014 10:49 am 8341 CHRISTOPHER SJ22
02/08/2014 10:19 am 8300 WICKER SJ22
02/08/2014 9:00 am 93RD AND BLAINE SJ24
02/08/2014 8:42 am 231 AND PARK SJ24
02/08/2014 8:28 am 77TH AND WICKER SJ22
02/08/2014 8:17 am SHRINE SJ24
02/08/2014 7:48 am 8300 WICKER SJ22
02/07/2014 8:13 pm 11700 US41 SJ16
02/07/2014 7:47 pm US41 & KOLLING SJ18
02/07/2014 7:26 pm 101ST & EARL SJ12
02/07/2014 3:49 pm KELLY & VENTURA SJ22
02/07/2014 10:11 am 101ST & 41 SJ22
02/07/2014 6:02 am 93RD & 41 SJ22
02/06/2014 8:50 am 93 DEODOR SJ23
02/06/2014 7:06 am B&L DRYWALL JOLIET SJ7
02/04/2014 2:35 pm 12200 83RD SJ24
02/04/2014 2:25 pm KNICKERBOCKER & HERON LAKE SJ24
02/04/2014 2:15 pm HERON LAKE & OSAGE SJ24
02/04/2014 7:07 am 81 KNICKERBOCKER SJ24
02/04/2014 6:57 am 83 OSAGE SJ24
02/04/2014 6:42 am 85 patterson SJ24
02/04/2014 6:39 am 83 patterson SJ24
02/04/2014 6:26 am 85 41 SJ7
02/04/2014 6:17 am 83 patterson SJ24
02/04/2014 4:40 am northwoods SJ22 CIT
02/04/2014 4:29 am nORTHWOODS SJ22 CIT
02/04/2014 2:43 am 9700 wicker av SJ22 WW
02/04/2014 2:33 am wicker; kohling NB SJ364 VW
02/04/2014 2:28 am 97th & wicker av SJ16 WW
02/04/2014 1:37 am WICKER;lOT OF FUN SJ16
02/04/2014 1:21 am hack & 93rd SJ22 CIT
02/04/2014 12:43 am 8400 WICKER SJ22 VW
02/04/2014 12:39 am 231 & 41 SJ16 CIT
02/03/2014 10:18 pm 9600 wicker asv SJ364 WW
02/03/2014 8:56 pm 96TH & 41 SJ22
02/03/2014 8:48 pm 9700 41 SJ22
02/03/2014 2:14 pm WALGREENS LOT SJ24
02/01/2014 11:47 pm 11900 WICKER SJ14
02/01/2014 10:19 pm WICKER; 9300 BLK SJ360
02/01/2014 8:44 am RENN AND 93RD SJ9
01/31/2014 12:59 am JOLIET & THREE SPRINGS SJ22
01/30/2014 11:45 pm 10600 WICKER AV SJ22
01/30/2014 11:02 pm 82RD & PATTERSON SJ22
01/30/2014 10:58 pm 85TH & PATTERSON SJ22
01/30/2014 10:31 pm OLTHOF BUILDERS SJ22
01/30/2014 6:01 pm SJE LOT SJ22
01/30/2014 11:18 am 102 northcote SJ15
01/30/2014 10:45 am 90th ;schafer SJ15
01/30/2014 8:41 am 9000 marquette SJ18
01/30/2014 8:36 am SJ357
01/30/2014 8:35 am 11033 w 93rd av SJ357 VW
01/30/2014 8:35 am 11033 w 93rd av SJ357 WW
01/30/2014 8:34 am 11033 w 93rd av SJ357 CIT
01/30/2014 6:47 am SHRINE SJ24
01/30/2014 6:36 am 8700 WICKER SJ18
01/29/2014 7:39 pm 93RD & WHI OAK SJ16
01/29/2014 6:43 pm JJ'S SJ16
01/29/2014 6:15 am speedway SJ7
01/28/2014 11:24 pm 9700 WICKER AV SJ14
01/27/2014 9:52 pm elmwood SJ14
01/27/2014 9:08 pm 8400 41 SJ14
01/26/2014 3:10 am HILLCREST & 109TH SJ22
01/26/2014 2:48 am 10600 US41 SJ22
01/26/2014 1:14 am COLUMBIA & 93 SJ22
01/25/2014 3:00 pm 97TH & 41 SJ18
01/24/2014 7:56 pm SJ10 VW
01/24/2014 2:42 pm SJ24 VW
01/23/2014 10:29 pm 9200 WICKER AV SJ23
01/23/2014 10:19 pm 8100 WICKER AV SJ23
01/23/2014 10:16 pm 93RD & PATTERSON SJ21
01/23/2014 10:02 pm 7700 wicker av SJ23
01/23/2014 9:36 pm SPEEDWAY SJ21
01/23/2014 9:01 pm 9600 BLAINE SJ23
01/23/2014 8:05 pm 9200 COLUMBIA SJ23
01/23/2014 4:21 pm JOLIET & US41 SJ14
01/20/2014 6:21 pm ONTARIO & 108TH SJ22
01/20/2014 2:15 pm 9900 41 SJ16
01/20/2014 11:57 am CROSSINGS SJ7
01/20/2014 11:38 am NORTHWOODS SJ12
01/20/2014 11:03 am 10800 WICKER SJ16
01/20/2014 10:41 am 231 AND 41 SJ16
01/20/2014 2:04 am 97TH & US41 SJ21
01/20/2014 1:54 am 109TH & US41 SJ17
01/20/2014 1:43 am 85TH & US41 SJ21
01/19/2014 6:59 pm 102ND & WHITE OAK SJ17
01/19/2014 3:14 pm 9500 41 SJ19
01/19/2014 3:07 pm KOLLING LOT SJ19
01/19/2014 10:57 am BLUE 82 SJ14 CIT
01/19/2014 10:39 am 8200 WICKER SJ19 CIT
01/19/2014 12:01 am 8400 CLINE SJ23
01/18/2014 4:00 pm W 93RD & DEODOR SJ14
01/18/2014 11:08 am UHAUL SJ14
01/18/2014 10:14 am SNOWBERRY AND SCHILLTON SJ19
01/18/2014 12:31 am TULIP & HIBISCUS SJ23
01/18/2014 12:20 am 8400 WICKER ST SJ17
01/17/2014 11:03 pm 8400 WICKER AV SJ21
01/17/2014 11:00 pm 8400 WICKER AV SJ17
01/17/2014 10:44 pm 9550 WICKER AV SJ21
01/17/2014 10:31 pm 7700 WICKER AV SJ17
01/17/2014 7:17 pm TOWN HALL SJ21
01/17/2014 7:10 pm SPEEDWAY 8400 US41 SJ17
01/17/2014 6:52 pm WALGREENS SJ17
01/17/2014 3:16 pm 93RD & DEODOR SJ19
01/17/2014 2:59 pm 93RD & BLAINE SJ19
01/17/2014 10:47 am WALGREENS LOT SJ19
01/17/2014 7:42 am JJ'S LOT SJ7
01/17/2014 7:21 am 93RD & PATTERSON SJ19
01/16/2014 9:08 am 85 AUSTIN SJ10
01/15/2014 6:13 pm 109TH & OLCOTT SJ24
01/15/2014 12:08 pm 231 41 SJ16
01/15/2014 11:52 am 231 41 SJ16
01/14/2014 11:18 pm WICKER AV; 9500 BLK SJ21
01/14/2014 9:48 pm WICKER & SCHOOL SJ21
01/14/2014 9:24 am 77 41 SJ9
01/13/2014 7:17 pm WALL & PATTERSON SJ17
01/13/2014 6:35 pm W 85TH & 41 SJ17
01/13/2014 12:23 pm WALGREEN SJ23
01/13/2014 12:03 pm 93 mallard SJ23
01/12/2014 8:50 pm 11033 W 93RD SJ12
01/12/2014 8:07 pm 101ST & WHITE OAK SJ24
01/12/2014 4:13 pm W 93RD & HART SJ22
01/12/2014 2:18 pm LIBRARY LOT SJ22
01/11/2014 8:24 pm JOLIET & THIELEN SJ24
01/11/2014 7:56 pm W 93RD & CALUMET SJ24
01/11/2014 4:39 pm W 93RD & 41 SJ22
01/11/2014 4:24 pm 11700 W 93RD SJ22
01/10/2014 11:52 am 9600 41 SJ22
01/10/2014 11:30 am 8600 41 SJ22
01/09/2014 11:29 pm JOLIET & INDUSTRIAL SJ19
01/09/2014 12:44 pm VFW SJ7
01/08/2014 8:59 pm 8100 US4 SJ23
01/07/2014 10:24 am SCHOOL 41 SJ7
01/07/2014 7:37 am SJ MALL SJ24
01/06/2014 8:15 pm 85TH & MAGNOLIA SJ16
01/01/2014 7:48 am 41 VENTURA SJ24
01/01/2014 1:48 am 7700 WICKER AV SJ17
01/01/2014 1:26 am 8400 WICKER AV SJ21
01/01/2014 1:18 am RT 30 & 41 SJ17
01/01/2014 1:01 am 77TH WEST OF WICKER SJ17